<?xml version="1.0" encoding="UTF-8" standalone="no" ?>
<gpx xmlns="http://www.topografix.com/GPX/1/1" xmlns:xsi="http://www.w3.org/2001/XMLSchema-instance" xsi:schemaLocation="http://www.topografix.com/GPX/1/1 http://www.topografix.com/GPX/1/1/gpx.xsd" version="1.1" creator="VisuGPX - https://www.visugpx.com">
  <metadata>
    <name>2015-05-07 - Kaiserstuhl, Badberg, reconnaissance</name>
    <desc><![CDATA[2015-05-07 - Kaiserstuhl, Badberg, reconnaissance - Randonnée programmée le 12 août]]></desc>
  </metadata>
  <trk>
    <name><![CDATA[MAI-07-15 15:11:07]]></name>
    <trkseg>
      <trkpt lat="48.09264" lon="7.67347">
        <ele>244.31</ele>
        <time>2015-05-07T07:58:45Z</time>
      </trkpt>
      <trkpt lat="48.09265" lon="7.67348">
        <ele>246.72</ele>
        <time>2015-05-07T07:58:47Z</time>
      </trkpt>
      <trkpt lat="48.09265" lon="7.67349">
        <ele>249.12</ele>
        <time>2015-05-07T07:58:50Z</time>
      </trkpt>
      <trkpt lat="48.09265" lon="7.6735">
        <ele>252.48</ele>
        <time>2015-05-07T07:58:53Z</time>
      </trkpt>
      <trkpt lat="48.09265" lon="7.6735">
        <ele>252.48</ele>
        <time>2015-05-07T07:58:54Z</time>
      </trkpt>
      <trkpt lat="48.09266" lon="7.6735">
        <ele>255.37</ele>
        <time>2015-05-07T07:58:58Z</time>
      </trkpt>
      <trkpt lat="48.09265" lon="7.6735">
        <ele>255.85</ele>
        <time>2015-05-07T07:58:59Z</time>
      </trkpt>
      <trkpt lat="48.09261" lon="7.67347">
        <ele>257.29</ele>
        <time>2015-05-07T07:59:03Z</time>
      </trkpt>
      <trkpt lat="48.09258" lon="7.67345">
        <ele>291.9</ele>
        <time>2015-05-07T07:59:05Z</time>
      </trkpt>
      <trkpt lat="48.09257" lon="7.67344">
        <ele>291.9</ele>
        <time>2015-05-07T07:59:06Z</time>
      </trkpt>
      <trkpt lat="48.09256" lon="7.67342">
        <ele>291.42</ele>
        <time>2015-05-07T08:00:47Z</time>
      </trkpt>
      <trkpt lat="48.09256" lon="7.67334">
        <ele>292.38</ele>
        <time>2015-05-07T08:02:39Z</time>
      </trkpt>
      <trkpt lat="48.09254" lon="7.6734">
        <ele>292.86</ele>
        <time>2015-05-07T08:03:04Z</time>
      </trkpt>
      <trkpt lat="48.09251" lon="7.67343">
        <ele>291.9</ele>
        <time>2015-05-07T08:03:24Z</time>
      </trkpt>
      <trkpt lat="48.09251" lon="7.67343">
        <ele>292.38</ele>
        <time>2015-05-07T08:04:13Z</time>
      </trkpt>
      <trkpt lat="48.0925" lon="7.67355">
        <ele>291.9</ele>
        <time>2015-05-07T08:04:44Z</time>
      </trkpt>
      <trkpt lat="48.09247" lon="7.67369">
        <ele>292.38</ele>
        <time>2015-05-07T08:05:00Z</time>
      </trkpt>
      <trkpt lat="48.09246" lon="7.67369">
        <ele>291.42</ele>
        <time>2015-05-07T08:05:18Z</time>
      </trkpt>
      <trkpt lat="48.09246" lon="7.67369">
        <ele>291.9</ele>
        <time>2015-05-07T08:05:30Z</time>
      </trkpt>
      <trkpt lat="48.09246" lon="7.67373">
        <ele>292.38</ele>
        <time>2015-05-07T08:05:33Z</time>
      </trkpt>
      <trkpt lat="48.09247" lon="7.67378">
        <ele>293.34</ele>
        <time>2015-05-07T08:05:37Z</time>
      </trkpt>
      <trkpt lat="48.09246" lon="7.67382">
        <ele>292.38</ele>
        <time>2015-05-07T08:05:40Z</time>
      </trkpt>
      <trkpt lat="48.09247" lon="7.67404">
        <ele>288.05</ele>
        <time>2015-05-07T08:05:52Z</time>
      </trkpt>
      <trkpt lat="48.09247" lon="7.67406">
        <ele>292.86</ele>
        <time>2015-05-07T08:05:53Z</time>
      </trkpt>
      <trkpt lat="48.09248" lon="7.67409">
        <ele>293.82</ele>
        <time>2015-05-07T08:05:55Z</time>
      </trkpt>
      <trkpt lat="48.0925" lon="7.67423">
        <ele>292.38</ele>
        <time>2015-05-07T08:06:01Z</time>
      </trkpt>
      <trkpt lat="48.09251" lon="7.67429">
        <ele>296.7</ele>
        <time>2015-05-07T08:06:04Z</time>
      </trkpt>
      <trkpt lat="48.09253" lon="7.67434">
        <ele>292.86</ele>
        <time>2015-05-07T08:06:07Z</time>
      </trkpt>
      <trkpt lat="48.09254" lon="7.67435">
        <ele>292.86</ele>
        <time>2015-05-07T08:06:08Z</time>
      </trkpt>
      <trkpt lat="48.09256" lon="7.67441">
        <ele>297.18</ele>
        <time>2015-05-07T08:06:11Z</time>
      </trkpt>
      <trkpt lat="48.09259" lon="7.67449">
        <ele>292.86</ele>
        <time>2015-05-07T08:06:15Z</time>
      </trkpt>
      <trkpt lat="48.0926" lon="7.67454">
        <ele>296.22</ele>
        <time>2015-05-07T08:06:18Z</time>
      </trkpt>
      <trkpt lat="48.09262" lon="7.67458">
        <ele>297.67</ele>
        <time>2015-05-07T08:06:20Z</time>
      </trkpt>
      <trkpt lat="48.09262" lon="7.67462">
        <ele>294.3</ele>
        <time>2015-05-07T08:06:22Z</time>
      </trkpt>
      <trkpt lat="48.09263" lon="7.67465">
        <ele>290.46</ele>
        <time>2015-05-07T08:06:24Z</time>
      </trkpt>
      <trkpt lat="48.09264" lon="7.6747">
        <ele>296.22</ele>
        <time>2015-05-07T08:06:27Z</time>
      </trkpt>
      <trkpt lat="48.09265" lon="7.67473">
        <ele>296.7</ele>
        <time>2015-05-07T08:06:29Z</time>
      </trkpt>
      <trkpt lat="48.09267" lon="7.67483">
        <ele>293.82</ele>
        <time>2015-05-07T08:06:34Z</time>
      </trkpt>
      <trkpt lat="48.09267" lon="7.67484">
        <ele>294.3</ele>
        <time>2015-05-07T08:06:35Z</time>
      </trkpt>
      <trkpt lat="48.09267" lon="7.6749">
        <ele>298.15</ele>
        <time>2015-05-07T08:06:38Z</time>
      </trkpt>
      <trkpt lat="48.09268" lon="7.67491">
        <ele>299.11</ele>
        <time>2015-05-07T08:06:39Z</time>
      </trkpt>
      <trkpt lat="48.09269" lon="7.67497">
        <ele>296.22</ele>
        <time>2015-05-07T08:06:42Z</time>
      </trkpt>
      <trkpt lat="48.09271" lon="7.67504">
        <ele>296.7</ele>
        <time>2015-05-07T08:06:57Z</time>
      </trkpt>
      <trkpt lat="48.09271" lon="7.67507">
        <ele>293.82</ele>
        <time>2015-05-07T08:07:09Z</time>
      </trkpt>
      <trkpt lat="48.09271" lon="7.67511">
        <ele>297.18</ele>
        <time>2015-05-07T08:07:11Z</time>
      </trkpt>
      <trkpt lat="48.09272" lon="7.67515">
        <ele>298.63</ele>
        <time>2015-05-07T08:07:13Z</time>
      </trkpt>
      <trkpt lat="48.09272" lon="7.67519">
        <ele>297.67</ele>
        <time>2015-05-07T08:07:15Z</time>
      </trkpt>
      <trkpt lat="48.09272" lon="7.67521">
        <ele>292.38</ele>
        <time>2015-05-07T08:07:16Z</time>
      </trkpt>
      <trkpt lat="48.09271" lon="7.67523">
        <ele>293.82</ele>
        <time>2015-05-07T08:07:17Z</time>
      </trkpt>
      <trkpt lat="48.09271" lon="7.67525">
        <ele>296.7</ele>
        <time>2015-05-07T08:07:18Z</time>
      </trkpt>
      <trkpt lat="48.09272" lon="7.67529">
        <ele>299.59</ele>
        <time>2015-05-07T08:07:20Z</time>
      </trkpt>
      <trkpt lat="48.09273" lon="7.67535">
        <ele>295.74</ele>
        <time>2015-05-07T08:07:24Z</time>
      </trkpt>
      <trkpt lat="48.09273" lon="7.67539">
        <ele>292.86</ele>
        <time>2015-05-07T08:07:26Z</time>
      </trkpt>
      <trkpt lat="48.09273" lon="7.67543">
        <ele>291.9</ele>
        <time>2015-05-07T08:07:28Z</time>
      </trkpt>
      <trkpt lat="48.09274" lon="7.6755">
        <ele>296.7</ele>
        <time>2015-05-07T08:07:31Z</time>
      </trkpt>
      <trkpt lat="48.09274" lon="7.67553">
        <ele>299.59</ele>
        <time>2015-05-07T08:07:33Z</time>
      </trkpt>
      <trkpt lat="48.09274" lon="7.67567">
        <ele>296.22</ele>
        <time>2015-05-07T08:07:40Z</time>
      </trkpt>
      <trkpt lat="48.09274" lon="7.67573">
        <ele>292.38</ele>
        <time>2015-05-07T08:07:43Z</time>
      </trkpt>
      <trkpt lat="48.09276" lon="7.67586">
        <ele>296.22</ele>
        <time>2015-05-07T08:07:49Z</time>
      </trkpt>
      <trkpt lat="48.09277" lon="7.67603">
        <ele>298.63</ele>
        <time>2015-05-07T08:07:57Z</time>
      </trkpt>
      <trkpt lat="48.09279" lon="7.67615">
        <ele>300.55</ele>
        <time>2015-05-07T08:08:03Z</time>
      </trkpt>
      <trkpt lat="48.0928" lon="7.6762">
        <ele>301.99</ele>
        <time>2015-05-07T08:08:06Z</time>
      </trkpt>
      <trkpt lat="48.0928" lon="7.67624">
        <ele>302.95</ele>
        <time>2015-05-07T08:08:08Z</time>
      </trkpt>
      <trkpt lat="48.09279" lon="7.67644">
        <ele>302.95</ele>
        <time>2015-05-07T08:08:17Z</time>
      </trkpt>
      <trkpt lat="48.09279" lon="7.67651">
        <ele>299.11</ele>
        <time>2015-05-07T08:08:21Z</time>
      </trkpt>
      <trkpt lat="48.09279" lon="7.67657">
        <ele>295.26</ele>
        <time>2015-05-07T08:08:24Z</time>
      </trkpt>
      <trkpt lat="48.09279" lon="7.67658">
        <ele>295.74</ele>
        <time>2015-05-07T08:08:25Z</time>
      </trkpt>
      <trkpt lat="48.0928" lon="7.67664">
        <ele>301.03</ele>
        <time>2015-05-07T08:08:28Z</time>
      </trkpt>
      <trkpt lat="48.0928" lon="7.67666">
        <ele>301.51</ele>
        <time>2015-05-07T08:08:29Z</time>
      </trkpt>
      <trkpt lat="48.0928" lon="7.67673">
        <ele>303.91</ele>
        <time>2015-05-07T08:08:32Z</time>
      </trkpt>
      <trkpt lat="48.09281" lon="7.67679">
        <ele>296.7</ele>
        <time>2015-05-07T08:08:35Z</time>
      </trkpt>
      <trkpt lat="48.09281" lon="7.67681">
        <ele>296.7</ele>
        <time>2015-05-07T08:08:36Z</time>
      </trkpt>
      <trkpt lat="48.09281" lon="7.67685">
        <ele>295.74</ele>
        <time>2015-05-07T08:08:38Z</time>
      </trkpt>
      <trkpt lat="48.09281" lon="7.67692">
        <ele>298.15</ele>
        <time>2015-05-07T08:08:41Z</time>
      </trkpt>
      <trkpt lat="48.09282" lon="7.67699">
        <ele>299.59</ele>
        <time>2015-05-07T08:08:44Z</time>
      </trkpt>
      <trkpt lat="48.09284" lon="7.67703">
        <ele>301.99</ele>
        <time>2015-05-07T08:08:46Z</time>
      </trkpt>
      <trkpt lat="48.09285" lon="7.67718">
        <ele>304.39</ele>
        <time>2015-05-07T08:08:54Z</time>
      </trkpt>
      <trkpt lat="48.09285" lon="7.67727">
        <ele>300.55</ele>
        <time>2015-05-07T08:08:59Z</time>
      </trkpt>
      <trkpt lat="48.09285" lon="7.67729">
        <ele>301.51</ele>
        <time>2015-05-07T08:09:00Z</time>
      </trkpt>
      <trkpt lat="48.09285" lon="7.67734">
        <ele>296.7</ele>
        <time>2015-05-07T08:09:02Z</time>
      </trkpt>
      <trkpt lat="48.09285" lon="7.6774">
        <ele>299.59</ele>
        <time>2015-05-07T08:09:05Z</time>
      </trkpt>
      <trkpt lat="48.09286" lon="7.67744">
        <ele>301.99</ele>
        <time>2015-05-07T08:09:07Z</time>
      </trkpt>
      <trkpt lat="48.09286" lon="7.67747">
        <ele>305.36</ele>
        <time>2015-05-07T08:09:08Z</time>
      </trkpt>
      <trkpt lat="48.09286" lon="7.67749">
        <ele>304.88</ele>
        <time>2015-05-07T08:09:09Z</time>
      </trkpt>
      <trkpt lat="48.09288" lon="7.67759">
        <ele>299.11</ele>
        <time>2015-05-07T08:09:15Z</time>
      </trkpt>
      <trkpt lat="48.09288" lon="7.67761">
        <ele>299.11</ele>
        <time>2015-05-07T08:09:16Z</time>
      </trkpt>
      <trkpt lat="48.0929" lon="7.6777">
        <ele>302.95</ele>
        <time>2015-05-07T08:09:20Z</time>
      </trkpt>
      <trkpt lat="48.0929" lon="7.67773">
        <ele>306.8</ele>
        <time>2015-05-07T08:09:22Z</time>
      </trkpt>
      <trkpt lat="48.09291" lon="7.67774">
        <ele>306.8</ele>
        <time>2015-05-07T08:09:23Z</time>
      </trkpt>
      <trkpt lat="48.09292" lon="7.6778">
        <ele>301.51</ele>
        <time>2015-05-07T08:09:26Z</time>
      </trkpt>
      <trkpt lat="48.09294" lon="7.6779">
        <ele>304.88</ele>
        <time>2015-05-07T08:09:31Z</time>
      </trkpt>
      <trkpt lat="48.09295" lon="7.67792">
        <ele>307.76</ele>
        <time>2015-05-07T08:09:32Z</time>
      </trkpt>
      <trkpt lat="48.09296" lon="7.67794">
        <ele>306.32</ele>
        <time>2015-05-07T08:09:33Z</time>
      </trkpt>
      <trkpt lat="48.09296" lon="7.67798">
        <ele>300.55</ele>
        <time>2015-05-07T08:09:35Z</time>
      </trkpt>
      <trkpt lat="48.09298" lon="7.67808">
        <ele>305.84</ele>
        <time>2015-05-07T08:09:40Z</time>
      </trkpt>
      <trkpt lat="48.09298" lon="7.67809">
        <ele>305.84</ele>
        <time>2015-05-07T08:09:41Z</time>
      </trkpt>
      <trkpt lat="48.09299" lon="7.67811">
        <ele>302.47</ele>
        <time>2015-05-07T08:09:43Z</time>
      </trkpt>
      <trkpt lat="48.093" lon="7.67816">
        <ele>301.99</ele>
        <time>2015-05-07T08:09:46Z</time>
      </trkpt>
      <trkpt lat="48.093" lon="7.67822">
        <ele>309.2</ele>
        <time>2015-05-07T08:09:49Z</time>
      </trkpt>
      <trkpt lat="48.093" lon="7.67825">
        <ele>305.84</ele>
        <time>2015-05-07T08:09:50Z</time>
      </trkpt>
      <trkpt lat="48.09301" lon="7.67826">
        <ele>301.51</ele>
        <time>2015-05-07T08:09:51Z</time>
      </trkpt>
      <trkpt lat="48.09301" lon="7.67828">
        <ele>303.91</ele>
        <time>2015-05-07T08:09:52Z</time>
      </trkpt>
      <trkpt lat="48.09302" lon="7.67833">
        <ele>308.72</ele>
        <time>2015-05-07T08:09:55Z</time>
      </trkpt>
      <trkpt lat="48.09302" lon="7.67837">
        <ele>303.43</ele>
        <time>2015-05-07T08:09:57Z</time>
      </trkpt>
      <trkpt lat="48.09303" lon="7.67843">
        <ele>309.2</ele>
        <time>2015-05-07T08:10:00Z</time>
      </trkpt>
      <trkpt lat="48.09303" lon="7.67844">
        <ele>307.76</ele>
        <time>2015-05-07T08:10:01Z</time>
      </trkpt>
      <trkpt lat="48.09303" lon="7.67848">
        <ele>304.39</ele>
        <time>2015-05-07T08:10:03Z</time>
      </trkpt>
      <trkpt lat="48.09304" lon="7.67852">
        <ele>307.28</ele>
        <time>2015-05-07T08:10:05Z</time>
      </trkpt>
      <trkpt lat="48.09305" lon="7.67855">
        <ele>305.36</ele>
        <time>2015-05-07T08:10:07Z</time>
      </trkpt>
      <trkpt lat="48.09307" lon="7.67859">
        <ele>309.68</ele>
        <time>2015-05-07T08:10:10Z</time>
      </trkpt>
      <trkpt lat="48.09309" lon="7.67863">
        <ele>304.39</ele>
        <time>2015-05-07T08:10:12Z</time>
      </trkpt>
      <trkpt lat="48.09309" lon="7.67864">
        <ele>306.8</ele>
        <time>2015-05-07T08:10:13Z</time>
      </trkpt>
      <trkpt lat="48.09312" lon="7.67867">
        <ele>301.99</ele>
        <time>2015-05-07T08:10:16Z</time>
      </trkpt>
      <trkpt lat="48.09315" lon="7.67869">
        <ele>307.28</ele>
        <time>2015-05-07T08:10:18Z</time>
      </trkpt>
      <trkpt lat="48.09315" lon="7.6787">
        <ele>307.28</ele>
        <time>2015-05-07T08:10:19Z</time>
      </trkpt>
      <trkpt lat="48.09316" lon="7.67872">
        <ele>303.91</ele>
        <time>2015-05-07T08:10:20Z</time>
      </trkpt>
      <trkpt lat="48.09318" lon="7.67874">
        <ele>308.72</ele>
        <time>2015-05-07T08:10:22Z</time>
      </trkpt>
      <trkpt lat="48.09321" lon="7.67876">
        <ele>305.84</ele>
        <time>2015-05-07T08:10:25Z</time>
      </trkpt>
      <trkpt lat="48.09321" lon="7.67878">
        <ele>311.6</ele>
        <time>2015-05-07T08:10:26Z</time>
      </trkpt>
      <trkpt lat="48.09322" lon="7.6788">
        <ele>308.24</ele>
        <time>2015-05-07T08:10:27Z</time>
      </trkpt>
      <trkpt lat="48.09323" lon="7.67884">
        <ele>305.36</ele>
        <time>2015-05-07T08:10:29Z</time>
      </trkpt>
      <trkpt lat="48.09324" lon="7.67886">
        <ele>311.6</ele>
        <time>2015-05-07T08:10:30Z</time>
      </trkpt>
      <trkpt lat="48.09325" lon="7.67888">
        <ele>311.12</ele>
        <time>2015-05-07T08:10:31Z</time>
      </trkpt>
      <trkpt lat="48.09325" lon="7.6789">
        <ele>305.84</ele>
        <time>2015-05-07T08:10:32Z</time>
      </trkpt>
      <trkpt lat="48.09326" lon="7.67892">
        <ele>307.28</ele>
        <time>2015-05-07T08:10:33Z</time>
      </trkpt>
      <trkpt lat="48.09328" lon="7.67895">
        <ele>312.57</ele>
        <time>2015-05-07T08:10:35Z</time>
      </trkpt>
      <trkpt lat="48.09328" lon="7.67897">
        <ele>306.8</ele>
        <time>2015-05-07T08:10:36Z</time>
      </trkpt>
      <trkpt lat="48.09329" lon="7.67899">
        <ele>307.28</ele>
        <time>2015-05-07T08:10:37Z</time>
      </trkpt>
      <trkpt lat="48.0933" lon="7.67901">
        <ele>311.12</ele>
        <time>2015-05-07T08:10:38Z</time>
      </trkpt>
      <trkpt lat="48.09331" lon="7.67904">
        <ele>306.32</ele>
        <time>2015-05-07T08:10:40Z</time>
      </trkpt>
      <trkpt lat="48.09332" lon="7.67905">
        <ele>309.2</ele>
        <time>2015-05-07T08:10:41Z</time>
      </trkpt>
      <trkpt lat="48.09339" lon="7.67925">
        <ele>313.05</ele>
        <time>2015-05-07T08:10:54Z</time>
      </trkpt>
      <trkpt lat="48.0934" lon="7.67926">
        <ele>308.72</ele>
        <time>2015-05-07T08:10:55Z</time>
      </trkpt>
      <trkpt lat="48.0934" lon="7.67928">
        <ele>308.24</ele>
        <time>2015-05-07T08:10:56Z</time>
      </trkpt>
      <trkpt lat="48.0934" lon="7.67929">
        <ele>314.01</ele>
        <time>2015-05-07T08:10:57Z</time>
      </trkpt>
      <trkpt lat="48.09341" lon="7.67932">
        <ele>309.2</ele>
        <time>2015-05-07T08:10:58Z</time>
      </trkpt>
      <trkpt lat="48.09342" lon="7.67937">
        <ele>314.49</ele>
        <time>2015-05-07T08:11:01Z</time>
      </trkpt>
      <trkpt lat="48.09343" lon="7.67939">
        <ele>310.16</ele>
        <time>2015-05-07T08:11:02Z</time>
      </trkpt>
      <trkpt lat="48.09344" lon="7.67944">
        <ele>311.6</ele>
        <time>2015-05-07T08:11:05Z</time>
      </trkpt>
      <trkpt lat="48.09345" lon="7.67946">
        <ele>308.72</ele>
        <time>2015-05-07T08:11:06Z</time>
      </trkpt>
      <trkpt lat="48.09345" lon="7.67952">
        <ele>312.09</ele>
        <time>2015-05-07T08:11:09Z</time>
      </trkpt>
      <trkpt lat="48.09346" lon="7.67956">
        <ele>309.2</ele>
        <time>2015-05-07T08:11:11Z</time>
      </trkpt>
      <trkpt lat="48.09346" lon="7.67959">
        <ele>312.09</ele>
        <time>2015-05-07T08:11:13Z</time>
      </trkpt>
      <trkpt lat="48.09347" lon="7.67967">
        <ele>307.76</ele>
        <time>2015-05-07T08:11:17Z</time>
      </trkpt>
      <trkpt lat="48.09347" lon="7.67969">
        <ele>312.57</ele>
        <time>2015-05-07T08:11:18Z</time>
      </trkpt>
      <trkpt lat="48.09347" lon="7.67975">
        <ele>309.2</ele>
        <time>2015-05-07T08:11:21Z</time>
      </trkpt>
      <trkpt lat="48.09349" lon="7.67979">
        <ele>314.01</ele>
        <time>2015-05-07T08:11:24Z</time>
      </trkpt>
      <trkpt lat="48.0935" lon="7.67984">
        <ele>310.16</ele>
        <time>2015-05-07T08:11:27Z</time>
      </trkpt>
      <trkpt lat="48.0935" lon="7.67986">
        <ele>311.12</ele>
        <time>2015-05-07T08:11:28Z</time>
      </trkpt>
      <trkpt lat="48.09351" lon="7.6799">
        <ele>314.49</ele>
        <time>2015-05-07T08:11:30Z</time>
      </trkpt>
      <trkpt lat="48.09352" lon="7.67995">
        <ele>309.68</ele>
        <time>2015-05-07T08:11:32Z</time>
      </trkpt>
      <trkpt lat="48.09352" lon="7.67997">
        <ele>310.16</ele>
        <time>2015-05-07T08:11:33Z</time>
      </trkpt>
      <trkpt lat="48.09353" lon="7.68001">
        <ele>313.53</ele>
        <time>2015-05-07T08:11:35Z</time>
      </trkpt>
      <trkpt lat="48.09355" lon="7.68015">
        <ele>310.16</ele>
        <time>2015-05-07T08:11:43Z</time>
      </trkpt>
      <trkpt lat="48.09355" lon="7.68017">
        <ele>311.6</ele>
        <time>2015-05-07T08:11:44Z</time>
      </trkpt>
      <trkpt lat="48.09355" lon="7.6802">
        <ele>315.93</ele>
        <time>2015-05-07T08:11:46Z</time>
      </trkpt>
      <trkpt lat="48.09356" lon="7.68024">
        <ele>312.09</ele>
        <time>2015-05-07T08:11:48Z</time>
      </trkpt>
      <trkpt lat="48.09356" lon="7.6803">
        <ele>316.41</ele>
        <time>2015-05-07T08:11:51Z</time>
      </trkpt>
      <trkpt lat="48.09357" lon="7.68032">
        <ele>315.93</ele>
        <time>2015-05-07T08:11:52Z</time>
      </trkpt>
      <trkpt lat="48.09357" lon="7.68036">
        <ele>311.6</ele>
        <time>2015-05-07T08:11:54Z</time>
      </trkpt>
      <trkpt lat="48.09358" lon="7.68038">
        <ele>311.6</ele>
        <time>2015-05-07T08:11:55Z</time>
      </trkpt>
      <trkpt lat="48.09358" lon="7.68042">
        <ele>315.45</ele>
        <time>2015-05-07T08:11:57Z</time>
      </trkpt>
      <trkpt lat="48.09359" lon="7.68053">
        <ele>311.6</ele>
        <time>2015-05-07T08:12:02Z</time>
      </trkpt>
      <trkpt lat="48.09359" lon="7.68055">
        <ele>315.45</ele>
        <time>2015-05-07T08:12:03Z</time>
      </trkpt>
      <trkpt lat="48.0936" lon="7.68059">
        <ele>317.37</ele>
        <time>2015-05-07T08:12:05Z</time>
      </trkpt>
      <trkpt lat="48.0936" lon="7.68065">
        <ele>312.57</ele>
        <time>2015-05-07T08:12:08Z</time>
      </trkpt>
      <trkpt lat="48.0936" lon="7.6807">
        <ele>317.85</ele>
        <time>2015-05-07T08:12:11Z</time>
      </trkpt>
      <trkpt lat="48.0936" lon="7.68073">
        <ele>320.26</ele>
        <time>2015-05-07T08:12:13Z</time>
      </trkpt>
      <trkpt lat="48.0936" lon="7.68077">
        <ele>313.53</ele>
        <time>2015-05-07T08:12:15Z</time>
      </trkpt>
      <trkpt lat="48.09359" lon="7.68079">
        <ele>315.45</ele>
        <time>2015-05-07T08:12:16Z</time>
      </trkpt>
      <trkpt lat="48.09358" lon="7.68083">
        <ele>320.74</ele>
        <time>2015-05-07T08:12:18Z</time>
      </trkpt>
      <trkpt lat="48.09358" lon="7.68085">
        <ele>320.74</ele>
        <time>2015-05-07T08:12:19Z</time>
      </trkpt>
      <trkpt lat="48.09358" lon="7.68087">
        <ele>315.45</ele>
        <time>2015-05-07T08:12:20Z</time>
      </trkpt>
      <trkpt lat="48.09357" lon="7.68093">
        <ele>319.78</ele>
        <time>2015-05-07T08:12:23Z</time>
      </trkpt>
      <trkpt lat="48.09357" lon="7.68098">
        <ele>314.49</ele>
        <time>2015-05-07T08:12:26Z</time>
      </trkpt>
      <trkpt lat="48.09357" lon="7.681">
        <ele>316.89</ele>
        <time>2015-05-07T08:12:27Z</time>
      </trkpt>
      <trkpt lat="48.09358" lon="7.68104">
        <ele>320.74</ele>
        <time>2015-05-07T08:12:29Z</time>
      </trkpt>
      <trkpt lat="48.09358" lon="7.68106">
        <ele>317.85</ele>
        <time>2015-05-07T08:12:30Z</time>
      </trkpt>
      <trkpt lat="48.09359" lon="7.68107">
        <ele>314.01</ele>
        <time>2015-05-07T08:12:31Z</time>
      </trkpt>
      <trkpt lat="48.09359" lon="7.68109">
        <ele>317.85</ele>
        <time>2015-05-07T08:12:32Z</time>
      </trkpt>
      <trkpt lat="48.0936" lon="7.68112">
        <ele>320.74</ele>
        <time>2015-05-07T08:12:34Z</time>
      </trkpt>
      <trkpt lat="48.0936" lon="7.68114">
        <ele>316.41</ele>
        <time>2015-05-07T08:12:35Z</time>
      </trkpt>
      <trkpt lat="48.09361" lon="7.68118">
        <ele>319.78</ele>
        <time>2015-05-07T08:12:37Z</time>
      </trkpt>
      <trkpt lat="48.09362" lon="7.68122">
        <ele>317.37</ele>
        <time>2015-05-07T08:12:40Z</time>
      </trkpt>
      <trkpt lat="48.09363" lon="7.68125">
        <ele>321.22</ele>
        <time>2015-05-07T08:12:42Z</time>
      </trkpt>
      <trkpt lat="48.09364" lon="7.68127">
        <ele>315.45</ele>
        <time>2015-05-07T08:12:43Z</time>
      </trkpt>
      <trkpt lat="48.09365" lon="7.68128">
        <ele>320.74</ele>
        <time>2015-05-07T08:12:44Z</time>
      </trkpt>
      <trkpt lat="48.09366" lon="7.68138">
        <ele>323.62</ele>
        <time>2015-05-07T08:12:49Z</time>
      </trkpt>
      <trkpt lat="48.09367" lon="7.68139">
        <ele>323.62</ele>
        <time>2015-05-07T08:12:50Z</time>
      </trkpt>
      <trkpt lat="48.09367" lon="7.6814">
        <ele>319.78</ele>
        <time>2015-05-07T08:12:51Z</time>
      </trkpt>
      <trkpt lat="48.09368" lon="7.68146">
        <ele>325.06</ele>
        <time>2015-05-07T08:12:54Z</time>
      </trkpt>
      <trkpt lat="48.09368" lon="7.68148">
        <ele>322.66</ele>
        <time>2015-05-07T08:12:55Z</time>
      </trkpt>
      <trkpt lat="48.09368" lon="7.68152">
        <ele>318.33</ele>
        <time>2015-05-07T08:12:57Z</time>
      </trkpt>
      <trkpt lat="48.09367" lon="7.68156">
        <ele>325.06</ele>
        <time>2015-05-07T08:12:59Z</time>
      </trkpt>
      <trkpt lat="48.09366" lon="7.6816">
        <ele>321.7</ele>
        <time>2015-05-07T08:13:01Z</time>
      </trkpt>
      <trkpt lat="48.09365" lon="7.68167">
        <ele>325.06</ele>
        <time>2015-05-07T08:13:05Z</time>
      </trkpt>
      <trkpt lat="48.09364" lon="7.68174">
        <ele>321.22</ele>
        <time>2015-05-07T08:13:08Z</time>
      </trkpt>
      <trkpt lat="48.09362" lon="7.68181">
        <ele>325.54</ele>
        <time>2015-05-07T08:13:12Z</time>
      </trkpt>
      <trkpt lat="48.09362" lon="7.68183">
        <ele>324.58</ele>
        <time>2015-05-07T08:13:13Z</time>
      </trkpt>
      <trkpt lat="48.09361" lon="7.68186">
        <ele>320.74</ele>
        <time>2015-05-07T08:13:15Z</time>
      </trkpt>
      <trkpt lat="48.0936" lon="7.6819">
        <ele>319.78</ele>
        <time>2015-05-07T08:13:17Z</time>
      </trkpt>
      <trkpt lat="48.09359" lon="7.68193">
        <ele>323.62</ele>
        <time>2015-05-07T08:13:19Z</time>
      </trkpt>
      <trkpt lat="48.09358" lon="7.68201">
        <ele>320.26</ele>
        <time>2015-05-07T08:13:23Z</time>
      </trkpt>
      <trkpt lat="48.09358" lon="7.68203">
        <ele>320.26</ele>
        <time>2015-05-07T08:13:24Z</time>
      </trkpt>
      <trkpt lat="48.09359" lon="7.68207">
        <ele>324.1</ele>
        <time>2015-05-07T08:13:26Z</time>
      </trkpt>
      <trkpt lat="48.09359" lon="7.68209">
        <ele>324.58</ele>
        <time>2015-05-07T08:13:27Z</time>
      </trkpt>
      <trkpt lat="48.09359" lon="7.68212">
        <ele>321.7</ele>
        <time>2015-05-07T08:13:29Z</time>
      </trkpt>
      <trkpt lat="48.09359" lon="7.68215">
        <ele>323.14</ele>
        <time>2015-05-07T08:13:31Z</time>
      </trkpt>
      <trkpt lat="48.09359" lon="7.68218">
        <ele>326.99</ele>
        <time>2015-05-07T08:13:33Z</time>
      </trkpt>
      <trkpt lat="48.09359" lon="7.68219">
        <ele>322.18</ele>
        <time>2015-05-07T08:13:34Z</time>
      </trkpt>
      <trkpt lat="48.09359" lon="7.6822">
        <ele>326.5</ele>
        <time>2015-05-07T08:13:35Z</time>
      </trkpt>
      <trkpt lat="48.09359" lon="7.68221">
        <ele>322.18</ele>
        <time>2015-05-07T08:13:36Z</time>
      </trkpt>
      <trkpt lat="48.09359" lon="7.68223">
        <ele>325.54</ele>
        <time>2015-05-07T08:13:37Z</time>
      </trkpt>
      <trkpt lat="48.0936" lon="7.68224">
        <ele>322.66</ele>
        <time>2015-05-07T08:13:38Z</time>
      </trkpt>
      <trkpt lat="48.09361" lon="7.68235">
        <ele>326.99</ele>
        <time>2015-05-07T08:13:44Z</time>
      </trkpt>
      <trkpt lat="48.09361" lon="7.68236">
        <ele>326.02</ele>
        <time>2015-05-07T08:13:45Z</time>
      </trkpt>
      <trkpt lat="48.09361" lon="7.6824">
        <ele>323.14</ele>
        <time>2015-05-07T08:13:47Z</time>
      </trkpt>
      <trkpt lat="48.09362" lon="7.68244">
        <ele>325.06</ele>
        <time>2015-05-07T08:13:49Z</time>
      </trkpt>
      <trkpt lat="48.09363" lon="7.68247">
        <ele>323.62</ele>
        <time>2015-05-07T08:13:51Z</time>
      </trkpt>
      <trkpt lat="48.09363" lon="7.68249">
        <ele>326.5</ele>
        <time>2015-05-07T08:13:53Z</time>
      </trkpt>
      <trkpt lat="48.09363" lon="7.68251">
        <ele>322.66</ele>
        <time>2015-05-07T08:13:54Z</time>
      </trkpt>
      <trkpt lat="48.09363" lon="7.68252">
        <ele>324.1</ele>
        <time>2015-05-07T08:13:55Z</time>
      </trkpt>
      <trkpt lat="48.09363" lon="7.68256">
        <ele>326.02</ele>
        <time>2015-05-07T08:13:58Z</time>
      </trkpt>
      <trkpt lat="48.09363" lon="7.68257">
        <ele>321.7</ele>
        <time>2015-05-07T08:13:59Z</time>
      </trkpt>
      <trkpt lat="48.09363" lon="7.68259">
        <ele>322.66</ele>
        <time>2015-05-07T08:14:00Z</time>
      </trkpt>
      <trkpt lat="48.09364" lon="7.68265">
        <ele>327.47</ele>
        <time>2015-05-07T08:14:03Z</time>
      </trkpt>
      <trkpt lat="48.09364" lon="7.68266">
        <ele>323.62</ele>
        <time>2015-05-07T08:14:04Z</time>
      </trkpt>
      <trkpt lat="48.09364" lon="7.6827">
        <ele>319.78</ele>
        <time>2015-05-07T08:14:06Z</time>
      </trkpt>
      <trkpt lat="48.09365" lon="7.68276">
        <ele>325.54</ele>
        <time>2015-05-07T08:14:09Z</time>
      </trkpt>
      <trkpt lat="48.09366" lon="7.68279">
        <ele>327.47</ele>
        <time>2015-05-07T08:14:11Z</time>
      </trkpt>
      <trkpt lat="48.09367" lon="7.68284">
        <ele>324.1</ele>
        <time>2015-05-07T08:14:13Z</time>
      </trkpt>
      <trkpt lat="48.09368" lon="7.68286">
        <ele>322.66</ele>
        <time>2015-05-07T08:14:15Z</time>
      </trkpt>
      <trkpt lat="48.0937" lon="7.68292">
        <ele>326.99</ele>
        <time>2015-05-07T08:14:18Z</time>
      </trkpt>
      <trkpt lat="48.0937" lon="7.68294">
        <ele>326.02</ele>
        <time>2015-05-07T08:14:19Z</time>
      </trkpt>
      <trkpt lat="48.09372" lon="7.68302">
        <ele>324.1</ele>
        <time>2015-05-07T08:14:23Z</time>
      </trkpt>
      <trkpt lat="48.09374" lon="7.6831">
        <ele>322.18</ele>
        <time>2015-05-07T08:14:27Z</time>
      </trkpt>
      <trkpt lat="48.09376" lon="7.68322">
        <ele>326.99</ele>
        <time>2015-05-07T08:14:33Z</time>
      </trkpt>
      <trkpt lat="48.09378" lon="7.6833">
        <ele>324.1</ele>
        <time>2015-05-07T08:14:37Z</time>
      </trkpt>
      <trkpt lat="48.0938" lon="7.68336">
        <ele>324.58</ele>
        <time>2015-05-07T08:14:41Z</time>
      </trkpt>
      <trkpt lat="48.09381" lon="7.6834">
        <ele>326.02</ele>
        <time>2015-05-07T08:14:43Z</time>
      </trkpt>
      <trkpt lat="48.09382" lon="7.68343">
        <ele>322.18</ele>
        <time>2015-05-07T08:14:45Z</time>
      </trkpt>
      <trkpt lat="48.09383" lon="7.68345">
        <ele>325.06</ele>
        <time>2015-05-07T08:14:46Z</time>
      </trkpt>
      <trkpt lat="48.09385" lon="7.68347">
        <ele>326.99</ele>
        <time>2015-05-07T08:14:51Z</time>
      </trkpt>
      <trkpt lat="48.09387" lon="7.6835">
        <ele>325.54</ele>
        <time>2015-05-07T08:14:53Z</time>
      </trkpt>
      <trkpt lat="48.09392" lon="7.68352">
        <ele>326.02</ele>
        <time>2015-05-07T08:14:57Z</time>
      </trkpt>
      <trkpt lat="48.09405" lon="7.68357">
        <ele>325.54</ele>
        <time>2015-05-07T08:15:07Z</time>
      </trkpt>
      <trkpt lat="48.09421" lon="7.68365">
        <ele>327.95</ele>
        <time>2015-05-07T08:15:19Z</time>
      </trkpt>
      <trkpt lat="48.09425" lon="7.68366">
        <ele>329.87</ele>
        <time>2015-05-07T08:15:22Z</time>
      </trkpt>
      <trkpt lat="48.09429" lon="7.68368">
        <ele>328.43</ele>
        <time>2015-05-07T08:15:25Z</time>
      </trkpt>
      <trkpt lat="48.09444" lon="7.68375">
        <ele>325.06</ele>
        <time>2015-05-07T08:15:37Z</time>
      </trkpt>
      <trkpt lat="48.09446" lon="7.68375">
        <ele>324.58</ele>
        <time>2015-05-07T08:15:38Z</time>
      </trkpt>
      <trkpt lat="48.09452" lon="7.68381">
        <ele>325.54</ele>
        <time>2015-05-07T08:15:43Z</time>
      </trkpt>
      <trkpt lat="48.09456" lon="7.68382">
        <ele>326.5</ele>
        <time>2015-05-07T08:15:45Z</time>
      </trkpt>
      <trkpt lat="48.09461" lon="7.68386">
        <ele>329.39</ele>
        <time>2015-05-07T08:15:49Z</time>
      </trkpt>
      <trkpt lat="48.09465" lon="7.68389">
        <ele>331.31</ele>
        <time>2015-05-07T08:15:52Z</time>
      </trkpt>
      <trkpt lat="48.09477" lon="7.68398">
        <ele>326.99</ele>
        <time>2015-05-07T08:16:02Z</time>
      </trkpt>
      <trkpt lat="48.09479" lon="7.68399">
        <ele>327.47</ele>
        <time>2015-05-07T08:16:03Z</time>
      </trkpt>
      <trkpt lat="48.0948" lon="7.684">
        <ele>326.99</ele>
        <time>2015-05-07T08:16:04Z</time>
      </trkpt>
      <trkpt lat="48.095" lon="7.68411">
        <ele>327.95</ele>
        <time>2015-05-07T08:16:20Z</time>
      </trkpt>
      <trkpt lat="48.09511" lon="7.6842">
        <ele>332.75</ele>
        <time>2015-05-07T08:16:30Z</time>
      </trkpt>
      <trkpt lat="48.09513" lon="7.68421">
        <ele>332.75</ele>
        <time>2015-05-07T08:16:31Z</time>
      </trkpt>
      <trkpt lat="48.09518" lon="7.68427">
        <ele>328.43</ele>
        <time>2015-05-07T08:16:36Z</time>
      </trkpt>
      <trkpt lat="48.09519" lon="7.68428">
        <ele>328.91</ele>
        <time>2015-05-07T08:16:37Z</time>
      </trkpt>
      <trkpt lat="48.09522" lon="7.6843">
        <ele>332.75</ele>
        <time>2015-05-07T08:16:40Z</time>
      </trkpt>
      <trkpt lat="48.09526" lon="7.68434">
        <ele>329.87</ele>
        <time>2015-05-07T08:16:44Z</time>
      </trkpt>
      <trkpt lat="48.09527" lon="7.68439">
        <ele>334.68</ele>
        <time>2015-05-07T08:16:47Z</time>
      </trkpt>
      <trkpt lat="48.09529" lon="7.68442">
        <ele>333.23</ele>
        <time>2015-05-07T08:16:49Z</time>
      </trkpt>
      <trkpt lat="48.0953" lon="7.68445">
        <ele>332.27</ele>
        <time>2015-05-07T08:16:51Z</time>
      </trkpt>
      <trkpt lat="48.09531" lon="7.68446">
        <ele>333.71</ele>
        <time>2015-05-07T08:16:52Z</time>
      </trkpt>
      <trkpt lat="48.09538" lon="7.68446">
        <ele>335.16</ele>
        <time>2015-05-07T08:16:57Z</time>
      </trkpt>
      <trkpt lat="48.09543" lon="7.68445">
        <ele>331.31</ele>
        <time>2015-05-07T08:17:01Z</time>
      </trkpt>
      <trkpt lat="48.09548" lon="7.68447">
        <ele>335.16</ele>
        <time>2015-05-07T08:17:05Z</time>
      </trkpt>
      <trkpt lat="48.09551" lon="7.68447">
        <ele>337.08</ele>
        <time>2015-05-07T08:17:07Z</time>
      </trkpt>
      <trkpt lat="48.09553" lon="7.68448">
        <ele>335.64</ele>
        <time>2015-05-07T08:17:09Z</time>
      </trkpt>
      <trkpt lat="48.0956" lon="7.68449">
        <ele>335.16</ele>
        <time>2015-05-07T08:17:14Z</time>
      </trkpt>
      <trkpt lat="48.09562" lon="7.68449">
        <ele>336.6</ele>
        <time>2015-05-07T08:17:16Z</time>
      </trkpt>
      <trkpt lat="48.09565" lon="7.6845">
        <ele>337.56</ele>
        <time>2015-05-07T08:17:18Z</time>
      </trkpt>
      <trkpt lat="48.09568" lon="7.68451">
        <ele>333.23</ele>
        <time>2015-05-07T08:17:21Z</time>
      </trkpt>
      <trkpt lat="48.09572" lon="7.68451">
        <ele>338.04</ele>
        <time>2015-05-07T08:17:24Z</time>
      </trkpt>
      <trkpt lat="48.09575" lon="7.68452">
        <ele>341.41</ele>
        <time>2015-05-07T08:17:26Z</time>
      </trkpt>
      <trkpt lat="48.09577" lon="7.68452">
        <ele>337.56</ele>
        <time>2015-05-07T08:17:28Z</time>
      </trkpt>
      <trkpt lat="48.0958" lon="7.68451">
        <ele>335.64</ele>
        <time>2015-05-07T08:17:30Z</time>
      </trkpt>
      <trkpt lat="48.09583" lon="7.68451">
        <ele>340.44</ele>
        <time>2015-05-07T08:17:33Z</time>
      </trkpt>
      <trkpt lat="48.09585" lon="7.68451">
        <ele>341.41</ele>
        <time>2015-05-07T08:17:35Z</time>
      </trkpt>
      <trkpt lat="48.09589" lon="7.68452">
        <ele>337.08</ele>
        <time>2015-05-07T08:17:39Z</time>
      </trkpt>
      <trkpt lat="48.09595" lon="7.68453">
        <ele>340.44</ele>
        <time>2015-05-07T08:17:43Z</time>
      </trkpt>
      <trkpt lat="48.09599" lon="7.68455">
        <ele>339</ele>
        <time>2015-05-07T08:17:46Z</time>
      </trkpt>
      <trkpt lat="48.09605" lon="7.68457">
        <ele>342.37</ele>
        <time>2015-05-07T08:17:51Z</time>
      </trkpt>
      <trkpt lat="48.09609" lon="7.68458">
        <ele>339.48</ele>
        <time>2015-05-07T08:17:54Z</time>
      </trkpt>
      <trkpt lat="48.0961" lon="7.68459">
        <ele>339.48</ele>
        <time>2015-05-07T08:17:55Z</time>
      </trkpt>
      <trkpt lat="48.09614" lon="7.68461">
        <ele>343.33</ele>
        <time>2015-05-07T08:17:58Z</time>
      </trkpt>
      <trkpt lat="48.09615" lon="7.68462">
        <ele>343.33</ele>
        <time>2015-05-07T08:17:59Z</time>
      </trkpt>
      <trkpt lat="48.09618" lon="7.68465">
        <ele>339</ele>
        <time>2015-05-07T08:18:02Z</time>
      </trkpt>
      <trkpt lat="48.09619" lon="7.68466">
        <ele>339.96</ele>
        <time>2015-05-07T08:18:03Z</time>
      </trkpt>
      <trkpt lat="48.09621" lon="7.68468">
        <ele>343.33</ele>
        <time>2015-05-07T08:18:05Z</time>
      </trkpt>
      <trkpt lat="48.09627" lon="7.68468">
        <ele>340.44</ele>
        <time>2015-05-07T08:18:10Z</time>
      </trkpt>
      <trkpt lat="48.09631" lon="7.68471">
        <ele>346.21</ele>
        <time>2015-05-07T08:18:13Z</time>
      </trkpt>
      <trkpt lat="48.09632" lon="7.68471">
        <ele>344.77</ele>
        <time>2015-05-07T08:18:14Z</time>
      </trkpt>
      <trkpt lat="48.09633" lon="7.68472">
        <ele>346.21</ele>
        <time>2015-05-07T08:18:15Z</time>
      </trkpt>
      <trkpt lat="48.09635" lon="7.68474">
        <ele>341.89</ele>
        <time>2015-05-07T08:18:17Z</time>
      </trkpt>
      <trkpt lat="48.09637" lon="7.68475">
        <ele>347.65</ele>
        <time>2015-05-07T08:18:19Z</time>
      </trkpt>
      <trkpt lat="48.09638" lon="7.68475">
        <ele>346.21</ele>
        <time>2015-05-07T08:18:20Z</time>
      </trkpt>
      <trkpt lat="48.09642" lon="7.68477">
        <ele>343.81</ele>
        <time>2015-05-07T08:18:23Z</time>
      </trkpt>
      <trkpt lat="48.09643" lon="7.68477">
        <ele>348.13</ele>
        <time>2015-05-07T08:18:24Z</time>
      </trkpt>
      <trkpt lat="48.09644" lon="7.68477">
        <ele>346.69</ele>
        <time>2015-05-07T08:18:25Z</time>
      </trkpt>
      <trkpt lat="48.09646" lon="7.68477">
        <ele>343.33</ele>
        <time>2015-05-07T08:18:27Z</time>
      </trkpt>
      <trkpt lat="48.09647" lon="7.68477">
        <ele>348.62</ele>
        <time>2015-05-07T08:18:28Z</time>
      </trkpt>
      <trkpt lat="48.09648" lon="7.68478">
        <ele>346.21</ele>
        <time>2015-05-07T08:18:29Z</time>
      </trkpt>
      <trkpt lat="48.09651" lon="7.68479">
        <ele>349.1</ele>
        <time>2015-05-07T08:18:32Z</time>
      </trkpt>
      <trkpt lat="48.09654" lon="7.6848">
        <ele>347.65</ele>
        <time>2015-05-07T08:18:36Z</time>
      </trkpt>
      <trkpt lat="48.09658" lon="7.68482">
        <ele>351.02</ele>
        <time>2015-05-07T08:18:42Z</time>
      </trkpt>
      <trkpt lat="48.09659" lon="7.68483">
        <ele>348.13</ele>
        <time>2015-05-07T08:18:43Z</time>
      </trkpt>
      <trkpt lat="48.09661" lon="7.68483">
        <ele>349.1</ele>
        <time>2015-05-07T08:18:44Z</time>
      </trkpt>
      <trkpt lat="48.09665" lon="7.68484">
        <ele>349.58</ele>
        <time>2015-05-07T08:18:49Z</time>
      </trkpt>
      <trkpt lat="48.09668" lon="7.68485">
        <ele>352.94</ele>
        <time>2015-05-07T08:18:52Z</time>
      </trkpt>
      <trkpt lat="48.09669" lon="7.68486">
        <ele>349.1</ele>
        <time>2015-05-07T08:18:53Z</time>
      </trkpt>
      <trkpt lat="48.09671" lon="7.68487">
        <ele>354.38</ele>
        <time>2015-05-07T08:18:55Z</time>
      </trkpt>
      <trkpt lat="48.09672" lon="7.68488">
        <ele>348.62</ele>
        <time>2015-05-07T08:18:56Z</time>
      </trkpt>
      <trkpt lat="48.09673" lon="7.68488">
        <ele>353.42</ele>
        <time>2015-05-07T08:18:57Z</time>
      </trkpt>
      <trkpt lat="48.09683" lon="7.68492">
        <ele>351.98</ele>
        <time>2015-05-07T08:19:07Z</time>
      </trkpt>
      <trkpt lat="48.09684" lon="7.68492">
        <ele>355.83</ele>
        <time>2015-05-07T08:19:08Z</time>
      </trkpt>
      <trkpt lat="48.09684" lon="7.68493">
        <ele>355.34</ele>
        <time>2015-05-07T08:19:09Z</time>
      </trkpt>
      <trkpt lat="48.09685" lon="7.68493">
        <ele>350.54</ele>
        <time>2015-05-07T08:19:10Z</time>
      </trkpt>
      <trkpt lat="48.09686" lon="7.68493">
        <ele>354.38</ele>
        <time>2015-05-07T08:19:11Z</time>
      </trkpt>
      <trkpt lat="48.09687" lon="7.68493">
        <ele>357.75</ele>
        <time>2015-05-07T08:19:12Z</time>
      </trkpt>
      <trkpt lat="48.09688" lon="7.68492">
        <ele>353.9</ele>
        <time>2015-05-07T08:19:13Z</time>
      </trkpt>
      <trkpt lat="48.0969" lon="7.68491">
        <ele>357.27</ele>
        <time>2015-05-07T08:19:15Z</time>
      </trkpt>
      <trkpt lat="48.09691" lon="7.68491">
        <ele>357.27</ele>
        <time>2015-05-07T08:19:16Z</time>
      </trkpt>
      <trkpt lat="48.09693" lon="7.68489">
        <ele>353.42</ele>
        <time>2015-05-07T08:19:18Z</time>
      </trkpt>
      <trkpt lat="48.09694" lon="7.68489">
        <ele>354.86</ele>
        <time>2015-05-07T08:19:19Z</time>
      </trkpt>
      <trkpt lat="48.09698" lon="7.68485">
        <ele>352.94</ele>
        <time>2015-05-07T08:19:23Z</time>
      </trkpt>
      <trkpt lat="48.09699" lon="7.68485">
        <ele>357.75</ele>
        <time>2015-05-07T08:19:24Z</time>
      </trkpt>
      <trkpt lat="48.09701" lon="7.68483">
        <ele>354.38</ele>
        <time>2015-05-07T08:19:26Z</time>
      </trkpt>
      <trkpt lat="48.09702" lon="7.68482">
        <ele>360.63</ele>
        <time>2015-05-07T08:19:28Z</time>
      </trkpt>
      <trkpt lat="48.09703" lon="7.68482">
        <ele>359.19</ele>
        <time>2015-05-07T08:19:29Z</time>
      </trkpt>
      <trkpt lat="48.09704" lon="7.68482">
        <ele>355.83</ele>
        <time>2015-05-07T08:19:30Z</time>
      </trkpt>
      <trkpt lat="48.09706" lon="7.68482">
        <ele>361.11</ele>
        <time>2015-05-07T08:19:32Z</time>
      </trkpt>
      <trkpt lat="48.09706" lon="7.68481">
        <ele>356.79</ele>
        <time>2015-05-07T08:19:33Z</time>
      </trkpt>
      <trkpt lat="48.09709" lon="7.68478">
        <ele>361.11</ele>
        <time>2015-05-07T08:19:36Z</time>
      </trkpt>
      <trkpt lat="48.0971" lon="7.68477">
        <ele>356.31</ele>
        <time>2015-05-07T08:19:37Z</time>
      </trkpt>
      <trkpt lat="48.09711" lon="7.68476">
        <ele>363.52</ele>
        <time>2015-05-07T08:19:39Z</time>
      </trkpt>
      <trkpt lat="48.09712" lon="7.68476">
        <ele>356.79</ele>
        <time>2015-05-07T08:19:40Z</time>
      </trkpt>
      <trkpt lat="48.09713" lon="7.68476">
        <ele>363.04</ele>
        <time>2015-05-07T08:19:41Z</time>
      </trkpt>
      <trkpt lat="48.09714" lon="7.68476">
        <ele>359.19</ele>
        <time>2015-05-07T08:19:42Z</time>
      </trkpt>
      <trkpt lat="48.09716" lon="7.68477">
        <ele>360.63</ele>
        <time>2015-05-07T08:19:45Z</time>
      </trkpt>
      <trkpt lat="48.09718" lon="7.68479">
        <ele>363.04</ele>
        <time>2015-05-07T08:19:48Z</time>
      </trkpt>
      <trkpt lat="48.0972" lon="7.68481">
        <ele>366.4</ele>
        <time>2015-05-07T08:19:52Z</time>
      </trkpt>
      <trkpt lat="48.09721" lon="7.68482">
        <ele>362.55</ele>
        <time>2015-05-07T08:19:53Z</time>
      </trkpt>
      <trkpt lat="48.09723" lon="7.68486">
        <ele>365.92</ele>
        <time>2015-05-07T08:19:57Z</time>
      </trkpt>
      <trkpt lat="48.09723" lon="7.68486">
        <ele>361.11</ele>
        <time>2015-05-07T08:19:58Z</time>
      </trkpt>
      <trkpt lat="48.09724" lon="7.68487">
        <ele>364.96</ele>
        <time>2015-05-07T08:19:59Z</time>
      </trkpt>
      <trkpt lat="48.09724" lon="7.68488">
        <ele>365.92</ele>
        <time>2015-05-07T08:20:00Z</time>
      </trkpt>
      <trkpt lat="48.0973" lon="7.68493">
        <ele>363.04</ele>
        <time>2015-05-07T08:20:07Z</time>
      </trkpt>
      <trkpt lat="48.09731" lon="7.68494">
        <ele>369.76</ele>
        <time>2015-05-07T08:20:09Z</time>
      </trkpt>
      <trkpt lat="48.09732" lon="7.68495">
        <ele>363.04</ele>
        <time>2015-05-07T08:20:10Z</time>
      </trkpt>
      <trkpt lat="48.09732" lon="7.68498">
        <ele>369.76</ele>
        <time>2015-05-07T08:20:12Z</time>
      </trkpt>
      <trkpt lat="48.09733" lon="7.68499">
        <ele>364.48</ele>
        <time>2015-05-07T08:20:13Z</time>
      </trkpt>
      <trkpt lat="48.09733" lon="7.685">
        <ele>368.8</ele>
        <time>2015-05-07T08:20:14Z</time>
      </trkpt>
      <trkpt lat="48.09734" lon="7.68501">
        <ele>364.96</ele>
        <time>2015-05-07T08:20:15Z</time>
      </trkpt>
      <trkpt lat="48.09735" lon="7.68502">
        <ele>371.21</ele>
        <time>2015-05-07T08:20:17Z</time>
      </trkpt>
      <trkpt lat="48.09736" lon="7.68503">
        <ele>364.96</ele>
        <time>2015-05-07T08:20:18Z</time>
      </trkpt>
      <trkpt lat="48.09737" lon="7.68504">
        <ele>373.13</ele>
        <time>2015-05-07T08:20:20Z</time>
      </trkpt>
      <trkpt lat="48.09738" lon="7.68505">
        <ele>365.92</ele>
        <time>2015-05-07T08:20:21Z</time>
      </trkpt>
      <trkpt lat="48.0974" lon="7.68507">
        <ele>371.69</ele>
        <time>2015-05-07T08:20:23Z</time>
      </trkpt>
      <trkpt lat="48.09741" lon="7.68507">
        <ele>370.73</ele>
        <time>2015-05-07T08:20:24Z</time>
      </trkpt>
      <trkpt lat="48.09742" lon="7.68507">
        <ele>367.36</ele>
        <time>2015-05-07T08:20:25Z</time>
      </trkpt>
      <trkpt lat="48.09743" lon="7.68507">
        <ele>373.13</ele>
        <time>2015-05-07T08:20:26Z</time>
      </trkpt>
      <trkpt lat="48.09744" lon="7.68508">
        <ele>372.65</ele>
        <time>2015-05-07T08:20:27Z</time>
      </trkpt>
      <trkpt lat="48.09745" lon="7.68508">
        <ele>367.36</ele>
        <time>2015-05-07T08:20:28Z</time>
      </trkpt>
      <trkpt lat="48.09746" lon="7.68509">
        <ele>372.65</ele>
        <time>2015-05-07T08:20:29Z</time>
      </trkpt>
      <trkpt lat="48.09746" lon="7.68509">
        <ele>368.32</ele>
        <time>2015-05-07T08:20:30Z</time>
      </trkpt>
      <trkpt lat="48.09747" lon="7.6851">
        <ele>373.13</ele>
        <time>2015-05-07T08:20:32Z</time>
      </trkpt>
      <trkpt lat="48.09748" lon="7.6851">
        <ele>370.24</ele>
        <time>2015-05-07T08:20:33Z</time>
      </trkpt>
      <trkpt lat="48.0975" lon="7.68511">
        <ele>375.05</ele>
        <time>2015-05-07T08:20:36Z</time>
      </trkpt>
      <trkpt lat="48.09751" lon="7.68511">
        <ele>370.24</ele>
        <time>2015-05-07T08:20:37Z</time>
      </trkpt>
      <trkpt lat="48.09752" lon="7.68511">
        <ele>372.17</ele>
        <time>2015-05-07T08:20:38Z</time>
      </trkpt>
      <trkpt lat="48.09754" lon="7.68511">
        <ele>376.49</ele>
        <time>2015-05-07T08:20:39Z</time>
      </trkpt>
      <trkpt lat="48.09754" lon="7.68511">
        <ele>368.32</ele>
        <time>2015-05-07T08:20:40Z</time>
      </trkpt>
      <trkpt lat="48.09755" lon="7.6851">
        <ele>376.01</ele>
        <time>2015-05-07T08:20:41Z</time>
      </trkpt>
      <trkpt lat="48.09756" lon="7.68511">
        <ele>370.24</ele>
        <time>2015-05-07T08:20:42Z</time>
      </trkpt>
      <trkpt lat="48.09757" lon="7.68512">
        <ele>375.05</ele>
        <time>2015-05-07T08:20:44Z</time>
      </trkpt>
      <trkpt lat="48.09758" lon="7.68512">
        <ele>371.69</ele>
        <time>2015-05-07T08:20:45Z</time>
      </trkpt>
      <trkpt lat="48.0976" lon="7.68514">
        <ele>375.05</ele>
        <time>2015-05-07T08:20:48Z</time>
      </trkpt>
      <trkpt lat="48.09765" lon="7.68517">
        <ele>378.42</ele>
        <time>2015-05-07T08:20:54Z</time>
      </trkpt>
      <trkpt lat="48.09766" lon="7.68518">
        <ele>374.09</ele>
        <time>2015-05-07T08:20:55Z</time>
      </trkpt>
      <trkpt lat="48.09769" lon="7.68518">
        <ele>378.42</ele>
        <time>2015-05-07T08:20:57Z</time>
      </trkpt>
      <trkpt lat="48.0977" lon="7.68518">
        <ele>375.53</ele>
        <time>2015-05-07T08:20:58Z</time>
      </trkpt>
      <trkpt lat="48.09772" lon="7.68519">
        <ele>374.57</ele>
        <time>2015-05-07T08:21:00Z</time>
      </trkpt>
      <trkpt lat="48.09774" lon="7.68519">
        <ele>376.97</ele>
        <time>2015-05-07T08:21:02Z</time>
      </trkpt>
      <trkpt lat="48.09782" lon="7.6852">
        <ele>376.01</ele>
        <time>2015-05-07T08:21:11Z</time>
      </trkpt>
      <trkpt lat="48.09783" lon="7.68521">
        <ele>379.38</ele>
        <time>2015-05-07T08:21:12Z</time>
      </trkpt>
      <trkpt lat="48.09783" lon="7.68521">
        <ele>378.9</ele>
        <time>2015-05-07T08:21:13Z</time>
      </trkpt>
      <trkpt lat="48.09784" lon="7.68522">
        <ele>375.53</ele>
        <time>2015-05-07T08:21:14Z</time>
      </trkpt>
      <trkpt lat="48.09785" lon="7.68522">
        <ele>377.94</ele>
        <time>2015-05-07T08:21:15Z</time>
      </trkpt>
      <trkpt lat="48.09786" lon="7.68522">
        <ele>381.78</ele>
        <time>2015-05-07T08:21:16Z</time>
      </trkpt>
      <trkpt lat="48.09794" lon="7.68525">
        <ele>378.9</ele>
        <time>2015-05-07T08:21:21Z</time>
      </trkpt>
      <trkpt lat="48.09797" lon="7.68526">
        <ele>377.94</ele>
        <time>2015-05-07T08:21:23Z</time>
      </trkpt>
      <trkpt lat="48.098" lon="7.68527">
        <ele>381.3</ele>
        <time>2015-05-07T08:21:25Z</time>
      </trkpt>
      <trkpt lat="48.09801" lon="7.68527">
        <ele>375.53</ele>
        <time>2015-05-07T08:21:26Z</time>
      </trkpt>
      <trkpt lat="48.09802" lon="7.68527">
        <ele>377.45</ele>
        <time>2015-05-07T08:21:27Z</time>
      </trkpt>
      <trkpt lat="48.09805" lon="7.68527">
        <ele>381.3</ele>
        <time>2015-05-07T08:21:29Z</time>
      </trkpt>
      <trkpt lat="48.09806" lon="7.68528">
        <ele>376.97</ele>
        <time>2015-05-07T08:21:30Z</time>
      </trkpt>
      <trkpt lat="48.09807" lon="7.68528">
        <ele>380.82</ele>
        <time>2015-05-07T08:21:31Z</time>
      </trkpt>
      <trkpt lat="48.0981" lon="7.68531">
        <ele>377.94</ele>
        <time>2015-05-07T08:21:34Z</time>
      </trkpt>
      <trkpt lat="48.09811" lon="7.68532">
        <ele>382.26</ele>
        <time>2015-05-07T08:21:35Z</time>
      </trkpt>
      <trkpt lat="48.09812" lon="7.68532">
        <ele>378.42</ele>
        <time>2015-05-07T08:21:37Z</time>
      </trkpt>
      <trkpt lat="48.09813" lon="7.68533">
        <ele>380.34</ele>
        <time>2015-05-07T08:21:38Z</time>
      </trkpt>
      <trkpt lat="48.09814" lon="7.68533">
        <ele>383.22</ele>
        <time>2015-05-07T08:21:39Z</time>
      </trkpt>
      <trkpt lat="48.09815" lon="7.68534">
        <ele>381.78</ele>
        <time>2015-05-07T08:21:40Z</time>
      </trkpt>
      <trkpt lat="48.09818" lon="7.68535">
        <ele>383.7</ele>
        <time>2015-05-07T08:21:43Z</time>
      </trkpt>
      <trkpt lat="48.09819" lon="7.68535">
        <ele>380.34</ele>
        <time>2015-05-07T08:21:44Z</time>
      </trkpt>
      <trkpt lat="48.0982" lon="7.68536">
        <ele>381.3</ele>
        <time>2015-05-07T08:21:45Z</time>
      </trkpt>
      <trkpt lat="48.09822" lon="7.68537">
        <ele>384.18</ele>
        <time>2015-05-07T08:21:47Z</time>
      </trkpt>
      <trkpt lat="48.0983" lon="7.68539">
        <ele>380.82</ele>
        <time>2015-05-07T08:21:55Z</time>
      </trkpt>
      <trkpt lat="48.09831" lon="7.68539">
        <ele>385.63</ele>
        <time>2015-05-07T08:21:56Z</time>
      </trkpt>
      <trkpt lat="48.09832" lon="7.68539">
        <ele>385.63</ele>
        <time>2015-05-07T08:21:57Z</time>
      </trkpt>
      <trkpt lat="48.09833" lon="7.68539">
        <ele>381.78</ele>
        <time>2015-05-07T08:21:58Z</time>
      </trkpt>
      <trkpt lat="48.09835" lon="7.6854">
        <ele>388.99</ele>
        <time>2015-05-07T08:22:00Z</time>
      </trkpt>
      <trkpt lat="48.09836" lon="7.68541">
        <ele>385.15</ele>
        <time>2015-05-07T08:22:01Z</time>
      </trkpt>
      <trkpt lat="48.09838" lon="7.68541">
        <ele>388.99</ele>
        <time>2015-05-07T08:22:04Z</time>
      </trkpt>
      <trkpt lat="48.09839" lon="7.68542">
        <ele>383.22</ele>
        <time>2015-05-07T08:22:05Z</time>
      </trkpt>
      <trkpt lat="48.09841" lon="7.68543">
        <ele>388.99</ele>
        <time>2015-05-07T08:22:07Z</time>
      </trkpt>
      <trkpt lat="48.09842" lon="7.68543">
        <ele>387.07</ele>
        <time>2015-05-07T08:22:08Z</time>
      </trkpt>
      <trkpt lat="48.09845" lon="7.68545">
        <ele>389.95</ele>
        <time>2015-05-07T08:22:12Z</time>
      </trkpt>
      <trkpt lat="48.09847" lon="7.68547">
        <ele>390.43</ele>
        <time>2015-05-07T08:22:16Z</time>
      </trkpt>
      <trkpt lat="48.09848" lon="7.68547">
        <ele>389.47</ele>
        <time>2015-05-07T08:22:18Z</time>
      </trkpt>
      <trkpt lat="48.09848" lon="7.68547">
        <ele>385.63</ele>
        <time>2015-05-07T08:22:20Z</time>
      </trkpt>
      <trkpt lat="48.09848" lon="7.68547">
        <ele>389.95</ele>
        <time>2015-05-07T08:22:21Z</time>
      </trkpt>
      <trkpt lat="48.09848" lon="7.68547">
        <ele>388.51</ele>
        <time>2015-05-07T08:22:24Z</time>
      </trkpt>
      <trkpt lat="48.09848" lon="7.68547">
        <ele>382.74</ele>
        <time>2015-05-07T08:22:25Z</time>
      </trkpt>
      <trkpt lat="48.09848" lon="7.68547">
        <ele>388.51</ele>
        <time>2015-05-07T08:22:26Z</time>
      </trkpt>
      <trkpt lat="48.09849" lon="7.68549">
        <ele>388.99</ele>
        <time>2015-05-07T08:22:53Z</time>
      </trkpt>
      <trkpt lat="48.09849" lon="7.68549">
        <ele>388.51</ele>
        <time>2015-05-07T08:23:39Z</time>
      </trkpt>
      <trkpt lat="48.09852" lon="7.68552">
        <ele>384.66</ele>
        <time>2015-05-07T08:24:36Z</time>
      </trkpt>
      <trkpt lat="48.09852" lon="7.68551">
        <ele>388.99</ele>
        <time>2015-05-07T08:24:37Z</time>
      </trkpt>
      <trkpt lat="48.09852" lon="7.68547">
        <ele>387.55</ele>
        <time>2015-05-07T08:24:40Z</time>
      </trkpt>
      <trkpt lat="48.09856" lon="7.68549">
        <ele>387.55</ele>
        <time>2015-05-07T08:24:49Z</time>
      </trkpt>
      <trkpt lat="48.0985" lon="7.68554">
        <ele>384.18</ele>
        <time>2015-05-07T08:24:56Z</time>
      </trkpt>
      <trkpt lat="48.0985" lon="7.68555">
        <ele>389.47</ele>
        <time>2015-05-07T08:24:58Z</time>
      </trkpt>
      <trkpt lat="48.0985" lon="7.68562">
        <ele>386.59</ele>
        <time>2015-05-07T08:25:03Z</time>
      </trkpt>
      <trkpt lat="48.09849" lon="7.68577">
        <ele>392.84</ele>
        <time>2015-05-07T08:25:12Z</time>
      </trkpt>
      <trkpt lat="48.09849" lon="7.68578">
        <ele>392.84</ele>
        <time>2015-05-07T08:25:13Z</time>
      </trkpt>
      <trkpt lat="48.09851" lon="7.68591">
        <ele>396.68</ele>
        <time>2015-05-07T08:25:25Z</time>
      </trkpt>
      <trkpt lat="48.09851" lon="7.68592">
        <ele>393.32</ele>
        <time>2015-05-07T08:25:26Z</time>
      </trkpt>
      <trkpt lat="48.09852" lon="7.68593">
        <ele>393.8</ele>
        <time>2015-05-07T08:25:27Z</time>
      </trkpt>
      <trkpt lat="48.09853" lon="7.68595">
        <ele>397.64</ele>
        <time>2015-05-07T08:25:29Z</time>
      </trkpt>
      <trkpt lat="48.09853" lon="7.68596">
        <ele>396.2</ele>
        <time>2015-05-07T08:25:30Z</time>
      </trkpt>
      <trkpt lat="48.09857" lon="7.68609">
        <ele>397.64</ele>
        <time>2015-05-07T08:25:42Z</time>
      </trkpt>
      <trkpt lat="48.09857" lon="7.6861">
        <ele>398.12</ele>
        <time>2015-05-07T08:25:48Z</time>
      </trkpt>
      <trkpt lat="48.09859" lon="7.68613">
        <ele>401.49</ele>
        <time>2015-05-07T08:26:24Z</time>
      </trkpt>
      <trkpt lat="48.09859" lon="7.68615">
        <ele>398.6</ele>
        <time>2015-05-07T08:26:25Z</time>
      </trkpt>
      <trkpt lat="48.09864" lon="7.68623">
        <ele>401.97</ele>
        <time>2015-05-07T08:26:31Z</time>
      </trkpt>
      <trkpt lat="48.09865" lon="7.68624">
        <ele>400.53</ele>
        <time>2015-05-07T08:26:32Z</time>
      </trkpt>
      <trkpt lat="48.09867" lon="7.68627">
        <ele>398.12</ele>
        <time>2015-05-07T08:26:34Z</time>
      </trkpt>
      <trkpt lat="48.09871" lon="7.68634">
        <ele>398.6</ele>
        <time>2015-05-07T08:26:39Z</time>
      </trkpt>
      <trkpt lat="48.09873" lon="7.68639">
        <ele>401.97</ele>
        <time>2015-05-07T08:26:42Z</time>
      </trkpt>
      <trkpt lat="48.09874" lon="7.6864">
        <ele>398.6</ele>
        <time>2015-05-07T08:26:43Z</time>
      </trkpt>
      <trkpt lat="48.09878" lon="7.68649">
        <ele>401.49</ele>
        <time>2015-05-07T08:26:49Z</time>
      </trkpt>
      <trkpt lat="48.0988" lon="7.68655">
        <ele>397.64</ele>
        <time>2015-05-07T08:26:52Z</time>
      </trkpt>
      <trkpt lat="48.09884" lon="7.68665">
        <ele>401.01</ele>
        <time>2015-05-07T08:26:58Z</time>
      </trkpt>
      <trkpt lat="48.09892" lon="7.68692">
        <ele>400.05</ele>
        <time>2015-05-07T08:27:13Z</time>
      </trkpt>
      <trkpt lat="48.09896" lon="7.68705">
        <ele>396.2</ele>
        <time>2015-05-07T08:27:21Z</time>
      </trkpt>
      <trkpt lat="48.09897" lon="7.68706">
        <ele>396.68</ele>
        <time>2015-05-07T08:27:22Z</time>
      </trkpt>
      <trkpt lat="48.09902" lon="7.68728">
        <ele>397.16</ele>
        <time>2015-05-07T08:27:35Z</time>
      </trkpt>
      <trkpt lat="48.09903" lon="7.68737">
        <ele>397.64</ele>
        <time>2015-05-07T08:27:41Z</time>
      </trkpt>
      <trkpt lat="48.09905" lon="7.68745">
        <ele>395.72</ele>
        <time>2015-05-07T08:27:45Z</time>
      </trkpt>
      <trkpt lat="48.09907" lon="7.68751">
        <ele>399.08</ele>
        <time>2015-05-07T08:27:48Z</time>
      </trkpt>
      <trkpt lat="48.09907" lon="7.68754">
        <ele>396.2</ele>
        <time>2015-05-07T08:27:50Z</time>
      </trkpt>
      <trkpt lat="48.09908" lon="7.68756">
        <ele>396.2</ele>
        <time>2015-05-07T08:27:51Z</time>
      </trkpt>
      <trkpt lat="48.09908" lon="7.68759">
        <ele>399.57</ele>
        <time>2015-05-07T08:27:53Z</time>
      </trkpt>
      <trkpt lat="48.0991" lon="7.68764">
        <ele>396.2</ele>
        <time>2015-05-07T08:27:56Z</time>
      </trkpt>
      <trkpt lat="48.0991" lon="7.68766">
        <ele>400.05</ele>
        <time>2015-05-07T08:27:57Z</time>
      </trkpt>
      <trkpt lat="48.09911" lon="7.68772">
        <ele>399.08</ele>
        <time>2015-05-07T08:28:01Z</time>
      </trkpt>
      <trkpt lat="48.09911" lon="7.68774">
        <ele>402.93</ele>
        <time>2015-05-07T08:28:02Z</time>
      </trkpt>
      <trkpt lat="48.09911" lon="7.68775">
        <ele>399.57</ele>
        <time>2015-05-07T08:28:03Z</time>
      </trkpt>
      <trkpt lat="48.09915" lon="7.68784">
        <ele>399.08</ele>
        <time>2015-05-07T08:28:09Z</time>
      </trkpt>
      <trkpt lat="48.09915" lon="7.68785">
        <ele>403.41</ele>
        <time>2015-05-07T08:28:10Z</time>
      </trkpt>
      <trkpt lat="48.09916" lon="7.68786">
        <ele>403.41</ele>
        <time>2015-05-07T08:28:11Z</time>
      </trkpt>
      <trkpt lat="48.09916" lon="7.68788">
        <ele>398.12</ele>
        <time>2015-05-07T08:28:12Z</time>
      </trkpt>
      <trkpt lat="48.09916" lon="7.6879">
        <ele>399.57</ele>
        <time>2015-05-07T08:28:13Z</time>
      </trkpt>
      <trkpt lat="48.09917" lon="7.68791">
        <ele>403.89</ele>
        <time>2015-05-07T08:28:14Z</time>
      </trkpt>
      <trkpt lat="48.09917" lon="7.68792">
        <ele>401.49</ele>
        <time>2015-05-07T08:28:15Z</time>
      </trkpt>
      <trkpt lat="48.09922" lon="7.68805">
        <ele>405.33</ele>
        <time>2015-05-07T08:28:24Z</time>
      </trkpt>
      <trkpt lat="48.09923" lon="7.68809">
        <ele>401.49</ele>
        <time>2015-05-07T08:28:27Z</time>
      </trkpt>
      <trkpt lat="48.09925" lon="7.68813">
        <ele>405.81</ele>
        <time>2015-05-07T08:28:30Z</time>
      </trkpt>
      <trkpt lat="48.09925" lon="7.68814">
        <ele>405.33</ele>
        <time>2015-05-07T08:28:31Z</time>
      </trkpt>
      <trkpt lat="48.09927" lon="7.68817">
        <ele>401.97</ele>
        <time>2015-05-07T08:28:33Z</time>
      </trkpt>
      <trkpt lat="48.09927" lon="7.68818">
        <ele>404.85</ele>
        <time>2015-05-07T08:28:34Z</time>
      </trkpt>
      <trkpt lat="48.09929" lon="7.68821">
        <ele>401.49</ele>
        <time>2015-05-07T08:28:37Z</time>
      </trkpt>
      <trkpt lat="48.0993" lon="7.68822">
        <ele>401.97</ele>
        <time>2015-05-07T08:28:38Z</time>
      </trkpt>
      <trkpt lat="48.09932" lon="7.68825">
        <ele>403.41</ele>
        <time>2015-05-07T08:28:40Z</time>
      </trkpt>
      <trkpt lat="48.09936" lon="7.68826">
        <ele>401.49</ele>
        <time>2015-05-07T08:28:43Z</time>
      </trkpt>
      <trkpt lat="48.09941" lon="7.68831">
        <ele>403.89</ele>
        <time>2015-05-07T08:28:49Z</time>
      </trkpt>
      <trkpt lat="48.09957" lon="7.68862">
        <ele>401.97</ele>
        <time>2015-05-07T08:29:09Z</time>
      </trkpt>
      <trkpt lat="48.09958" lon="7.68865">
        <ele>400.53</ele>
        <time>2015-05-07T08:29:11Z</time>
      </trkpt>
      <trkpt lat="48.09963" lon="7.6887">
        <ele>396.68</ele>
        <time>2015-05-07T08:29:16Z</time>
      </trkpt>
      <trkpt lat="48.09964" lon="7.68871">
        <ele>397.16</ele>
        <time>2015-05-07T08:29:17Z</time>
      </trkpt>
      <trkpt lat="48.09966" lon="7.68879">
        <ele>400.05</ele>
        <time>2015-05-07T08:29:38Z</time>
      </trkpt>
      <trkpt lat="48.09966" lon="7.68879">
        <ele>399.08</ele>
        <time>2015-05-07T08:29:39Z</time>
      </trkpt>
      <trkpt lat="48.09966" lon="7.68878">
        <ele>395.72</ele>
        <time>2015-05-07T08:29:53Z</time>
      </trkpt>
      <trkpt lat="48.09966" lon="7.68877">
        <ele>400.05</ele>
        <time>2015-05-07T08:29:56Z</time>
      </trkpt>
      <trkpt lat="48.09965" lon="7.68877">
        <ele>396.68</ele>
        <time>2015-05-07T08:30:25Z</time>
      </trkpt>
      <trkpt lat="48.09965" lon="7.68876">
        <ele>397.64</ele>
        <time>2015-05-07T08:30:26Z</time>
      </trkpt>
      <trkpt lat="48.0996" lon="7.68871">
        <ele>398.12</ele>
        <time>2015-05-07T08:31:38Z</time>
      </trkpt>
      <trkpt lat="48.09959" lon="7.68878">
        <ele>400.05</ele>
        <time>2015-05-07T08:31:43Z</time>
      </trkpt>
      <trkpt lat="48.09959" lon="7.68879">
        <ele>396.68</ele>
        <time>2015-05-07T08:31:44Z</time>
      </trkpt>
      <trkpt lat="48.09961" lon="7.68876">
        <ele>397.16</ele>
        <time>2015-05-07T08:31:56Z</time>
      </trkpt>
      <trkpt lat="48.09964" lon="7.68884">
        <ele>400.05</ele>
        <time>2015-05-07T08:32:10Z</time>
      </trkpt>
      <trkpt lat="48.09964" lon="7.68885">
        <ele>398.6</ele>
        <time>2015-05-07T08:32:11Z</time>
      </trkpt>
      <trkpt lat="48.09965" lon="7.68894">
        <ele>399.08</ele>
        <time>2015-05-07T08:32:16Z</time>
      </trkpt>
      <trkpt lat="48.09966" lon="7.68908">
        <ele>399.57</ele>
        <time>2015-05-07T08:32:24Z</time>
      </trkpt>
      <trkpt lat="48.09966" lon="7.68912">
        <ele>396.2</ele>
        <time>2015-05-07T08:32:26Z</time>
      </trkpt>
      <trkpt lat="48.09966" lon="7.68915">
        <ele>397.16</ele>
        <time>2015-05-07T08:32:27Z</time>
      </trkpt>
      <trkpt lat="48.09967" lon="7.6892">
        <ele>399.08</ele>
        <time>2015-05-07T08:32:30Z</time>
      </trkpt>
      <trkpt lat="48.09967" lon="7.68922">
        <ele>396.2</ele>
        <time>2015-05-07T08:32:31Z</time>
      </trkpt>
      <trkpt lat="48.09967" lon="7.68924">
        <ele>396.2</ele>
        <time>2015-05-07T08:32:32Z</time>
      </trkpt>
      <trkpt lat="48.09967" lon="7.68929">
        <ele>400.05</ele>
        <time>2015-05-07T08:32:35Z</time>
      </trkpt>
      <trkpt lat="48.09967" lon="7.68935">
        <ele>396.68</ele>
        <time>2015-05-07T08:32:38Z</time>
      </trkpt>
      <trkpt lat="48.09967" lon="7.68937">
        <ele>397.16</ele>
        <time>2015-05-07T08:32:39Z</time>
      </trkpt>
      <trkpt lat="48.09967" lon="7.68941">
        <ele>400.53</ele>
        <time>2015-05-07T08:32:41Z</time>
      </trkpt>
      <trkpt lat="48.09967" lon="7.68943">
        <ele>399.57</ele>
        <time>2015-05-07T08:32:42Z</time>
      </trkpt>
      <trkpt lat="48.09967" lon="7.68944">
        <ele>395.24</ele>
        <time>2015-05-07T08:32:43Z</time>
      </trkpt>
      <trkpt lat="48.09967" lon="7.68946">
        <ele>396.68</ele>
        <time>2015-05-07T08:32:44Z</time>
      </trkpt>
      <trkpt lat="48.09968" lon="7.6895">
        <ele>400.53</ele>
        <time>2015-05-07T08:32:46Z</time>
      </trkpt>
      <trkpt lat="48.09968" lon="7.68956">
        <ele>397.16</ele>
        <time>2015-05-07T08:32:49Z</time>
      </trkpt>
      <trkpt lat="48.09967" lon="7.68958">
        <ele>397.64</ele>
        <time>2015-05-07T08:32:50Z</time>
      </trkpt>
      <trkpt lat="48.09967" lon="7.68962">
        <ele>402.45</ele>
        <time>2015-05-07T08:32:52Z</time>
      </trkpt>
      <trkpt lat="48.09967" lon="7.68966">
        <ele>398.12</ele>
        <time>2015-05-07T08:32:54Z</time>
      </trkpt>
      <trkpt lat="48.09968" lon="7.68969">
        <ele>397.64</ele>
        <time>2015-05-07T08:32:55Z</time>
      </trkpt>
      <trkpt lat="48.09968" lon="7.68974">
        <ele>402.93</ele>
        <time>2015-05-07T08:32:58Z</time>
      </trkpt>
      <trkpt lat="48.09968" lon="7.68976">
        <ele>399.57</ele>
        <time>2015-05-07T08:32:59Z</time>
      </trkpt>
      <trkpt lat="48.09968" lon="7.68985">
        <ele>401.49</ele>
        <time>2015-05-07T08:33:03Z</time>
      </trkpt>
      <trkpt lat="48.09967" lon="7.68994">
        <ele>404.85</ele>
        <time>2015-05-07T08:33:08Z</time>
      </trkpt>
      <trkpt lat="48.09967" lon="7.68996">
        <ele>403.89</ele>
        <time>2015-05-07T08:33:09Z</time>
      </trkpt>
      <trkpt lat="48.09967" lon="7.68998">
        <ele>400.53</ele>
        <time>2015-05-07T08:33:10Z</time>
      </trkpt>
      <trkpt lat="48.09967" lon="7.68999">
        <ele>401.01</ele>
        <time>2015-05-07T08:33:11Z</time>
      </trkpt>
      <trkpt lat="48.09966" lon="7.69004">
        <ele>403.41</ele>
        <time>2015-05-07T08:33:14Z</time>
      </trkpt>
      <trkpt lat="48.09965" lon="7.69011">
        <ele>404.85</ele>
        <time>2015-05-07T08:33:18Z</time>
      </trkpt>
      <trkpt lat="48.09963" lon="7.69014">
        <ele>401.49</ele>
        <time>2015-05-07T08:33:20Z</time>
      </trkpt>
      <trkpt lat="48.09963" lon="7.69015">
        <ele>401.97</ele>
        <time>2015-05-07T08:33:21Z</time>
      </trkpt>
      <trkpt lat="48.09962" lon="7.69018">
        <ele>406.29</ele>
        <time>2015-05-07T08:33:23Z</time>
      </trkpt>
      <trkpt lat="48.09961" lon="7.69023">
        <ele>404.85</ele>
        <time>2015-05-07T08:33:26Z</time>
      </trkpt>
      <trkpt lat="48.09962" lon="7.69027">
        <ele>405.81</ele>
        <time>2015-05-07T08:33:28Z</time>
      </trkpt>
      <trkpt lat="48.09963" lon="7.69039">
        <ele>404.37</ele>
        <time>2015-05-07T08:33:34Z</time>
      </trkpt>
      <trkpt lat="48.09963" lon="7.69043">
        <ele>406.77</ele>
        <time>2015-05-07T08:33:37Z</time>
      </trkpt>
      <trkpt lat="48.09962" lon="7.69047">
        <ele>405.33</ele>
        <time>2015-05-07T08:33:39Z</time>
      </trkpt>
      <trkpt lat="48.0996" lon="7.69057">
        <ele>405.33</ele>
        <time>2015-05-07T08:33:44Z</time>
      </trkpt>
      <trkpt lat="48.0996" lon="7.6906">
        <ele>409.18</ele>
        <time>2015-05-07T08:33:46Z</time>
      </trkpt>
      <trkpt lat="48.09959" lon="7.69062">
        <ele>407.74</ele>
        <time>2015-05-07T08:33:47Z</time>
      </trkpt>
      <trkpt lat="48.09959" lon="7.69072">
        <ele>407.26</ele>
        <time>2015-05-07T08:33:53Z</time>
      </trkpt>
      <trkpt lat="48.09959" lon="7.69076">
        <ele>408.22</ele>
        <time>2015-05-07T08:33:55Z</time>
      </trkpt>
      <trkpt lat="48.09959" lon="7.6908">
        <ele>407.26</ele>
        <time>2015-05-07T08:33:57Z</time>
      </trkpt>
      <trkpt lat="48.09959" lon="7.69083">
        <ele>409.66</ele>
        <time>2015-05-07T08:33:59Z</time>
      </trkpt>
      <trkpt lat="48.09959" lon="7.69085">
        <ele>406.29</ele>
        <time>2015-05-07T08:34:00Z</time>
      </trkpt>
      <trkpt lat="48.09959" lon="7.69086">
        <ele>407.26</ele>
        <time>2015-05-07T08:34:01Z</time>
      </trkpt>
      <trkpt lat="48.09958" lon="7.69089">
        <ele>409.66</ele>
        <time>2015-05-07T08:34:03Z</time>
      </trkpt>
      <trkpt lat="48.09955" lon="7.69104">
        <ele>413.98</ele>
        <time>2015-05-07T08:34:11Z</time>
      </trkpt>
      <trkpt lat="48.09955" lon="7.69105">
        <ele>413.02</ele>
        <time>2015-05-07T08:34:12Z</time>
      </trkpt>
      <trkpt lat="48.09954" lon="7.69107">
        <ele>409.18</ele>
        <time>2015-05-07T08:34:13Z</time>
      </trkpt>
      <trkpt lat="48.09954" lon="7.69109">
        <ele>409.66</ele>
        <time>2015-05-07T08:34:14Z</time>
      </trkpt>
      <trkpt lat="48.09954" lon="7.69113">
        <ele>414.95</ele>
        <time>2015-05-07T08:34:16Z</time>
      </trkpt>
      <trkpt lat="48.09954" lon="7.69115">
        <ele>411.58</ele>
        <time>2015-05-07T08:34:17Z</time>
      </trkpt>
      <trkpt lat="48.09953" lon="7.69128">
        <ele>414.95</ele>
        <time>2015-05-07T08:34:24Z</time>
      </trkpt>
      <trkpt lat="48.09953" lon="7.69137">
        <ele>414.95</ele>
        <time>2015-05-07T08:34:29Z</time>
      </trkpt>
      <trkpt lat="48.09954" lon="7.69143">
        <ele>412.06</ele>
        <time>2015-05-07T08:34:32Z</time>
      </trkpt>
      <trkpt lat="48.09954" lon="7.69149">
        <ele>415.43</ele>
        <time>2015-05-07T08:34:35Z</time>
      </trkpt>
      <trkpt lat="48.09954" lon="7.69151">
        <ele>415.43</ele>
        <time>2015-05-07T08:34:36Z</time>
      </trkpt>
      <trkpt lat="48.09954" lon="7.69156">
        <ele>411.58</ele>
        <time>2015-05-07T08:34:39Z</time>
      </trkpt>
      <trkpt lat="48.09954" lon="7.69164">
        <ele>415.43</ele>
        <time>2015-05-07T08:34:43Z</time>
      </trkpt>
      <trkpt lat="48.09954" lon="7.69172">
        <ele>413.98</ele>
        <time>2015-05-07T08:34:47Z</time>
      </trkpt>
      <trkpt lat="48.09953" lon="7.69178">
        <ele>417.35</ele>
        <time>2015-05-07T08:34:50Z</time>
      </trkpt>
      <trkpt lat="48.09953" lon="7.69185">
        <ele>413.02</ele>
        <time>2015-05-07T08:34:54Z</time>
      </trkpt>
      <trkpt lat="48.09953" lon="7.69187">
        <ele>413.02</ele>
        <time>2015-05-07T08:34:55Z</time>
      </trkpt>
      <trkpt lat="48.09952" lon="7.69193">
        <ele>416.39</ele>
        <time>2015-05-07T08:34:58Z</time>
      </trkpt>
      <trkpt lat="48.09951" lon="7.69197">
        <ele>413.5</ele>
        <time>2015-05-07T08:35:00Z</time>
      </trkpt>
      <trkpt lat="48.0995" lon="7.69204">
        <ele>416.39</ele>
        <time>2015-05-07T08:35:04Z</time>
      </trkpt>
      <trkpt lat="48.0995" lon="7.69207">
        <ele>417.83</ele>
        <time>2015-05-07T08:35:06Z</time>
      </trkpt>
      <trkpt lat="48.09948" lon="7.69216">
        <ele>414.47</ele>
        <time>2015-05-07T08:35:10Z</time>
      </trkpt>
      <trkpt lat="48.09948" lon="7.69219">
        <ele>419.27</ele>
        <time>2015-05-07T08:35:12Z</time>
      </trkpt>
      <trkpt lat="48.09947" lon="7.69221">
        <ele>418.79</ele>
        <time>2015-05-07T08:35:13Z</time>
      </trkpt>
      <trkpt lat="48.09947" lon="7.69225">
        <ele>414.47</ele>
        <time>2015-05-07T08:35:15Z</time>
      </trkpt>
      <trkpt lat="48.09946" lon="7.69226">
        <ele>414.95</ele>
        <time>2015-05-07T08:35:16Z</time>
      </trkpt>
      <trkpt lat="48.09946" lon="7.69232">
        <ele>418.79</ele>
        <time>2015-05-07T08:35:19Z</time>
      </trkpt>
      <trkpt lat="48.09946" lon="7.69235">
        <ele>418.79</ele>
        <time>2015-05-07T08:35:20Z</time>
      </trkpt>
      <trkpt lat="48.09945" lon="7.6924">
        <ele>415.91</ele>
        <time>2015-05-07T08:35:23Z</time>
      </trkpt>
      <trkpt lat="48.09945" lon="7.69249">
        <ele>420.23</ele>
        <time>2015-05-07T08:35:27Z</time>
      </trkpt>
      <trkpt lat="48.09945" lon="7.69251">
        <ele>419.75</ele>
        <time>2015-05-07T08:35:28Z</time>
      </trkpt>
      <trkpt lat="48.09944" lon="7.6926">
        <ele>415.91</ele>
        <time>2015-05-07T08:35:33Z</time>
      </trkpt>
      <trkpt lat="48.09944" lon="7.69268">
        <ele>419.27</ele>
        <time>2015-05-07T08:35:37Z</time>
      </trkpt>
      <trkpt lat="48.09943" lon="7.69272">
        <ele>420.23</ele>
        <time>2015-05-07T08:35:39Z</time>
      </trkpt>
      <trkpt lat="48.09942" lon="7.69282">
        <ele>416.87</ele>
        <time>2015-05-07T08:35:44Z</time>
      </trkpt>
      <trkpt lat="48.09941" lon="7.69291">
        <ele>419.75</ele>
        <time>2015-05-07T08:35:49Z</time>
      </trkpt>
      <trkpt lat="48.09941" lon="7.69295">
        <ele>421.19</ele>
        <time>2015-05-07T08:35:51Z</time>
      </trkpt>
      <trkpt lat="48.0994" lon="7.693">
        <ele>417.35</ele>
        <time>2015-05-07T08:35:54Z</time>
      </trkpt>
      <trkpt lat="48.09939" lon="7.69304">
        <ele>415.91</ele>
        <time>2015-05-07T08:35:56Z</time>
      </trkpt>
      <trkpt lat="48.09938" lon="7.6931">
        <ele>419.75</ele>
        <time>2015-05-07T08:35:59Z</time>
      </trkpt>
      <trkpt lat="48.09933" lon="7.69324">
        <ele>419.75</ele>
        <time>2015-05-07T08:36:08Z</time>
      </trkpt>
      <trkpt lat="48.09928" lon="7.69334">
        <ele>420.71</ele>
        <time>2015-05-07T08:36:15Z</time>
      </trkpt>
      <trkpt lat="48.09926" lon="7.69337">
        <ele>422.16</ele>
        <time>2015-05-07T08:36:17Z</time>
      </trkpt>
      <trkpt lat="48.09922" lon="7.69341">
        <ele>418.31</ele>
        <time>2015-05-07T08:36:20Z</time>
      </trkpt>
      <trkpt lat="48.09921" lon="7.69342">
        <ele>419.27</ele>
        <time>2015-05-07T08:36:21Z</time>
      </trkpt>
      <trkpt lat="48.09919" lon="7.69345">
        <ele>423.6</ele>
        <time>2015-05-07T08:36:23Z</time>
      </trkpt>
      <trkpt lat="48.09918" lon="7.69346">
        <ele>422.64</ele>
        <time>2015-05-07T08:36:24Z</time>
      </trkpt>
      <trkpt lat="48.09915" lon="7.69353">
        <ele>418.31</ele>
        <time>2015-05-07T08:36:28Z</time>
      </trkpt>
      <trkpt lat="48.09914" lon="7.69355">
        <ele>419.27</ele>
        <time>2015-05-07T08:36:29Z</time>
      </trkpt>
      <trkpt lat="48.09911" lon="7.69361">
        <ele>422.64</ele>
        <time>2015-05-07T08:36:33Z</time>
      </trkpt>
      <trkpt lat="48.09905" lon="7.69385">
        <ele>418.79</ele>
        <time>2015-05-07T08:36:46Z</time>
      </trkpt>
      <trkpt lat="48.09903" lon="7.69397">
        <ele>421.19</ele>
        <time>2015-05-07T08:36:51Z</time>
      </trkpt>
      <trkpt lat="48.09904" lon="7.69424">
        <ele>421.19</ele>
        <time>2015-05-07T08:37:10Z</time>
      </trkpt>
      <trkpt lat="48.09905" lon="7.69424">
        <ele>423.6</ele>
        <time>2015-05-07T08:37:26Z</time>
      </trkpt>
      <trkpt lat="48.09903" lon="7.69426">
        <ele>422.64</ele>
        <time>2015-05-07T08:37:29Z</time>
      </trkpt>
      <trkpt lat="48.09903" lon="7.69426">
        <ele>421.68</ele>
        <time>2015-05-07T08:37:30Z</time>
      </trkpt>
      <trkpt lat="48.09902" lon="7.6943">
        <ele>417.35</ele>
        <time>2015-05-07T08:37:33Z</time>
      </trkpt>
      <trkpt lat="48.09901" lon="7.69433">
        <ele>422.16</ele>
        <time>2015-05-07T08:37:35Z</time>
      </trkpt>
      <trkpt lat="48.099" lon="7.69435">
        <ele>421.68</ele>
        <time>2015-05-07T08:37:36Z</time>
      </trkpt>
      <trkpt lat="48.09888" lon="7.69452">
        <ele>418.31</ele>
        <time>2015-05-07T08:37:49Z</time>
      </trkpt>
      <trkpt lat="48.09884" lon="7.69457">
        <ele>420.71</ele>
        <time>2015-05-07T08:37:53Z</time>
      </trkpt>
      <trkpt lat="48.09881" lon="7.69461">
        <ele>424.56</ele>
        <time>2015-05-07T08:37:56Z</time>
      </trkpt>
      <trkpt lat="48.09872" lon="7.69468">
        <ele>421.19</ele>
        <time>2015-05-07T08:38:03Z</time>
      </trkpt>
      <trkpt lat="48.09869" lon="7.69469">
        <ele>419.75</ele>
        <time>2015-05-07T08:38:05Z</time>
      </trkpt>
      <trkpt lat="48.09864" lon="7.69472">
        <ele>423.6</ele>
        <time>2015-05-07T08:38:08Z</time>
      </trkpt>
      <trkpt lat="48.09863" lon="7.69472">
        <ele>423.12</ele>
        <time>2015-05-07T08:38:09Z</time>
      </trkpt>
      <trkpt lat="48.0986" lon="7.69475">
        <ele>426</ele>
        <time>2015-05-07T08:38:12Z</time>
      </trkpt>
      <trkpt lat="48.09853" lon="7.69481">
        <ele>422.64</ele>
        <time>2015-05-07T08:38:18Z</time>
      </trkpt>
      <trkpt lat="48.09844" lon="7.69486">
        <ele>423.12</ele>
        <time>2015-05-07T08:38:25Z</time>
      </trkpt>
      <trkpt lat="48.09841" lon="7.69487">
        <ele>425.52</ele>
        <time>2015-05-07T08:38:27Z</time>
      </trkpt>
      <trkpt lat="48.09832" lon="7.69492">
        <ele>422.64</ele>
        <time>2015-05-07T08:38:34Z</time>
      </trkpt>
      <trkpt lat="48.09827" lon="7.69495">
        <ele>426</ele>
        <time>2015-05-07T08:38:38Z</time>
      </trkpt>
      <trkpt lat="48.09813" lon="7.69508">
        <ele>422.64</ele>
        <time>2015-05-07T08:38:50Z</time>
      </trkpt>
      <trkpt lat="48.09807" lon="7.69513">
        <ele>427.44</ele>
        <time>2015-05-07T08:38:55Z</time>
      </trkpt>
      <trkpt lat="48.09796" lon="7.69524">
        <ele>422.16</ele>
        <time>2015-05-07T08:39:05Z</time>
      </trkpt>
      <trkpt lat="48.09796" lon="7.69526">
        <ele>423.12</ele>
        <time>2015-05-07T08:39:06Z</time>
      </trkpt>
      <trkpt lat="48.09792" lon="7.6953">
        <ele>426.48</ele>
        <time>2015-05-07T08:39:10Z</time>
      </trkpt>
      <trkpt lat="48.09785" lon="7.6954">
        <ele>421.68</ele>
        <time>2015-05-07T08:39:17Z</time>
      </trkpt>
      <trkpt lat="48.09783" lon="7.69542">
        <ele>425.52</ele>
        <time>2015-05-07T08:39:19Z</time>
      </trkpt>
      <trkpt lat="48.09781" lon="7.69546">
        <ele>426.96</ele>
        <time>2015-05-07T08:39:22Z</time>
      </trkpt>
      <trkpt lat="48.09779" lon="7.69549">
        <ele>424.56</ele>
        <time>2015-05-07T08:39:24Z</time>
      </trkpt>
      <trkpt lat="48.09778" lon="7.69553">
        <ele>425.52</ele>
        <time>2015-05-07T08:39:26Z</time>
      </trkpt>
      <trkpt lat="48.09776" lon="7.69556">
        <ele>429.37</ele>
        <time>2015-05-07T08:39:28Z</time>
      </trkpt>
      <trkpt lat="48.09773" lon="7.69569">
        <ele>426</ele>
        <time>2015-05-07T08:39:35Z</time>
      </trkpt>
      <trkpt lat="48.0977" lon="7.69576">
        <ele>428.4</ele>
        <time>2015-05-07T08:39:39Z</time>
      </trkpt>
      <trkpt lat="48.09769" lon="7.6958">
        <ele>430.33</ele>
        <time>2015-05-07T08:39:41Z</time>
      </trkpt>
      <trkpt lat="48.09769" lon="7.69589">
        <ele>426.48</ele>
        <time>2015-05-07T08:39:46Z</time>
      </trkpt>
      <trkpt lat="48.09768" lon="7.69593">
        <ele>427.44</ele>
        <time>2015-05-07T08:39:49Z</time>
      </trkpt>
      <trkpt lat="48.09767" lon="7.69597">
        <ele>432.25</ele>
        <time>2015-05-07T08:39:51Z</time>
      </trkpt>
      <trkpt lat="48.09767" lon="7.69598">
        <ele>430.81</ele>
        <time>2015-05-07T08:39:52Z</time>
      </trkpt>
      <trkpt lat="48.09766" lon="7.69606">
        <ele>433.21</ele>
        <time>2015-05-07T08:39:57Z</time>
      </trkpt>
      <trkpt lat="48.09767" lon="7.69619">
        <ele>434.65</ele>
        <time>2015-05-07T08:40:04Z</time>
      </trkpt>
      <trkpt lat="48.09769" lon="7.69625">
        <ele>431.77</ele>
        <time>2015-05-07T08:40:07Z</time>
      </trkpt>
      <trkpt lat="48.0977" lon="7.69628">
        <ele>436.58</ele>
        <time>2015-05-07T08:40:09Z</time>
      </trkpt>
      <trkpt lat="48.0977" lon="7.6963">
        <ele>436.1</ele>
        <time>2015-05-07T08:40:10Z</time>
      </trkpt>
      <trkpt lat="48.09771" lon="7.69633">
        <ele>432.73</ele>
        <time>2015-05-07T08:40:12Z</time>
      </trkpt>
      <trkpt lat="48.09772" lon="7.69634">
        <ele>437.06</ele>
        <time>2015-05-07T08:40:13Z</time>
      </trkpt>
      <trkpt lat="48.09773" lon="7.69637">
        <ele>432.73</ele>
        <time>2015-05-07T08:40:16Z</time>
      </trkpt>
      <trkpt lat="48.09773" lon="7.69642">
        <ele>436.58</ele>
        <time>2015-05-07T08:40:20Z</time>
      </trkpt>
      <trkpt lat="48.09773" lon="7.69647">
        <ele>434.17</ele>
        <time>2015-05-07T08:40:23Z</time>
      </trkpt>
      <trkpt lat="48.09774" lon="7.69655">
        <ele>438.5</ele>
        <time>2015-05-07T08:40:28Z</time>
      </trkpt>
      <trkpt lat="48.09774" lon="7.69656">
        <ele>435.13</ele>
        <time>2015-05-07T08:40:29Z</time>
      </trkpt>
      <trkpt lat="48.09774" lon="7.69659">
        <ele>438.98</ele>
        <time>2015-05-07T08:40:36Z</time>
      </trkpt>
      <trkpt lat="48.09774" lon="7.69659">
        <ele>435.61</ele>
        <time>2015-05-07T08:40:37Z</time>
      </trkpt>
      <trkpt lat="48.09776" lon="7.69663">
        <ele>435.61</ele>
        <time>2015-05-07T08:40:53Z</time>
      </trkpt>
      <trkpt lat="48.09776" lon="7.69658">
        <ele>437.06</ele>
        <time>2015-05-07T08:41:16Z</time>
      </trkpt>
      <trkpt lat="48.09776" lon="7.69665">
        <ele>436.1</ele>
        <time>2015-05-07T08:41:39Z</time>
      </trkpt>
      <trkpt lat="48.09777" lon="7.69672">
        <ele>437.54</ele>
        <time>2015-05-07T08:41:44Z</time>
      </trkpt>
      <trkpt lat="48.09777" lon="7.69677">
        <ele>434.17</ele>
        <time>2015-05-07T08:41:47Z</time>
      </trkpt>
      <trkpt lat="48.09776" lon="7.69681">
        <ele>436.58</ele>
        <time>2015-05-07T08:41:50Z</time>
      </trkpt>
      <trkpt lat="48.09774" lon="7.69685">
        <ele>438.02</ele>
        <time>2015-05-07T08:41:53Z</time>
      </trkpt>
      <trkpt lat="48.09774" lon="7.69688">
        <ele>436.1</ele>
        <time>2015-05-07T08:41:56Z</time>
      </trkpt>
      <trkpt lat="48.09768" lon="7.6968">
        <ele>437.54</ele>
        <time>2015-05-07T08:42:16Z</time>
      </trkpt>
      <trkpt lat="48.09767" lon="7.69681">
        <ele>438.5</ele>
        <time>2015-05-07T08:42:27Z</time>
      </trkpt>
      <trkpt lat="48.09768" lon="7.69683">
        <ele>436.58</ele>
        <time>2015-05-07T08:42:29Z</time>
      </trkpt>
      <trkpt lat="48.09769" lon="7.69685">
        <ele>435.61</ele>
        <time>2015-05-07T08:42:47Z</time>
      </trkpt>
      <trkpt lat="48.09775" lon="7.69682">
        <ele>438.5</ele>
        <time>2015-05-07T08:42:51Z</time>
      </trkpt>
      <trkpt lat="48.0978" lon="7.69678">
        <ele>438.98</ele>
        <time>2015-05-07T08:42:53Z</time>
      </trkpt>
      <trkpt lat="48.09783" lon="7.69674">
        <ele>438.5</ele>
        <time>2015-05-07T08:42:55Z</time>
      </trkpt>
      <trkpt lat="48.09784" lon="7.69667">
        <ele>436.1</ele>
        <time>2015-05-07T08:42:58Z</time>
      </trkpt>
      <trkpt lat="48.09782" lon="7.69663">
        <ele>438.02</ele>
        <time>2015-05-07T08:43:01Z</time>
      </trkpt>
      <trkpt lat="48.09781" lon="7.69661">
        <ele>436.58</ele>
        <time>2015-05-07T08:43:03Z</time>
      </trkpt>
      <trkpt lat="48.0978" lon="7.6966">
        <ele>435.13</ele>
        <time>2015-05-07T08:43:33Z</time>
      </trkpt>
      <trkpt lat="48.0978" lon="7.69661">
        <ele>438.02</ele>
        <time>2015-05-07T08:43:36Z</time>
      </trkpt>
      <trkpt lat="48.09781" lon="7.6966">
        <ele>438.5</ele>
        <time>2015-05-07T08:43:42Z</time>
      </trkpt>
      <trkpt lat="48.09785" lon="7.6966">
        <ele>438.02</ele>
        <time>2015-05-07T08:43:46Z</time>
      </trkpt>
      <trkpt lat="48.09799" lon="7.69656">
        <ele>439.94</ele>
        <time>2015-05-07T08:43:57Z</time>
      </trkpt>
      <trkpt lat="48.09801" lon="7.69654">
        <ele>438.5</ele>
        <time>2015-05-07T08:43:59Z</time>
      </trkpt>
      <trkpt lat="48.0981" lon="7.69654">
        <ele>439.46</ele>
        <time>2015-05-07T08:44:07Z</time>
      </trkpt>
      <trkpt lat="48.09829" lon="7.6966">
        <ele>443.31</ele>
        <time>2015-05-07T08:44:24Z</time>
      </trkpt>
      <trkpt lat="48.0983" lon="7.69659">
        <ele>443.31</ele>
        <time>2015-05-07T08:44:25Z</time>
      </trkpt>
      <trkpt lat="48.0983" lon="7.69659">
        <ele>438.02</ele>
        <time>2015-05-07T08:44:32Z</time>
      </trkpt>
      <trkpt lat="48.09833" lon="7.69658">
        <ele>442.34</ele>
        <time>2015-05-07T08:44:34Z</time>
      </trkpt>
      <trkpt lat="48.09836" lon="7.69658">
        <ele>444.27</ele>
        <time>2015-05-07T08:44:37Z</time>
      </trkpt>
      <trkpt lat="48.0984" lon="7.6966">
        <ele>442.34</ele>
        <time>2015-05-07T08:44:40Z</time>
      </trkpt>
      <trkpt lat="48.09844" lon="7.69661">
        <ele>440.42</ele>
        <time>2015-05-07T08:44:43Z</time>
      </trkpt>
      <trkpt lat="48.09849" lon="7.69662">
        <ele>443.79</ele>
        <time>2015-05-07T08:44:47Z</time>
      </trkpt>
      <trkpt lat="48.09852" lon="7.69662">
        <ele>444.75</ele>
        <time>2015-05-07T08:44:49Z</time>
      </trkpt>
      <trkpt lat="48.09856" lon="7.69662">
        <ele>441.86</ele>
        <time>2015-05-07T08:44:52Z</time>
      </trkpt>
      <trkpt lat="48.09863" lon="7.69663">
        <ele>443.79</ele>
        <time>2015-05-07T08:44:57Z</time>
      </trkpt>
      <trkpt lat="48.09868" lon="7.69664">
        <ele>446.67</ele>
        <time>2015-05-07T08:45:01Z</time>
      </trkpt>
      <trkpt lat="48.09873" lon="7.69665">
        <ele>443.79</ele>
        <time>2015-05-07T08:45:05Z</time>
      </trkpt>
      <trkpt lat="48.09876" lon="7.69666">
        <ele>442.82</ele>
        <time>2015-05-07T08:45:07Z</time>
      </trkpt>
      <trkpt lat="48.09884" lon="7.69666">
        <ele>443.31</ele>
        <time>2015-05-07T08:45:13Z</time>
      </trkpt>
      <trkpt lat="48.0989" lon="7.69666">
        <ele>445.71</ele>
        <time>2015-05-07T08:45:17Z</time>
      </trkpt>
      <trkpt lat="48.09902" lon="7.69665">
        <ele>445.23</ele>
        <time>2015-05-07T08:45:27Z</time>
      </trkpt>
      <trkpt lat="48.09906" lon="7.69665">
        <ele>443.79</ele>
        <time>2015-05-07T08:45:30Z</time>
      </trkpt>
      <trkpt lat="48.0992" lon="7.69665">
        <ele>446.19</ele>
        <time>2015-05-07T08:45:40Z</time>
      </trkpt>
      <trkpt lat="48.09935" lon="7.69664">
        <ele>444.27</ele>
        <time>2015-05-07T08:45:53Z</time>
      </trkpt>
      <trkpt lat="48.09943" lon="7.69669">
        <ele>448.11</ele>
        <time>2015-05-07T08:46:00Z</time>
      </trkpt>
      <trkpt lat="48.09944" lon="7.69668">
        <ele>448.11</ele>
        <time>2015-05-07T08:46:01Z</time>
      </trkpt>
      <trkpt lat="48.09956" lon="7.69669">
        <ele>446.19</ele>
        <time>2015-05-07T08:46:09Z</time>
      </trkpt>
      <trkpt lat="48.09961" lon="7.6967">
        <ele>451</ele>
        <time>2015-05-07T08:46:13Z</time>
      </trkpt>
      <trkpt lat="48.09964" lon="7.6967">
        <ele>446.19</ele>
        <time>2015-05-07T08:46:16Z</time>
      </trkpt>
      <trkpt lat="48.09966" lon="7.6967">
        <ele>447.15</ele>
        <time>2015-05-07T08:46:17Z</time>
      </trkpt>
      <trkpt lat="48.09967" lon="7.6967">
        <ele>450.03</ele>
        <time>2015-05-07T08:46:18Z</time>
      </trkpt>
      <trkpt lat="48.09971" lon="7.6967">
        <ele>448.11</ele>
        <time>2015-05-07T08:46:22Z</time>
      </trkpt>
      <trkpt lat="48.09974" lon="7.69671">
        <ele>452.44</ele>
        <time>2015-05-07T08:46:25Z</time>
      </trkpt>
      <trkpt lat="48.09975" lon="7.69671">
        <ele>452.44</ele>
        <time>2015-05-07T08:46:26Z</time>
      </trkpt>
      <trkpt lat="48.09977" lon="7.69671">
        <ele>448.59</ele>
        <time>2015-05-07T08:46:28Z</time>
      </trkpt>
      <trkpt lat="48.09978" lon="7.69671">
        <ele>449.07</ele>
        <time>2015-05-07T08:46:29Z</time>
      </trkpt>
      <trkpt lat="48.0998" lon="7.69671">
        <ele>452.92</ele>
        <time>2015-05-07T08:46:31Z</time>
      </trkpt>
      <trkpt lat="48.09984" lon="7.69672">
        <ele>451</ele>
        <time>2015-05-07T08:46:35Z</time>
      </trkpt>
      <trkpt lat="48.09986" lon="7.69674">
        <ele>454.36</ele>
        <time>2015-05-07T08:46:38Z</time>
      </trkpt>
      <trkpt lat="48.09991" lon="7.69675">
        <ele>450.03</ele>
        <time>2015-05-07T08:46:43Z</time>
      </trkpt>
      <trkpt lat="48.09992" lon="7.69676">
        <ele>453.4</ele>
        <time>2015-05-07T08:46:44Z</time>
      </trkpt>
      <trkpt lat="48.09994" lon="7.69677">
        <ele>456.76</ele>
        <time>2015-05-07T08:46:46Z</time>
      </trkpt>
      <trkpt lat="48.09996" lon="7.69679">
        <ele>451</ele>
        <time>2015-05-07T08:46:48Z</time>
      </trkpt>
      <trkpt lat="48.09997" lon="7.6968">
        <ele>453.4</ele>
        <time>2015-05-07T08:46:49Z</time>
      </trkpt>
      <trkpt lat="48.09999" lon="7.6968">
        <ele>457.24</ele>
        <time>2015-05-07T08:46:50Z</time>
      </trkpt>
      <trkpt lat="48.1" lon="7.69681">
        <ele>456.28</ele>
        <time>2015-05-07T08:46:51Z</time>
      </trkpt>
      <trkpt lat="48.1001" lon="7.69682">
        <ele>454.36</ele>
        <time>2015-05-07T08:47:01Z</time>
      </trkpt>
      <trkpt lat="48.10012" lon="7.69682">
        <ele>458.69</ele>
        <time>2015-05-07T08:47:04Z</time>
      </trkpt>
      <trkpt lat="48.10014" lon="7.69682">
        <ele>455.32</ele>
        <time>2015-05-07T08:47:06Z</time>
      </trkpt>
      <trkpt lat="48.10015" lon="7.69682">
        <ele>460.61</ele>
        <time>2015-05-07T08:47:08Z</time>
      </trkpt>
      <trkpt lat="48.10016" lon="7.69683">
        <ele>459.17</ele>
        <time>2015-05-07T08:47:09Z</time>
      </trkpt>
      <trkpt lat="48.10018" lon="7.69683">
        <ele>457.72</ele>
        <time>2015-05-07T08:47:11Z</time>
      </trkpt>
      <trkpt lat="48.10019" lon="7.69683">
        <ele>462.53</ele>
        <time>2015-05-07T08:47:13Z</time>
      </trkpt>
      <trkpt lat="48.1002" lon="7.69683">
        <ele>458.21</ele>
        <time>2015-05-07T08:47:14Z</time>
      </trkpt>
      <trkpt lat="48.10021" lon="7.69684">
        <ele>458.21</ele>
        <time>2015-05-07T08:47:15Z</time>
      </trkpt>
      <trkpt lat="48.10022" lon="7.69684">
        <ele>461.57</ele>
        <time>2015-05-07T08:47:16Z</time>
      </trkpt>
      <trkpt lat="48.10024" lon="7.69686">
        <ele>458.21</ele>
        <time>2015-05-07T08:47:18Z</time>
      </trkpt>
      <trkpt lat="48.10025" lon="7.69686">
        <ele>458.21</ele>
        <time>2015-05-07T08:47:19Z</time>
      </trkpt>
      <trkpt lat="48.10027" lon="7.69686">
        <ele>462.53</ele>
        <time>2015-05-07T08:47:20Z</time>
      </trkpt>
      <trkpt lat="48.10028" lon="7.69687">
        <ele>460.13</ele>
        <time>2015-05-07T08:47:21Z</time>
      </trkpt>
      <trkpt lat="48.10034" lon="7.69688">
        <ele>463.49</ele>
        <time>2015-05-07T08:47:25Z</time>
      </trkpt>
      <trkpt lat="48.10046" lon="7.69689">
        <ele>459.65</ele>
        <time>2015-05-07T08:47:33Z</time>
      </trkpt>
      <trkpt lat="48.10048" lon="7.69689">
        <ele>464.93</ele>
        <time>2015-05-07T08:47:34Z</time>
      </trkpt>
      <trkpt lat="48.10056" lon="7.6969">
        <ele>467.82</ele>
        <time>2015-05-07T08:47:43Z</time>
      </trkpt>
      <trkpt lat="48.10057" lon="7.6969">
        <ele>463.01</ele>
        <time>2015-05-07T08:47:44Z</time>
      </trkpt>
      <trkpt lat="48.10059" lon="7.6969">
        <ele>466.86</ele>
        <time>2015-05-07T08:47:45Z</time>
      </trkpt>
      <trkpt lat="48.10061" lon="7.69689">
        <ele>463.01</ele>
        <time>2015-05-07T08:47:47Z</time>
      </trkpt>
      <trkpt lat="48.10062" lon="7.69689">
        <ele>467.82</ele>
        <time>2015-05-07T08:47:48Z</time>
      </trkpt>
      <trkpt lat="48.10066" lon="7.69688">
        <ele>466.86</ele>
        <time>2015-05-07T08:47:52Z</time>
      </trkpt>
      <trkpt lat="48.10076" lon="7.69691">
        <ele>470.7</ele>
        <time>2015-05-07T08:48:05Z</time>
      </trkpt>
      <trkpt lat="48.10085" lon="7.69698">
        <ele>467.34</ele>
        <time>2015-05-07T08:48:22Z</time>
      </trkpt>
      <trkpt lat="48.10085" lon="7.69698">
        <ele>468.3</ele>
        <time>2015-05-07T08:48:23Z</time>
      </trkpt>
      <trkpt lat="48.10085" lon="7.69698">
        <ele>468.78</ele>
        <time>2015-05-07T08:48:25Z</time>
      </trkpt>
      <trkpt lat="48.10092" lon="7.69701">
        <ele>471.66</ele>
        <time>2015-05-07T08:49:57Z</time>
      </trkpt>
      <trkpt lat="48.10103" lon="7.69707">
        <ele>467.34</ele>
        <time>2015-05-07T08:50:04Z</time>
      </trkpt>
      <trkpt lat="48.10125" lon="7.69717">
        <ele>470.22</ele>
        <time>2015-05-07T08:50:20Z</time>
      </trkpt>
      <trkpt lat="48.10126" lon="7.69718">
        <ele>469.74</ele>
        <time>2015-05-07T08:50:21Z</time>
      </trkpt>
      <trkpt lat="48.10131" lon="7.69719">
        <ele>470.22</ele>
        <time>2015-05-07T08:50:25Z</time>
      </trkpt>
      <trkpt lat="48.10135" lon="7.69719">
        <ele>466.86</ele>
        <time>2015-05-07T08:50:28Z</time>
      </trkpt>
      <trkpt lat="48.10136" lon="7.69719">
        <ele>465.9</ele>
        <time>2015-05-07T08:50:29Z</time>
      </trkpt>
      <trkpt lat="48.10141" lon="7.6972">
        <ele>462.05</ele>
        <time>2015-05-07T08:50:33Z</time>
      </trkpt>
      <trkpt lat="48.10146" lon="7.69721">
        <ele>466.38</ele>
        <time>2015-05-07T08:50:36Z</time>
      </trkpt>
      <trkpt lat="48.10154" lon="7.69719">
        <ele>463.01</ele>
        <time>2015-05-07T08:50:43Z</time>
      </trkpt>
      <trkpt lat="48.10156" lon="7.6972">
        <ele>463.49</ele>
        <time>2015-05-07T08:50:44Z</time>
      </trkpt>
      <trkpt lat="48.10167" lon="7.69721">
        <ele>466.38</ele>
        <time>2015-05-07T08:50:52Z</time>
      </trkpt>
      <trkpt lat="48.10169" lon="7.69721">
        <ele>464.45</ele>
        <time>2015-05-07T08:50:54Z</time>
      </trkpt>
      <trkpt lat="48.10173" lon="7.69722">
        <ele>460.61</ele>
        <time>2015-05-07T08:50:57Z</time>
      </trkpt>
      <trkpt lat="48.10175" lon="7.69722">
        <ele>459.17</ele>
        <time>2015-05-07T08:50:59Z</time>
      </trkpt>
      <trkpt lat="48.10179" lon="7.69723">
        <ele>460.61</ele>
        <time>2015-05-07T08:51:02Z</time>
      </trkpt>
      <trkpt lat="48.10183" lon="7.69722">
        <ele>463.49</ele>
        <time>2015-05-07T08:51:05Z</time>
      </trkpt>
      <trkpt lat="48.10184" lon="7.69722">
        <ele>463.49</ele>
        <time>2015-05-07T08:51:06Z</time>
      </trkpt>
      <trkpt lat="48.10189" lon="7.69722">
        <ele>460.13</ele>
        <time>2015-05-07T08:51:10Z</time>
      </trkpt>
      <trkpt lat="48.10191" lon="7.69722">
        <ele>456.76</ele>
        <time>2015-05-07T08:51:12Z</time>
      </trkpt>
      <trkpt lat="48.10193" lon="7.69723">
        <ele>455.32</ele>
        <time>2015-05-07T08:51:14Z</time>
      </trkpt>
      <trkpt lat="48.10197" lon="7.69723">
        <ele>458.69</ele>
        <time>2015-05-07T08:51:17Z</time>
      </trkpt>
      <trkpt lat="48.10198" lon="7.69723">
        <ele>458.69</ele>
        <time>2015-05-07T08:51:18Z</time>
      </trkpt>
      <trkpt lat="48.10205" lon="7.69726">
        <ele>456.28</ele>
        <time>2015-05-07T08:51:24Z</time>
      </trkpt>
      <trkpt lat="48.10208" lon="7.6973">
        <ele>453.4</ele>
        <time>2015-05-07T08:51:27Z</time>
      </trkpt>
      <trkpt lat="48.10214" lon="7.69731">
        <ele>456.28</ele>
        <time>2015-05-07T08:51:32Z</time>
      </trkpt>
      <trkpt lat="48.10224" lon="7.69733">
        <ele>451.96</ele>
        <time>2015-05-07T08:51:41Z</time>
      </trkpt>
      <trkpt lat="48.10225" lon="7.69733">
        <ele>452.44</ele>
        <time>2015-05-07T08:51:42Z</time>
      </trkpt>
      <trkpt lat="48.10242" lon="7.69737">
        <ele>453.4</ele>
        <time>2015-05-07T08:52:04Z</time>
      </trkpt>
      <trkpt lat="48.10245" lon="7.69736">
        <ele>454.84</ele>
        <time>2015-05-07T08:52:12Z</time>
      </trkpt>
      <trkpt lat="48.1026" lon="7.69737">
        <ele>454.84</ele>
        <time>2015-05-07T08:52:24Z</time>
      </trkpt>
      <trkpt lat="48.10276" lon="7.69736">
        <ele>453.4</ele>
        <time>2015-05-07T08:52:35Z</time>
      </trkpt>
      <trkpt lat="48.10289" lon="7.6974">
        <ele>457.24</ele>
        <time>2015-05-07T08:52:46Z</time>
      </trkpt>
      <trkpt lat="48.10292" lon="7.6974">
        <ele>459.65</ele>
        <time>2015-05-07T08:52:49Z</time>
      </trkpt>
      <trkpt lat="48.10297" lon="7.69742">
        <ele>457.24</ele>
        <time>2015-05-07T08:52:54Z</time>
      </trkpt>
      <trkpt lat="48.10302" lon="7.69745">
        <ele>457.24</ele>
        <time>2015-05-07T08:52:58Z</time>
      </trkpt>
      <trkpt lat="48.10305" lon="7.69746">
        <ele>458.21</ele>
        <time>2015-05-07T08:53:00Z</time>
      </trkpt>
      <trkpt lat="48.10329" lon="7.69753">
        <ele>457.24</ele>
        <time>2015-05-07T08:53:17Z</time>
      </trkpt>
      <trkpt lat="48.1033" lon="7.69754">
        <ele>457.24</ele>
        <time>2015-05-07T08:53:18Z</time>
      </trkpt>
      <trkpt lat="48.10335" lon="7.69756">
        <ele>460.13</ele>
        <time>2015-05-07T08:53:22Z</time>
      </trkpt>
      <trkpt lat="48.10354" lon="7.69766">
        <ele>456.76</ele>
        <time>2015-05-07T08:53:36Z</time>
      </trkpt>
      <trkpt lat="48.10355" lon="7.69766">
        <ele>456.28</ele>
        <time>2015-05-07T08:53:37Z</time>
      </trkpt>
      <trkpt lat="48.1038" lon="7.69779">
        <ele>455.32</ele>
        <time>2015-05-07T08:53:58Z</time>
      </trkpt>
      <trkpt lat="48.10383" lon="7.69784">
        <ele>456.76</ele>
        <time>2015-05-07T08:54:04Z</time>
      </trkpt>
      <trkpt lat="48.10387" lon="7.69787">
        <ele>453.4</ele>
        <time>2015-05-07T08:54:11Z</time>
      </trkpt>
      <trkpt lat="48.10389" lon="7.69791">
        <ele>454.84</ele>
        <time>2015-05-07T08:54:14Z</time>
      </trkpt>
      <trkpt lat="48.10396" lon="7.69806">
        <ele>454.84</ele>
        <time>2015-05-07T08:54:28Z</time>
      </trkpt>
      <trkpt lat="48.10403" lon="7.69813">
        <ele>453.4</ele>
        <time>2015-05-07T08:54:33Z</time>
      </trkpt>
      <trkpt lat="48.10409" lon="7.69818">
        <ele>453.88</ele>
        <time>2015-05-07T08:54:36Z</time>
      </trkpt>
      <trkpt lat="48.10422" lon="7.69825">
        <ele>455.32</ele>
        <time>2015-05-07T08:54:46Z</time>
      </trkpt>
      <trkpt lat="48.10426" lon="7.69828">
        <ele>453.4</ele>
        <time>2015-05-07T08:54:49Z</time>
      </trkpt>
      <trkpt lat="48.10432" lon="7.69831">
        <ele>456.28</ele>
        <time>2015-05-07T08:54:53Z</time>
      </trkpt>
      <trkpt lat="48.10438" lon="7.69839">
        <ele>452.92</ele>
        <time>2015-05-07T08:54:58Z</time>
      </trkpt>
      <trkpt lat="48.10449" lon="7.69848">
        <ele>456.28</ele>
        <time>2015-05-07T08:55:08Z</time>
      </trkpt>
      <trkpt lat="48.10456" lon="7.69855">
        <ele>452.44</ele>
        <time>2015-05-07T08:55:14Z</time>
      </trkpt>
      <trkpt lat="48.10461" lon="7.69858">
        <ele>452.92</ele>
        <time>2015-05-07T08:55:18Z</time>
      </trkpt>
      <trkpt lat="48.10468" lon="7.69863">
        <ele>449.55</ele>
        <time>2015-05-07T08:55:24Z</time>
      </trkpt>
      <trkpt lat="48.10469" lon="7.69863">
        <ele>449.55</ele>
        <time>2015-05-07T08:55:25Z</time>
      </trkpt>
      <trkpt lat="48.10473" lon="7.69865">
        <ele>453.4</ele>
        <time>2015-05-07T08:55:28Z</time>
      </trkpt>
      <trkpt lat="48.10475" lon="7.69866">
        <ele>453.4</ele>
        <time>2015-05-07T08:55:29Z</time>
      </trkpt>
      <trkpt lat="48.10477" lon="7.69867">
        <ele>450.52</ele>
        <time>2015-05-07T08:55:31Z</time>
      </trkpt>
      <trkpt lat="48.10482" lon="7.69868">
        <ele>448.59</ele>
        <time>2015-05-07T08:55:34Z</time>
      </trkpt>
      <trkpt lat="48.10486" lon="7.69868">
        <ele>452.92</ele>
        <time>2015-05-07T08:55:37Z</time>
      </trkpt>
      <trkpt lat="48.10487" lon="7.69869">
        <ele>453.4</ele>
        <time>2015-05-07T08:55:38Z</time>
      </trkpt>
      <trkpt lat="48.10493" lon="7.69871">
        <ele>449.07</ele>
        <time>2015-05-07T08:55:42Z</time>
      </trkpt>
      <trkpt lat="48.10501" lon="7.69877">
        <ele>451.48</ele>
        <time>2015-05-07T08:55:49Z</time>
      </trkpt>
      <trkpt lat="48.10504" lon="7.69884">
        <ele>447.15</ele>
        <time>2015-05-07T08:55:53Z</time>
      </trkpt>
      <trkpt lat="48.10509" lon="7.69891">
        <ele>451</ele>
        <time>2015-05-07T08:55:59Z</time>
      </trkpt>
      <trkpt lat="48.1051" lon="7.69892">
        <ele>450.52</ele>
        <time>2015-05-07T08:56:00Z</time>
      </trkpt>
      <trkpt lat="48.10512" lon="7.69899">
        <ele>447.15</ele>
        <time>2015-05-07T08:56:06Z</time>
      </trkpt>
      <trkpt lat="48.10514" lon="7.69901">
        <ele>446.67</ele>
        <time>2015-05-07T08:56:07Z</time>
      </trkpt>
      <trkpt lat="48.10516" lon="7.69903">
        <ele>448.59</ele>
        <time>2015-05-07T08:56:10Z</time>
      </trkpt>
      <trkpt lat="48.1053" lon="7.69916">
        <ele>445.71</ele>
        <time>2015-05-07T08:56:22Z</time>
      </trkpt>
      <trkpt lat="48.10531" lon="7.69918">
        <ele>445.23</ele>
        <time>2015-05-07T08:56:23Z</time>
      </trkpt>
      <trkpt lat="48.10536" lon="7.69927">
        <ele>448.11</ele>
        <time>2015-05-07T08:56:29Z</time>
      </trkpt>
      <trkpt lat="48.10541" lon="7.69939">
        <ele>444.75</ele>
        <time>2015-05-07T08:56:36Z</time>
      </trkpt>
      <trkpt lat="48.10542" lon="7.69942">
        <ele>445.23</ele>
        <time>2015-05-07T08:56:37Z</time>
      </trkpt>
      <trkpt lat="48.10552" lon="7.69955">
        <ele>448.59</ele>
        <time>2015-05-07T08:56:42Z</time>
      </trkpt>
      <trkpt lat="48.10561" lon="7.69965">
        <ele>446.19</ele>
        <time>2015-05-07T08:56:51Z</time>
      </trkpt>
      <trkpt lat="48.1057" lon="7.69973">
        <ele>449.07</ele>
        <time>2015-05-07T08:57:00Z</time>
      </trkpt>
      <trkpt lat="48.10577" lon="7.6998">
        <ele>445.71</ele>
        <time>2015-05-07T08:57:06Z</time>
      </trkpt>
      <trkpt lat="48.1059" lon="7.69989">
        <ele>448.11</ele>
        <time>2015-05-07T08:57:16Z</time>
      </trkpt>
      <trkpt lat="48.10598" lon="7.69993">
        <ele>445.71</ele>
        <time>2015-05-07T08:57:21Z</time>
      </trkpt>
      <trkpt lat="48.106" lon="7.69995">
        <ele>443.79</ele>
        <time>2015-05-07T08:57:23Z</time>
      </trkpt>
      <trkpt lat="48.10605" lon="7.7">
        <ele>447.15</ele>
        <time>2015-05-07T08:57:27Z</time>
      </trkpt>
      <trkpt lat="48.10606" lon="7.70001">
        <ele>446.67</ele>
        <time>2015-05-07T08:57:28Z</time>
      </trkpt>
      <trkpt lat="48.10613" lon="7.70007">
        <ele>442.34</ele>
        <time>2015-05-07T08:57:33Z</time>
      </trkpt>
      <trkpt lat="48.10621" lon="7.70012">
        <ele>445.71</ele>
        <time>2015-05-07T08:57:38Z</time>
      </trkpt>
      <trkpt lat="48.10625" lon="7.70012">
        <ele>446.67</ele>
        <time>2015-05-07T08:57:40Z</time>
      </trkpt>
      <trkpt lat="48.10634" lon="7.70011">
        <ele>442.34</ele>
        <time>2015-05-07T08:57:44Z</time>
      </trkpt>
      <trkpt lat="48.10643" lon="7.70009">
        <ele>444.27</ele>
        <time>2015-05-07T08:57:50Z</time>
      </trkpt>
      <trkpt lat="48.10649" lon="7.70012">
        <ele>439.94</ele>
        <time>2015-05-07T08:57:55Z</time>
      </trkpt>
      <trkpt lat="48.10649" lon="7.70013">
        <ele>439.94</ele>
        <time>2015-05-07T08:57:56Z</time>
      </trkpt>
      <trkpt lat="48.10652" lon="7.70013">
        <ele>443.31</ele>
        <time>2015-05-07T08:57:59Z</time>
      </trkpt>
      <trkpt lat="48.10654" lon="7.70014">
        <ele>444.27</ele>
        <time>2015-05-07T08:58:01Z</time>
      </trkpt>
      <trkpt lat="48.10656" lon="7.70016">
        <ele>440.9</ele>
        <time>2015-05-07T08:58:04Z</time>
      </trkpt>
      <trkpt lat="48.10658" lon="7.70016">
        <ele>440.42</ele>
        <time>2015-05-07T08:58:06Z</time>
      </trkpt>
      <trkpt lat="48.10664" lon="7.70022">
        <ele>443.79</ele>
        <time>2015-05-07T08:58:10Z</time>
      </trkpt>
      <trkpt lat="48.10671" lon="7.70028">
        <ele>440.42</ele>
        <time>2015-05-07T08:58:15Z</time>
      </trkpt>
      <trkpt lat="48.10677" lon="7.70034">
        <ele>443.31</ele>
        <time>2015-05-07T08:58:20Z</time>
      </trkpt>
      <trkpt lat="48.10681" lon="7.70042">
        <ele>439.94</ele>
        <time>2015-05-07T08:58:25Z</time>
      </trkpt>
      <trkpt lat="48.10684" lon="7.70045">
        <ele>439.46</ele>
        <time>2015-05-07T08:58:27Z</time>
      </trkpt>
      <trkpt lat="48.10689" lon="7.7005">
        <ele>443.31</ele>
        <time>2015-05-07T08:58:30Z</time>
      </trkpt>
      <trkpt lat="48.10691" lon="7.70052">
        <ele>442.34</ele>
        <time>2015-05-07T08:58:31Z</time>
      </trkpt>
      <trkpt lat="48.10696" lon="7.70054">
        <ele>438.5</ele>
        <time>2015-05-07T08:58:35Z</time>
      </trkpt>
      <trkpt lat="48.10698" lon="7.70054">
        <ele>438.5</ele>
        <time>2015-05-07T08:58:36Z</time>
      </trkpt>
      <trkpt lat="48.10703" lon="7.70055">
        <ele>442.34</ele>
        <time>2015-05-07T08:58:41Z</time>
      </trkpt>
      <trkpt lat="48.10704" lon="7.70055">
        <ele>441.86</ele>
        <time>2015-05-07T08:58:42Z</time>
      </trkpt>
      <trkpt lat="48.10707" lon="7.70056">
        <ele>438.5</ele>
        <time>2015-05-07T08:58:45Z</time>
      </trkpt>
      <trkpt lat="48.1071" lon="7.70057">
        <ele>437.54</ele>
        <time>2015-05-07T08:58:47Z</time>
      </trkpt>
      <trkpt lat="48.10716" lon="7.70057">
        <ele>440.9</ele>
        <time>2015-05-07T08:58:51Z</time>
      </trkpt>
      <trkpt lat="48.10723" lon="7.70054">
        <ele>439.94</ele>
        <time>2015-05-07T08:58:55Z</time>
      </trkpt>
      <trkpt lat="48.10728" lon="7.70053">
        <ele>436.58</ele>
        <time>2015-05-07T08:58:58Z</time>
      </trkpt>
      <trkpt lat="48.10735" lon="7.70052">
        <ele>437.06</ele>
        <time>2015-05-07T08:59:02Z</time>
      </trkpt>
      <trkpt lat="48.10742" lon="7.70054">
        <ele>439.94</ele>
        <time>2015-05-07T08:59:05Z</time>
      </trkpt>
      <trkpt lat="48.10751" lon="7.70052">
        <ele>436.1</ele>
        <time>2015-05-07T08:59:12Z</time>
      </trkpt>
      <trkpt lat="48.10755" lon="7.70049">
        <ele>434.65</ele>
        <time>2015-05-07T08:59:15Z</time>
      </trkpt>
      <trkpt lat="48.10759" lon="7.70044">
        <ele>437.06</ele>
        <time>2015-05-07T08:59:21Z</time>
      </trkpt>
      <trkpt lat="48.10762" lon="7.70042">
        <ele>433.21</ele>
        <time>2015-05-07T08:59:24Z</time>
      </trkpt>
      <trkpt lat="48.10763" lon="7.70042">
        <ele>434.17</ele>
        <time>2015-05-07T08:59:25Z</time>
      </trkpt>
      <trkpt lat="48.10777" lon="7.70039">
        <ele>433.69</ele>
        <time>2015-05-07T08:59:33Z</time>
      </trkpt>
      <trkpt lat="48.10782" lon="7.70041">
        <ele>434.17</ele>
        <time>2015-05-07T08:59:41Z</time>
      </trkpt>
      <trkpt lat="48.10783" lon="7.70043">
        <ele>432.73</ele>
        <time>2015-05-07T08:59:44Z</time>
      </trkpt>
      <trkpt lat="48.10784" lon="7.70042">
        <ele>436.1</ele>
        <time>2015-05-07T08:59:47Z</time>
      </trkpt>
      <trkpt lat="48.10784" lon="7.70042">
        <ele>436.1</ele>
        <time>2015-05-07T08:59:48Z</time>
      </trkpt>
      <trkpt lat="48.10795" lon="7.70025">
        <ele>437.06</ele>
        <time>2015-05-07T08:59:58Z</time>
      </trkpt>
      <trkpt lat="48.10808" lon="7.70016">
        <ele>437.06</ele>
        <time>2015-05-07T09:00:16Z</time>
      </trkpt>
      <trkpt lat="48.10808" lon="7.70015">
        <ele>436.58</ele>
        <time>2015-05-07T09:01:28Z</time>
      </trkpt>
      <trkpt lat="48.10808" lon="7.70014">
        <ele>436.58</ele>
        <time>2015-05-07T09:02:32Z</time>
      </trkpt>
      <trkpt lat="48.10816" lon="7.7002">
        <ele>438.98</ele>
        <time>2015-05-07T09:03:39Z</time>
      </trkpt>
      <trkpt lat="48.10822" lon="7.70023">
        <ele>436.58</ele>
        <time>2015-05-07T09:03:44Z</time>
      </trkpt>
      <trkpt lat="48.10825" lon="7.70024">
        <ele>439.94</ele>
        <time>2015-05-07T09:03:46Z</time>
      </trkpt>
      <trkpt lat="48.10826" lon="7.70025">
        <ele>439.94</ele>
        <time>2015-05-07T09:03:47Z</time>
      </trkpt>
      <trkpt lat="48.10828" lon="7.70025">
        <ele>436.58</ele>
        <time>2015-05-07T09:03:49Z</time>
      </trkpt>
      <trkpt lat="48.10829" lon="7.70026">
        <ele>439.46</ele>
        <time>2015-05-07T09:03:51Z</time>
      </trkpt>
      <trkpt lat="48.10831" lon="7.70026">
        <ele>440.9</ele>
        <time>2015-05-07T09:03:53Z</time>
      </trkpt>
      <trkpt lat="48.10834" lon="7.70025">
        <ele>437.54</ele>
        <time>2015-05-07T09:03:57Z</time>
      </trkpt>
      <trkpt lat="48.10837" lon="7.70024">
        <ele>441.38</ele>
        <time>2015-05-07T09:04:00Z</time>
      </trkpt>
      <trkpt lat="48.1084" lon="7.70026">
        <ele>438.02</ele>
        <time>2015-05-07T09:04:04Z</time>
      </trkpt>
      <trkpt lat="48.10841" lon="7.70026">
        <ele>438.02</ele>
        <time>2015-05-07T09:04:05Z</time>
      </trkpt>
      <trkpt lat="48.10843" lon="7.70027">
        <ele>442.34</ele>
        <time>2015-05-07T09:04:07Z</time>
      </trkpt>
      <trkpt lat="48.10848" lon="7.7003">
        <ele>441.86</ele>
        <time>2015-05-07T09:04:23Z</time>
      </trkpt>
      <trkpt lat="48.10848" lon="7.70029">
        <ele>441.86</ele>
        <time>2015-05-07T09:05:41Z</time>
      </trkpt>
      <trkpt lat="48.10852" lon="7.70024">
        <ele>438.98</ele>
        <time>2015-05-07T09:05:44Z</time>
      </trkpt>
      <trkpt lat="48.10854" lon="7.70021">
        <ele>443.31</ele>
        <time>2015-05-07T09:05:46Z</time>
      </trkpt>
      <trkpt lat="48.10855" lon="7.70019">
        <ele>442.34</ele>
        <time>2015-05-07T09:05:47Z</time>
      </trkpt>
      <trkpt lat="48.10857" lon="7.70014">
        <ele>438.5</ele>
        <time>2015-05-07T09:05:49Z</time>
      </trkpt>
      <trkpt lat="48.10861" lon="7.70008">
        <ele>440.42</ele>
        <time>2015-05-07T09:05:52Z</time>
      </trkpt>
      <trkpt lat="48.10863" lon="7.70006">
        <ele>442.82</ele>
        <time>2015-05-07T09:05:54Z</time>
      </trkpt>
      <trkpt lat="48.10871" lon="7.69994">
        <ele>442.34</ele>
        <time>2015-05-07T09:06:00Z</time>
      </trkpt>
      <trkpt lat="48.10873" lon="7.69991">
        <ele>445.71</ele>
        <time>2015-05-07T09:06:02Z</time>
      </trkpt>
      <trkpt lat="48.10877" lon="7.69983">
        <ele>440.9</ele>
        <time>2015-05-07T09:06:07Z</time>
      </trkpt>
      <trkpt lat="48.10878" lon="7.69979">
        <ele>444.75</ele>
        <time>2015-05-07T09:06:09Z</time>
      </trkpt>
      <trkpt lat="48.1088" lon="7.69975">
        <ele>448.11</ele>
        <time>2015-05-07T09:06:11Z</time>
      </trkpt>
      <trkpt lat="48.1088" lon="7.69974">
        <ele>449.07</ele>
        <time>2015-05-07T09:06:12Z</time>
      </trkpt>
      <trkpt lat="48.10882" lon="7.69965">
        <ele>448.11</ele>
        <time>2015-05-07T09:06:17Z</time>
      </trkpt>
      <trkpt lat="48.10882" lon="7.69962">
        <ele>449.07</ele>
        <time>2015-05-07T09:06:19Z</time>
      </trkpt>
      <trkpt lat="48.10883" lon="7.69958">
        <ele>444.75</ele>
        <time>2015-05-07T09:06:21Z</time>
      </trkpt>
      <trkpt lat="48.10884" lon="7.69957">
        <ele>445.71</ele>
        <time>2015-05-07T09:06:22Z</time>
      </trkpt>
      <trkpt lat="48.10885" lon="7.69954">
        <ele>446.67</ele>
        <time>2015-05-07T09:06:24Z</time>
      </trkpt>
      <trkpt lat="48.10886" lon="7.69952">
        <ele>451</ele>
        <time>2015-05-07T09:06:25Z</time>
      </trkpt>
      <trkpt lat="48.10887" lon="7.69951">
        <ele>450.03</ele>
        <time>2015-05-07T09:06:26Z</time>
      </trkpt>
      <trkpt lat="48.1089" lon="7.69951">
        <ele>445.71</ele>
        <time>2015-05-07T09:06:28Z</time>
      </trkpt>
      <trkpt lat="48.10891" lon="7.69951">
        <ele>446.19</ele>
        <time>2015-05-07T09:06:29Z</time>
      </trkpt>
      <trkpt lat="48.10894" lon="7.69952">
        <ele>450.52</ele>
        <time>2015-05-07T09:06:32Z</time>
      </trkpt>
      <trkpt lat="48.10895" lon="7.69952">
        <ele>450.52</ele>
        <time>2015-05-07T09:06:33Z</time>
      </trkpt>
      <trkpt lat="48.109" lon="7.69955">
        <ele>447.15</ele>
        <time>2015-05-07T09:06:37Z</time>
      </trkpt>
      <trkpt lat="48.10901" lon="7.69956">
        <ele>447.15</ele>
        <time>2015-05-07T09:06:38Z</time>
      </trkpt>
      <trkpt lat="48.10908" lon="7.6996">
        <ele>450.52</ele>
        <time>2015-05-07T09:06:44Z</time>
      </trkpt>
      <trkpt lat="48.1091" lon="7.69961">
        <ele>450.52</ele>
        <time>2015-05-07T09:06:45Z</time>
      </trkpt>
      <trkpt lat="48.10928" lon="7.69973">
        <ele>447.15</ele>
        <time>2015-05-07T09:07:00Z</time>
      </trkpt>
      <trkpt lat="48.10929" lon="7.69975">
        <ele>447.63</ele>
        <time>2015-05-07T09:07:01Z</time>
      </trkpt>
      <trkpt lat="48.10933" lon="7.69978">
        <ele>449.07</ele>
        <time>2015-05-07T09:07:05Z</time>
      </trkpt>
      <trkpt lat="48.10952" lon="7.69997">
        <ele>449.07</ele>
        <time>2015-05-07T09:07:23Z</time>
      </trkpt>
      <trkpt lat="48.10956" lon="7.70001">
        <ele>451.96</ele>
        <time>2015-05-07T09:07:27Z</time>
      </trkpt>
      <trkpt lat="48.10957" lon="7.70003">
        <ele>452.44</ele>
        <time>2015-05-07T09:07:28Z</time>
      </trkpt>
      <trkpt lat="48.10961" lon="7.70006">
        <ele>449.07</ele>
        <time>2015-05-07T09:07:32Z</time>
      </trkpt>
      <trkpt lat="48.10966" lon="7.70013">
        <ele>452.44</ele>
        <time>2015-05-07T09:07:37Z</time>
      </trkpt>
      <trkpt lat="48.10972" lon="7.70013">
        <ele>449.55</ele>
        <time>2015-05-07T09:07:42Z</time>
      </trkpt>
      <trkpt lat="48.10982" lon="7.70012">
        <ele>452.92</ele>
        <time>2015-05-07T09:07:52Z</time>
      </trkpt>
      <trkpt lat="48.10989" lon="7.70015">
        <ele>456.28</ele>
        <time>2015-05-07T09:07:57Z</time>
      </trkpt>
      <trkpt lat="48.1099" lon="7.70015">
        <ele>453.4</ele>
        <time>2015-05-07T09:07:58Z</time>
      </trkpt>
      <trkpt lat="48.10997" lon="7.70011">
        <ele>455.8</ele>
        <time>2015-05-07T09:08:03Z</time>
      </trkpt>
      <trkpt lat="48.11007" lon="7.70004">
        <ele>452.92</ele>
        <time>2015-05-07T09:08:10Z</time>
      </trkpt>
      <trkpt lat="48.11009" lon="7.70003">
        <ele>452.92</ele>
        <time>2015-05-07T09:08:11Z</time>
      </trkpt>
      <trkpt lat="48.1103" lon="7.69987">
        <ele>455.32</ele>
        <time>2015-05-07T09:08:26Z</time>
      </trkpt>
      <trkpt lat="48.11049" lon="7.69971">
        <ele>453.4</ele>
        <time>2015-05-07T09:08:42Z</time>
      </trkpt>
      <trkpt lat="48.11053" lon="7.69967">
        <ele>452.44</ele>
        <time>2015-05-07T09:08:47Z</time>
      </trkpt>
      <trkpt lat="48.11065" lon="7.69953">
        <ele>450.52</ele>
        <time>2015-05-07T09:08:58Z</time>
      </trkpt>
      <trkpt lat="48.11067" lon="7.69949">
        <ele>447.63</ele>
        <time>2015-05-07T09:09:00Z</time>
      </trkpt>
      <trkpt lat="48.11072" lon="7.69945">
        <ele>450.52</ele>
        <time>2015-05-07T09:09:05Z</time>
      </trkpt>
      <trkpt lat="48.11081" lon="7.69935">
        <ele>446.67</ele>
        <time>2015-05-07T09:09:15Z</time>
      </trkpt>
      <trkpt lat="48.11082" lon="7.69935">
        <ele>447.15</ele>
        <time>2015-05-07T09:09:16Z</time>
      </trkpt>
      <trkpt lat="48.11085" lon="7.69933">
        <ele>448.59</ele>
        <time>2015-05-07T09:09:18Z</time>
      </trkpt>
      <trkpt lat="48.1109" lon="7.69932">
        <ele>447.15</ele>
        <time>2015-05-07T09:09:22Z</time>
      </trkpt>
      <trkpt lat="48.11095" lon="7.69925">
        <ele>451.48</ele>
        <time>2015-05-07T09:09:28Z</time>
      </trkpt>
      <trkpt lat="48.11096" lon="7.69923">
        <ele>450.52</ele>
        <time>2015-05-07T09:09:29Z</time>
      </trkpt>
      <trkpt lat="48.11116" lon="7.69901">
        <ele>445.71</ele>
        <time>2015-05-07T09:09:48Z</time>
      </trkpt>
      <trkpt lat="48.11117" lon="7.69897">
        <ele>449.07</ele>
        <time>2015-05-07T09:09:59Z</time>
      </trkpt>
      <trkpt lat="48.11119" lon="7.69895">
        <ele>444.27</ele>
        <time>2015-05-07T09:10:01Z</time>
      </trkpt>
      <trkpt lat="48.11121" lon="7.69894">
        <ele>444.27</ele>
        <time>2015-05-07T09:10:02Z</time>
      </trkpt>
      <trkpt lat="48.11124" lon="7.69887">
        <ele>448.11</ele>
        <time>2015-05-07T09:10:06Z</time>
      </trkpt>
      <trkpt lat="48.11126" lon="7.69884">
        <ele>444.75</ele>
        <time>2015-05-07T09:10:08Z</time>
      </trkpt>
      <trkpt lat="48.11127" lon="7.69882">
        <ele>447.63</ele>
        <time>2015-05-07T09:10:10Z</time>
      </trkpt>
      <trkpt lat="48.11128" lon="7.6988">
        <ele>449.07</ele>
        <time>2015-05-07T09:10:12Z</time>
      </trkpt>
      <trkpt lat="48.11132" lon="7.69874">
        <ele>448.11</ele>
        <time>2015-05-07T09:10:17Z</time>
      </trkpt>
      <trkpt lat="48.11138" lon="7.69866">
        <ele>447.63</ele>
        <time>2015-05-07T09:10:35Z</time>
      </trkpt>
      <trkpt lat="48.1114" lon="7.69864">
        <ele>451</ele>
        <time>2015-05-07T09:10:37Z</time>
      </trkpt>
      <trkpt lat="48.11141" lon="7.69861">
        <ele>446.67</ele>
        <time>2015-05-07T09:10:39Z</time>
      </trkpt>
      <trkpt lat="48.11146" lon="7.69859">
        <ele>450.03</ele>
        <time>2015-05-07T09:10:43Z</time>
      </trkpt>
      <trkpt lat="48.11149" lon="7.69859">
        <ele>446.19</ele>
        <time>2015-05-07T09:10:47Z</time>
      </trkpt>
      <trkpt lat="48.11151" lon="7.6986">
        <ele>449.55</ele>
        <time>2015-05-07T09:10:49Z</time>
      </trkpt>
      <trkpt lat="48.11167" lon="7.69848">
        <ele>445.23</ele>
        <time>2015-05-07T09:11:07Z</time>
      </trkpt>
      <trkpt lat="48.11168" lon="7.69848">
        <ele>445.71</ele>
        <time>2015-05-07T09:11:08Z</time>
      </trkpt>
      <trkpt lat="48.11173" lon="7.69845">
        <ele>448.59</ele>
        <time>2015-05-07T09:11:13Z</time>
      </trkpt>
      <trkpt lat="48.11173" lon="7.69844">
        <ele>448.59</ele>
        <time>2015-05-07T09:11:14Z</time>
      </trkpt>
      <trkpt lat="48.11174" lon="7.69843">
        <ele>445.71</ele>
        <time>2015-05-07T09:11:15Z</time>
      </trkpt>
      <trkpt lat="48.11175" lon="7.69842">
        <ele>447.63</ele>
        <time>2015-05-07T09:11:16Z</time>
      </trkpt>
      <trkpt lat="48.11184" lon="7.69833">
        <ele>443.31</ele>
        <time>2015-05-07T09:11:26Z</time>
      </trkpt>
      <trkpt lat="48.11189" lon="7.69828">
        <ele>446.67</ele>
        <time>2015-05-07T09:11:29Z</time>
      </trkpt>
      <trkpt lat="48.11194" lon="7.69822">
        <ele>449.07</ele>
        <time>2015-05-07T09:11:33Z</time>
      </trkpt>
      <trkpt lat="48.11204" lon="7.69807">
        <ele>445.23</ele>
        <time>2015-05-07T09:11:40Z</time>
      </trkpt>
      <trkpt lat="48.11208" lon="7.69806">
        <ele>444.27</ele>
        <time>2015-05-07T09:11:42Z</time>
      </trkpt>
      <trkpt lat="48.11219" lon="7.69793">
        <ele>445.23</ele>
        <time>2015-05-07T09:11:50Z</time>
      </trkpt>
      <trkpt lat="48.11223" lon="7.69789">
        <ele>443.79</ele>
        <time>2015-05-07T09:11:53Z</time>
      </trkpt>
      <trkpt lat="48.11225" lon="7.69785">
        <ele>442.82</ele>
        <time>2015-05-07T09:11:55Z</time>
      </trkpt>
      <trkpt lat="48.11223" lon="7.69764">
        <ele>443.79</ele>
        <time>2015-05-07T09:12:05Z</time>
      </trkpt>
      <trkpt lat="48.1122" lon="7.69754">
        <ele>449.55</ele>
        <time>2015-05-07T09:12:10Z</time>
      </trkpt>
      <trkpt lat="48.1122" lon="7.6975">
        <ele>450.03</ele>
        <time>2015-05-07T09:12:12Z</time>
      </trkpt>
      <trkpt lat="48.11221" lon="7.69746">
        <ele>450.52</ele>
        <time>2015-05-07T09:12:14Z</time>
      </trkpt>
      <trkpt lat="48.11222" lon="7.69741">
        <ele>448.59</ele>
        <time>2015-05-07T09:12:17Z</time>
      </trkpt>
      <trkpt lat="48.11222" lon="7.6974">
        <ele>448.11</ele>
        <time>2015-05-07T09:12:18Z</time>
      </trkpt>
      <trkpt lat="48.11222" lon="7.69732">
        <ele>448.11</ele>
        <time>2015-05-07T09:12:22Z</time>
      </trkpt>
      <trkpt lat="48.11223" lon="7.69717">
        <ele>445.23</ele>
        <time>2015-05-07T09:12:30Z</time>
      </trkpt>
      <trkpt lat="48.1122" lon="7.69688">
        <ele>444.75</ele>
        <time>2015-05-07T09:12:43Z</time>
      </trkpt>
      <trkpt lat="48.11215" lon="7.69672">
        <ele>445.23</ele>
        <time>2015-05-07T09:12:49Z</time>
      </trkpt>
      <trkpt lat="48.11212" lon="7.69655">
        <ele>448.11</ele>
        <time>2015-05-07T09:12:58Z</time>
      </trkpt>
      <trkpt lat="48.11214" lon="7.69648">
        <ele>446.19</ele>
        <time>2015-05-07T09:13:04Z</time>
      </trkpt>
      <trkpt lat="48.11215" lon="7.69647">
        <ele>450.52</ele>
        <time>2015-05-07T09:13:06Z</time>
      </trkpt>
      <trkpt lat="48.11216" lon="7.69646">
        <ele>452.44</ele>
        <time>2015-05-07T09:13:08Z</time>
      </trkpt>
      <trkpt lat="48.11219" lon="7.69631">
        <ele>451.96</ele>
        <time>2015-05-07T09:13:23Z</time>
      </trkpt>
      <trkpt lat="48.11218" lon="7.69628">
        <ele>452.44</ele>
        <time>2015-05-07T09:13:25Z</time>
      </trkpt>
      <trkpt lat="48.11216" lon="7.69623">
        <ele>453.4</ele>
        <time>2015-05-07T09:13:29Z</time>
      </trkpt>
      <trkpt lat="48.11212" lon="7.69614">
        <ele>452.92</ele>
        <time>2015-05-07T09:13:50Z</time>
      </trkpt>
      <trkpt lat="48.11212" lon="7.69613">
        <ele>451.48</ele>
        <time>2015-05-07T09:14:28Z</time>
      </trkpt>
      <trkpt lat="48.11213" lon="7.69613">
        <ele>451.96</ele>
        <time>2015-05-07T09:15:04Z</time>
      </trkpt>
      <trkpt lat="48.11217" lon="7.69594">
        <ele>451</ele>
        <time>2015-05-07T09:15:22Z</time>
      </trkpt>
      <trkpt lat="48.11217" lon="7.69592">
        <ele>452.92</ele>
        <time>2015-05-07T09:15:36Z</time>
      </trkpt>
      <trkpt lat="48.11219" lon="7.69588">
        <ele>451.48</ele>
        <time>2015-05-07T09:15:39Z</time>
      </trkpt>
      <trkpt lat="48.1122" lon="7.69586">
        <ele>447.15</ele>
        <time>2015-05-07T09:15:40Z</time>
      </trkpt>
      <trkpt lat="48.11222" lon="7.69582">
        <ele>441.86</ele>
        <time>2015-05-07T09:15:43Z</time>
      </trkpt>
      <trkpt lat="48.11222" lon="7.69581">
        <ele>444.75</ele>
        <time>2015-05-07T09:15:44Z</time>
      </trkpt>
      <trkpt lat="48.11222" lon="7.69578">
        <ele>450.52</ele>
        <time>2015-05-07T09:15:46Z</time>
      </trkpt>
      <trkpt lat="48.11223" lon="7.69575">
        <ele>454.36</ele>
        <time>2015-05-07T09:15:47Z</time>
      </trkpt>
      <trkpt lat="48.11223" lon="7.69573">
        <ele>447.15</ele>
        <time>2015-05-07T09:15:48Z</time>
      </trkpt>
      <trkpt lat="48.11224" lon="7.6957">
        <ele>442.82</ele>
        <time>2015-05-07T09:15:49Z</time>
      </trkpt>
      <trkpt lat="48.11224" lon="7.69568">
        <ele>445.23</ele>
        <time>2015-05-07T09:15:50Z</time>
      </trkpt>
      <trkpt lat="48.11228" lon="7.69559">
        <ele>449.07</ele>
        <time>2015-05-07T09:15:54Z</time>
      </trkpt>
      <trkpt lat="48.1123" lon="7.69554">
        <ele>450.03</ele>
        <time>2015-05-07T09:15:56Z</time>
      </trkpt>
      <trkpt lat="48.1123" lon="7.69552">
        <ele>445.23</ele>
        <time>2015-05-07T09:15:57Z</time>
      </trkpt>
      <trkpt lat="48.11231" lon="7.69548">
        <ele>441.38</ele>
        <time>2015-05-07T09:15:59Z</time>
      </trkpt>
      <trkpt lat="48.11231" lon="7.69545">
        <ele>437.54</ele>
        <time>2015-05-07T09:16:01Z</time>
      </trkpt>
      <trkpt lat="48.11232" lon="7.69541">
        <ele>445.23</ele>
        <time>2015-05-07T09:16:04Z</time>
      </trkpt>
      <trkpt lat="48.11233" lon="7.69538">
        <ele>447.15</ele>
        <time>2015-05-07T09:16:06Z</time>
      </trkpt>
      <trkpt lat="48.11234" lon="7.69534">
        <ele>443.31</ele>
        <time>2015-05-07T09:16:10Z</time>
      </trkpt>
      <trkpt lat="48.11235" lon="7.69533">
        <ele>438.98</ele>
        <time>2015-05-07T09:16:12Z</time>
      </trkpt>
      <trkpt lat="48.11235" lon="7.69531">
        <ele>436.58</ele>
        <time>2015-05-07T09:16:15Z</time>
      </trkpt>
      <trkpt lat="48.11236" lon="7.6953">
        <ele>439.94</ele>
        <time>2015-05-07T09:16:16Z</time>
      </trkpt>
      <trkpt lat="48.11236" lon="7.69527">
        <ele>444.75</ele>
        <time>2015-05-07T09:16:18Z</time>
      </trkpt>
      <trkpt lat="48.11237" lon="7.69526">
        <ele>444.27</ele>
        <time>2015-05-07T09:16:19Z</time>
      </trkpt>
      <trkpt lat="48.11237" lon="7.69523">
        <ele>438.5</ele>
        <time>2015-05-07T09:16:21Z</time>
      </trkpt>
      <trkpt lat="48.11238" lon="7.69521">
        <ele>434.17</ele>
        <time>2015-05-07T09:16:22Z</time>
      </trkpt>
      <trkpt lat="48.11238" lon="7.6952">
        <ele>430.81</ele>
        <time>2015-05-07T09:16:23Z</time>
      </trkpt>
      <trkpt lat="48.11238" lon="7.69518">
        <ele>431.29</ele>
        <time>2015-05-07T09:16:24Z</time>
      </trkpt>
      <trkpt lat="48.11239" lon="7.69517">
        <ele>434.65</ele>
        <time>2015-05-07T09:16:25Z</time>
      </trkpt>
      <trkpt lat="48.1124" lon="7.69512">
        <ele>441.86</ele>
        <time>2015-05-07T09:16:27Z</time>
      </trkpt>
      <trkpt lat="48.11241" lon="7.6951">
        <ele>440.9</ele>
        <time>2015-05-07T09:16:28Z</time>
      </trkpt>
      <trkpt lat="48.11242" lon="7.69503">
        <ele>433.21</ele>
        <time>2015-05-07T09:16:31Z</time>
      </trkpt>
      <trkpt lat="48.11243" lon="7.69498">
        <ele>428.89</ele>
        <time>2015-05-07T09:16:33Z</time>
      </trkpt>
      <trkpt lat="48.11245" lon="7.69492">
        <ele>432.25</ele>
        <time>2015-05-07T09:16:35Z</time>
      </trkpt>
      <trkpt lat="48.11247" lon="7.69487">
        <ele>438.02</ele>
        <time>2015-05-07T09:16:37Z</time>
      </trkpt>
      <trkpt lat="48.11247" lon="7.69485">
        <ele>438.02</ele>
        <time>2015-05-07T09:16:38Z</time>
      </trkpt>
      <trkpt lat="48.11248" lon="7.69482">
        <ele>434.65</ele>
        <time>2015-05-07T09:16:39Z</time>
      </trkpt>
      <trkpt lat="48.11248" lon="7.69478">
        <ele>430.33</ele>
        <time>2015-05-07T09:16:41Z</time>
      </trkpt>
      <trkpt lat="48.11249" lon="7.69477">
        <ele>430.81</ele>
        <time>2015-05-07T09:16:42Z</time>
      </trkpt>
      <trkpt lat="48.11249" lon="7.69475">
        <ele>434.17</ele>
        <time>2015-05-07T09:16:43Z</time>
      </trkpt>
      <trkpt lat="48.11249" lon="7.69473">
        <ele>438.02</ele>
        <time>2015-05-07T09:16:44Z</time>
      </trkpt>
      <trkpt lat="48.1125" lon="7.69472">
        <ele>436.58</ele>
        <time>2015-05-07T09:16:45Z</time>
      </trkpt>
      <trkpt lat="48.1125" lon="7.69466">
        <ele>431.77</ele>
        <time>2015-05-07T09:16:48Z</time>
      </trkpt>
      <trkpt lat="48.1125" lon="7.69462">
        <ele>430.81</ele>
        <time>2015-05-07T09:16:50Z</time>
      </trkpt>
      <trkpt lat="48.11251" lon="7.69459">
        <ele>426.48</ele>
        <time>2015-05-07T09:16:52Z</time>
      </trkpt>
      <trkpt lat="48.11251" lon="7.69457">
        <ele>426.48</ele>
        <time>2015-05-07T09:16:53Z</time>
      </trkpt>
      <trkpt lat="48.11252" lon="7.6945">
        <ele>431.77</ele>
        <time>2015-05-07T09:16:57Z</time>
      </trkpt>
      <trkpt lat="48.11251" lon="7.69446">
        <ele>433.69</ele>
        <time>2015-05-07T09:16:59Z</time>
      </trkpt>
      <trkpt lat="48.11252" lon="7.69434">
        <ele>430.33</ele>
        <time>2015-05-07T09:17:04Z</time>
      </trkpt>
      <trkpt lat="48.11251" lon="7.69428">
        <ele>426.96</ele>
        <time>2015-05-07T09:17:07Z</time>
      </trkpt>
      <trkpt lat="48.11251" lon="7.69419">
        <ele>430.33</ele>
        <time>2015-05-07T09:17:11Z</time>
      </trkpt>
      <trkpt lat="48.11251" lon="7.69416">
        <ele>429.85</ele>
        <time>2015-05-07T09:17:12Z</time>
      </trkpt>
      <trkpt lat="48.1125" lon="7.69411">
        <ele>433.21</ele>
        <time>2015-05-07T09:17:14Z</time>
      </trkpt>
      <trkpt lat="48.11249" lon="7.69401">
        <ele>431.77</ele>
        <time>2015-05-07T09:17:17Z</time>
      </trkpt>
      <trkpt lat="48.11248" lon="7.69385">
        <ele>428.4</ele>
        <time>2015-05-07T09:17:24Z</time>
      </trkpt>
      <trkpt lat="48.11246" lon="7.69374">
        <ele>430.33</ele>
        <time>2015-05-07T09:17:41Z</time>
      </trkpt>
      <trkpt lat="48.11246" lon="7.69374">
        <ele>430.81</ele>
        <time>2015-05-07T09:17:48Z</time>
      </trkpt>
      <trkpt lat="48.11246" lon="7.69374">
        <ele>426</ele>
        <time>2015-05-07T09:17:53Z</time>
      </trkpt>
      <trkpt lat="48.11246" lon="7.69374">
        <ele>429.37</ele>
        <time>2015-05-07T09:17:55Z</time>
      </trkpt>
      <trkpt lat="48.11246" lon="7.69371">
        <ele>431.29</ele>
        <time>2015-05-07T09:18:10Z</time>
      </trkpt>
      <trkpt lat="48.11241" lon="7.69359">
        <ele>428.4</ele>
        <time>2015-05-07T09:18:16Z</time>
      </trkpt>
      <trkpt lat="48.11228" lon="7.69343">
        <ele>429.37</ele>
        <time>2015-05-07T09:18:26Z</time>
      </trkpt>
      <trkpt lat="48.11224" lon="7.69335">
        <ele>432.25</ele>
        <time>2015-05-07T09:18:31Z</time>
      </trkpt>
      <trkpt lat="48.11212" lon="7.69322">
        <ele>429.85</ele>
        <time>2015-05-07T09:18:41Z</time>
      </trkpt>
      <trkpt lat="48.11201" lon="7.69295">
        <ele>433.21</ele>
        <time>2015-05-07T09:18:57Z</time>
      </trkpt>
      <trkpt lat="48.11187" lon="7.69266">
        <ele>437.54</ele>
        <time>2015-05-07T09:19:17Z</time>
      </trkpt>
      <trkpt lat="48.11187" lon="7.69265">
        <ele>437.06</ele>
        <time>2015-05-07T09:19:18Z</time>
      </trkpt>
      <trkpt lat="48.11186" lon="7.69262">
        <ele>435.61</ele>
        <time>2015-05-07T09:19:21Z</time>
      </trkpt>
      <trkpt lat="48.11187" lon="7.69253">
        <ele>438.5</ele>
        <time>2015-05-07T09:19:26Z</time>
      </trkpt>
      <trkpt lat="48.1119" lon="7.6924">
        <ele>439.94</ele>
        <time>2015-05-07T09:19:35Z</time>
      </trkpt>
      <trkpt lat="48.1119" lon="7.69239">
        <ele>439.46</ele>
        <time>2015-05-07T09:19:36Z</time>
      </trkpt>
      <trkpt lat="48.11212" lon="7.69228">
        <ele>437.54</ele>
        <time>2015-05-07T09:19:56Z</time>
      </trkpt>
      <trkpt lat="48.11226" lon="7.69211">
        <ele>440.9</ele>
        <time>2015-05-07T09:20:12Z</time>
      </trkpt>
      <trkpt lat="48.11227" lon="7.69208">
        <ele>441.86</ele>
        <time>2015-05-07T09:20:14Z</time>
      </trkpt>
      <trkpt lat="48.11229" lon="7.69178">
        <ele>443.31</ele>
        <time>2015-05-07T09:20:27Z</time>
      </trkpt>
      <trkpt lat="48.11235" lon="7.69169">
        <ele>446.19</ele>
        <time>2015-05-07T09:20:34Z</time>
      </trkpt>
      <trkpt lat="48.11239" lon="7.6916">
        <ele>449.55</ele>
        <time>2015-05-07T09:20:48Z</time>
      </trkpt>
      <trkpt lat="48.11247" lon="7.69136">
        <ele>449.07</ele>
        <time>2015-05-07T09:21:00Z</time>
      </trkpt>
      <trkpt lat="48.11247" lon="7.69131">
        <ele>450.52</ele>
        <time>2015-05-07T09:21:03Z</time>
      </trkpt>
      <trkpt lat="48.11249" lon="7.69114">
        <ele>450.03</ele>
        <time>2015-05-07T09:21:14Z</time>
      </trkpt>
      <trkpt lat="48.11251" lon="7.69111">
        <ele>452.92</ele>
        <time>2015-05-07T09:21:16Z</time>
      </trkpt>
      <trkpt lat="48.11252" lon="7.6911">
        <ele>451.48</ele>
        <time>2015-05-07T09:21:17Z</time>
      </trkpt>
      <trkpt lat="48.1126" lon="7.69105">
        <ele>454.36</ele>
        <time>2015-05-07T09:21:26Z</time>
      </trkpt>
      <trkpt lat="48.11261" lon="7.69104">
        <ele>453.88</ele>
        <time>2015-05-07T09:21:27Z</time>
      </trkpt>
      <trkpt lat="48.11263" lon="7.69102">
        <ele>452.44</ele>
        <time>2015-05-07T09:21:29Z</time>
      </trkpt>
      <trkpt lat="48.1127" lon="7.69096">
        <ele>453.88</ele>
        <time>2015-05-07T09:21:39Z</time>
      </trkpt>
      <trkpt lat="48.11271" lon="7.69094">
        <ele>456.76</ele>
        <time>2015-05-07T09:21:41Z</time>
      </trkpt>
      <trkpt lat="48.11276" lon="7.69084">
        <ele>453.4</ele>
        <time>2015-05-07T09:21:50Z</time>
      </trkpt>
      <trkpt lat="48.11277" lon="7.69083">
        <ele>457.72</ele>
        <time>2015-05-07T09:21:52Z</time>
      </trkpt>
      <trkpt lat="48.11285" lon="7.69081">
        <ele>455.8</ele>
        <time>2015-05-07T09:21:59Z</time>
      </trkpt>
      <trkpt lat="48.11288" lon="7.69082">
        <ele>456.28</ele>
        <time>2015-05-07T09:22:02Z</time>
      </trkpt>
      <trkpt lat="48.11294" lon="7.6908">
        <ele>459.17</ele>
        <time>2015-05-07T09:22:06Z</time>
      </trkpt>
      <trkpt lat="48.11296" lon="7.69081">
        <ele>459.17</ele>
        <time>2015-05-07T09:22:07Z</time>
      </trkpt>
      <trkpt lat="48.11297" lon="7.6908">
        <ele>455.8</ele>
        <time>2015-05-07T09:22:08Z</time>
      </trkpt>
      <trkpt lat="48.11298" lon="7.6908">
        <ele>456.76</ele>
        <time>2015-05-07T09:22:09Z</time>
      </trkpt>
      <trkpt lat="48.11303" lon="7.69079">
        <ele>460.13</ele>
        <time>2015-05-07T09:22:12Z</time>
      </trkpt>
      <trkpt lat="48.11307" lon="7.6908">
        <ele>457.24</ele>
        <time>2015-05-07T09:22:16Z</time>
      </trkpt>
      <trkpt lat="48.1131" lon="7.69081">
        <ele>460.61</ele>
        <time>2015-05-07T09:22:18Z</time>
      </trkpt>
      <trkpt lat="48.1131" lon="7.69081">
        <ele>460.13</ele>
        <time>2015-05-07T09:22:19Z</time>
      </trkpt>
      <trkpt lat="48.11315" lon="7.69084">
        <ele>459.65</ele>
        <time>2015-05-07T09:22:24Z</time>
      </trkpt>
      <trkpt lat="48.11328" lon="7.69085">
        <ele>456.28</ele>
        <time>2015-05-07T09:22:34Z</time>
      </trkpt>
      <trkpt lat="48.11333" lon="7.69085">
        <ele>457.72</ele>
        <time>2015-05-07T09:22:38Z</time>
      </trkpt>
      <trkpt lat="48.1134" lon="7.69083">
        <ele>461.09</ele>
        <time>2015-05-07T09:22:42Z</time>
      </trkpt>
      <trkpt lat="48.11343" lon="7.69083">
        <ele>461.57</ele>
        <time>2015-05-07T09:22:44Z</time>
      </trkpt>
      <trkpt lat="48.11347" lon="7.69082">
        <ele>460.61</ele>
        <time>2015-05-07T09:22:47Z</time>
      </trkpt>
      <trkpt lat="48.11358" lon="7.69086">
        <ele>456.28</ele>
        <time>2015-05-07T09:22:54Z</time>
      </trkpt>
      <trkpt lat="48.11359" lon="7.69086">
        <ele>455.8</ele>
        <time>2015-05-07T09:22:55Z</time>
      </trkpt>
      <trkpt lat="48.11375" lon="7.6908">
        <ele>458.21</ele>
        <time>2015-05-07T09:23:05Z</time>
      </trkpt>
      <trkpt lat="48.11378" lon="7.69077">
        <ele>459.17</ele>
        <time>2015-05-07T09:23:08Z</time>
      </trkpt>
      <trkpt lat="48.11389" lon="7.69071">
        <ele>455.8</ele>
        <time>2015-05-07T09:23:15Z</time>
      </trkpt>
      <trkpt lat="48.11392" lon="7.69068">
        <ele>453.4</ele>
        <time>2015-05-07T09:23:19Z</time>
      </trkpt>
      <trkpt lat="48.11402" lon="7.69065">
        <ele>456.28</ele>
        <time>2015-05-07T09:23:28Z</time>
      </trkpt>
      <trkpt lat="48.11418" lon="7.69058">
        <ele>460.13</ele>
        <time>2015-05-07T09:23:42Z</time>
      </trkpt>
      <trkpt lat="48.11425" lon="7.69053">
        <ele>456.76</ele>
        <time>2015-05-07T09:23:47Z</time>
      </trkpt>
      <trkpt lat="48.11428" lon="7.69052">
        <ele>461.09</ele>
        <time>2015-05-07T09:23:51Z</time>
      </trkpt>
      <trkpt lat="48.11429" lon="7.69052">
        <ele>461.09</ele>
        <time>2015-05-07T09:23:52Z</time>
      </trkpt>
      <trkpt lat="48.11431" lon="7.69051">
        <ele>457.24</ele>
        <time>2015-05-07T09:23:54Z</time>
      </trkpt>
      <trkpt lat="48.11432" lon="7.69051">
        <ele>457.24</ele>
        <time>2015-05-07T09:23:55Z</time>
      </trkpt>
      <trkpt lat="48.11434" lon="7.69049">
        <ele>462.53</ele>
        <time>2015-05-07T09:23:58Z</time>
      </trkpt>
      <trkpt lat="48.11436" lon="7.69046">
        <ele>459.17</ele>
        <time>2015-05-07T09:24:01Z</time>
      </trkpt>
      <trkpt lat="48.11437" lon="7.69044">
        <ele>460.13</ele>
        <time>2015-05-07T09:24:02Z</time>
      </trkpt>
      <trkpt lat="48.1144" lon="7.69043">
        <ele>464.45</ele>
        <time>2015-05-07T09:24:05Z</time>
      </trkpt>
      <trkpt lat="48.1144" lon="7.69043">
        <ele>460.61</ele>
        <time>2015-05-07T09:24:06Z</time>
      </trkpt>
      <trkpt lat="48.11441" lon="7.69043">
        <ele>460.61</ele>
        <time>2015-05-07T09:24:07Z</time>
      </trkpt>
      <trkpt lat="48.11443" lon="7.69042">
        <ele>465.42</ele>
        <time>2015-05-07T09:24:09Z</time>
      </trkpt>
      <trkpt lat="48.11444" lon="7.69041">
        <ele>461.09</ele>
        <time>2015-05-07T09:24:11Z</time>
      </trkpt>
      <trkpt lat="48.11446" lon="7.6904">
        <ele>463.01</ele>
        <time>2015-05-07T09:24:12Z</time>
      </trkpt>
      <trkpt lat="48.11449" lon="7.69036">
        <ele>466.86</ele>
        <time>2015-05-07T09:24:14Z</time>
      </trkpt>
      <trkpt lat="48.11453" lon="7.69032">
        <ele>461.57</ele>
        <time>2015-05-07T09:24:16Z</time>
      </trkpt>
      <trkpt lat="48.11454" lon="7.69031">
        <ele>463.49</ele>
        <time>2015-05-07T09:24:17Z</time>
      </trkpt>
      <trkpt lat="48.11458" lon="7.69028">
        <ele>467.34</ele>
        <time>2015-05-07T09:24:19Z</time>
      </trkpt>
      <trkpt lat="48.11458" lon="7.69028">
        <ele>464.45</ele>
        <time>2015-05-07T09:24:20Z</time>
      </trkpt>
      <trkpt lat="48.1146" lon="7.69025">
        <ele>465.9</ele>
        <time>2015-05-07T09:24:22Z</time>
      </trkpt>
      <trkpt lat="48.11464" lon="7.6902">
        <ele>463.49</ele>
        <time>2015-05-07T09:24:25Z</time>
      </trkpt>
      <trkpt lat="48.11466" lon="7.69018">
        <ele>465.9</ele>
        <time>2015-05-07T09:24:26Z</time>
      </trkpt>
      <trkpt lat="48.11471" lon="7.69012">
        <ele>464.93</ele>
        <time>2015-05-07T09:24:30Z</time>
      </trkpt>
      <trkpt lat="48.11478" lon="7.69004">
        <ele>465.42</ele>
        <time>2015-05-07T09:24:35Z</time>
      </trkpt>
      <trkpt lat="48.11482" lon="7.69">
        <ele>466.86</ele>
        <time>2015-05-07T09:24:38Z</time>
      </trkpt>
      <trkpt lat="48.11486" lon="7.68993">
        <ele>465.42</ele>
        <time>2015-05-07T09:24:45Z</time>
      </trkpt>
      <trkpt lat="48.11487" lon="7.68992">
        <ele>470.22</ele>
        <time>2015-05-07T09:24:47Z</time>
      </trkpt>
      <trkpt lat="48.11486" lon="7.68992">
        <ele>469.74</ele>
        <time>2015-05-07T09:24:48Z</time>
      </trkpt>
      <trkpt lat="48.11487" lon="7.68988">
        <ele>465.9</ele>
        <time>2015-05-07T09:24:54Z</time>
      </trkpt>
      <trkpt lat="48.11488" lon="7.68987">
        <ele>466.38</ele>
        <time>2015-05-07T09:24:55Z</time>
      </trkpt>
      <trkpt lat="48.1149" lon="7.68985">
        <ele>470.22</ele>
        <time>2015-05-07T09:24:57Z</time>
      </trkpt>
      <trkpt lat="48.11494" lon="7.6898">
        <ele>469.26</ele>
        <time>2015-05-07T09:25:03Z</time>
      </trkpt>
      <trkpt lat="48.11495" lon="7.68978">
        <ele>466.86</ele>
        <time>2015-05-07T09:25:28Z</time>
      </trkpt>
      <trkpt lat="48.11495" lon="7.68978">
        <ele>467.82</ele>
        <time>2015-05-07T09:25:30Z</time>
      </trkpt>
      <trkpt lat="48.11496" lon="7.68978">
        <ele>467.34</ele>
        <time>2015-05-07T09:26:29Z</time>
      </trkpt>
      <trkpt lat="48.11496" lon="7.68978">
        <ele>465.9</ele>
        <time>2015-05-07T09:26:48Z</time>
      </trkpt>
      <trkpt lat="48.11495" lon="7.68977">
        <ele>465.9</ele>
        <time>2015-05-07T09:26:50Z</time>
      </trkpt>
      <trkpt lat="48.11499" lon="7.6897">
        <ele>464.93</ele>
        <time>2015-05-07T09:26:56Z</time>
      </trkpt>
      <trkpt lat="48.11501" lon="7.68968">
        <ele>464.45</ele>
        <time>2015-05-07T09:26:57Z</time>
      </trkpt>
      <trkpt lat="48.11506" lon="7.68954">
        <ele>468.3</ele>
        <time>2015-05-07T09:27:01Z</time>
      </trkpt>
      <trkpt lat="48.11506" lon="7.68952">
        <ele>467.34</ele>
        <time>2015-05-07T09:27:02Z</time>
      </trkpt>
      <trkpt lat="48.11508" lon="7.68949">
        <ele>463.97</ele>
        <time>2015-05-07T09:27:04Z</time>
      </trkpt>
      <trkpt lat="48.11509" lon="7.68943">
        <ele>467.82</ele>
        <time>2015-05-07T09:27:10Z</time>
      </trkpt>
      <trkpt lat="48.11512" lon="7.68939">
        <ele>462.05</ele>
        <time>2015-05-07T09:27:14Z</time>
      </trkpt>
      <trkpt lat="48.11513" lon="7.68937">
        <ele>463.49</ele>
        <time>2015-05-07T09:27:15Z</time>
      </trkpt>
      <trkpt lat="48.11514" lon="7.68935">
        <ele>462.53</ele>
        <time>2015-05-07T09:27:16Z</time>
      </trkpt>
      <trkpt lat="48.11515" lon="7.68931">
        <ele>466.86</ele>
        <time>2015-05-07T09:27:18Z</time>
      </trkpt>
      <trkpt lat="48.11516" lon="7.68929">
        <ele>466.38</ele>
        <time>2015-05-07T09:27:19Z</time>
      </trkpt>
      <trkpt lat="48.11518" lon="7.68924">
        <ele>463.49</ele>
        <time>2015-05-07T09:27:22Z</time>
      </trkpt>
      <trkpt lat="48.1152" lon="7.68919">
        <ele>460.13</ele>
        <time>2015-05-07T09:27:26Z</time>
      </trkpt>
      <trkpt lat="48.1152" lon="7.68917">
        <ele>456.76</ele>
        <time>2015-05-07T09:27:28Z</time>
      </trkpt>
      <trkpt lat="48.1152" lon="7.68916">
        <ele>456.76</ele>
        <time>2015-05-07T09:27:29Z</time>
      </trkpt>
      <trkpt lat="48.11525" lon="7.6891">
        <ele>462.53</ele>
        <time>2015-05-07T09:27:34Z</time>
      </trkpt>
      <trkpt lat="48.11528" lon="7.68902">
        <ele>458.21</ele>
        <time>2015-05-07T09:27:39Z</time>
      </trkpt>
      <trkpt lat="48.1153" lon="7.68896">
        <ele>454.36</ele>
        <time>2015-05-07T09:27:42Z</time>
      </trkpt>
      <trkpt lat="48.11536" lon="7.68884">
        <ele>458.21</ele>
        <time>2015-05-07T09:27:50Z</time>
      </trkpt>
      <trkpt lat="48.11539" lon="7.68878">
        <ele>454.36</ele>
        <time>2015-05-07T09:27:54Z</time>
      </trkpt>
      <trkpt lat="48.11541" lon="7.68875">
        <ele>451.48</ele>
        <time>2015-05-07T09:27:56Z</time>
      </trkpt>
      <trkpt lat="48.11542" lon="7.68873">
        <ele>452.44</ele>
        <time>2015-05-07T09:27:57Z</time>
      </trkpt>
      <trkpt lat="48.11549" lon="7.68861">
        <ele>450.52</ele>
        <time>2015-05-07T09:28:06Z</time>
      </trkpt>
      <trkpt lat="48.1155" lon="7.68859">
        <ele>451.96</ele>
        <time>2015-05-07T09:28:08Z</time>
      </trkpt>
      <trkpt lat="48.11555" lon="7.68841">
        <ele>448.59</ele>
        <time>2015-05-07T09:28:23Z</time>
      </trkpt>
      <trkpt lat="48.11555" lon="7.6884">
        <ele>449.07</ele>
        <time>2015-05-07T09:28:24Z</time>
      </trkpt>
      <trkpt lat="48.11556" lon="7.68833">
        <ele>445.71</ele>
        <time>2015-05-07T09:28:30Z</time>
      </trkpt>
      <trkpt lat="48.11557" lon="7.68824">
        <ele>449.07</ele>
        <time>2015-05-07T09:28:35Z</time>
      </trkpt>
      <trkpt lat="48.11557" lon="7.68822">
        <ele>451.48</ele>
        <time>2015-05-07T09:28:37Z</time>
      </trkpt>
      <trkpt lat="48.1156" lon="7.68808">
        <ele>446.67</ele>
        <time>2015-05-07T09:28:45Z</time>
      </trkpt>
      <trkpt lat="48.11561" lon="7.688">
        <ele>448.11</ele>
        <time>2015-05-07T09:28:49Z</time>
      </trkpt>
      <trkpt lat="48.11564" lon="7.68792">
        <ele>445.23</ele>
        <time>2015-05-07T09:28:52Z</time>
      </trkpt>
      <trkpt lat="48.11565" lon="7.68786">
        <ele>443.79</ele>
        <time>2015-05-07T09:28:54Z</time>
      </trkpt>
      <trkpt lat="48.11566" lon="7.68781">
        <ele>447.63</ele>
        <time>2015-05-07T09:28:56Z</time>
      </trkpt>
      <trkpt lat="48.11566" lon="7.6878">
        <ele>447.15</ele>
        <time>2015-05-07T09:28:57Z</time>
      </trkpt>
      <trkpt lat="48.11567" lon="7.68772">
        <ele>449.07</ele>
        <time>2015-05-07T09:29:01Z</time>
      </trkpt>
      <trkpt lat="48.11571" lon="7.6876">
        <ele>446.19</ele>
        <time>2015-05-07T09:29:07Z</time>
      </trkpt>
      <trkpt lat="48.11571" lon="7.68758">
        <ele>446.19</ele>
        <time>2015-05-07T09:29:08Z</time>
      </trkpt>
      <trkpt lat="48.11575" lon="7.68738">
        <ele>449.55</ele>
        <time>2015-05-07T09:29:19Z</time>
      </trkpt>
      <trkpt lat="48.11576" lon="7.68735">
        <ele>449.55</ele>
        <time>2015-05-07T09:29:20Z</time>
      </trkpt>
      <trkpt lat="48.11579" lon="7.68729">
        <ele>446.19</ele>
        <time>2015-05-07T09:29:23Z</time>
      </trkpt>
      <trkpt lat="48.1158" lon="7.68727">
        <ele>446.19</ele>
        <time>2015-05-07T09:29:24Z</time>
      </trkpt>
      <trkpt lat="48.11583" lon="7.6872">
        <ele>443.31</ele>
        <time>2015-05-07T09:29:27Z</time>
      </trkpt>
      <trkpt lat="48.11588" lon="7.68712">
        <ele>447.63</ele>
        <time>2015-05-07T09:29:32Z</time>
      </trkpt>
      <trkpt lat="48.11588" lon="7.68711">
        <ele>447.63</ele>
        <time>2015-05-07T09:29:33Z</time>
      </trkpt>
      <trkpt lat="48.11592" lon="7.68701">
        <ele>443.79</ele>
        <time>2015-05-07T09:29:39Z</time>
      </trkpt>
      <trkpt lat="48.11594" lon="7.68695">
        <ele>442.82</ele>
        <time>2015-05-07T09:29:41Z</time>
      </trkpt>
      <trkpt lat="48.11596" lon="7.68687">
        <ele>446.19</ele>
        <time>2015-05-07T09:29:45Z</time>
      </trkpt>
      <trkpt lat="48.11596" lon="7.68685">
        <ele>445.23</ele>
        <time>2015-05-07T09:29:46Z</time>
      </trkpt>
      <trkpt lat="48.11599" lon="7.68662">
        <ele>444.75</ele>
        <time>2015-05-07T09:29:58Z</time>
      </trkpt>
      <trkpt lat="48.11597" lon="7.6865">
        <ele>441.86</ele>
        <time>2015-05-07T09:30:03Z</time>
      </trkpt>
      <trkpt lat="48.11597" lon="7.68647">
        <ele>440.42</ele>
        <time>2015-05-07T09:30:05Z</time>
      </trkpt>
      <trkpt lat="48.11595" lon="7.68641">
        <ele>439.94</ele>
        <time>2015-05-07T09:30:08Z</time>
      </trkpt>
      <trkpt lat="48.11594" lon="7.68616">
        <ele>439.46</ele>
        <time>2015-05-07T09:30:21Z</time>
      </trkpt>
      <trkpt lat="48.11593" lon="7.68613">
        <ele>443.79</ele>
        <time>2015-05-07T09:30:23Z</time>
      </trkpt>
      <trkpt lat="48.11591" lon="7.68609">
        <ele>441.86</ele>
        <time>2015-05-07T09:31:01Z</time>
      </trkpt>
      <trkpt lat="48.1159" lon="7.68607">
        <ele>443.31</ele>
        <time>2015-05-07T09:32:02Z</time>
      </trkpt>
      <trkpt lat="48.11589" lon="7.68606">
        <ele>443.31</ele>
        <time>2015-05-07T09:32:03Z</time>
      </trkpt>
      <trkpt lat="48.11572" lon="7.68582">
        <ele>445.71</ele>
        <time>2015-05-07T09:32:21Z</time>
      </trkpt>
      <trkpt lat="48.11572" lon="7.68581">
        <ele>444.27</ele>
        <time>2015-05-07T09:32:22Z</time>
      </trkpt>
      <trkpt lat="48.11571" lon="7.68575">
        <ele>446.19</ele>
        <time>2015-05-07T09:32:26Z</time>
      </trkpt>
      <trkpt lat="48.11569" lon="7.68572">
        <ele>443.31</ele>
        <time>2015-05-07T09:32:29Z</time>
      </trkpt>
      <trkpt lat="48.11568" lon="7.6857">
        <ele>443.79</ele>
        <time>2015-05-07T09:32:30Z</time>
      </trkpt>
      <trkpt lat="48.11567" lon="7.68568">
        <ele>447.63</ele>
        <time>2015-05-07T09:32:32Z</time>
      </trkpt>
      <trkpt lat="48.11566" lon="7.68567">
        <ele>446.67</ele>
        <time>2015-05-07T09:32:33Z</time>
      </trkpt>
      <trkpt lat="48.11565" lon="7.68565">
        <ele>444.75</ele>
        <time>2015-05-07T09:32:35Z</time>
      </trkpt>
      <trkpt lat="48.11563" lon="7.68563">
        <ele>447.63</ele>
        <time>2015-05-07T09:32:37Z</time>
      </trkpt>
      <trkpt lat="48.1156" lon="7.6856">
        <ele>445.71</ele>
        <time>2015-05-07T09:32:40Z</time>
      </trkpt>
      <trkpt lat="48.11559" lon="7.68555">
        <ele>448.59</ele>
        <time>2015-05-07T09:32:43Z</time>
      </trkpt>
      <trkpt lat="48.11559" lon="7.68553">
        <ele>449.07</ele>
        <time>2015-05-07T09:32:44Z</time>
      </trkpt>
      <trkpt lat="48.11558" lon="7.68549">
        <ele>447.63</ele>
        <time>2015-05-07T09:32:46Z</time>
      </trkpt>
      <trkpt lat="48.11556" lon="7.68546">
        <ele>449.07</ele>
        <time>2015-05-07T09:32:48Z</time>
      </trkpt>
      <trkpt lat="48.11553" lon="7.6854">
        <ele>448.11</ele>
        <time>2015-05-07T09:32:52Z</time>
      </trkpt>
      <trkpt lat="48.1155" lon="7.68526">
        <ele>447.63</ele>
        <time>2015-05-07T09:33:01Z</time>
      </trkpt>
      <trkpt lat="48.1155" lon="7.68516">
        <ele>448.11</ele>
        <time>2015-05-07T09:33:06Z</time>
      </trkpt>
      <trkpt lat="48.1155" lon="7.68512">
        <ele>451</ele>
        <time>2015-05-07T09:33:08Z</time>
      </trkpt>
      <trkpt lat="48.1155" lon="7.68508">
        <ele>448.11</ele>
        <time>2015-05-07T09:33:10Z</time>
      </trkpt>
      <trkpt lat="48.11551" lon="7.68506">
        <ele>449.07</ele>
        <time>2015-05-07T09:33:11Z</time>
      </trkpt>
      <trkpt lat="48.11552" lon="7.68498">
        <ele>449.07</ele>
        <time>2015-05-07T09:33:15Z</time>
      </trkpt>
      <trkpt lat="48.11553" lon="7.68496">
        <ele>452.92</ele>
        <time>2015-05-07T09:33:17Z</time>
      </trkpt>
      <trkpt lat="48.11553" lon="7.68495">
        <ele>449.55</ele>
        <time>2015-05-07T09:33:18Z</time>
      </trkpt>
      <trkpt lat="48.11552" lon="7.68491">
        <ele>452.92</ele>
        <time>2015-05-07T09:33:21Z</time>
      </trkpt>
      <trkpt lat="48.11551" lon="7.68478">
        <ele>452.92</ele>
        <time>2015-05-07T09:33:29Z</time>
      </trkpt>
      <trkpt lat="48.11551" lon="7.68473">
        <ele>451.96</ele>
        <time>2015-05-07T09:33:31Z</time>
      </trkpt>
      <trkpt lat="48.11553" lon="7.68465">
        <ele>451.96</ele>
        <time>2015-05-07T09:33:36Z</time>
      </trkpt>
      <trkpt lat="48.11554" lon="7.68461">
        <ele>453.4</ele>
        <time>2015-05-07T09:33:38Z</time>
      </trkpt>
      <trkpt lat="48.11557" lon="7.68449">
        <ele>450.52</ele>
        <time>2015-05-07T09:33:45Z</time>
      </trkpt>
      <trkpt lat="48.11564" lon="7.68419">
        <ele>453.4</ele>
        <time>2015-05-07T09:34:01Z</time>
      </trkpt>
      <trkpt lat="48.11566" lon="7.684">
        <ele>450.52</ele>
        <time>2015-05-07T09:34:15Z</time>
      </trkpt>
      <trkpt lat="48.11566" lon="7.68393">
        <ele>450.52</ele>
        <time>2015-05-07T09:34:19Z</time>
      </trkpt>
      <trkpt lat="48.11567" lon="7.68385">
        <ele>452.44</ele>
        <time>2015-05-07T09:34:23Z</time>
      </trkpt>
      <trkpt lat="48.11568" lon="7.68381">
        <ele>453.88</ele>
        <time>2015-05-07T09:34:25Z</time>
      </trkpt>
      <trkpt lat="48.1157" lon="7.68325">
        <ele>451.96</ele>
        <time>2015-05-07T09:34:46Z</time>
      </trkpt>
      <trkpt lat="48.11569" lon="7.6832">
        <ele>454.84</ele>
        <time>2015-05-07T09:34:50Z</time>
      </trkpt>
      <trkpt lat="48.11569" lon="7.68313">
        <ele>452.44</ele>
        <time>2015-05-07T09:34:54Z</time>
      </trkpt>
      <trkpt lat="48.11571" lon="7.68307">
        <ele>456.28</ele>
        <time>2015-05-07T09:34:57Z</time>
      </trkpt>
      <trkpt lat="48.11571" lon="7.68305">
        <ele>455.8</ele>
        <time>2015-05-07T09:34:58Z</time>
      </trkpt>
      <trkpt lat="48.11574" lon="7.68291">
        <ele>456.28</ele>
        <time>2015-05-07T09:35:04Z</time>
      </trkpt>
      <trkpt lat="48.11571" lon="7.68272">
        <ele>459.17</ele>
        <time>2015-05-07T09:35:16Z</time>
      </trkpt>
      <trkpt lat="48.1157" lon="7.6827">
        <ele>459.17</ele>
        <time>2015-05-07T09:35:17Z</time>
      </trkpt>
      <trkpt lat="48.11569" lon="7.68269">
        <ele>455.8</ele>
        <time>2015-05-07T09:35:18Z</time>
      </trkpt>
      <trkpt lat="48.11569" lon="7.68268">
        <ele>457.24</ele>
        <time>2015-05-07T09:35:19Z</time>
      </trkpt>
      <trkpt lat="48.11568" lon="7.68264">
        <ele>459.65</ele>
        <time>2015-05-07T09:35:22Z</time>
      </trkpt>
      <trkpt lat="48.11568" lon="7.68262">
        <ele>456.76</ele>
        <time>2015-05-07T09:35:23Z</time>
      </trkpt>
      <trkpt lat="48.11568" lon="7.68261">
        <ele>457.72</ele>
        <time>2015-05-07T09:35:24Z</time>
      </trkpt>
      <trkpt lat="48.11569" lon="7.68255">
        <ele>459.65</ele>
        <time>2015-05-07T09:35:27Z</time>
      </trkpt>
      <trkpt lat="48.11568" lon="7.68251">
        <ele>457.72</ele>
        <time>2015-05-07T09:35:29Z</time>
      </trkpt>
      <trkpt lat="48.11568" lon="7.68244">
        <ele>461.09</ele>
        <time>2015-05-07T09:35:32Z</time>
      </trkpt>
      <trkpt lat="48.11568" lon="7.68241">
        <ele>457.72</ele>
        <time>2015-05-07T09:35:34Z</time>
      </trkpt>
      <trkpt lat="48.11568" lon="7.68238">
        <ele>462.53</ele>
        <time>2015-05-07T09:35:36Z</time>
      </trkpt>
      <trkpt lat="48.11567" lon="7.68234">
        <ele>458.69</ele>
        <time>2015-05-07T09:35:38Z</time>
      </trkpt>
      <trkpt lat="48.11566" lon="7.68232">
        <ele>462.53</ele>
        <time>2015-05-07T09:35:40Z</time>
      </trkpt>
      <trkpt lat="48.11566" lon="7.6823">
        <ele>462.53</ele>
        <time>2015-05-07T09:35:41Z</time>
      </trkpt>
      <trkpt lat="48.11564" lon="7.68226">
        <ele>459.65</ele>
        <time>2015-05-07T09:35:45Z</time>
      </trkpt>
      <trkpt lat="48.11564" lon="7.68225">
        <ele>463.49</ele>
        <time>2015-05-07T09:35:46Z</time>
      </trkpt>
      <trkpt lat="48.11557" lon="7.68196">
        <ele>465.42</ele>
        <time>2015-05-07T09:36:02Z</time>
      </trkpt>
      <trkpt lat="48.11555" lon="7.68191">
        <ele>465.9</ele>
        <time>2015-05-07T09:36:09Z</time>
      </trkpt>
      <trkpt lat="48.11552" lon="7.68186">
        <ele>463.01</ele>
        <time>2015-05-07T09:36:13Z</time>
      </trkpt>
      <trkpt lat="48.1155" lon="7.68185">
        <ele>467.82</ele>
        <time>2015-05-07T09:36:14Z</time>
      </trkpt>
      <trkpt lat="48.11541" lon="7.68162">
        <ele>467.34</ele>
        <time>2015-05-07T09:36:32Z</time>
      </trkpt>
      <trkpt lat="48.1154" lon="7.68159">
        <ele>469.26</ele>
        <time>2015-05-07T09:36:34Z</time>
      </trkpt>
      <trkpt lat="48.11533" lon="7.68152">
        <ele>470.22</ele>
        <time>2015-05-07T09:36:39Z</time>
      </trkpt>
      <trkpt lat="48.1153" lon="7.68147">
        <ele>467.34</ele>
        <time>2015-05-07T09:36:42Z</time>
      </trkpt>
      <trkpt lat="48.11528" lon="7.68145">
        <ele>466.86</ele>
        <time>2015-05-07T09:36:43Z</time>
      </trkpt>
      <trkpt lat="48.11525" lon="7.68142">
        <ele>470.22</ele>
        <time>2015-05-07T09:36:46Z</time>
      </trkpt>
      <trkpt lat="48.11519" lon="7.68137">
        <ele>466.38</ele>
        <time>2015-05-07T09:36:51Z</time>
      </trkpt>
      <trkpt lat="48.11517" lon="7.68133">
        <ele>470.22</ele>
        <time>2015-05-07T09:36:54Z</time>
      </trkpt>
      <trkpt lat="48.11517" lon="7.68131">
        <ele>470.22</ele>
        <time>2015-05-07T09:36:55Z</time>
      </trkpt>
      <trkpt lat="48.1151" lon="7.68123">
        <ele>467.34</ele>
        <time>2015-05-07T09:37:02Z</time>
      </trkpt>
      <trkpt lat="48.11509" lon="7.6812">
        <ele>470.22</ele>
        <time>2015-05-07T09:37:04Z</time>
      </trkpt>
      <trkpt lat="48.11505" lon="7.68118">
        <ele>468.78</ele>
        <time>2015-05-07T09:37:07Z</time>
      </trkpt>
      <trkpt lat="48.11499" lon="7.68113">
        <ele>471.18</ele>
        <time>2015-05-07T09:37:12Z</time>
      </trkpt>
      <trkpt lat="48.11492" lon="7.68103">
        <ele>473.59</ele>
        <time>2015-05-07T09:37:27Z</time>
      </trkpt>
      <trkpt lat="48.11492" lon="7.68103">
        <ele>471.18</ele>
        <time>2015-05-07T09:37:29Z</time>
      </trkpt>
      <trkpt lat="48.11492" lon="7.68103">
        <ele>471.18</ele>
        <time>2015-05-07T09:37:38Z</time>
      </trkpt>
      <trkpt lat="48.11487" lon="7.68096">
        <ele>471.66</ele>
        <time>2015-05-07T09:37:50Z</time>
      </trkpt>
      <trkpt lat="48.11484" lon="7.68094">
        <ele>472.63</ele>
        <time>2015-05-07T09:37:54Z</time>
      </trkpt>
      <trkpt lat="48.11471" lon="7.68081">
        <ele>468.78</ele>
        <time>2015-05-07T09:38:14Z</time>
      </trkpt>
      <trkpt lat="48.11466" lon="7.68078">
        <ele>468.78</ele>
        <time>2015-05-07T09:38:15Z</time>
      </trkpt>
      <trkpt lat="48.11454" lon="7.68062">
        <ele>467.34</ele>
        <time>2015-05-07T09:38:29Z</time>
      </trkpt>
      <trkpt lat="48.11442" lon="7.68042">
        <ele>464.45</ele>
        <time>2015-05-07T09:38:45Z</time>
      </trkpt>
      <trkpt lat="48.11442" lon="7.68042">
        <ele>460.13</ele>
        <time>2015-05-07T09:38:54Z</time>
      </trkpt>
      <trkpt lat="48.11442" lon="7.68042">
        <ele>460.13</ele>
        <time>2015-05-07T09:38:55Z</time>
      </trkpt>
      <trkpt lat="48.11439" lon="7.68038">
        <ele>463.97</ele>
        <time>2015-05-07T09:38:58Z</time>
      </trkpt>
      <trkpt lat="48.11437" lon="7.68036">
        <ele>464.45</ele>
        <time>2015-05-07T09:38:59Z</time>
      </trkpt>
      <trkpt lat="48.11427" lon="7.68026">
        <ele>460.61</ele>
        <time>2015-05-07T09:39:04Z</time>
      </trkpt>
      <trkpt lat="48.11421" lon="7.68009">
        <ele>463.01</ele>
        <time>2015-05-07T09:39:13Z</time>
      </trkpt>
      <trkpt lat="48.11412" lon="7.67981">
        <ele>460.13</ele>
        <time>2015-05-07T09:39:27Z</time>
      </trkpt>
      <trkpt lat="48.11412" lon="7.67978">
        <ele>456.76</ele>
        <time>2015-05-07T09:39:29Z</time>
      </trkpt>
      <trkpt lat="48.11411" lon="7.6797">
        <ele>453.4</ele>
        <time>2015-05-07T09:39:34Z</time>
      </trkpt>
      <trkpt lat="48.11407" lon="7.67955">
        <ele>457.72</ele>
        <time>2015-05-07T09:39:42Z</time>
      </trkpt>
      <trkpt lat="48.11407" lon="7.67951">
        <ele>459.17</ele>
        <time>2015-05-07T09:39:44Z</time>
      </trkpt>
      <trkpt lat="48.11401" lon="7.67943">
        <ele>455.8</ele>
        <time>2015-05-07T09:39:46Z</time>
      </trkpt>
      <trkpt lat="48.11398" lon="7.67924">
        <ele>452.44</ele>
        <time>2015-05-07T09:39:52Z</time>
      </trkpt>
      <trkpt lat="48.11398" lon="7.67915">
        <ele>455.8</ele>
        <time>2015-05-07T09:39:58Z</time>
      </trkpt>
      <trkpt lat="48.11399" lon="7.67914">
        <ele>456.28</ele>
        <time>2015-05-07T09:39:59Z</time>
      </trkpt>
      <trkpt lat="48.11399" lon="7.6791">
        <ele>452.44</ele>
        <time>2015-05-07T09:40:01Z</time>
      </trkpt>
      <trkpt lat="48.114" lon="7.67909">
        <ele>453.4</ele>
        <time>2015-05-07T09:40:02Z</time>
      </trkpt>
      <trkpt lat="48.114" lon="7.67904">
        <ele>449.07</ele>
        <time>2015-05-07T09:40:06Z</time>
      </trkpt>
      <trkpt lat="48.114" lon="7.67902">
        <ele>449.07</ele>
        <time>2015-05-07T09:40:07Z</time>
      </trkpt>
      <trkpt lat="48.11399" lon="7.67891">
        <ele>452.44</ele>
        <time>2015-05-07T09:40:12Z</time>
      </trkpt>
      <trkpt lat="48.11398" lon="7.67887">
        <ele>453.4</ele>
        <time>2015-05-07T09:40:14Z</time>
      </trkpt>
      <trkpt lat="48.11398" lon="7.67871">
        <ele>452.92</ele>
        <time>2015-05-07T09:40:25Z</time>
      </trkpt>
      <trkpt lat="48.11393" lon="7.67856">
        <ele>450.52</ele>
        <time>2015-05-07T09:40:32Z</time>
      </trkpt>
      <trkpt lat="48.11383" lon="7.67844">
        <ele>445.71</ele>
        <time>2015-05-07T09:40:39Z</time>
      </trkpt>
      <trkpt lat="48.11382" lon="7.67843">
        <ele>446.19</ele>
        <time>2015-05-07T09:40:40Z</time>
      </trkpt>
      <trkpt lat="48.11379" lon="7.67836">
        <ele>448.59</ele>
        <time>2015-05-07T09:40:46Z</time>
      </trkpt>
      <trkpt lat="48.11378" lon="7.67833">
        <ele>451</ele>
        <time>2015-05-07T09:40:48Z</time>
      </trkpt>
      <trkpt lat="48.11373" lon="7.67825">
        <ele>447.15</ele>
        <time>2015-05-07T09:40:55Z</time>
      </trkpt>
      <trkpt lat="48.11357" lon="7.67803">
        <ele>448.59</ele>
        <time>2015-05-07T09:41:11Z</time>
      </trkpt>
      <trkpt lat="48.11351" lon="7.67799">
        <ele>449.55</ele>
        <time>2015-05-07T09:41:15Z</time>
      </trkpt>
      <trkpt lat="48.11344" lon="7.67791">
        <ele>446.67</ele>
        <time>2015-05-07T09:41:22Z</time>
      </trkpt>
      <trkpt lat="48.11335" lon="7.67776">
        <ele>450.52</ele>
        <time>2015-05-07T09:41:29Z</time>
      </trkpt>
      <trkpt lat="48.1133" lon="7.67765">
        <ele>449.07</ele>
        <time>2015-05-07T09:41:37Z</time>
      </trkpt>
      <trkpt lat="48.11324" lon="7.67756">
        <ele>452.92</ele>
        <time>2015-05-07T09:41:45Z</time>
      </trkpt>
      <trkpt lat="48.11323" lon="7.67754">
        <ele>452.92</ele>
        <time>2015-05-07T09:41:46Z</time>
      </trkpt>
      <trkpt lat="48.11319" lon="7.67749">
        <ele>450.03</ele>
        <time>2015-05-07T09:41:50Z</time>
      </trkpt>
      <trkpt lat="48.11318" lon="7.67748">
        <ele>453.88</ele>
        <time>2015-05-07T09:41:51Z</time>
      </trkpt>
      <trkpt lat="48.11316" lon="7.67745">
        <ele>450.03</ele>
        <time>2015-05-07T09:41:54Z</time>
      </trkpt>
      <trkpt lat="48.11315" lon="7.67745">
        <ele>453.4</ele>
        <time>2015-05-07T09:41:55Z</time>
      </trkpt>
      <trkpt lat="48.11313" lon="7.67739">
        <ele>454.36</ele>
        <time>2015-05-07T09:42:00Z</time>
      </trkpt>
      <trkpt lat="48.11312" lon="7.67737">
        <ele>452.92</ele>
        <time>2015-05-07T09:42:02Z</time>
      </trkpt>
      <trkpt lat="48.11308" lon="7.67732">
        <ele>454.84</ele>
        <time>2015-05-07T09:42:07Z</time>
      </trkpt>
      <trkpt lat="48.11304" lon="7.67727">
        <ele>454.84</ele>
        <time>2015-05-07T09:42:11Z</time>
      </trkpt>
      <trkpt lat="48.11302" lon="7.67724">
        <ele>451</ele>
        <time>2015-05-07T09:42:13Z</time>
      </trkpt>
      <trkpt lat="48.11301" lon="7.67722">
        <ele>454.36</ele>
        <time>2015-05-07T09:42:14Z</time>
      </trkpt>
      <trkpt lat="48.11293" lon="7.67711">
        <ele>456.28</ele>
        <time>2015-05-07T09:42:22Z</time>
      </trkpt>
      <trkpt lat="48.11291" lon="7.67708">
        <ele>452.92</ele>
        <time>2015-05-07T09:42:24Z</time>
      </trkpt>
      <trkpt lat="48.1129" lon="7.67707">
        <ele>454.36</ele>
        <time>2015-05-07T09:42:25Z</time>
      </trkpt>
      <trkpt lat="48.11288" lon="7.67703">
        <ele>456.28</ele>
        <time>2015-05-07T09:42:28Z</time>
      </trkpt>
      <trkpt lat="48.11285" lon="7.67698">
        <ele>452.92</ele>
        <time>2015-05-07T09:42:32Z</time>
      </trkpt>
      <trkpt lat="48.11283" lon="7.67696">
        <ele>455.8</ele>
        <time>2015-05-07T09:42:34Z</time>
      </trkpt>
      <trkpt lat="48.1128" lon="7.67686">
        <ele>453.88</ele>
        <time>2015-05-07T09:42:40Z</time>
      </trkpt>
      <trkpt lat="48.11277" lon="7.67673">
        <ele>453.88</ele>
        <time>2015-05-07T09:42:47Z</time>
      </trkpt>
      <trkpt lat="48.11276" lon="7.6767">
        <ele>458.21</ele>
        <time>2015-05-07T09:42:49Z</time>
      </trkpt>
      <trkpt lat="48.11275" lon="7.67668">
        <ele>458.21</ele>
        <time>2015-05-07T09:42:50Z</time>
      </trkpt>
      <trkpt lat="48.11275" lon="7.67664">
        <ele>453.4</ele>
        <time>2015-05-07T09:42:52Z</time>
      </trkpt>
      <trkpt lat="48.11274" lon="7.67662">
        <ele>453.88</ele>
        <time>2015-05-07T09:42:53Z</time>
      </trkpt>
      <trkpt lat="48.11273" lon="7.67659">
        <ele>457.24</ele>
        <time>2015-05-07T09:42:55Z</time>
      </trkpt>
      <trkpt lat="48.11273" lon="7.67657">
        <ele>457.24</ele>
        <time>2015-05-07T09:42:56Z</time>
      </trkpt>
      <trkpt lat="48.1127" lon="7.67648">
        <ele>458.21</ele>
        <time>2015-05-07T09:43:02Z</time>
      </trkpt>
      <trkpt lat="48.11269" lon="7.67645">
        <ele>454.84</ele>
        <time>2015-05-07T09:43:05Z</time>
      </trkpt>
      <trkpt lat="48.11269" lon="7.67643">
        <ele>457.72</ele>
        <time>2015-05-07T09:43:06Z</time>
      </trkpt>
      <trkpt lat="48.11267" lon="7.67639">
        <ele>455.8</ele>
        <time>2015-05-07T09:43:10Z</time>
      </trkpt>
      <trkpt lat="48.11265" lon="7.67636">
        <ele>458.69</ele>
        <time>2015-05-07T09:43:12Z</time>
      </trkpt>
      <trkpt lat="48.11262" lon="7.67628">
        <ele>454.36</ele>
        <time>2015-05-07T09:43:16Z</time>
      </trkpt>
      <trkpt lat="48.11262" lon="7.67627">
        <ele>455.8</ele>
        <time>2015-05-07T09:43:17Z</time>
      </trkpt>
      <trkpt lat="48.11261" lon="7.67624">
        <ele>459.65</ele>
        <time>2015-05-07T09:43:19Z</time>
      </trkpt>
      <trkpt lat="48.1126" lon="7.67623">
        <ele>455.8</ele>
        <time>2015-05-07T09:43:21Z</time>
      </trkpt>
      <trkpt lat="48.11259" lon="7.6762">
        <ele>459.17</ele>
        <time>2015-05-07T09:43:23Z</time>
      </trkpt>
      <trkpt lat="48.11258" lon="7.67618">
        <ele>452.92</ele>
        <time>2015-05-07T09:43:25Z</time>
      </trkpt>
      <trkpt lat="48.11257" lon="7.67617">
        <ele>455.8</ele>
        <time>2015-05-07T09:43:26Z</time>
      </trkpt>
      <trkpt lat="48.11256" lon="7.67616">
        <ele>458.69</ele>
        <time>2015-05-07T09:43:28Z</time>
      </trkpt>
      <trkpt lat="48.11256" lon="7.67615">
        <ele>455.32</ele>
        <time>2015-05-07T09:43:29Z</time>
      </trkpt>
      <trkpt lat="48.11254" lon="7.67613">
        <ele>458.69</ele>
        <time>2015-05-07T09:43:31Z</time>
      </trkpt>
      <trkpt lat="48.11252" lon="7.6761">
        <ele>455.8</ele>
        <time>2015-05-07T09:43:34Z</time>
      </trkpt>
      <trkpt lat="48.11244" lon="7.67601">
        <ele>459.17</ele>
        <time>2015-05-07T09:43:41Z</time>
      </trkpt>
      <trkpt lat="48.11243" lon="7.676">
        <ele>459.65</ele>
        <time>2015-05-07T09:43:42Z</time>
      </trkpt>
      <trkpt lat="48.1124" lon="7.67598">
        <ele>454.84</ele>
        <time>2015-05-07T09:43:44Z</time>
      </trkpt>
      <trkpt lat="48.11235" lon="7.67596">
        <ele>458.21</ele>
        <time>2015-05-07T09:43:47Z</time>
      </trkpt>
      <trkpt lat="48.11233" lon="7.67596">
        <ele>457.72</ele>
        <time>2015-05-07T09:43:48Z</time>
      </trkpt>
      <trkpt lat="48.11227" lon="7.67592">
        <ele>454.36</ele>
        <time>2015-05-07T09:43:53Z</time>
      </trkpt>
      <trkpt lat="48.11226" lon="7.67592">
        <ele>455.32</ele>
        <time>2015-05-07T09:43:54Z</time>
      </trkpt>
      <trkpt lat="48.11223" lon="7.67588">
        <ele>459.65</ele>
        <time>2015-05-07T09:43:57Z</time>
      </trkpt>
      <trkpt lat="48.11222" lon="7.67587">
        <ele>459.65</ele>
        <time>2015-05-07T09:43:58Z</time>
      </trkpt>
      <trkpt lat="48.1122" lon="7.67583">
        <ele>456.28</ele>
        <time>2015-05-07T09:44:02Z</time>
      </trkpt>
      <trkpt lat="48.11217" lon="7.67579">
        <ele>459.65</ele>
        <time>2015-05-07T09:44:06Z</time>
      </trkpt>
      <trkpt lat="48.11202" lon="7.67564">
        <ele>456.76</ele>
        <time>2015-05-07T09:44:21Z</time>
      </trkpt>
      <trkpt lat="48.11201" lon="7.67562">
        <ele>457.24</ele>
        <time>2015-05-07T09:44:22Z</time>
      </trkpt>
      <trkpt lat="48.11193" lon="7.67555">
        <ele>458.69</ele>
        <time>2015-05-07T09:44:27Z</time>
      </trkpt>
      <trkpt lat="48.11189" lon="7.67548">
        <ele>455.8</ele>
        <time>2015-05-07T09:44:33Z</time>
      </trkpt>
      <trkpt lat="48.11187" lon="7.67545">
        <ele>456.76</ele>
        <time>2015-05-07T09:44:36Z</time>
      </trkpt>
      <trkpt lat="48.1118" lon="7.67534">
        <ele>454.84</ele>
        <time>2015-05-07T09:44:44Z</time>
      </trkpt>
      <trkpt lat="48.11172" lon="7.67517">
        <ele>451.96</ele>
        <time>2015-05-07T09:44:56Z</time>
      </trkpt>
      <trkpt lat="48.1117" lon="7.6751">
        <ele>450.52</ele>
        <time>2015-05-07T09:45:00Z</time>
      </trkpt>
      <trkpt lat="48.11169" lon="7.67506">
        <ele>447.63</ele>
        <time>2015-05-07T09:45:03Z</time>
      </trkpt>
      <trkpt lat="48.11164" lon="7.67499">
        <ele>447.15</ele>
        <time>2015-05-07T09:45:08Z</time>
      </trkpt>
      <trkpt lat="48.11161" lon="7.67495">
        <ele>443.31</ele>
        <time>2015-05-07T09:45:11Z</time>
      </trkpt>
      <trkpt lat="48.1116" lon="7.67494">
        <ele>443.79</ele>
        <time>2015-05-07T09:45:12Z</time>
      </trkpt>
      <trkpt lat="48.11148" lon="7.67478">
        <ele>447.15</ele>
        <time>2015-05-07T09:45:25Z</time>
      </trkpt>
      <trkpt lat="48.11137" lon="7.67465">
        <ele>443.31</ele>
        <time>2015-05-07T09:45:31Z</time>
      </trkpt>
      <trkpt lat="48.11131" lon="7.67457">
        <ele>441.38</ele>
        <time>2015-05-07T09:45:36Z</time>
      </trkpt>
      <trkpt lat="48.11126" lon="7.67446">
        <ele>440.9</ele>
        <time>2015-05-07T09:45:43Z</time>
      </trkpt>
      <trkpt lat="48.11103" lon="7.67424">
        <ele>441.38</ele>
        <time>2015-05-07T09:46:03Z</time>
      </trkpt>
      <trkpt lat="48.11101" lon="7.67418">
        <ele>440.42</ele>
        <time>2015-05-07T09:46:08Z</time>
      </trkpt>
      <trkpt lat="48.11098" lon="7.67408">
        <ele>441.38</ele>
        <time>2015-05-07T09:46:17Z</time>
      </trkpt>
      <trkpt lat="48.11097" lon="7.67405">
        <ele>444.75</ele>
        <time>2015-05-07T09:46:20Z</time>
      </trkpt>
      <trkpt lat="48.1109" lon="7.67392">
        <ele>439.94</ele>
        <time>2015-05-07T09:46:29Z</time>
      </trkpt>
      <trkpt lat="48.11089" lon="7.67391">
        <ele>440.42</ele>
        <time>2015-05-07T09:46:30Z</time>
      </trkpt>
      <trkpt lat="48.11086" lon="7.67384">
        <ele>444.27</ele>
        <time>2015-05-07T09:46:36Z</time>
      </trkpt>
      <trkpt lat="48.11079" lon="7.67375">
        <ele>441.38</ele>
        <time>2015-05-07T09:46:41Z</time>
      </trkpt>
      <trkpt lat="48.11078" lon="7.67373">
        <ele>444.27</ele>
        <time>2015-05-07T09:46:43Z</time>
      </trkpt>
      <trkpt lat="48.11071" lon="7.67355">
        <ele>440.9</ele>
        <time>2015-05-07T09:46:54Z</time>
      </trkpt>
      <trkpt lat="48.11071" lon="7.6735">
        <ele>437.54</ele>
        <time>2015-05-07T09:47:21Z</time>
      </trkpt>
      <trkpt lat="48.1107" lon="7.67344">
        <ele>436.1</ele>
        <time>2015-05-07T09:47:24Z</time>
      </trkpt>
      <trkpt lat="48.11069" lon="7.67342">
        <ele>436.58</ele>
        <time>2015-05-07T09:47:25Z</time>
      </trkpt>
      <trkpt lat="48.11067" lon="7.67333">
        <ele>437.06</ele>
        <time>2015-05-07T09:47:29Z</time>
      </trkpt>
      <trkpt lat="48.11065" lon="7.67327">
        <ele>438.02</ele>
        <time>2015-05-07T09:47:31Z</time>
      </trkpt>
      <trkpt lat="48.11065" lon="7.67312">
        <ele>436.58</ele>
        <time>2015-05-07T09:47:37Z</time>
      </trkpt>
      <trkpt lat="48.11065" lon="7.67308">
        <ele>434.65</ele>
        <time>2015-05-07T09:47:39Z</time>
      </trkpt>
      <trkpt lat="48.11067" lon="7.67303">
        <ele>430.33</ele>
        <time>2015-05-07T09:47:41Z</time>
      </trkpt>
      <trkpt lat="48.11068" lon="7.67299">
        <ele>428.89</ele>
        <time>2015-05-07T09:47:43Z</time>
      </trkpt>
      <trkpt lat="48.1107" lon="7.67289">
        <ele>433.21</ele>
        <time>2015-05-07T09:47:48Z</time>
      </trkpt>
      <trkpt lat="48.1107" lon="7.67287">
        <ele>433.69</ele>
        <time>2015-05-07T09:47:49Z</time>
      </trkpt>
      <trkpt lat="48.11071" lon="7.67285">
        <ele>433.69</ele>
        <time>2015-05-07T09:47:50Z</time>
      </trkpt>
      <trkpt lat="48.11072" lon="7.67276">
        <ele>427.44</ele>
        <time>2015-05-07T09:47:54Z</time>
      </trkpt>
      <trkpt lat="48.11073" lon="7.67274">
        <ele>427.44</ele>
        <time>2015-05-07T09:47:55Z</time>
      </trkpt>
      <trkpt lat="48.11075" lon="7.67264">
        <ele>431.29</ele>
        <time>2015-05-07T09:48:00Z</time>
      </trkpt>
      <trkpt lat="48.11077" lon="7.67255">
        <ele>427.92</ele>
        <time>2015-05-07T09:48:06Z</time>
      </trkpt>
      <trkpt lat="48.11077" lon="7.67253">
        <ele>425.04</ele>
        <time>2015-05-07T09:48:07Z</time>
      </trkpt>
      <trkpt lat="48.11078" lon="7.67252">
        <ele>425.04</ele>
        <time>2015-05-07T09:48:08Z</time>
      </trkpt>
      <trkpt lat="48.11078" lon="7.67246">
        <ele>421.19</ele>
        <time>2015-05-07T09:48:11Z</time>
      </trkpt>
      <trkpt lat="48.11078" lon="7.67243">
        <ele>427.44</ele>
        <time>2015-05-07T09:48:13Z</time>
      </trkpt>
      <trkpt lat="48.11078" lon="7.67236">
        <ele>427.92</ele>
        <time>2015-05-07T09:48:18Z</time>
      </trkpt>
      <trkpt lat="48.11078" lon="7.67233">
        <ele>424.56</ele>
        <time>2015-05-07T09:48:20Z</time>
      </trkpt>
      <trkpt lat="48.11079" lon="7.67229">
        <ele>420.71</ele>
        <time>2015-05-07T09:48:23Z</time>
      </trkpt>
      <trkpt lat="48.11079" lon="7.67228">
        <ele>421.68</ele>
        <time>2015-05-07T09:48:24Z</time>
      </trkpt>
      <trkpt lat="48.11079" lon="7.67226">
        <ele>422.16</ele>
        <time>2015-05-07T09:48:25Z</time>
      </trkpt>
      <trkpt lat="48.11079" lon="7.67222">
        <ele>422.16</ele>
        <time>2015-05-07T09:48:27Z</time>
      </trkpt>
      <trkpt lat="48.1108" lon="7.67217">
        <ele>423.12</ele>
        <time>2015-05-07T09:48:29Z</time>
      </trkpt>
      <trkpt lat="48.1108" lon="7.67208">
        <ele>426.48</ele>
        <time>2015-05-07T09:48:35Z</time>
      </trkpt>
      <trkpt lat="48.11081" lon="7.6719">
        <ele>422.16</ele>
        <time>2015-05-07T09:48:47Z</time>
      </trkpt>
      <trkpt lat="48.11084" lon="7.67183">
        <ele>422.64</ele>
        <time>2015-05-07T09:49:11Z</time>
      </trkpt>
      <trkpt lat="48.11085" lon="7.67183">
        <ele>421.68</ele>
        <time>2015-05-07T09:50:12Z</time>
      </trkpt>
      <trkpt lat="48.11085" lon="7.67182">
        <ele>421.68</ele>
        <time>2015-05-07T09:50:51Z</time>
      </trkpt>
      <trkpt lat="48.11085" lon="7.67176">
        <ele>422.16</ele>
        <time>2015-05-07T09:51:06Z</time>
      </trkpt>
      <trkpt lat="48.11087" lon="7.67169">
        <ele>422.64</ele>
        <time>2015-05-07T09:51:23Z</time>
      </trkpt>
      <trkpt lat="48.11098" lon="7.67145">
        <ele>420.71</ele>
        <time>2015-05-07T09:51:34Z</time>
      </trkpt>
      <trkpt lat="48.111" lon="7.67143">
        <ele>423.6</ele>
        <time>2015-05-07T09:51:38Z</time>
      </trkpt>
      <trkpt lat="48.11109" lon="7.67119">
        <ele>426.96</ele>
        <time>2015-05-07T09:51:55Z</time>
      </trkpt>
      <trkpt lat="48.11118" lon="7.67097">
        <ele>429.85</ele>
        <time>2015-05-07T09:52:13Z</time>
      </trkpt>
      <trkpt lat="48.11121" lon="7.67087">
        <ele>431.77</ele>
        <time>2015-05-07T09:52:42Z</time>
      </trkpt>
      <trkpt lat="48.11135" lon="7.67062">
        <ele>435.13</ele>
        <time>2015-05-07T09:52:56Z</time>
      </trkpt>
      <trkpt lat="48.11138" lon="7.67058">
        <ele>431.77</ele>
        <time>2015-05-07T09:52:58Z</time>
      </trkpt>
      <trkpt lat="48.11141" lon="7.67052">
        <ele>434.65</ele>
        <time>2015-05-07T09:53:01Z</time>
      </trkpt>
      <trkpt lat="48.11144" lon="7.67045">
        <ele>432.25</ele>
        <time>2015-05-07T09:53:04Z</time>
      </trkpt>
      <trkpt lat="48.11147" lon="7.67035">
        <ele>435.61</ele>
        <time>2015-05-07T09:53:08Z</time>
      </trkpt>
      <trkpt lat="48.11151" lon="7.6703">
        <ele>433.69</ele>
        <time>2015-05-07T09:53:12Z</time>
      </trkpt>
      <trkpt lat="48.11157" lon="7.67008">
        <ele>437.06</ele>
        <time>2015-05-07T09:53:24Z</time>
      </trkpt>
      <trkpt lat="48.11159" lon="7.66998">
        <ele>434.17</ele>
        <time>2015-05-07T09:53:30Z</time>
      </trkpt>
      <trkpt lat="48.1116" lon="7.66997">
        <ele>433.69</ele>
        <time>2015-05-07T09:53:31Z</time>
      </trkpt>
      <trkpt lat="48.1116" lon="7.66996">
        <ele>437.06</ele>
        <time>2015-05-07T09:53:32Z</time>
      </trkpt>
      <trkpt lat="48.1116" lon="7.66995">
        <ele>437.06</ele>
        <time>2015-05-07T09:53:33Z</time>
      </trkpt>
      <trkpt lat="48.1116" lon="7.66993">
        <ele>435.61</ele>
        <time>2015-05-07T09:53:35Z</time>
      </trkpt>
      <trkpt lat="48.11161" lon="7.66987">
        <ele>438.5</ele>
        <time>2015-05-07T09:53:40Z</time>
      </trkpt>
      <trkpt lat="48.11161" lon="7.66986">
        <ele>438.02</ele>
        <time>2015-05-07T09:53:41Z</time>
      </trkpt>
      <trkpt lat="48.11163" lon="7.66972">
        <ele>441.86</ele>
        <time>2015-05-07T09:53:54Z</time>
      </trkpt>
      <trkpt lat="48.11169" lon="7.66944">
        <ele>444.75</ele>
        <time>2015-05-07T09:54:10Z</time>
      </trkpt>
      <trkpt lat="48.11168" lon="7.66922">
        <ele>444.75</ele>
        <time>2015-05-07T09:54:33Z</time>
      </trkpt>
      <trkpt lat="48.11158" lon="7.66909">
        <ele>447.63</ele>
        <time>2015-05-07T09:54:41Z</time>
      </trkpt>
      <trkpt lat="48.11154" lon="7.66905">
        <ele>444.75</ele>
        <time>2015-05-07T09:54:44Z</time>
      </trkpt>
      <trkpt lat="48.11145" lon="7.66893">
        <ele>447.15</ele>
        <time>2015-05-07T09:54:50Z</time>
      </trkpt>
      <trkpt lat="48.11121" lon="7.66862">
        <ele>448.11</ele>
        <time>2015-05-07T09:55:14Z</time>
      </trkpt>
      <trkpt lat="48.11097" lon="7.66843">
        <ele>448.11</ele>
        <time>2015-05-07T09:55:32Z</time>
      </trkpt>
      <trkpt lat="48.1109" lon="7.66838">
        <ele>447.15</ele>
        <time>2015-05-07T09:55:37Z</time>
      </trkpt>
      <trkpt lat="48.11066" lon="7.6682">
        <ele>446.67</ele>
        <time>2015-05-07T09:55:56Z</time>
      </trkpt>
      <trkpt lat="48.11046" lon="7.66804">
        <ele>449.55</ele>
        <time>2015-05-07T09:56:13Z</time>
      </trkpt>
      <trkpt lat="48.11028" lon="7.6679">
        <ele>451</ele>
        <time>2015-05-07T09:56:27Z</time>
      </trkpt>
      <trkpt lat="48.1102" lon="7.66783">
        <ele>451</ele>
        <time>2015-05-07T09:56:34Z</time>
      </trkpt>
      <trkpt lat="48.11017" lon="7.66779">
        <ele>451.96</ele>
        <time>2015-05-07T09:56:39Z</time>
      </trkpt>
      <trkpt lat="48.10999" lon="7.66781">
        <ele>449.55</ele>
        <time>2015-05-07T09:57:00Z</time>
      </trkpt>
      <trkpt lat="48.10999" lon="7.66782">
        <ele>450.52</ele>
        <time>2015-05-07T09:57:02Z</time>
      </trkpt>
      <trkpt lat="48.11001" lon="7.66782">
        <ele>451.48</ele>
        <time>2015-05-07T09:57:22Z</time>
      </trkpt>
      <trkpt lat="48.11005" lon="7.66785">
        <ele>451</ele>
        <time>2015-05-07T09:58:03Z</time>
      </trkpt>
      <trkpt lat="48.11" lon="7.66783">
        <ele>450.03</ele>
        <time>2015-05-07T09:58:22Z</time>
      </trkpt>
      <trkpt lat="48.10998" lon="7.66783">
        <ele>453.88</ele>
        <time>2015-05-07T09:58:34Z</time>
      </trkpt>
      <trkpt lat="48.11001" lon="7.66779">
        <ele>451.48</ele>
        <time>2015-05-07T09:59:08Z</time>
      </trkpt>
      <trkpt lat="48.11001" lon="7.66777">
        <ele>452.92</ele>
        <time>2015-05-07T09:59:10Z</time>
      </trkpt>
      <trkpt lat="48.11001" lon="7.66773">
        <ele>450.03</ele>
        <time>2015-05-07T09:59:13Z</time>
      </trkpt>
      <trkpt lat="48.10999" lon="7.66769">
        <ele>452.44</ele>
        <time>2015-05-07T09:59:15Z</time>
      </trkpt>
      <trkpt lat="48.10997" lon="7.66762">
        <ele>449.07</ele>
        <time>2015-05-07T09:59:20Z</time>
      </trkpt>
      <trkpt lat="48.10997" lon="7.66761">
        <ele>449.55</ele>
        <time>2015-05-07T09:59:21Z</time>
      </trkpt>
      <trkpt lat="48.10993" lon="7.66756">
        <ele>451.96</ele>
        <time>2015-05-07T09:59:26Z</time>
      </trkpt>
      <trkpt lat="48.10991" lon="7.6675">
        <ele>453.4</ele>
        <time>2015-05-07T09:59:29Z</time>
      </trkpt>
      <trkpt lat="48.10983" lon="7.66724">
        <ele>450.52</ele>
        <time>2015-05-07T09:59:43Z</time>
      </trkpt>
      <trkpt lat="48.10982" lon="7.66721">
        <ele>449.55</ele>
        <time>2015-05-07T09:59:45Z</time>
      </trkpt>
      <trkpt lat="48.1098" lon="7.66713">
        <ele>448.11</ele>
        <time>2015-05-07T09:59:49Z</time>
      </trkpt>
      <trkpt lat="48.1098" lon="7.66711">
        <ele>446.19</ele>
        <time>2015-05-07T09:59:50Z</time>
      </trkpt>
      <trkpt lat="48.10979" lon="7.66705">
        <ele>449.07</ele>
        <time>2015-05-07T09:59:53Z</time>
      </trkpt>
      <trkpt lat="48.10979" lon="7.66704">
        <ele>448.59</ele>
        <time>2015-05-07T09:59:54Z</time>
      </trkpt>
      <trkpt lat="48.10979" lon="7.667">
        <ele>443.79</ele>
        <time>2015-05-07T09:59:56Z</time>
      </trkpt>
      <trkpt lat="48.10979" lon="7.66695">
        <ele>441.86</ele>
        <time>2015-05-07T09:59:59Z</time>
      </trkpt>
      <trkpt lat="48.10974" lon="7.66668">
        <ele>439.46</ele>
        <time>2015-05-07T10:00:15Z</time>
      </trkpt>
      <trkpt lat="48.10973" lon="7.66666">
        <ele>438.02</ele>
        <time>2015-05-07T10:00:17Z</time>
      </trkpt>
      <trkpt lat="48.10964" lon="7.66624">
        <ele>435.61</ele>
        <time>2015-05-07T10:00:39Z</time>
      </trkpt>
      <trkpt lat="48.10964" lon="7.6662">
        <ele>437.06</ele>
        <time>2015-05-07T10:00:41Z</time>
      </trkpt>
      <trkpt lat="48.10962" lon="7.66607">
        <ele>439.46</ele>
        <time>2015-05-07T10:00:50Z</time>
      </trkpt>
      <trkpt lat="48.10962" lon="7.66598">
        <ele>438.02</ele>
        <time>2015-05-07T10:00:55Z</time>
      </trkpt>
      <trkpt lat="48.10961" lon="7.66588">
        <ele>439.46</ele>
        <time>2015-05-07T10:01:02Z</time>
      </trkpt>
      <trkpt lat="48.10962" lon="7.66584">
        <ele>439.46</ele>
        <time>2015-05-07T10:01:04Z</time>
      </trkpt>
      <trkpt lat="48.10962" lon="7.6656">
        <ele>438.5</ele>
        <time>2015-05-07T10:01:18Z</time>
      </trkpt>
      <trkpt lat="48.1096" lon="7.66552">
        <ele>443.31</ele>
        <time>2015-05-07T10:01:26Z</time>
      </trkpt>
      <trkpt lat="48.1096" lon="7.66549">
        <ele>443.31</ele>
        <time>2015-05-07T10:01:27Z</time>
      </trkpt>
      <trkpt lat="48.10959" lon="7.66539">
        <ele>441.86</ele>
        <time>2015-05-07T10:01:31Z</time>
      </trkpt>
      <trkpt lat="48.1096" lon="7.66518">
        <ele>438.98</ele>
        <time>2015-05-07T10:01:39Z</time>
      </trkpt>
      <trkpt lat="48.1096" lon="7.66515">
        <ele>438.98</ele>
        <time>2015-05-07T10:01:40Z</time>
      </trkpt>
      <trkpt lat="48.1096" lon="7.66512">
        <ele>442.34</ele>
        <time>2015-05-07T10:01:42Z</time>
      </trkpt>
      <trkpt lat="48.1096" lon="7.66512">
        <ele>438.98</ele>
        <time>2015-05-07T10:01:56Z</time>
      </trkpt>
      <trkpt lat="48.10961" lon="7.66503">
        <ele>440.42</ele>
        <time>2015-05-07T10:02:01Z</time>
      </trkpt>
      <trkpt lat="48.10964" lon="7.66484">
        <ele>441.86</ele>
        <time>2015-05-07T10:02:11Z</time>
      </trkpt>
      <trkpt lat="48.10965" lon="7.66479">
        <ele>442.82</ele>
        <time>2015-05-07T10:02:13Z</time>
      </trkpt>
      <trkpt lat="48.10966" lon="7.66466">
        <ele>439.94</ele>
        <time>2015-05-07T10:02:20Z</time>
      </trkpt>
      <trkpt lat="48.10966" lon="7.66461">
        <ele>443.79</ele>
        <time>2015-05-07T10:02:23Z</time>
      </trkpt>
      <trkpt lat="48.10966" lon="7.66457">
        <ele>445.71</ele>
        <time>2015-05-07T10:02:25Z</time>
      </trkpt>
      <trkpt lat="48.10964" lon="7.66452">
        <ele>440.9</ele>
        <time>2015-05-07T10:02:28Z</time>
      </trkpt>
      <trkpt lat="48.10964" lon="7.6645">
        <ele>441.86</ele>
        <time>2015-05-07T10:02:29Z</time>
      </trkpt>
      <trkpt lat="48.10964" lon="7.66447">
        <ele>445.23</ele>
        <time>2015-05-07T10:02:31Z</time>
      </trkpt>
      <trkpt lat="48.10964" lon="7.66444">
        <ele>445.23</ele>
        <time>2015-05-07T10:02:32Z</time>
      </trkpt>
      <trkpt lat="48.10966" lon="7.66437">
        <ele>446.19</ele>
        <time>2015-05-07T10:02:34Z</time>
      </trkpt>
      <trkpt lat="48.1097" lon="7.66417">
        <ele>442.82</ele>
        <time>2015-05-07T10:02:40Z</time>
      </trkpt>
      <trkpt lat="48.10975" lon="7.66392">
        <ele>441.38</ele>
        <time>2015-05-07T10:02:47Z</time>
      </trkpt>
      <trkpt lat="48.10977" lon="7.66388">
        <ele>438.02</ele>
        <time>2015-05-07T10:02:50Z</time>
      </trkpt>
      <trkpt lat="48.10979" lon="7.66375">
        <ele>441.38</ele>
        <time>2015-05-07T10:02:59Z</time>
      </trkpt>
      <trkpt lat="48.10978" lon="7.66373">
        <ele>438.02</ele>
        <time>2015-05-07T10:03:02Z</time>
      </trkpt>
      <trkpt lat="48.10978" lon="7.66371">
        <ele>437.54</ele>
        <time>2015-05-07T10:03:03Z</time>
      </trkpt>
      <trkpt lat="48.10978" lon="7.66362">
        <ele>438.98</ele>
        <time>2015-05-07T10:03:09Z</time>
      </trkpt>
      <trkpt lat="48.10978" lon="7.66358">
        <ele>436.1</ele>
        <time>2015-05-07T10:03:12Z</time>
      </trkpt>
      <trkpt lat="48.10978" lon="7.66356">
        <ele>437.06</ele>
        <time>2015-05-07T10:03:13Z</time>
      </trkpt>
      <trkpt lat="48.10978" lon="7.66355">
        <ele>433.21</ele>
        <time>2015-05-07T10:03:14Z</time>
      </trkpt>
      <trkpt lat="48.10976" lon="7.66351">
        <ele>432.25</ele>
        <time>2015-05-07T10:03:16Z</time>
      </trkpt>
      <trkpt lat="48.10975" lon="7.66347">
        <ele>436.58</ele>
        <time>2015-05-07T10:03:18Z</time>
      </trkpt>
      <trkpt lat="48.10976" lon="7.6634">
        <ele>434.17</ele>
        <time>2015-05-07T10:03:21Z</time>
      </trkpt>
      <trkpt lat="48.10979" lon="7.66337">
        <ele>429.85</ele>
        <time>2015-05-07T10:03:25Z</time>
      </trkpt>
      <trkpt lat="48.10979" lon="7.66337">
        <ele>434.17</ele>
        <time>2015-05-07T10:03:26Z</time>
      </trkpt>
      <trkpt lat="48.1098" lon="7.66336">
        <ele>430.33</ele>
        <time>2015-05-07T10:03:27Z</time>
      </trkpt>
      <trkpt lat="48.10981" lon="7.66331">
        <ele>426.96</ele>
        <time>2015-05-07T10:03:29Z</time>
      </trkpt>
      <trkpt lat="48.10981" lon="7.66329">
        <ele>431.77</ele>
        <time>2015-05-07T10:03:30Z</time>
      </trkpt>
      <trkpt lat="48.10982" lon="7.66323">
        <ele>428.4</ele>
        <time>2015-05-07T10:03:34Z</time>
      </trkpt>
      <trkpt lat="48.10982" lon="7.66322">
        <ele>423.12</ele>
        <time>2015-05-07T10:03:35Z</time>
      </trkpt>
      <trkpt lat="48.10982" lon="7.66321">
        <ele>422.64</ele>
        <time>2015-05-07T10:03:36Z</time>
      </trkpt>
      <trkpt lat="48.10982" lon="7.66318">
        <ele>426.48</ele>
        <time>2015-05-07T10:03:39Z</time>
      </trkpt>
      <trkpt lat="48.10983" lon="7.66315">
        <ele>421.68</ele>
        <time>2015-05-07T10:03:42Z</time>
      </trkpt>
      <trkpt lat="48.10984" lon="7.66311">
        <ele>425.04</ele>
        <time>2015-05-07T10:03:46Z</time>
      </trkpt>
      <trkpt lat="48.10985" lon="7.66307">
        <ele>421.68</ele>
        <time>2015-05-07T10:03:49Z</time>
      </trkpt>
      <trkpt lat="48.10985" lon="7.66304">
        <ele>416.87</ele>
        <time>2015-05-07T10:03:51Z</time>
      </trkpt>
      <trkpt lat="48.10986" lon="7.66301">
        <ele>423.12</ele>
        <time>2015-05-07T10:03:53Z</time>
      </trkpt>
      <trkpt lat="48.10986" lon="7.66299">
        <ele>417.83</ele>
        <time>2015-05-07T10:03:54Z</time>
      </trkpt>
      <trkpt lat="48.10986" lon="7.66296">
        <ele>422.16</ele>
        <time>2015-05-07T10:03:55Z</time>
      </trkpt>
      <trkpt lat="48.10985" lon="7.66292">
        <ele>415.91</ele>
        <time>2015-05-07T10:03:57Z</time>
      </trkpt>
      <trkpt lat="48.10986" lon="7.66284">
        <ele>419.27</ele>
        <time>2015-05-07T10:04:00Z</time>
      </trkpt>
      <trkpt lat="48.10986" lon="7.66283">
        <ele>418.79</ele>
        <time>2015-05-07T10:04:01Z</time>
      </trkpt>
      <trkpt lat="48.10988" lon="7.66275">
        <ele>414.95</ele>
        <time>2015-05-07T10:04:04Z</time>
      </trkpt>
      <trkpt lat="48.10988" lon="7.66268">
        <ele>410.62</ele>
        <time>2015-05-07T10:04:07Z</time>
      </trkpt>
      <trkpt lat="48.1099" lon="7.66263">
        <ele>415.91</ele>
        <time>2015-05-07T10:04:09Z</time>
      </trkpt>
      <trkpt lat="48.10992" lon="7.66255">
        <ele>413.02</ele>
        <time>2015-05-07T10:04:14Z</time>
      </trkpt>
      <trkpt lat="48.10993" lon="7.66253">
        <ele>409.66</ele>
        <time>2015-05-07T10:04:16Z</time>
      </trkpt>
      <trkpt lat="48.10993" lon="7.66251">
        <ele>409.66</ele>
        <time>2015-05-07T10:04:17Z</time>
      </trkpt>
      <trkpt lat="48.10995" lon="7.66249">
        <ele>413.98</ele>
        <time>2015-05-07T10:04:19Z</time>
      </trkpt>
      <trkpt lat="48.10996" lon="7.66247">
        <ele>412.06</ele>
        <time>2015-05-07T10:04:20Z</time>
      </trkpt>
      <trkpt lat="48.11005" lon="7.66226">
        <ele>414.95</ele>
        <time>2015-05-07T10:04:33Z</time>
      </trkpt>
      <trkpt lat="48.11006" lon="7.66223">
        <ele>411.1</ele>
        <time>2015-05-07T10:04:34Z</time>
      </trkpt>
      <trkpt lat="48.11006" lon="7.66221">
        <ele>407.26</ele>
        <time>2015-05-07T10:04:35Z</time>
      </trkpt>
      <trkpt lat="48.11007" lon="7.66212">
        <ele>411.1</ele>
        <time>2015-05-07T10:04:39Z</time>
      </trkpt>
      <trkpt lat="48.11007" lon="7.66209">
        <ele>413.5</ele>
        <time>2015-05-07T10:04:41Z</time>
      </trkpt>
      <trkpt lat="48.11007" lon="7.66206">
        <ele>411.1</ele>
        <time>2015-05-07T10:04:43Z</time>
      </trkpt>
      <trkpt lat="48.11008" lon="7.66201">
        <ele>404.85</ele>
        <time>2015-05-07T10:04:46Z</time>
      </trkpt>
      <trkpt lat="48.11007" lon="7.66196">
        <ele>408.22</ele>
        <time>2015-05-07T10:04:50Z</time>
      </trkpt>
      <trkpt lat="48.11003" lon="7.66183">
        <ele>404.37</ele>
        <time>2015-05-07T10:04:59Z</time>
      </trkpt>
      <trkpt lat="48.11003" lon="7.66182">
        <ele>404.85</ele>
        <time>2015-05-07T10:05:00Z</time>
      </trkpt>
      <trkpt lat="48.10999" lon="7.6617">
        <ele>408.7</ele>
        <time>2015-05-07T10:05:06Z</time>
      </trkpt>
      <trkpt lat="48.10992" lon="7.66156">
        <ele>404.37</ele>
        <time>2015-05-07T10:05:12Z</time>
      </trkpt>
      <trkpt lat="48.10991" lon="7.66155">
        <ele>405.33</ele>
        <time>2015-05-07T10:05:13Z</time>
      </trkpt>
      <trkpt lat="48.10989" lon="7.66151">
        <ele>407.26</ele>
        <time>2015-05-07T10:05:16Z</time>
      </trkpt>
      <trkpt lat="48.10987" lon="7.6614">
        <ele>403.89</ele>
        <time>2015-05-07T10:05:22Z</time>
      </trkpt>
      <trkpt lat="48.10985" lon="7.66132">
        <ele>401.01</ele>
        <time>2015-05-07T10:05:26Z</time>
      </trkpt>
      <trkpt lat="48.10983" lon="7.66126">
        <ele>405.81</ele>
        <time>2015-05-07T10:05:29Z</time>
      </trkpt>
      <trkpt lat="48.10979" lon="7.66103">
        <ele>399.57</ele>
        <time>2015-05-07T10:05:42Z</time>
      </trkpt>
      <trkpt lat="48.10979" lon="7.66098">
        <ele>401.49</ele>
        <time>2015-05-07T10:05:46Z</time>
      </trkpt>
      <trkpt lat="48.10979" lon="7.66095">
        <ele>397.16</ele>
        <time>2015-05-07T10:05:48Z</time>
      </trkpt>
      <trkpt lat="48.10978" lon="7.6609">
        <ele>401.49</ele>
        <time>2015-05-07T10:05:52Z</time>
      </trkpt>
      <trkpt lat="48.10978" lon="7.66089">
        <ele>401.49</ele>
        <time>2015-05-07T10:05:53Z</time>
      </trkpt>
      <trkpt lat="48.10979" lon="7.66079">
        <ele>398.6</ele>
        <time>2015-05-07T10:05:59Z</time>
      </trkpt>
      <trkpt lat="48.10978" lon="7.66077">
        <ele>398.6</ele>
        <time>2015-05-07T10:06:00Z</time>
      </trkpt>
      <trkpt lat="48.10976" lon="7.66069">
        <ele>396.68</ele>
        <time>2015-05-07T10:06:04Z</time>
      </trkpt>
      <trkpt lat="48.10975" lon="7.66063">
        <ele>400.05</ele>
        <time>2015-05-07T10:06:07Z</time>
      </trkpt>
      <trkpt lat="48.10975" lon="7.66059">
        <ele>401.97</ele>
        <time>2015-05-07T10:06:09Z</time>
      </trkpt>
      <trkpt lat="48.10974" lon="7.66054">
        <ele>397.16</ele>
        <time>2015-05-07T10:06:12Z</time>
      </trkpt>
      <trkpt lat="48.10973" lon="7.66052">
        <ele>394.28</ele>
        <time>2015-05-07T10:06:13Z</time>
      </trkpt>
      <trkpt lat="48.10972" lon="7.6605">
        <ele>394.28</ele>
        <time>2015-05-07T10:06:14Z</time>
      </trkpt>
      <trkpt lat="48.10971" lon="7.66046">
        <ele>400.53</ele>
        <time>2015-05-07T10:06:16Z</time>
      </trkpt>
      <trkpt lat="48.1097" lon="7.6604">
        <ele>395.72</ele>
        <time>2015-05-07T10:06:19Z</time>
      </trkpt>
      <trkpt lat="48.10969" lon="7.66038">
        <ele>396.68</ele>
        <time>2015-05-07T10:06:20Z</time>
      </trkpt>
      <trkpt lat="48.10968" lon="7.66032">
        <ele>395.72</ele>
        <time>2015-05-07T10:06:24Z</time>
      </trkpt>
      <trkpt lat="48.10965" lon="7.6602">
        <ele>396.2</ele>
        <time>2015-05-07T10:06:31Z</time>
      </trkpt>
      <trkpt lat="48.10961" lon="7.66015">
        <ele>395.24</ele>
        <time>2015-05-07T10:06:40Z</time>
      </trkpt>
      <trkpt lat="48.1095" lon="7.66013">
        <ele>396.68</ele>
        <time>2015-05-07T10:06:45Z</time>
      </trkpt>
      <trkpt lat="48.1095" lon="7.66013">
        <ele>395.72</ele>
        <time>2015-05-07T10:06:47Z</time>
      </trkpt>
      <trkpt lat="48.1095" lon="7.66014">
        <ele>395.24</ele>
        <time>2015-05-07T10:07:34Z</time>
      </trkpt>
      <trkpt lat="48.10951" lon="7.66014">
        <ele>395.72</ele>
        <time>2015-05-07T10:08:13Z</time>
      </trkpt>
      <trkpt lat="48.10951" lon="7.66012">
        <ele>395.24</ele>
        <time>2015-05-07T10:10:55Z</time>
      </trkpt>
      <trkpt lat="48.10952" lon="7.66012">
        <ele>395.72</ele>
        <time>2015-05-07T10:12:18Z</time>
      </trkpt>
      <trkpt lat="48.10952" lon="7.66012">
        <ele>396.68</ele>
        <time>2015-05-07T10:12:45Z</time>
      </trkpt>
      <trkpt lat="48.10953" lon="7.66011">
        <ele>394.76</ele>
        <time>2015-05-07T10:12:48Z</time>
      </trkpt>
      <trkpt lat="48.10953" lon="7.66009">
        <ele>398.6</ele>
        <time>2015-05-07T10:12:50Z</time>
      </trkpt>
      <trkpt lat="48.10953" lon="7.66007">
        <ele>397.16</ele>
        <time>2015-05-07T10:12:51Z</time>
      </trkpt>
      <trkpt lat="48.10953" lon="7.66003">
        <ele>394.28</ele>
        <time>2015-05-07T10:12:54Z</time>
      </trkpt>
      <trkpt lat="48.10953" lon="7.65998">
        <ele>395.72</ele>
        <time>2015-05-07T10:12:57Z</time>
      </trkpt>
      <trkpt lat="48.10941" lon="7.65964">
        <ele>396.2</ele>
        <time>2015-05-07T10:13:18Z</time>
      </trkpt>
      <trkpt lat="48.10939" lon="7.6596">
        <ele>397.16</ele>
        <time>2015-05-07T10:13:20Z</time>
      </trkpt>
      <trkpt lat="48.10924" lon="7.65941">
        <ele>404.85</ele>
        <time>2015-05-07T10:13:28Z</time>
      </trkpt>
      <trkpt lat="48.10922" lon="7.6594">
        <ele>397.64</ele>
        <time>2015-05-07T10:13:29Z</time>
      </trkpt>
      <trkpt lat="48.10917" lon="7.65937">
        <ele>401.49</ele>
        <time>2015-05-07T10:13:32Z</time>
      </trkpt>
      <trkpt lat="48.10915" lon="7.65936">
        <ele>400.53</ele>
        <time>2015-05-07T10:13:33Z</time>
      </trkpt>
      <trkpt lat="48.1091" lon="7.65931">
        <ele>398.12</ele>
        <time>2015-05-07T10:13:37Z</time>
      </trkpt>
      <trkpt lat="48.1091" lon="7.659">
        <ele>394.76</ele>
        <time>2015-05-07T10:13:52Z</time>
      </trkpt>
      <trkpt lat="48.10919" lon="7.65874">
        <ele>398.12</ele>
        <time>2015-05-07T10:14:06Z</time>
      </trkpt>
      <trkpt lat="48.10927" lon="7.65857">
        <ele>401.97</ele>
        <time>2015-05-07T10:14:15Z</time>
      </trkpt>
      <trkpt lat="48.10927" lon="7.65855">
        <ele>401.49</ele>
        <time>2015-05-07T10:14:16Z</time>
      </trkpt>
      <trkpt lat="48.1093" lon="7.65844">
        <ele>399.57</ele>
        <time>2015-05-07T10:14:22Z</time>
      </trkpt>
      <trkpt lat="48.10934" lon="7.65827">
        <ele>399.08</ele>
        <time>2015-05-07T10:14:32Z</time>
      </trkpt>
      <trkpt lat="48.10936" lon="7.6582">
        <ele>401.97</ele>
        <time>2015-05-07T10:14:36Z</time>
      </trkpt>
      <trkpt lat="48.10936" lon="7.65819">
        <ele>401.97</ele>
        <time>2015-05-07T10:14:37Z</time>
      </trkpt>
      <trkpt lat="48.10944" lon="7.65805">
        <ele>398.12</ele>
        <time>2015-05-07T10:14:47Z</time>
      </trkpt>
      <trkpt lat="48.10946" lon="7.65801">
        <ele>397.16</ele>
        <time>2015-05-07T10:14:49Z</time>
      </trkpt>
      <trkpt lat="48.10956" lon="7.65787">
        <ele>400.53</ele>
        <time>2015-05-07T10:14:59Z</time>
      </trkpt>
      <trkpt lat="48.10959" lon="7.65783">
        <ele>403.41</ele>
        <time>2015-05-07T10:15:02Z</time>
      </trkpt>
      <trkpt lat="48.1096" lon="7.65783">
        <ele>403.89</ele>
        <time>2015-05-07T10:15:03Z</time>
      </trkpt>
      <trkpt lat="48.10961" lon="7.65782">
        <ele>406.77</ele>
        <time>2015-05-07T10:15:04Z</time>
      </trkpt>
      <trkpt lat="48.10962" lon="7.65781">
        <ele>406.77</ele>
        <time>2015-05-07T10:15:05Z</time>
      </trkpt>
      <trkpt lat="48.10966" lon="7.65778">
        <ele>404.37</ele>
        <time>2015-05-07T10:15:09Z</time>
      </trkpt>
      <trkpt lat="48.10969" lon="7.65772">
        <ele>400.53</ele>
        <time>2015-05-07T10:15:14Z</time>
      </trkpt>
      <trkpt lat="48.1097" lon="7.6577">
        <ele>400.53</ele>
        <time>2015-05-07T10:15:15Z</time>
      </trkpt>
      <trkpt lat="48.10973" lon="7.65766">
        <ele>403.89</ele>
        <time>2015-05-07T10:15:18Z</time>
      </trkpt>
      <trkpt lat="48.10975" lon="7.65762">
        <ele>407.26</ele>
        <time>2015-05-07T10:15:21Z</time>
      </trkpt>
      <trkpt lat="48.10976" lon="7.65759">
        <ele>407.74</ele>
        <time>2015-05-07T10:15:23Z</time>
      </trkpt>
      <trkpt lat="48.10984" lon="7.65748">
        <ele>403.41</ele>
        <time>2015-05-07T10:15:31Z</time>
      </trkpt>
      <trkpt lat="48.10987" lon="7.65744">
        <ele>405.33</ele>
        <time>2015-05-07T10:15:34Z</time>
      </trkpt>
      <trkpt lat="48.10991" lon="7.65738">
        <ele>407.74</ele>
        <time>2015-05-07T10:15:38Z</time>
      </trkpt>
      <trkpt lat="48.10992" lon="7.65734">
        <ele>411.1</ele>
        <time>2015-05-07T10:15:40Z</time>
      </trkpt>
      <trkpt lat="48.10993" lon="7.65732">
        <ele>411.1</ele>
        <time>2015-05-07T10:15:41Z</time>
      </trkpt>
      <trkpt lat="48.10996" lon="7.65725">
        <ele>408.22</ele>
        <time>2015-05-07T10:15:45Z</time>
      </trkpt>
      <trkpt lat="48.10996" lon="7.65723">
        <ele>407.74</ele>
        <time>2015-05-07T10:15:46Z</time>
      </trkpt>
      <trkpt lat="48.10999" lon="7.6571">
        <ele>407.74</ele>
        <time>2015-05-07T10:15:51Z</time>
      </trkpt>
      <trkpt lat="48.11003" lon="7.65701">
        <ele>411.1</ele>
        <time>2015-05-07T10:15:54Z</time>
      </trkpt>
      <trkpt lat="48.11006" lon="7.65696">
        <ele>413.02</ele>
        <time>2015-05-07T10:15:56Z</time>
      </trkpt>
      <trkpt lat="48.11011" lon="7.65671">
        <ele>409.18</ele>
        <time>2015-05-07T10:16:10Z</time>
      </trkpt>
      <trkpt lat="48.11011" lon="7.65663">
        <ele>405.33</ele>
        <time>2015-05-07T10:16:13Z</time>
      </trkpt>
      <trkpt lat="48.11012" lon="7.65659">
        <ele>404.37</ele>
        <time>2015-05-07T10:16:15Z</time>
      </trkpt>
      <trkpt lat="48.11012" lon="7.65646">
        <ele>407.74</ele>
        <time>2015-05-07T10:16:21Z</time>
      </trkpt>
      <trkpt lat="48.11012" lon="7.65633">
        <ele>411.1</ele>
        <time>2015-05-07T10:16:27Z</time>
      </trkpt>
      <trkpt lat="48.11014" lon="7.65627">
        <ele>406.77</ele>
        <time>2015-05-07T10:16:30Z</time>
      </trkpt>
      <trkpt lat="48.11015" lon="7.65619">
        <ele>402.93</ele>
        <time>2015-05-07T10:16:34Z</time>
      </trkpt>
      <trkpt lat="48.11018" lon="7.65609">
        <ele>403.89</ele>
        <time>2015-05-07T10:16:39Z</time>
      </trkpt>
      <trkpt lat="48.11019" lon="7.65603">
        <ele>407.74</ele>
        <time>2015-05-07T10:16:42Z</time>
      </trkpt>
      <trkpt lat="48.11023" lon="7.65591">
        <ele>401.49</ele>
        <time>2015-05-07T10:16:47Z</time>
      </trkpt>
      <trkpt lat="48.11024" lon="7.65589">
        <ele>403.41</ele>
        <time>2015-05-07T10:16:48Z</time>
      </trkpt>
      <trkpt lat="48.11024" lon="7.65584">
        <ele>400.05</ele>
        <time>2015-05-07T10:16:51Z</time>
      </trkpt>
      <trkpt lat="48.11024" lon="7.65579">
        <ele>403.89</ele>
        <time>2015-05-07T10:16:54Z</time>
      </trkpt>
      <trkpt lat="48.11024" lon="7.65575">
        <ele>406.77</ele>
        <time>2015-05-07T10:16:56Z</time>
      </trkpt>
      <trkpt lat="48.11024" lon="7.65573">
        <ele>406.29</ele>
        <time>2015-05-07T10:16:57Z</time>
      </trkpt>
      <trkpt lat="48.11024" lon="7.65566">
        <ele>401.01</ele>
        <time>2015-05-07T10:17:00Z</time>
      </trkpt>
      <trkpt lat="48.11024" lon="7.65562">
        <ele>399.57</ele>
        <time>2015-05-07T10:17:02Z</time>
      </trkpt>
      <trkpt lat="48.11024" lon="7.65555">
        <ele>401.49</ele>
        <time>2015-05-07T10:17:05Z</time>
      </trkpt>
      <trkpt lat="48.11023" lon="7.65551">
        <ele>405.81</ele>
        <time>2015-05-07T10:17:07Z</time>
      </trkpt>
      <trkpt lat="48.11023" lon="7.65549">
        <ele>405.33</ele>
        <time>2015-05-07T10:17:08Z</time>
      </trkpt>
      <trkpt lat="48.11023" lon="7.65542">
        <ele>400.05</ele>
        <time>2015-05-07T10:17:12Z</time>
      </trkpt>
      <trkpt lat="48.11022" lon="7.6554">
        <ele>400.05</ele>
        <time>2015-05-07T10:17:13Z</time>
      </trkpt>
      <trkpt lat="48.11022" lon="7.65529">
        <ele>401.97</ele>
        <time>2015-05-07T10:17:18Z</time>
      </trkpt>
      <trkpt lat="48.11027" lon="7.6549">
        <ele>402.93</ele>
        <time>2015-05-07T10:17:38Z</time>
      </trkpt>
      <trkpt lat="48.11028" lon="7.65488">
        <ele>403.41</ele>
        <time>2015-05-07T10:18:17Z</time>
      </trkpt>
      <trkpt lat="48.11028" lon="7.65488">
        <ele>399.57</ele>
        <time>2015-05-07T10:18:21Z</time>
      </trkpt>
      <trkpt lat="48.11028" lon="7.65488">
        <ele>401.49</ele>
        <time>2015-05-07T10:18:22Z</time>
      </trkpt>
      <trkpt lat="48.11028" lon="7.65488">
        <ele>403.41</ele>
        <time>2015-05-07T10:18:24Z</time>
      </trkpt>
      <trkpt lat="48.11028" lon="7.65488">
        <ele>398.12</ele>
        <time>2015-05-07T10:19:00Z</time>
      </trkpt>
      <trkpt lat="48.11028" lon="7.65488">
        <ele>403.89</ele>
        <time>2015-05-07T10:19:01Z</time>
      </trkpt>
      <trkpt lat="48.11028" lon="7.65488">
        <ele>403.89</ele>
        <time>2015-05-07T10:20:13Z</time>
      </trkpt>
      <trkpt lat="48.11027" lon="7.65489">
        <ele>401.49</ele>
        <time>2015-05-07T10:20:24Z</time>
      </trkpt>
      <trkpt lat="48.11028" lon="7.65482">
        <ele>402.45</ele>
        <time>2015-05-07T10:20:56Z</time>
      </trkpt>
      <trkpt lat="48.11029" lon="7.65468">
        <ele>403.41</ele>
        <time>2015-05-07T10:21:04Z</time>
      </trkpt>
      <trkpt lat="48.1103" lon="7.65463">
        <ele>399.57</ele>
        <time>2015-05-07T10:21:07Z</time>
      </trkpt>
      <trkpt lat="48.11031" lon="7.65461">
        <ele>401.49</ele>
        <time>2015-05-07T10:21:08Z</time>
      </trkpt>
      <trkpt lat="48.11031" lon="7.65458">
        <ele>402.93</ele>
        <time>2015-05-07T10:21:10Z</time>
      </trkpt>
      <trkpt lat="48.11031" lon="7.65455">
        <ele>403.41</ele>
        <time>2015-05-07T10:21:12Z</time>
      </trkpt>
      <trkpt lat="48.1103" lon="7.65451">
        <ele>399.57</ele>
        <time>2015-05-07T10:21:14Z</time>
      </trkpt>
      <trkpt lat="48.11026" lon="7.65447">
        <ele>404.85</ele>
        <time>2015-05-07T10:21:18Z</time>
      </trkpt>
      <trkpt lat="48.11004" lon="7.65439">
        <ele>401.97</ele>
        <time>2015-05-07T10:21:32Z</time>
      </trkpt>
      <trkpt lat="48.10991" lon="7.65431">
        <ele>401.01</ele>
        <time>2015-05-07T10:21:43Z</time>
      </trkpt>
      <trkpt lat="48.10988" lon="7.65429">
        <ele>397.64</ele>
        <time>2015-05-07T10:21:46Z</time>
      </trkpt>
      <trkpt lat="48.10987" lon="7.65429">
        <ele>400.05</ele>
        <time>2015-05-07T10:21:47Z</time>
      </trkpt>
      <trkpt lat="48.10983" lon="7.65427">
        <ele>395.72</ele>
        <time>2015-05-07T10:21:51Z</time>
      </trkpt>
      <trkpt lat="48.10981" lon="7.65425">
        <ele>394.76</ele>
        <time>2015-05-07T10:21:53Z</time>
      </trkpt>
      <trkpt lat="48.10978" lon="7.65416">
        <ele>398.12</ele>
        <time>2015-05-07T10:22:00Z</time>
      </trkpt>
      <trkpt lat="48.10978" lon="7.65416">
        <ele>399.57</ele>
        <time>2015-05-07T10:22:01Z</time>
      </trkpt>
      <trkpt lat="48.10981" lon="7.65412">
        <ele>396.2</ele>
        <time>2015-05-07T10:22:04Z</time>
      </trkpt>
      <trkpt lat="48.10982" lon="7.6541">
        <ele>398.6</ele>
        <time>2015-05-07T10:22:05Z</time>
      </trkpt>
      <trkpt lat="48.10984" lon="7.65408">
        <ele>398.6</ele>
        <time>2015-05-07T10:22:07Z</time>
      </trkpt>
      <trkpt lat="48.10988" lon="7.6541">
        <ele>394.28</ele>
        <time>2015-05-07T10:22:12Z</time>
      </trkpt>
      <trkpt lat="48.10989" lon="7.6541">
        <ele>399.08</ele>
        <time>2015-05-07T10:22:13Z</time>
      </trkpt>
      <trkpt lat="48.10994" lon="7.65412">
        <ele>403.41</ele>
        <time>2015-05-07T10:22:21Z</time>
      </trkpt>
      <trkpt lat="48.10995" lon="7.65412">
        <ele>399.57</ele>
        <time>2015-05-07T10:22:22Z</time>
      </trkpt>
      <trkpt lat="48.10996" lon="7.65412">
        <ele>403.89</ele>
        <time>2015-05-07T10:22:24Z</time>
      </trkpt>
      <trkpt lat="48.10996" lon="7.65412">
        <ele>400.05</ele>
        <time>2015-05-07T10:22:25Z</time>
      </trkpt>
      <trkpt lat="48.10997" lon="7.65412">
        <ele>403.89</ele>
        <time>2015-05-07T10:22:26Z</time>
      </trkpt>
      <trkpt lat="48.11002" lon="7.65412">
        <ele>402.45</ele>
        <time>2015-05-07T10:22:31Z</time>
      </trkpt>
      <trkpt lat="48.11004" lon="7.65413">
        <ele>402.93</ele>
        <time>2015-05-07T10:22:33Z</time>
      </trkpt>
      <trkpt lat="48.11019" lon="7.65417">
        <ele>403.41</ele>
        <time>2015-05-07T10:22:51Z</time>
      </trkpt>
      <trkpt lat="48.11019" lon="7.65417">
        <ele>401.97</ele>
        <time>2015-05-07T10:22:54Z</time>
      </trkpt>
      <trkpt lat="48.1102" lon="7.65417">
        <ele>401.97</ele>
        <time>2015-05-07T10:23:14Z</time>
      </trkpt>
      <trkpt lat="48.11021" lon="7.6541">
        <ele>403.89</ele>
        <time>2015-05-07T10:23:17Z</time>
      </trkpt>
      <trkpt lat="48.11022" lon="7.65407">
        <ele>401.97</ele>
        <time>2015-05-07T10:23:19Z</time>
      </trkpt>
      <trkpt lat="48.11023" lon="7.65403">
        <ele>403.41</ele>
        <time>2015-05-07T10:23:21Z</time>
      </trkpt>
      <trkpt lat="48.11023" lon="7.654">
        <ele>406.29</ele>
        <time>2015-05-07T10:23:23Z</time>
      </trkpt>
      <trkpt lat="48.11023" lon="7.65398">
        <ele>405.81</ele>
        <time>2015-05-07T10:23:24Z</time>
      </trkpt>
      <trkpt lat="48.11023" lon="7.65395">
        <ele>401.49</ele>
        <time>2015-05-07T10:23:26Z</time>
      </trkpt>
      <trkpt lat="48.11023" lon="7.65393">
        <ele>407.26</ele>
        <time>2015-05-07T10:23:27Z</time>
      </trkpt>
      <trkpt lat="48.11023" lon="7.65391">
        <ele>402.93</ele>
        <time>2015-05-07T10:23:28Z</time>
      </trkpt>
      <trkpt lat="48.11023" lon="7.65387">
        <ele>406.77</ele>
        <time>2015-05-07T10:23:31Z</time>
      </trkpt>
      <trkpt lat="48.11023" lon="7.65385">
        <ele>402.93</ele>
        <time>2015-05-07T10:23:32Z</time>
      </trkpt>
      <trkpt lat="48.11023" lon="7.65382">
        <ele>403.41</ele>
        <time>2015-05-07T10:23:33Z</time>
      </trkpt>
      <trkpt lat="48.11022" lon="7.6538">
        <ele>408.22</ele>
        <time>2015-05-07T10:23:34Z</time>
      </trkpt>
      <trkpt lat="48.11022" lon="7.65378">
        <ele>405.33</ele>
        <time>2015-05-07T10:23:35Z</time>
      </trkpt>
      <trkpt lat="48.11021" lon="7.65373">
        <ele>407.74</ele>
        <time>2015-05-07T10:23:38Z</time>
      </trkpt>
      <trkpt lat="48.11019" lon="7.65366">
        <ele>404.37</ele>
        <time>2015-05-07T10:23:42Z</time>
      </trkpt>
      <trkpt lat="48.11018" lon="7.65365">
        <ele>408.22</ele>
        <time>2015-05-07T10:23:43Z</time>
      </trkpt>
      <trkpt lat="48.11015" lon="7.65355">
        <ele>406.29</ele>
        <time>2015-05-07T10:23:49Z</time>
      </trkpt>
      <trkpt lat="48.11014" lon="7.65353">
        <ele>411.1</ele>
        <time>2015-05-07T10:23:50Z</time>
      </trkpt>
      <trkpt lat="48.11013" lon="7.65351">
        <ele>405.81</ele>
        <time>2015-05-07T10:23:51Z</time>
      </trkpt>
      <trkpt lat="48.11012" lon="7.65348">
        <ele>411.1</ele>
        <time>2015-05-07T10:23:53Z</time>
      </trkpt>
      <trkpt lat="48.11012" lon="7.65346">
        <ele>408.7</ele>
        <time>2015-05-07T10:23:54Z</time>
      </trkpt>
      <trkpt lat="48.11006" lon="7.65332">
        <ele>409.66</ele>
        <time>2015-05-07T10:24:03Z</time>
      </trkpt>
      <trkpt lat="48.11004" lon="7.65324">
        <ele>410.14</ele>
        <time>2015-05-07T10:24:08Z</time>
      </trkpt>
      <trkpt lat="48.11003" lon="7.65322">
        <ele>413.98</ele>
        <time>2015-05-07T10:24:09Z</time>
      </trkpt>
      <trkpt lat="48.11003" lon="7.65321">
        <ele>409.18</ele>
        <time>2015-05-07T10:24:10Z</time>
      </trkpt>
      <trkpt lat="48.11002" lon="7.6532">
        <ele>413.02</ele>
        <time>2015-05-07T10:24:11Z</time>
      </trkpt>
      <trkpt lat="48.11001" lon="7.65317">
        <ele>409.66</ele>
        <time>2015-05-07T10:24:13Z</time>
      </trkpt>
      <trkpt lat="48.11" lon="7.65315">
        <ele>413.02</ele>
        <time>2015-05-07T10:24:15Z</time>
      </trkpt>
      <trkpt lat="48.10992" lon="7.65294">
        <ele>415.43</ele>
        <time>2015-05-07T10:24:30Z</time>
      </trkpt>
      <trkpt lat="48.10991" lon="7.65291">
        <ele>413.5</ele>
        <time>2015-05-07T10:24:32Z</time>
      </trkpt>
      <trkpt lat="48.1099" lon="7.6529">
        <ele>417.35</ele>
        <time>2015-05-07T10:24:33Z</time>
      </trkpt>
      <trkpt lat="48.10989" lon="7.65287">
        <ele>413.02</ele>
        <time>2015-05-07T10:24:35Z</time>
      </trkpt>
      <trkpt lat="48.10987" lon="7.65284">
        <ele>416.87</ele>
        <time>2015-05-07T10:24:37Z</time>
      </trkpt>
      <trkpt lat="48.10987" lon="7.65283">
        <ele>412.06</ele>
        <time>2015-05-07T10:24:38Z</time>
      </trkpt>
      <trkpt lat="48.10987" lon="7.65282">
        <ele>416.39</ele>
        <time>2015-05-07T10:24:39Z</time>
      </trkpt>
      <trkpt lat="48.10981" lon="7.65271">
        <ele>416.39</ele>
        <time>2015-05-07T10:24:47Z</time>
      </trkpt>
      <trkpt lat="48.10981" lon="7.65267">
        <ele>415.43</ele>
        <time>2015-05-07T10:24:49Z</time>
      </trkpt>
      <trkpt lat="48.10979" lon="7.65252">
        <ele>414.95</ele>
        <time>2015-05-07T10:24:57Z</time>
      </trkpt>
      <trkpt lat="48.10976" lon="7.65242">
        <ele>414.47</ele>
        <time>2015-05-07T10:25:03Z</time>
      </trkpt>
      <trkpt lat="48.10972" lon="7.65225">
        <ele>417.35</ele>
        <time>2015-05-07T10:25:13Z</time>
      </trkpt>
      <trkpt lat="48.1097" lon="7.65215">
        <ele>414.47</ele>
        <time>2015-05-07T10:25:18Z</time>
      </trkpt>
      <trkpt lat="48.10969" lon="7.65201">
        <ele>418.31</ele>
        <time>2015-05-07T10:25:26Z</time>
      </trkpt>
      <trkpt lat="48.10968" lon="7.65189">
        <ele>413.98</ele>
        <time>2015-05-07T10:25:33Z</time>
      </trkpt>
      <trkpt lat="48.10968" lon="7.65185">
        <ele>413.5</ele>
        <time>2015-05-07T10:25:35Z</time>
      </trkpt>
      <trkpt lat="48.10968" lon="7.65177">
        <ele>409.18</ele>
        <time>2015-05-07T10:25:39Z</time>
      </trkpt>
      <trkpt lat="48.1097" lon="7.65161">
        <ele>410.14</ele>
        <time>2015-05-07T10:25:49Z</time>
      </trkpt>
      <trkpt lat="48.10974" lon="7.65146">
        <ele>412.54</ele>
        <time>2015-05-07T10:25:59Z</time>
      </trkpt>
      <trkpt lat="48.10976" lon="7.65132">
        <ele>412.54</ele>
        <time>2015-05-07T10:26:24Z</time>
      </trkpt>
      <trkpt lat="48.10976" lon="7.65131">
        <ele>411.58</ele>
        <time>2015-05-07T10:26:54Z</time>
      </trkpt>
      <trkpt lat="48.10976" lon="7.65131">
        <ele>415.43</ele>
        <time>2015-05-07T10:26:56Z</time>
      </trkpt>
      <trkpt lat="48.10976" lon="7.65131">
        <ele>411.58</ele>
        <time>2015-05-07T10:26:57Z</time>
      </trkpt>
      <trkpt lat="48.10971" lon="7.65125">
        <ele>413.02</ele>
        <time>2015-05-07T10:27:02Z</time>
      </trkpt>
      <trkpt lat="48.10966" lon="7.6512">
        <ele>410.62</ele>
        <time>2015-05-07T10:27:06Z</time>
      </trkpt>
      <trkpt lat="48.10963" lon="7.65118">
        <ele>413.5</ele>
        <time>2015-05-07T10:27:08Z</time>
      </trkpt>
      <trkpt lat="48.10956" lon="7.65113">
        <ele>410.62</ele>
        <time>2015-05-07T10:27:14Z</time>
      </trkpt>
      <trkpt lat="48.10954" lon="7.65111">
        <ele>413.98</ele>
        <time>2015-05-07T10:27:16Z</time>
      </trkpt>
      <trkpt lat="48.10951" lon="7.65109">
        <ele>414.95</ele>
        <time>2015-05-07T10:27:18Z</time>
      </trkpt>
      <trkpt lat="48.10949" lon="7.65106">
        <ele>410.62</ele>
        <time>2015-05-07T10:27:20Z</time>
      </trkpt>
      <trkpt lat="48.10947" lon="7.65105">
        <ele>411.1</ele>
        <time>2015-05-07T10:27:21Z</time>
      </trkpt>
      <trkpt lat="48.10944" lon="7.65103">
        <ele>414.95</ele>
        <time>2015-05-07T10:27:23Z</time>
      </trkpt>
      <trkpt lat="48.10943" lon="7.65102">
        <ele>414.95</ele>
        <time>2015-05-07T10:27:24Z</time>
      </trkpt>
      <trkpt lat="48.10942" lon="7.65101">
        <ele>411.1</ele>
        <time>2015-05-07T10:27:25Z</time>
      </trkpt>
      <trkpt lat="48.1094" lon="7.651">
        <ele>413.02</ele>
        <time>2015-05-07T10:27:26Z</time>
      </trkpt>
      <trkpt lat="48.10931" lon="7.65091">
        <ele>410.62</ele>
        <time>2015-05-07T10:27:32Z</time>
      </trkpt>
      <trkpt lat="48.10927" lon="7.65087">
        <ele>414.47</ele>
        <time>2015-05-07T10:27:35Z</time>
      </trkpt>
      <trkpt lat="48.10922" lon="7.65076">
        <ele>411.1</ele>
        <time>2015-05-07T10:27:40Z</time>
      </trkpt>
      <trkpt lat="48.10909" lon="7.65068">
        <ele>414.47</ele>
        <time>2015-05-07T10:27:51Z</time>
      </trkpt>
      <trkpt lat="48.109" lon="7.65066">
        <ele>414.95</ele>
        <time>2015-05-07T10:27:57Z</time>
      </trkpt>
      <trkpt lat="48.10896" lon="7.65064">
        <ele>411.1</ele>
        <time>2015-05-07T10:28:01Z</time>
      </trkpt>
      <trkpt lat="48.10887" lon="7.65058">
        <ele>412.54</ele>
        <time>2015-05-07T10:28:22Z</time>
      </trkpt>
      <trkpt lat="48.10883" lon="7.65055">
        <ele>413.5</ele>
        <time>2015-05-07T10:28:51Z</time>
      </trkpt>
      <trkpt lat="48.10881" lon="7.65054">
        <ele>409.66</ele>
        <time>2015-05-07T10:28:53Z</time>
      </trkpt>
      <trkpt lat="48.1088" lon="7.65053">
        <ele>410.62</ele>
        <time>2015-05-07T10:28:54Z</time>
      </trkpt>
      <trkpt lat="48.10869" lon="7.65045">
        <ele>411.58</ele>
        <time>2015-05-07T10:29:05Z</time>
      </trkpt>
      <trkpt lat="48.10851" lon="7.65036">
        <ele>413.98</ele>
        <time>2015-05-07T10:29:22Z</time>
      </trkpt>
      <trkpt lat="48.10821" lon="7.65028">
        <ele>414.95</ele>
        <time>2015-05-07T10:29:43Z</time>
      </trkpt>
      <trkpt lat="48.10819" lon="7.65028">
        <ele>414.95</ele>
        <time>2015-05-07T10:29:44Z</time>
      </trkpt>
      <trkpt lat="48.10812" lon="7.65026">
        <ele>411.1</ele>
        <time>2015-05-07T10:29:50Z</time>
      </trkpt>
      <trkpt lat="48.1081" lon="7.65026">
        <ele>411.1</ele>
        <time>2015-05-07T10:29:51Z</time>
      </trkpt>
      <trkpt lat="48.10799" lon="7.65019">
        <ele>414.47</ele>
        <time>2015-05-07T10:29:59Z</time>
      </trkpt>
      <trkpt lat="48.10788" lon="7.65011">
        <ele>411.1</ele>
        <time>2015-05-07T10:30:07Z</time>
      </trkpt>
      <trkpt lat="48.10786" lon="7.65008">
        <ele>409.18</ele>
        <time>2015-05-07T10:30:09Z</time>
      </trkpt>
      <trkpt lat="48.10776" lon="7.65001">
        <ele>407.74</ele>
        <time>2015-05-07T10:30:18Z</time>
      </trkpt>
      <trkpt lat="48.10766" lon="7.6498">
        <ele>408.7</ele>
        <time>2015-05-07T10:30:32Z</time>
      </trkpt>
      <trkpt lat="48.10765" lon="7.64972">
        <ele>411.58</ele>
        <time>2015-05-07T10:30:36Z</time>
      </trkpt>
      <trkpt lat="48.10762" lon="7.64965">
        <ele>410.14</ele>
        <time>2015-05-07T10:30:41Z</time>
      </trkpt>
      <trkpt lat="48.1076" lon="7.64959">
        <ele>406.77</ele>
        <time>2015-05-07T10:30:44Z</time>
      </trkpt>
      <trkpt lat="48.10759" lon="7.64956">
        <ele>408.7</ele>
        <time>2015-05-07T10:30:48Z</time>
      </trkpt>
      <trkpt lat="48.10758" lon="7.64957">
        <ele>404.85</ele>
        <time>2015-05-07T10:30:49Z</time>
      </trkpt>
      <trkpt lat="48.10758" lon="7.64958">
        <ele>407.26</ele>
        <time>2015-05-07T10:30:50Z</time>
      </trkpt>
      <trkpt lat="48.10759" lon="7.64958">
        <ele>408.22</ele>
        <time>2015-05-07T10:30:52Z</time>
      </trkpt>
      <trkpt lat="48.10756" lon="7.64954">
        <ele>408.7</ele>
        <time>2015-05-07T10:31:08Z</time>
      </trkpt>
      <trkpt lat="48.10753" lon="7.64947">
        <ele>405.33</ele>
        <time>2015-05-07T10:31:12Z</time>
      </trkpt>
      <trkpt lat="48.10747" lon="7.64929">
        <ele>408.22</ele>
        <time>2015-05-07T10:31:21Z</time>
      </trkpt>
      <trkpt lat="48.10738" lon="7.64914">
        <ele>403.89</ele>
        <time>2015-05-07T10:31:31Z</time>
      </trkpt>
      <trkpt lat="48.10736" lon="7.64913">
        <ele>403.89</ele>
        <time>2015-05-07T10:31:32Z</time>
      </trkpt>
      <trkpt lat="48.10733" lon="7.64909">
        <ele>407.26</ele>
        <time>2015-05-07T10:31:35Z</time>
      </trkpt>
      <trkpt lat="48.10731" lon="7.64903">
        <ele>410.14</ele>
        <time>2015-05-07T10:31:38Z</time>
      </trkpt>
      <trkpt lat="48.1073" lon="7.64898">
        <ele>407.74</ele>
        <time>2015-05-07T10:31:40Z</time>
      </trkpt>
      <trkpt lat="48.10727" lon="7.64892">
        <ele>404.37</ele>
        <time>2015-05-07T10:31:43Z</time>
      </trkpt>
      <trkpt lat="48.10725" lon="7.64888">
        <ele>403.41</ele>
        <time>2015-05-07T10:31:45Z</time>
      </trkpt>
      <trkpt lat="48.10721" lon="7.64885">
        <ele>405.81</ele>
        <time>2015-05-07T10:31:48Z</time>
      </trkpt>
      <trkpt lat="48.10716" lon="7.6488">
        <ele>409.66</ele>
        <time>2015-05-07T10:31:52Z</time>
      </trkpt>
      <trkpt lat="48.10715" lon="7.64879">
        <ele>409.18</ele>
        <time>2015-05-07T10:31:53Z</time>
      </trkpt>
      <trkpt lat="48.10712" lon="7.64874">
        <ele>405.81</ele>
        <time>2015-05-07T10:31:56Z</time>
      </trkpt>
      <trkpt lat="48.10709" lon="7.6487">
        <ele>402.93</ele>
        <time>2015-05-07T10:31:59Z</time>
      </trkpt>
      <trkpt lat="48.10704" lon="7.64867">
        <ele>406.29</ele>
        <time>2015-05-07T10:32:02Z</time>
      </trkpt>
      <trkpt lat="48.10701" lon="7.64863">
        <ele>407.74</ele>
        <time>2015-05-07T10:32:05Z</time>
      </trkpt>
      <trkpt lat="48.10693" lon="7.64854">
        <ele>405.33</ele>
        <time>2015-05-07T10:32:11Z</time>
      </trkpt>
      <trkpt lat="48.10688" lon="7.64845">
        <ele>407.74</ele>
        <time>2015-05-07T10:32:18Z</time>
      </trkpt>
      <trkpt lat="48.10687" lon="7.64842">
        <ele>409.18</ele>
        <time>2015-05-07T10:32:20Z</time>
      </trkpt>
      <trkpt lat="48.10688" lon="7.64839">
        <ele>409.18</ele>
        <time>2015-05-07T10:32:23Z</time>
      </trkpt>
      <trkpt lat="48.10685" lon="7.64827">
        <ele>408.22</ele>
        <time>2015-05-07T10:32:32Z</time>
      </trkpt>
      <trkpt lat="48.10681" lon="7.64823">
        <ele>410.62</ele>
        <time>2015-05-07T10:32:36Z</time>
      </trkpt>
      <trkpt lat="48.10674" lon="7.64817">
        <ele>409.66</ele>
        <time>2015-05-07T10:33:10Z</time>
      </trkpt>
      <trkpt lat="48.10673" lon="7.64814">
        <ele>412.06</ele>
        <time>2015-05-07T10:33:12Z</time>
      </trkpt>
      <trkpt lat="48.10671" lon="7.64812">
        <ele>410.14</ele>
        <time>2015-05-07T10:33:14Z</time>
      </trkpt>
      <trkpt lat="48.10669" lon="7.64806">
        <ele>412.06</ele>
        <time>2015-05-07T10:33:17Z</time>
      </trkpt>
      <trkpt lat="48.10666" lon="7.64793">
        <ele>409.66</ele>
        <time>2015-05-07T10:33:25Z</time>
      </trkpt>
      <trkpt lat="48.10666" lon="7.64786">
        <ele>414.47</ele>
        <time>2015-05-07T10:33:30Z</time>
      </trkpt>
      <trkpt lat="48.10666" lon="7.64783">
        <ele>411.1</ele>
        <time>2015-05-07T10:33:34Z</time>
      </trkpt>
      <trkpt lat="48.10666" lon="7.64782">
        <ele>413.02</ele>
        <time>2015-05-07T10:33:35Z</time>
      </trkpt>
      <trkpt lat="48.10666" lon="7.6478">
        <ele>416.87</ele>
        <time>2015-05-07T10:33:38Z</time>
      </trkpt>
      <trkpt lat="48.10663" lon="7.64771">
        <ele>413.5</ele>
        <time>2015-05-07T10:33:45Z</time>
      </trkpt>
      <trkpt lat="48.10638" lon="7.6476">
        <ele>416.87</ele>
        <time>2015-05-07T10:33:58Z</time>
      </trkpt>
      <trkpt lat="48.10636" lon="7.64761">
        <ele>416.87</ele>
        <time>2015-05-07T10:33:59Z</time>
      </trkpt>
      <trkpt lat="48.1063" lon="7.64763">
        <ele>418.79</ele>
        <time>2015-05-07T10:34:02Z</time>
      </trkpt>
      <trkpt lat="48.10625" lon="7.64764">
        <ele>416.87</ele>
        <time>2015-05-07T10:34:04Z</time>
      </trkpt>
      <trkpt lat="48.1062" lon="7.64767">
        <ele>414.95</ele>
        <time>2015-05-07T10:34:07Z</time>
      </trkpt>
      <trkpt lat="48.10613" lon="7.64769">
        <ele>418.79</ele>
        <time>2015-05-07T10:34:11Z</time>
      </trkpt>
      <trkpt lat="48.10605" lon="7.64773">
        <ele>414.95</ele>
        <time>2015-05-07T10:34:15Z</time>
      </trkpt>
      <trkpt lat="48.106" lon="7.64774">
        <ele>418.31</ele>
        <time>2015-05-07T10:34:18Z</time>
      </trkpt>
      <trkpt lat="48.10598" lon="7.64776">
        <ele>419.75</ele>
        <time>2015-05-07T10:34:20Z</time>
      </trkpt>
      <trkpt lat="48.10581" lon="7.64777">
        <ele>416.39</ele>
        <time>2015-05-07T10:34:29Z</time>
      </trkpt>
      <trkpt lat="48.10573" lon="7.64773">
        <ele>419.27</ele>
        <time>2015-05-07T10:34:36Z</time>
      </trkpt>
      <trkpt lat="48.10563" lon="7.64764">
        <ele>416.39</ele>
        <time>2015-05-07T10:34:47Z</time>
      </trkpt>
      <trkpt lat="48.1056" lon="7.64758">
        <ele>419.75</ele>
        <time>2015-05-07T10:34:52Z</time>
      </trkpt>
      <trkpt lat="48.10555" lon="7.64749">
        <ele>415.91</ele>
        <time>2015-05-07T10:34:59Z</time>
      </trkpt>
      <trkpt lat="48.10555" lon="7.64747">
        <ele>415.43</ele>
        <time>2015-05-07T10:35:00Z</time>
      </trkpt>
      <trkpt lat="48.10554" lon="7.64744">
        <ele>419.27</ele>
        <time>2015-05-07T10:35:02Z</time>
      </trkpt>
      <trkpt lat="48.10553" lon="7.64742">
        <ele>419.75</ele>
        <time>2015-05-07T10:35:03Z</time>
      </trkpt>
      <trkpt lat="48.10553" lon="7.64738">
        <ele>420.71</ele>
        <time>2015-05-07T10:35:05Z</time>
      </trkpt>
      <trkpt lat="48.10553" lon="7.64736">
        <ele>418.79</ele>
        <time>2015-05-07T10:35:06Z</time>
      </trkpt>
      <trkpt lat="48.10551" lon="7.64726">
        <ele>421.19</ele>
        <time>2015-05-07T10:35:12Z</time>
      </trkpt>
      <trkpt lat="48.10549" lon="7.64722">
        <ele>417.83</ele>
        <time>2015-05-07T10:35:16Z</time>
      </trkpt>
      <trkpt lat="48.10548" lon="7.64721">
        <ele>417.83</ele>
        <time>2015-05-07T10:35:17Z</time>
      </trkpt>
      <trkpt lat="48.10546" lon="7.64717">
        <ele>421.68</ele>
        <time>2015-05-07T10:35:20Z</time>
      </trkpt>
      <trkpt lat="48.10538" lon="7.64707">
        <ele>420.71</ele>
        <time>2015-05-07T10:35:41Z</time>
      </trkpt>
      <trkpt lat="48.10538" lon="7.64706">
        <ele>422.64</ele>
        <time>2015-05-07T10:35:52Z</time>
      </trkpt>
      <trkpt lat="48.10528" lon="7.64703">
        <ele>422.16</ele>
        <time>2015-05-07T10:35:57Z</time>
      </trkpt>
      <trkpt lat="48.10524" lon="7.647">
        <ele>418.31</ele>
        <time>2015-05-07T10:36:00Z</time>
      </trkpt>
      <trkpt lat="48.10522" lon="7.64699">
        <ele>419.27</ele>
        <time>2015-05-07T10:36:01Z</time>
      </trkpt>
      <trkpt lat="48.10519" lon="7.64695">
        <ele>422.16</ele>
        <time>2015-05-07T10:36:04Z</time>
      </trkpt>
      <trkpt lat="48.10518" lon="7.64694">
        <ele>418.31</ele>
        <time>2015-05-07T10:36:05Z</time>
      </trkpt>
      <trkpt lat="48.10517" lon="7.64693">
        <ele>419.75</ele>
        <time>2015-05-07T10:36:06Z</time>
      </trkpt>
      <trkpt lat="48.10507" lon="7.64691">
        <ele>421.68</ele>
        <time>2015-05-07T10:36:23Z</time>
      </trkpt>
      <trkpt lat="48.10506" lon="7.64691">
        <ele>418.79</ele>
        <time>2015-05-07T10:36:43Z</time>
      </trkpt>
      <trkpt lat="48.10503" lon="7.6469">
        <ele>421.68</ele>
        <time>2015-05-07T10:36:46Z</time>
      </trkpt>
      <trkpt lat="48.10504" lon="7.64692">
        <ele>421.19</ele>
        <time>2015-05-07T10:37:05Z</time>
      </trkpt>
      <trkpt lat="48.10505" lon="7.64692">
        <ele>421.68</ele>
        <time>2015-05-07T10:37:38Z</time>
      </trkpt>
      <trkpt lat="48.10505" lon="7.64694">
        <ele>422.16</ele>
        <time>2015-05-07T10:39:01Z</time>
      </trkpt>
      <trkpt lat="48.10503" lon="7.64693">
        <ele>422.16</ele>
        <time>2015-05-07T10:43:06Z</time>
      </trkpt>
      <trkpt lat="48.10503" lon="7.64692">
        <ele>422.16</ele>
        <time>2015-05-07T10:46:47Z</time>
      </trkpt>
      <trkpt lat="48.10498" lon="7.64697">
        <ele>425.52</ele>
        <time>2015-05-07T11:15:38Z</time>
      </trkpt>
      <trkpt lat="48.10497" lon="7.64698">
        <ele>426</ele>
        <time>2015-05-07T11:21:37Z</time>
      </trkpt>
      <trkpt lat="48.10497" lon="7.64699">
        <ele>426.96</ele>
        <time>2015-05-07T11:22:22Z</time>
      </trkpt>
      <trkpt lat="48.10495" lon="7.64701">
        <ele>426.96</ele>
        <time>2015-05-07T11:22:25Z</time>
      </trkpt>
      <trkpt lat="48.10483" lon="7.64707">
        <ele>426.96</ele>
        <time>2015-05-07T11:22:44Z</time>
      </trkpt>
      <trkpt lat="48.1048" lon="7.64707">
        <ele>427.44</ele>
        <time>2015-05-07T11:22:48Z</time>
      </trkpt>
      <trkpt lat="48.10464" lon="7.64701">
        <ele>427.44</ele>
        <time>2015-05-07T11:23:10Z</time>
      </trkpt>
      <trkpt lat="48.10462" lon="7.647">
        <ele>429.37</ele>
        <time>2015-05-07T11:23:33Z</time>
      </trkpt>
      <trkpt lat="48.10458" lon="7.64696">
        <ele>424.56</ele>
        <time>2015-05-07T11:23:39Z</time>
      </trkpt>
      <trkpt lat="48.10453" lon="7.64695">
        <ele>426.48</ele>
        <time>2015-05-07T11:23:47Z</time>
      </trkpt>
      <trkpt lat="48.10452" lon="7.64693">
        <ele>426</ele>
        <time>2015-05-07T11:23:49Z</time>
      </trkpt>
      <trkpt lat="48.10449" lon="7.64691">
        <ele>423.6</ele>
        <time>2015-05-07T11:23:52Z</time>
      </trkpt>
      <trkpt lat="48.10439" lon="7.64684">
        <ele>425.04</ele>
        <time>2015-05-07T11:24:01Z</time>
      </trkpt>
      <trkpt lat="48.10433" lon="7.64679">
        <ele>421.19</ele>
        <time>2015-05-07T11:24:06Z</time>
      </trkpt>
      <trkpt lat="48.10428" lon="7.64672">
        <ele>420.23</ele>
        <time>2015-05-07T11:24:13Z</time>
      </trkpt>
      <trkpt lat="48.10415" lon="7.64658">
        <ele>419.27</ele>
        <time>2015-05-07T11:24:23Z</time>
      </trkpt>
      <trkpt lat="48.10407" lon="7.64643">
        <ele>422.16</ele>
        <time>2015-05-07T11:24:32Z</time>
      </trkpt>
      <trkpt lat="48.10394" lon="7.64611">
        <ele>421.19</ele>
        <time>2015-05-07T11:24:52Z</time>
      </trkpt>
      <trkpt lat="48.10385" lon="7.64591">
        <ele>421.68</ele>
        <time>2015-05-07T11:25:03Z</time>
      </trkpt>
      <trkpt lat="48.10376" lon="7.64569">
        <ele>418.79</ele>
        <time>2015-05-07T11:25:14Z</time>
      </trkpt>
      <trkpt lat="48.10371" lon="7.64555">
        <ele>422.64</ele>
        <time>2015-05-07T11:25:23Z</time>
      </trkpt>
      <trkpt lat="48.10369" lon="7.64544">
        <ele>418.31</ele>
        <time>2015-05-07T11:25:29Z</time>
      </trkpt>
      <trkpt lat="48.10369" lon="7.64541">
        <ele>418.79</ele>
        <time>2015-05-07T11:25:30Z</time>
      </trkpt>
      <trkpt lat="48.10366" lon="7.64531">
        <ele>420.23</ele>
        <time>2015-05-07T11:25:35Z</time>
      </trkpt>
      <trkpt lat="48.10365" lon="7.64523">
        <ele>416.87</ele>
        <time>2015-05-07T11:25:39Z</time>
      </trkpt>
      <trkpt lat="48.10361" lon="7.64512">
        <ele>417.83</ele>
        <time>2015-05-07T11:25:45Z</time>
      </trkpt>
      <trkpt lat="48.10353" lon="7.64501">
        <ele>413.98</ele>
        <time>2015-05-07T11:25:52Z</time>
      </trkpt>
      <trkpt lat="48.10335" lon="7.6447">
        <ele>415.91</ele>
        <time>2015-05-07T11:26:11Z</time>
      </trkpt>
      <trkpt lat="48.10332" lon="7.64462">
        <ele>417.35</ele>
        <time>2015-05-07T11:26:15Z</time>
      </trkpt>
      <trkpt lat="48.10324" lon="7.64448">
        <ele>413.02</ele>
        <time>2015-05-07T11:26:23Z</time>
      </trkpt>
      <trkpt lat="48.10321" lon="7.64443">
        <ele>414.47</ele>
        <time>2015-05-07T11:26:26Z</time>
      </trkpt>
      <trkpt lat="48.10308" lon="7.64405">
        <ele>415.43</ele>
        <time>2015-05-07T11:26:46Z</time>
      </trkpt>
      <trkpt lat="48.10301" lon="7.64392">
        <ele>412.06</ele>
        <time>2015-05-07T11:26:53Z</time>
      </trkpt>
      <trkpt lat="48.10287" lon="7.64365">
        <ele>415.91</ele>
        <time>2015-05-07T11:27:09Z</time>
      </trkpt>
      <trkpt lat="48.10279" lon="7.64357">
        <ele>415.91</ele>
        <time>2015-05-07T11:27:17Z</time>
      </trkpt>
      <trkpt lat="48.10275" lon="7.64351">
        <ele>419.75</ele>
        <time>2015-05-07T11:27:22Z</time>
      </trkpt>
      <trkpt lat="48.10271" lon="7.64343">
        <ele>416.39</ele>
        <time>2015-05-07T11:27:45Z</time>
      </trkpt>
      <trkpt lat="48.10271" lon="7.64338">
        <ele>419.27</ele>
        <time>2015-05-07T11:27:50Z</time>
      </trkpt>
      <trkpt lat="48.10272" lon="7.64335">
        <ele>420.71</ele>
        <time>2015-05-07T11:27:52Z</time>
      </trkpt>
      <trkpt lat="48.10273" lon="7.64332">
        <ele>416.87</ele>
        <time>2015-05-07T11:27:54Z</time>
      </trkpt>
      <trkpt lat="48.10274" lon="7.64332">
        <ele>417.83</ele>
        <time>2015-05-07T11:27:55Z</time>
      </trkpt>
      <trkpt lat="48.10274" lon="7.64331">
        <ele>421.19</ele>
        <time>2015-05-07T11:27:56Z</time>
      </trkpt>
      <trkpt lat="48.10274" lon="7.6433">
        <ele>417.83</ele>
        <time>2015-05-07T11:27:57Z</time>
      </trkpt>
      <trkpt lat="48.10274" lon="7.64329">
        <ele>416.39</ele>
        <time>2015-05-07T11:28:25Z</time>
      </trkpt>
      <trkpt lat="48.10274" lon="7.64329">
        <ele>417.83</ele>
        <time>2015-05-07T11:28:27Z</time>
      </trkpt>
      <trkpt lat="48.10271" lon="7.64327">
        <ele>418.31</ele>
        <time>2015-05-07T11:29:10Z</time>
      </trkpt>
      <trkpt lat="48.10272" lon="7.64324">
        <ele>415.91</ele>
        <time>2015-05-07T11:29:29Z</time>
      </trkpt>
      <trkpt lat="48.10272" lon="7.64325">
        <ele>415.43</ele>
        <time>2015-05-07T11:29:30Z</time>
      </trkpt>
      <trkpt lat="48.10266" lon="7.64329">
        <ele>416.87</ele>
        <time>2015-05-07T11:29:38Z</time>
      </trkpt>
      <trkpt lat="48.10263" lon="7.64332">
        <ele>414.95</ele>
        <time>2015-05-07T11:29:57Z</time>
      </trkpt>
      <trkpt lat="48.1026" lon="7.64329">
        <ele>417.35</ele>
        <time>2015-05-07T11:30:02Z</time>
      </trkpt>
      <trkpt lat="48.1026" lon="7.6433">
        <ele>414.95</ele>
        <time>2015-05-07T11:30:03Z</time>
      </trkpt>
      <trkpt lat="48.10252" lon="7.64327">
        <ele>412.06</ele>
        <time>2015-05-07T11:30:10Z</time>
      </trkpt>
      <trkpt lat="48.10242" lon="7.64326">
        <ele>413.98</ele>
        <time>2015-05-07T11:30:18Z</time>
      </trkpt>
      <trkpt lat="48.10236" lon="7.64326">
        <ele>410.14</ele>
        <time>2015-05-07T11:30:22Z</time>
      </trkpt>
      <trkpt lat="48.10235" lon="7.64326">
        <ele>410.14</ele>
        <time>2015-05-07T11:30:23Z</time>
      </trkpt>
      <trkpt lat="48.10224" lon="7.64325">
        <ele>406.77</ele>
        <time>2015-05-07T11:30:32Z</time>
      </trkpt>
      <trkpt lat="48.10223" lon="7.64325">
        <ele>406.77</ele>
        <time>2015-05-07T11:30:33Z</time>
      </trkpt>
      <trkpt lat="48.10214" lon="7.64323">
        <ele>403.89</ele>
        <time>2015-05-07T11:30:40Z</time>
      </trkpt>
      <trkpt lat="48.10211" lon="7.64327">
        <ele>407.26</ele>
        <time>2015-05-07T11:30:43Z</time>
      </trkpt>
      <trkpt lat="48.10212" lon="7.64335">
        <ele>402.93</ele>
        <time>2015-05-07T11:30:46Z</time>
      </trkpt>
      <trkpt lat="48.10214" lon="7.64338">
        <ele>404.85</ele>
        <time>2015-05-07T11:30:48Z</time>
      </trkpt>
      <trkpt lat="48.10217" lon="7.64342">
        <ele>405.81</ele>
        <time>2015-05-07T11:30:51Z</time>
      </trkpt>
      <trkpt lat="48.1022" lon="7.64344">
        <ele>403.89</ele>
        <time>2015-05-07T11:30:53Z</time>
      </trkpt>
      <trkpt lat="48.10225" lon="7.64348">
        <ele>401.01</ele>
        <time>2015-05-07T11:30:57Z</time>
      </trkpt>
      <trkpt lat="48.1023" lon="7.64354">
        <ele>403.41</ele>
        <time>2015-05-07T11:31:02Z</time>
      </trkpt>
      <trkpt lat="48.10232" lon="7.64356">
        <ele>398.6</ele>
        <time>2015-05-07T11:31:04Z</time>
      </trkpt>
      <trkpt lat="48.10247" lon="7.64372">
        <ele>398.6</ele>
        <time>2015-05-07T11:31:17Z</time>
      </trkpt>
      <trkpt lat="48.1025" lon="7.64374">
        <ele>395.24</ele>
        <time>2015-05-07T11:31:19Z</time>
      </trkpt>
      <trkpt lat="48.10252" lon="7.64378">
        <ele>393.8</ele>
        <time>2015-05-07T11:31:21Z</time>
      </trkpt>
      <trkpt lat="48.10254" lon="7.64382">
        <ele>397.16</ele>
        <time>2015-05-07T11:31:23Z</time>
      </trkpt>
      <trkpt lat="48.1026" lon="7.64389">
        <ele>393.32</ele>
        <time>2015-05-07T11:31:28Z</time>
      </trkpt>
      <trkpt lat="48.10266" lon="7.64396">
        <ele>396.68</ele>
        <time>2015-05-07T11:31:33Z</time>
      </trkpt>
      <trkpt lat="48.10268" lon="7.64399">
        <ele>393.8</ele>
        <time>2015-05-07T11:31:35Z</time>
      </trkpt>
      <trkpt lat="48.10269" lon="7.644">
        <ele>392.36</ele>
        <time>2015-05-07T11:31:36Z</time>
      </trkpt>
      <trkpt lat="48.10275" lon="7.64411">
        <ele>393.32</ele>
        <time>2015-05-07T11:31:43Z</time>
      </trkpt>
      <trkpt lat="48.10278" lon="7.64416">
        <ele>390.91</ele>
        <time>2015-05-07T11:31:46Z</time>
      </trkpt>
      <trkpt lat="48.1028" lon="7.64419">
        <ele>393.32</ele>
        <time>2015-05-07T11:31:48Z</time>
      </trkpt>
      <trkpt lat="48.10282" lon="7.64425">
        <ele>395.24</ele>
        <time>2015-05-07T11:31:51Z</time>
      </trkpt>
      <trkpt lat="48.10284" lon="7.64429">
        <ele>391.39</ele>
        <time>2015-05-07T11:31:53Z</time>
      </trkpt>
      <trkpt lat="48.1029" lon="7.64443">
        <ele>394.76</ele>
        <time>2015-05-07T11:32:01Z</time>
      </trkpt>
      <trkpt lat="48.10292" lon="7.6445">
        <ele>390.91</ele>
        <time>2015-05-07T11:32:05Z</time>
      </trkpt>
      <trkpt lat="48.10293" lon="7.64452">
        <ele>391.39</ele>
        <time>2015-05-07T11:32:06Z</time>
      </trkpt>
      <trkpt lat="48.10297" lon="7.6446">
        <ele>393.32</ele>
        <time>2015-05-07T11:32:11Z</time>
      </trkpt>
      <trkpt lat="48.10299" lon="7.64466">
        <ele>389.95</ele>
        <time>2015-05-07T11:32:14Z</time>
      </trkpt>
      <trkpt lat="48.10301" lon="7.64474">
        <ele>392.84</ele>
        <time>2015-05-07T11:32:18Z</time>
      </trkpt>
      <trkpt lat="48.10302" lon="7.64476">
        <ele>393.32</ele>
        <time>2015-05-07T11:32:19Z</time>
      </trkpt>
      <trkpt lat="48.10303" lon="7.6448">
        <ele>391.87</ele>
        <time>2015-05-07T11:32:21Z</time>
      </trkpt>
      <trkpt lat="48.10307" lon="7.64491">
        <ele>390.43</ele>
        <time>2015-05-07T11:32:27Z</time>
      </trkpt>
      <trkpt lat="48.1031" lon="7.64498">
        <ele>391.87</ele>
        <time>2015-05-07T11:32:31Z</time>
      </trkpt>
      <trkpt lat="48.10312" lon="7.64506">
        <ele>388.03</ele>
        <time>2015-05-07T11:32:35Z</time>
      </trkpt>
      <trkpt lat="48.10313" lon="7.64508">
        <ele>388.51</ele>
        <time>2015-05-07T11:32:36Z</time>
      </trkpt>
      <trkpt lat="48.10314" lon="7.64518">
        <ele>391.39</ele>
        <time>2015-05-07T11:32:40Z</time>
      </trkpt>
      <trkpt lat="48.10315" lon="7.64522">
        <ele>392.84</ele>
        <time>2015-05-07T11:32:42Z</time>
      </trkpt>
      <trkpt lat="48.10317" lon="7.64536">
        <ele>388.99</ele>
        <time>2015-05-07T11:32:49Z</time>
      </trkpt>
      <trkpt lat="48.10317" lon="7.6454">
        <ele>390.43</ele>
        <time>2015-05-07T11:32:51Z</time>
      </trkpt>
      <trkpt lat="48.10323" lon="7.64573">
        <ele>390.91</ele>
        <time>2015-05-07T11:33:08Z</time>
      </trkpt>
      <trkpt lat="48.10322" lon="7.64577">
        <ele>389.95</ele>
        <time>2015-05-07T11:33:10Z</time>
      </trkpt>
      <trkpt lat="48.10314" lon="7.64584">
        <ele>391.39</ele>
        <time>2015-05-07T11:33:19Z</time>
      </trkpt>
      <trkpt lat="48.10308" lon="7.6459">
        <ele>388.03</ele>
        <time>2015-05-07T11:33:24Z</time>
      </trkpt>
      <trkpt lat="48.10306" lon="7.64591">
        <ele>387.07</ele>
        <time>2015-05-07T11:33:26Z</time>
      </trkpt>
      <trkpt lat="48.10302" lon="7.64594">
        <ele>388.51</ele>
        <time>2015-05-07T11:33:29Z</time>
      </trkpt>
      <trkpt lat="48.10297" lon="7.646">
        <ele>390.43</ele>
        <time>2015-05-07T11:33:34Z</time>
      </trkpt>
      <trkpt lat="48.1029" lon="7.64606">
        <ele>386.11</ele>
        <time>2015-05-07T11:33:40Z</time>
      </trkpt>
      <trkpt lat="48.10289" lon="7.64607">
        <ele>386.11</ele>
        <time>2015-05-07T11:33:41Z</time>
      </trkpt>
      <trkpt lat="48.10285" lon="7.64611">
        <ele>388.03</ele>
        <time>2015-05-07T11:33:45Z</time>
      </trkpt>
      <trkpt lat="48.1027" lon="7.64622">
        <ele>384.66</ele>
        <time>2015-05-07T11:33:57Z</time>
      </trkpt>
      <trkpt lat="48.10268" lon="7.64623">
        <ele>387.55</ele>
        <time>2015-05-07T11:33:58Z</time>
      </trkpt>
      <trkpt lat="48.10267" lon="7.64624">
        <ele>387.55</ele>
        <time>2015-05-07T11:33:59Z</time>
      </trkpt>
      <trkpt lat="48.10265" lon="7.64626">
        <ele>389.47</ele>
        <time>2015-05-07T11:34:01Z</time>
      </trkpt>
      <trkpt lat="48.10258" lon="7.64632">
        <ele>384.66</ele>
        <time>2015-05-07T11:34:06Z</time>
      </trkpt>
      <trkpt lat="48.10252" lon="7.64638">
        <ele>388.99</ele>
        <time>2015-05-07T11:34:11Z</time>
      </trkpt>
      <trkpt lat="48.10251" lon="7.64639">
        <ele>388.51</ele>
        <time>2015-05-07T11:34:12Z</time>
      </trkpt>
      <trkpt lat="48.10243" lon="7.64646">
        <ele>385.15</ele>
        <time>2015-05-07T11:34:18Z</time>
      </trkpt>
      <trkpt lat="48.10241" lon="7.64647">
        <ele>388.51</ele>
        <time>2015-05-07T11:34:20Z</time>
      </trkpt>
      <trkpt lat="48.1024" lon="7.64648">
        <ele>388.99</ele>
        <time>2015-05-07T11:34:21Z</time>
      </trkpt>
      <trkpt lat="48.10234" lon="7.64651">
        <ele>384.18</ele>
        <time>2015-05-07T11:34:25Z</time>
      </trkpt>
      <trkpt lat="48.10228" lon="7.64657">
        <ele>388.51</ele>
        <time>2015-05-07T11:34:30Z</time>
      </trkpt>
      <trkpt lat="48.10226" lon="7.64659">
        <ele>388.51</ele>
        <time>2015-05-07T11:34:31Z</time>
      </trkpt>
      <trkpt lat="48.10221" lon="7.64669">
        <ele>385.15</ele>
        <time>2015-05-07T11:34:38Z</time>
      </trkpt>
      <trkpt lat="48.1022" lon="7.64675">
        <ele>383.22</ele>
        <time>2015-05-07T11:34:41Z</time>
      </trkpt>
      <trkpt lat="48.10219" lon="7.64679">
        <ele>387.55</ele>
        <time>2015-05-07T11:34:43Z</time>
      </trkpt>
      <trkpt lat="48.10219" lon="7.64682">
        <ele>387.55</ele>
        <time>2015-05-07T11:34:44Z</time>
      </trkpt>
      <trkpt lat="48.10219" lon="7.64683">
        <ele>383.7</ele>
        <time>2015-05-07T11:34:45Z</time>
      </trkpt>
      <trkpt lat="48.10219" lon="7.64685">
        <ele>384.18</ele>
        <time>2015-05-07T11:34:46Z</time>
      </trkpt>
      <trkpt lat="48.10216" lon="7.64709">
        <ele>381.78</ele>
        <time>2015-05-07T11:34:58Z</time>
      </trkpt>
      <trkpt lat="48.10216" lon="7.64719">
        <ele>383.7</ele>
        <time>2015-05-07T11:35:03Z</time>
      </trkpt>
      <trkpt lat="48.10216" lon="7.64725">
        <ele>380.82</ele>
        <time>2015-05-07T11:35:06Z</time>
      </trkpt>
      <trkpt lat="48.10215" lon="7.64727">
        <ele>376.97</ele>
        <time>2015-05-07T11:35:07Z</time>
      </trkpt>
      <trkpt lat="48.10215" lon="7.64729">
        <ele>377.94</ele>
        <time>2015-05-07T11:35:08Z</time>
      </trkpt>
      <trkpt lat="48.10215" lon="7.64735">
        <ele>381.78</ele>
        <time>2015-05-07T11:35:11Z</time>
      </trkpt>
      <trkpt lat="48.10216" lon="7.64737">
        <ele>380.82</ele>
        <time>2015-05-07T11:35:12Z</time>
      </trkpt>
      <trkpt lat="48.10217" lon="7.64741">
        <ele>377.94</ele>
        <time>2015-05-07T11:35:14Z</time>
      </trkpt>
      <trkpt lat="48.10224" lon="7.64751">
        <ele>380.34</ele>
        <time>2015-05-07T11:35:21Z</time>
      </trkpt>
      <trkpt lat="48.1023" lon="7.64755">
        <ele>376.97</ele>
        <time>2015-05-07T11:35:26Z</time>
      </trkpt>
      <trkpt lat="48.10244" lon="7.64759">
        <ele>374.09</ele>
        <time>2015-05-07T11:35:37Z</time>
      </trkpt>
      <trkpt lat="48.10249" lon="7.64759">
        <ele>377.45</ele>
        <time>2015-05-07T11:35:40Z</time>
      </trkpt>
      <trkpt lat="48.1025" lon="7.64759">
        <ele>377.45</ele>
        <time>2015-05-07T11:35:41Z</time>
      </trkpt>
      <trkpt lat="48.10258" lon="7.64761">
        <ele>375.05</ele>
        <time>2015-05-07T11:35:46Z</time>
      </trkpt>
      <trkpt lat="48.10268" lon="7.64765">
        <ele>377.45</ele>
        <time>2015-05-07T11:35:54Z</time>
      </trkpt>
      <trkpt lat="48.1027" lon="7.64766">
        <ele>373.13</ele>
        <time>2015-05-07T11:35:56Z</time>
      </trkpt>
      <trkpt lat="48.10278" lon="7.6477">
        <ele>375.53</ele>
        <time>2015-05-07T11:36:02Z</time>
      </trkpt>
      <trkpt lat="48.10289" lon="7.64776">
        <ele>371.69</ele>
        <time>2015-05-07T11:36:10Z</time>
      </trkpt>
      <trkpt lat="48.10292" lon="7.64779">
        <ele>374.09</ele>
        <time>2015-05-07T11:36:13Z</time>
      </trkpt>
      <trkpt lat="48.10299" lon="7.64786">
        <ele>370.73</ele>
        <time>2015-05-07T11:36:19Z</time>
      </trkpt>
      <trkpt lat="48.103" lon="7.64787">
        <ele>370.24</ele>
        <time>2015-05-07T11:36:20Z</time>
      </trkpt>
      <trkpt lat="48.10305" lon="7.64791">
        <ele>371.69</ele>
        <time>2015-05-07T11:36:24Z</time>
      </trkpt>
      <trkpt lat="48.10316" lon="7.64798">
        <ele>370.73</ele>
        <time>2015-05-07T11:36:32Z</time>
      </trkpt>
      <trkpt lat="48.10323" lon="7.64804">
        <ele>373.61</ele>
        <time>2015-05-07T11:36:38Z</time>
      </trkpt>
      <trkpt lat="48.10326" lon="7.64806">
        <ele>369.28</ele>
        <time>2015-05-07T11:36:40Z</time>
      </trkpt>
      <trkpt lat="48.10334" lon="7.64813">
        <ele>373.13</ele>
        <time>2015-05-07T11:36:46Z</time>
      </trkpt>
      <trkpt lat="48.10336" lon="7.64815">
        <ele>369.76</ele>
        <time>2015-05-07T11:36:48Z</time>
      </trkpt>
      <trkpt lat="48.10339" lon="7.64819">
        <ele>368.32</ele>
        <time>2015-05-07T11:36:51Z</time>
      </trkpt>
      <trkpt lat="48.10343" lon="7.64823">
        <ele>372.17</ele>
        <time>2015-05-07T11:36:54Z</time>
      </trkpt>
      <trkpt lat="48.10352" lon="7.64829">
        <ele>368.8</ele>
        <time>2015-05-07T11:37:01Z</time>
      </trkpt>
      <trkpt lat="48.10357" lon="7.64835">
        <ele>371.21</ele>
        <time>2015-05-07T11:37:06Z</time>
      </trkpt>
      <trkpt lat="48.1036" lon="7.64838">
        <ele>367.84</ele>
        <time>2015-05-07T11:37:08Z</time>
      </trkpt>
      <trkpt lat="48.10365" lon="7.64841">
        <ele>366.88</ele>
        <time>2015-05-07T11:37:12Z</time>
      </trkpt>
      <trkpt lat="48.10366" lon="7.64844">
        <ele>368.32</ele>
        <time>2015-05-07T11:37:14Z</time>
      </trkpt>
      <trkpt lat="48.10375" lon="7.64853">
        <ele>370.24</ele>
        <time>2015-05-07T11:37:20Z</time>
      </trkpt>
      <trkpt lat="48.10379" lon="7.64857">
        <ele>367.36</ele>
        <time>2015-05-07T11:37:24Z</time>
      </trkpt>
      <trkpt lat="48.10386" lon="7.64863">
        <ele>368.8</ele>
        <time>2015-05-07T11:37:30Z</time>
      </trkpt>
      <trkpt lat="48.10388" lon="7.64864">
        <ele>369.28</ele>
        <time>2015-05-07T11:37:31Z</time>
      </trkpt>
      <trkpt lat="48.10391" lon="7.64868">
        <ele>366.88</ele>
        <time>2015-05-07T11:37:34Z</time>
      </trkpt>
      <trkpt lat="48.10398" lon="7.64873">
        <ele>366.88</ele>
        <time>2015-05-07T11:37:39Z</time>
      </trkpt>
      <trkpt lat="48.10412" lon="7.64888">
        <ele>364.96</ele>
        <time>2015-05-07T11:37:51Z</time>
      </trkpt>
      <trkpt lat="48.10416" lon="7.64891">
        <ele>368.8</ele>
        <time>2015-05-07T11:37:54Z</time>
      </trkpt>
      <trkpt lat="48.10424" lon="7.64898">
        <ele>365.44</ele>
        <time>2015-05-07T11:38:01Z</time>
      </trkpt>
      <trkpt lat="48.10429" lon="7.64917">
        <ele>363.04</ele>
        <time>2015-05-07T11:38:11Z</time>
      </trkpt>
      <trkpt lat="48.10424" lon="7.64924">
        <ele>366.88</ele>
        <time>2015-05-07T11:38:15Z</time>
      </trkpt>
      <trkpt lat="48.10422" lon="7.64927">
        <ele>367.36</ele>
        <time>2015-05-07T11:38:17Z</time>
      </trkpt>
      <trkpt lat="48.10417" lon="7.64932">
        <ele>364.48</ele>
        <time>2015-05-07T11:38:22Z</time>
      </trkpt>
      <trkpt lat="48.10398" lon="7.64933">
        <ele>365.44</ele>
        <time>2015-05-07T11:38:35Z</time>
      </trkpt>
      <trkpt lat="48.10397" lon="7.64933">
        <ele>360.63</ele>
        <time>2015-05-07T11:38:36Z</time>
      </trkpt>
      <trkpt lat="48.10389" lon="7.64937">
        <ele>364</ele>
        <time>2015-05-07T11:38:42Z</time>
      </trkpt>
      <trkpt lat="48.10385" lon="7.6494">
        <ele>358.71</ele>
        <time>2015-05-07T11:38:45Z</time>
      </trkpt>
      <trkpt lat="48.10383" lon="7.64941">
        <ele>358.23</ele>
        <time>2015-05-07T11:38:47Z</time>
      </trkpt>
      <trkpt lat="48.1038" lon="7.64942">
        <ele>361.59</ele>
        <time>2015-05-07T11:38:49Z</time>
      </trkpt>
      <trkpt lat="48.10378" lon="7.64943">
        <ele>361.59</ele>
        <time>2015-05-07T11:38:50Z</time>
      </trkpt>
      <trkpt lat="48.10376" lon="7.64945">
        <ele>355.34</ele>
        <time>2015-05-07T11:38:52Z</time>
      </trkpt>
      <trkpt lat="48.10375" lon="7.64946">
        <ele>356.79</ele>
        <time>2015-05-07T11:38:53Z</time>
      </trkpt>
      <trkpt lat="48.10373" lon="7.64948">
        <ele>360.15</ele>
        <time>2015-05-07T11:38:55Z</time>
      </trkpt>
      <trkpt lat="48.10371" lon="7.64952">
        <ele>356.31</ele>
        <time>2015-05-07T11:38:57Z</time>
      </trkpt>
      <trkpt lat="48.1037" lon="7.64953">
        <ele>357.27</ele>
        <time>2015-05-07T11:38:58Z</time>
      </trkpt>
      <trkpt lat="48.10361" lon="7.64963">
        <ele>353.9</ele>
        <time>2015-05-07T11:39:05Z</time>
      </trkpt>
      <trkpt lat="48.10351" lon="7.64973">
        <ele>350.06</ele>
        <time>2015-05-07T11:39:14Z</time>
      </trkpt>
      <trkpt lat="48.10348" lon="7.64975">
        <ele>354.38</ele>
        <time>2015-05-07T11:39:16Z</time>
      </trkpt>
      <trkpt lat="48.10347" lon="7.64975">
        <ele>353.9</ele>
        <time>2015-05-07T11:39:17Z</time>
      </trkpt>
      <trkpt lat="48.10346" lon="7.64978">
        <ele>350.54</ele>
        <time>2015-05-07T11:39:19Z</time>
      </trkpt>
      <trkpt lat="48.10345" lon="7.64978">
        <ele>347.17</ele>
        <time>2015-05-07T11:39:20Z</time>
      </trkpt>
      <trkpt lat="48.10343" lon="7.64979">
        <ele>350.54</ele>
        <time>2015-05-07T11:39:21Z</time>
      </trkpt>
      <trkpt lat="48.10342" lon="7.64979">
        <ele>351.98</ele>
        <time>2015-05-07T11:39:22Z</time>
      </trkpt>
      <trkpt lat="48.10339" lon="7.64982">
        <ele>348.62</ele>
        <time>2015-05-07T11:39:25Z</time>
      </trkpt>
      <trkpt lat="48.10334" lon="7.64982">
        <ele>351.5</ele>
        <time>2015-05-07T11:39:30Z</time>
      </trkpt>
      <trkpt lat="48.10332" lon="7.64978">
        <ele>345.25</ele>
        <time>2015-05-07T11:39:33Z</time>
      </trkpt>
      <trkpt lat="48.10327" lon="7.64971">
        <ele>349.1</ele>
        <time>2015-05-07T11:39:37Z</time>
      </trkpt>
      <trkpt lat="48.10325" lon="7.6497">
        <ele>349.1</ele>
        <time>2015-05-07T11:39:38Z</time>
      </trkpt>
      <trkpt lat="48.10322" lon="7.64966">
        <ele>344.77</ele>
        <time>2015-05-07T11:39:41Z</time>
      </trkpt>
      <trkpt lat="48.10317" lon="7.64956">
        <ele>347.65</ele>
        <time>2015-05-07T11:39:47Z</time>
      </trkpt>
      <trkpt lat="48.10313" lon="7.6495">
        <ele>343.81</ele>
        <time>2015-05-07T11:39:51Z</time>
      </trkpt>
      <trkpt lat="48.10311" lon="7.64948">
        <ele>343.33</ele>
        <time>2015-05-07T11:39:53Z</time>
      </trkpt>
      <trkpt lat="48.10307" lon="7.64945">
        <ele>346.69</ele>
        <time>2015-05-07T11:39:56Z</time>
      </trkpt>
      <trkpt lat="48.10306" lon="7.64945">
        <ele>346.69</ele>
        <time>2015-05-07T11:39:57Z</time>
      </trkpt>
      <trkpt lat="48.10305" lon="7.64945">
        <ele>343.33</ele>
        <time>2015-05-07T11:39:58Z</time>
      </trkpt>
      <trkpt lat="48.103" lon="7.64944">
        <ele>339.48</ele>
        <time>2015-05-07T11:40:02Z</time>
      </trkpt>
      <trkpt lat="48.10299" lon="7.64944">
        <ele>339.48</ele>
        <time>2015-05-07T11:40:03Z</time>
      </trkpt>
      <trkpt lat="48.10296" lon="7.64943">
        <ele>343.33</ele>
        <time>2015-05-07T11:40:05Z</time>
      </trkpt>
      <trkpt lat="48.10295" lon="7.64942">
        <ele>343.33</ele>
        <time>2015-05-07T11:40:06Z</time>
      </trkpt>
      <trkpt lat="48.10288" lon="7.64941">
        <ele>339.96</ele>
        <time>2015-05-07T11:40:12Z</time>
      </trkpt>
      <trkpt lat="48.10285" lon="7.64941">
        <ele>339.48</ele>
        <time>2015-05-07T11:40:14Z</time>
      </trkpt>
      <trkpt lat="48.10282" lon="7.64942">
        <ele>338.04</ele>
        <time>2015-05-07T11:40:16Z</time>
      </trkpt>
      <trkpt lat="48.10279" lon="7.64942">
        <ele>340.44</ele>
        <time>2015-05-07T11:40:18Z</time>
      </trkpt>
      <trkpt lat="48.10274" lon="7.64942">
        <ele>336.6</ele>
        <time>2015-05-07T11:40:22Z</time>
      </trkpt>
      <trkpt lat="48.10272" lon="7.64943">
        <ele>335.64</ele>
        <time>2015-05-07T11:40:24Z</time>
      </trkpt>
      <trkpt lat="48.10266" lon="7.64945">
        <ele>338.52</ele>
        <time>2015-05-07T11:40:28Z</time>
      </trkpt>
      <trkpt lat="48.1026" lon="7.64948">
        <ele>335.16</ele>
        <time>2015-05-07T11:40:33Z</time>
      </trkpt>
      <trkpt lat="48.10247" lon="7.64955">
        <ele>330.35</ele>
        <time>2015-05-07T11:40:43Z</time>
      </trkpt>
      <trkpt lat="48.10246" lon="7.64956">
        <ele>330.35</ele>
        <time>2015-05-07T11:40:44Z</time>
      </trkpt>
      <trkpt lat="48.10241" lon="7.64958">
        <ele>333.23</ele>
        <time>2015-05-07T11:40:49Z</time>
      </trkpt>
      <trkpt lat="48.10241" lon="7.64958">
        <ele>332.75</ele>
        <time>2015-05-07T11:40:50Z</time>
      </trkpt>
      <trkpt lat="48.10232" lon="7.64957">
        <ele>328.91</ele>
        <time>2015-05-07T11:40:56Z</time>
      </trkpt>
      <trkpt lat="48.1023" lon="7.64957">
        <ele>329.39</ele>
        <time>2015-05-07T11:40:57Z</time>
      </trkpt>
      <trkpt lat="48.10225" lon="7.64957">
        <ele>333.23</ele>
        <time>2015-05-07T11:41:01Z</time>
      </trkpt>
      <trkpt lat="48.10223" lon="7.64956">
        <ele>329.87</ele>
        <time>2015-05-07T11:41:03Z</time>
      </trkpt>
      <trkpt lat="48.10221" lon="7.64955">
        <ele>326.02</ele>
        <time>2015-05-07T11:41:05Z</time>
      </trkpt>
      <trkpt lat="48.10217" lon="7.64952">
        <ele>329.39</ele>
        <time>2015-05-07T11:41:08Z</time>
      </trkpt>
      <trkpt lat="48.10212" lon="7.64951">
        <ele>326.02</ele>
        <time>2015-05-07T11:41:12Z</time>
      </trkpt>
      <trkpt lat="48.102" lon="7.64943">
        <ele>327.47</ele>
        <time>2015-05-07T11:41:22Z</time>
      </trkpt>
      <trkpt lat="48.10198" lon="7.64942">
        <ele>324.58</ele>
        <time>2015-05-07T11:41:24Z</time>
      </trkpt>
      <trkpt lat="48.10195" lon="7.64939">
        <ele>321.7</ele>
        <time>2015-05-07T11:41:27Z</time>
      </trkpt>
      <trkpt lat="48.1019" lon="7.64936">
        <ele>325.54</ele>
        <time>2015-05-07T11:41:31Z</time>
      </trkpt>
      <trkpt lat="48.10189" lon="7.64936">
        <ele>324.1</ele>
        <time>2015-05-07T11:41:32Z</time>
      </trkpt>
      <trkpt lat="48.10185" lon="7.64934">
        <ele>320.26</ele>
        <time>2015-05-07T11:41:36Z</time>
      </trkpt>
      <trkpt lat="48.10168" lon="7.64925">
        <ele>317.37</ele>
        <time>2015-05-07T11:41:50Z</time>
      </trkpt>
      <trkpt lat="48.10165" lon="7.64923">
        <ele>316.41</ele>
        <time>2015-05-07T11:41:52Z</time>
      </trkpt>
      <trkpt lat="48.10162" lon="7.64922">
        <ele>319.78</ele>
        <time>2015-05-07T11:41:55Z</time>
      </trkpt>
      <trkpt lat="48.1016" lon="7.64921">
        <ele>319.3</ele>
        <time>2015-05-07T11:41:56Z</time>
      </trkpt>
      <trkpt lat="48.10149" lon="7.64914">
        <ele>314.49</ele>
        <time>2015-05-07T11:42:05Z</time>
      </trkpt>
      <trkpt lat="48.10144" lon="7.64912">
        <ele>314.97</ele>
        <time>2015-05-07T11:42:09Z</time>
      </trkpt>
      <trkpt lat="48.10141" lon="7.64911">
        <ele>316.41</ele>
        <time>2015-05-07T11:42:12Z</time>
      </trkpt>
      <trkpt lat="48.10138" lon="7.64909">
        <ele>313.05</ele>
        <time>2015-05-07T11:42:15Z</time>
      </trkpt>
      <trkpt lat="48.10122" lon="7.64907">
        <ele>314.97</ele>
        <time>2015-05-07T11:42:26Z</time>
      </trkpt>
      <trkpt lat="48.10119" lon="7.64906">
        <ele>311.12</ele>
        <time>2015-05-07T11:42:28Z</time>
      </trkpt>
      <trkpt lat="48.10115" lon="7.64903">
        <ele>308.72</ele>
        <time>2015-05-07T11:42:31Z</time>
      </trkpt>
      <trkpt lat="48.10111" lon="7.64903">
        <ele>312.09</ele>
        <time>2015-05-07T11:42:34Z</time>
      </trkpt>
      <trkpt lat="48.10099" lon="7.64903">
        <ele>307.76</ele>
        <time>2015-05-07T11:42:43Z</time>
      </trkpt>
      <trkpt lat="48.10096" lon="7.64903">
        <ele>306.8</ele>
        <time>2015-05-07T11:42:45Z</time>
      </trkpt>
      <trkpt lat="48.10078" lon="7.64904">
        <ele>308.24</ele>
        <time>2015-05-07T11:42:58Z</time>
      </trkpt>
      <trkpt lat="48.10073" lon="7.64906">
        <ele>309.68</ele>
        <time>2015-05-07T11:43:02Z</time>
      </trkpt>
      <trkpt lat="48.10069" lon="7.64907">
        <ele>304.39</ele>
        <time>2015-05-07T11:43:05Z</time>
      </trkpt>
      <trkpt lat="48.1006" lon="7.64909">
        <ele>306.32</ele>
        <time>2015-05-07T11:43:13Z</time>
      </trkpt>
      <trkpt lat="48.10054" lon="7.64912">
        <ele>306.8</ele>
        <time>2015-05-07T11:43:18Z</time>
      </trkpt>
      <trkpt lat="48.10051" lon="7.64912">
        <ele>302.95</ele>
        <time>2015-05-07T11:43:20Z</time>
      </trkpt>
      <trkpt lat="48.1005" lon="7.64913">
        <ele>302.95</ele>
        <time>2015-05-07T11:43:21Z</time>
      </trkpt>
      <trkpt lat="48.10047" lon="7.64914">
        <ele>299.59</ele>
        <time>2015-05-07T11:43:23Z</time>
      </trkpt>
      <trkpt lat="48.10046" lon="7.64915">
        <ele>301.03</ele>
        <time>2015-05-07T11:43:24Z</time>
      </trkpt>
      <trkpt lat="48.10044" lon="7.64917">
        <ele>303.91</ele>
        <time>2015-05-07T11:43:26Z</time>
      </trkpt>
      <trkpt lat="48.10038" lon="7.64924">
        <ele>301.99</ele>
        <time>2015-05-07T11:43:32Z</time>
      </trkpt>
      <trkpt lat="48.10037" lon="7.64926">
        <ele>305.36</ele>
        <time>2015-05-07T11:43:33Z</time>
      </trkpt>
      <trkpt lat="48.10036" lon="7.64927">
        <ele>304.88</ele>
        <time>2015-05-07T11:43:34Z</time>
      </trkpt>
      <trkpt lat="48.10034" lon="7.64932">
        <ele>301.03</ele>
        <time>2015-05-07T11:43:37Z</time>
      </trkpt>
      <trkpt lat="48.10032" lon="7.64935">
        <ele>297.18</ele>
        <time>2015-05-07T11:43:39Z</time>
      </trkpt>
      <trkpt lat="48.10031" lon="7.64936">
        <ele>298.15</ele>
        <time>2015-05-07T11:43:40Z</time>
      </trkpt>
      <trkpt lat="48.10029" lon="7.64941">
        <ele>301.51</ele>
        <time>2015-05-07T11:43:43Z</time>
      </trkpt>
      <trkpt lat="48.10028" lon="7.64942">
        <ele>301.99</ele>
        <time>2015-05-07T11:43:44Z</time>
      </trkpt>
      <trkpt lat="48.10025" lon="7.64947">
        <ele>299.11</ele>
        <time>2015-05-07T11:43:47Z</time>
      </trkpt>
      <trkpt lat="48.10022" lon="7.6495">
        <ele>300.55</ele>
        <time>2015-05-07T11:43:50Z</time>
      </trkpt>
      <trkpt lat="48.10018" lon="7.64955">
        <ele>296.22</ele>
        <time>2015-05-07T11:43:55Z</time>
      </trkpt>
      <trkpt lat="48.10016" lon="7.64958">
        <ele>294.78</ele>
        <time>2015-05-07T11:43:57Z</time>
      </trkpt>
      <trkpt lat="48.1001" lon="7.64965">
        <ele>296.7</ele>
        <time>2015-05-07T11:44:03Z</time>
      </trkpt>
      <trkpt lat="48.10004" lon="7.64976">
        <ele>294.78</ele>
        <time>2015-05-07T11:44:11Z</time>
      </trkpt>
      <trkpt lat="48.10004" lon="7.64995">
        <ele>295.26</ele>
        <time>2015-05-07T11:44:20Z</time>
      </trkpt>
      <trkpt lat="48.10005" lon="7.65001">
        <ele>292.86</ele>
        <time>2015-05-07T11:44:23Z</time>
      </trkpt>
      <trkpt lat="48.10008" lon="7.65008">
        <ele>292.86</ele>
        <time>2015-05-07T11:44:27Z</time>
      </trkpt>
      <trkpt lat="48.10009" lon="7.65021">
        <ele>296.7</ele>
        <time>2015-05-07T11:44:33Z</time>
      </trkpt>
      <trkpt lat="48.10008" lon="7.65023">
        <ele>296.22</ele>
        <time>2015-05-07T11:44:34Z</time>
      </trkpt>
      <trkpt lat="48.10007" lon="7.65027">
        <ele>292.86</ele>
        <time>2015-05-07T11:44:36Z</time>
      </trkpt>
      <trkpt lat="48.10006" lon="7.65031">
        <ele>290.94</ele>
        <time>2015-05-07T11:44:38Z</time>
      </trkpt>
      <trkpt lat="48.10002" lon="7.6504">
        <ele>294.78</ele>
        <time>2015-05-07T11:44:43Z</time>
      </trkpt>
      <trkpt lat="48.1" lon="7.65043">
        <ele>289.97</ele>
        <time>2015-05-07T11:44:45Z</time>
      </trkpt>
      <trkpt lat="48.09983" lon="7.65052">
        <ele>291.42</ele>
        <time>2015-05-07T11:44:59Z</time>
      </trkpt>
      <trkpt lat="48.0998" lon="7.65052">
        <ele>286.61</ele>
        <time>2015-05-07T11:45:01Z</time>
      </trkpt>
      <trkpt lat="48.09977" lon="7.65052">
        <ele>285.65</ele>
        <time>2015-05-07T11:45:03Z</time>
      </trkpt>
      <trkpt lat="48.09972" lon="7.65053">
        <ele>289.01</ele>
        <time>2015-05-07T11:45:07Z</time>
      </trkpt>
      <trkpt lat="48.09966" lon="7.65053">
        <ele>285.65</ele>
        <time>2015-05-07T11:45:11Z</time>
      </trkpt>
      <trkpt lat="48.09959" lon="7.65054">
        <ele>285.65</ele>
        <time>2015-05-07T11:45:16Z</time>
      </trkpt>
      <trkpt lat="48.09953" lon="7.65058">
        <ele>288.05</ele>
        <time>2015-05-07T11:45:21Z</time>
      </trkpt>
      <trkpt lat="48.09951" lon="7.65059">
        <ele>282.28</ele>
        <time>2015-05-07T11:45:23Z</time>
      </trkpt>
      <trkpt lat="48.0995" lon="7.6506">
        <ele>282.77</ele>
        <time>2015-05-07T11:45:24Z</time>
      </trkpt>
      <trkpt lat="48.09943" lon="7.6506">
        <ele>286.61</ele>
        <time>2015-05-07T11:45:28Z</time>
      </trkpt>
      <trkpt lat="48.0994" lon="7.6506">
        <ele>281.8</ele>
        <time>2015-05-07T11:45:30Z</time>
      </trkpt>
      <trkpt lat="48.09939" lon="7.65061">
        <ele>281.8</ele>
        <time>2015-05-07T11:45:31Z</time>
      </trkpt>
      <trkpt lat="48.09933" lon="7.65064">
        <ele>284.69</ele>
        <time>2015-05-07T11:45:36Z</time>
      </trkpt>
      <trkpt lat="48.0992" lon="7.65064">
        <ele>281.32</ele>
        <time>2015-05-07T11:45:45Z</time>
      </trkpt>
      <trkpt lat="48.09919" lon="7.65065">
        <ele>281.8</ele>
        <time>2015-05-07T11:45:46Z</time>
      </trkpt>
      <trkpt lat="48.09914" lon="7.65066">
        <ele>284.69</ele>
        <time>2015-05-07T11:45:50Z</time>
      </trkpt>
      <trkpt lat="48.09909" lon="7.65069">
        <ele>281.32</ele>
        <time>2015-05-07T11:45:54Z</time>
      </trkpt>
      <trkpt lat="48.09907" lon="7.65069">
        <ele>281.32</ele>
        <time>2015-05-07T11:45:55Z</time>
      </trkpt>
      <trkpt lat="48.09904" lon="7.65068">
        <ele>282.77</ele>
        <time>2015-05-07T11:45:57Z</time>
      </trkpt>
      <trkpt lat="48.09895" lon="7.65063">
        <ele>277.48</ele>
        <time>2015-05-07T11:46:04Z</time>
      </trkpt>
      <trkpt lat="48.09893" lon="7.65061">
        <ele>280.84</ele>
        <time>2015-05-07T11:46:05Z</time>
      </trkpt>
      <trkpt lat="48.0989" lon="7.65057">
        <ele>283.25</ele>
        <time>2015-05-07T11:46:08Z</time>
      </trkpt>
      <trkpt lat="48.09886" lon="7.65049">
        <ele>284.21</ele>
        <time>2015-05-07T11:46:13Z</time>
      </trkpt>
      <trkpt lat="48.09881" lon="7.65042">
        <ele>278.44</ele>
        <time>2015-05-07T11:46:18Z</time>
      </trkpt>
      <trkpt lat="48.09876" lon="7.65036">
        <ele>281.32</ele>
        <time>2015-05-07T11:46:23Z</time>
      </trkpt>
      <trkpt lat="48.09869" lon="7.65027">
        <ele>277.96</ele>
        <time>2015-05-07T11:46:31Z</time>
      </trkpt>
      <trkpt lat="48.09858" lon="7.65021">
        <ele>275.56</ele>
        <time>2015-05-07T11:46:39Z</time>
      </trkpt>
      <trkpt lat="48.09848" lon="7.6502">
        <ele>274.11</ele>
        <time>2015-05-07T11:46:48Z</time>
      </trkpt>
      <trkpt lat="48.0984" lon="7.6502">
        <ele>272.67</ele>
        <time>2015-05-07T11:46:54Z</time>
      </trkpt>
      <trkpt lat="48.09825" lon="7.65024">
        <ele>269.79</ele>
        <time>2015-05-07T11:47:04Z</time>
      </trkpt>
      <trkpt lat="48.09824" lon="7.65025">
        <ele>269.31</ele>
        <time>2015-05-07T11:47:05Z</time>
      </trkpt>
      <trkpt lat="48.09801" lon="7.65032">
        <ele>269.31</ele>
        <time>2015-05-07T11:47:23Z</time>
      </trkpt>
      <trkpt lat="48.09771" lon="7.65044">
        <ele>267.86</ele>
        <time>2015-05-07T11:47:47Z</time>
      </trkpt>
      <trkpt lat="48.09757" lon="7.6505">
        <ele>266.9</ele>
        <time>2015-05-07T11:47:58Z</time>
      </trkpt>
      <trkpt lat="48.09754" lon="7.65053">
        <ele>265.94</ele>
        <time>2015-05-07T11:48:01Z</time>
      </trkpt>
      <trkpt lat="48.09751" lon="7.65055">
        <ele>266.9</ele>
        <time>2015-05-07T11:48:04Z</time>
      </trkpt>
      <trkpt lat="48.09749" lon="7.65057">
        <ele>265.94</ele>
        <time>2015-05-07T11:48:06Z</time>
      </trkpt>
      <trkpt lat="48.09731" lon="7.65063">
        <ele>266.9</ele>
        <time>2015-05-07T11:48:22Z</time>
      </trkpt>
      <trkpt lat="48.0973" lon="7.65063">
        <ele>264.98</ele>
        <time>2015-05-07T11:48:24Z</time>
      </trkpt>
      <trkpt lat="48.09729" lon="7.65061">
        <ele>264.98</ele>
        <time>2015-05-07T11:49:04Z</time>
      </trkpt>
      <trkpt lat="48.09729" lon="7.65062">
        <ele>264.5</ele>
        <time>2015-05-07T11:49:21Z</time>
      </trkpt>
      <trkpt lat="48.09737" lon="7.65092">
        <ele>263.54</ele>
        <time>2015-05-07T11:49:37Z</time>
      </trkpt>
      <trkpt lat="48.0974" lon="7.65101">
        <ele>267.38</ele>
        <time>2015-05-07T11:49:42Z</time>
      </trkpt>
      <trkpt lat="48.09741" lon="7.65102">
        <ele>267.38</ele>
        <time>2015-05-07T11:49:43Z</time>
      </trkpt>
      <trkpt lat="48.09746" lon="7.65114">
        <ele>267.86</ele>
        <time>2015-05-07T11:49:51Z</time>
      </trkpt>
      <trkpt lat="48.09752" lon="7.65129">
        <ele>265.94</ele>
        <time>2015-05-07T11:50:00Z</time>
      </trkpt>
      <trkpt lat="48.09757" lon="7.65139">
        <ele>264.5</ele>
        <time>2015-05-07T11:50:07Z</time>
      </trkpt>
      <trkpt lat="48.09759" lon="7.65145">
        <ele>266.42</ele>
        <time>2015-05-07T11:50:10Z</time>
      </trkpt>
      <trkpt lat="48.0976" lon="7.65148">
        <ele>267.38</ele>
        <time>2015-05-07T11:50:12Z</time>
      </trkpt>
      <trkpt lat="48.09772" lon="7.65179">
        <ele>269.79</ele>
        <time>2015-05-07T11:50:31Z</time>
      </trkpt>
      <trkpt lat="48.09772" lon="7.65181">
        <ele>269.79</ele>
        <time>2015-05-07T11:50:32Z</time>
      </trkpt>
      <trkpt lat="48.09774" lon="7.65186">
        <ele>266.9</ele>
        <time>2015-05-07T11:50:35Z</time>
      </trkpt>
      <trkpt lat="48.0977" lon="7.65199">
        <ele>266.42</ele>
        <time>2015-05-07T11:50:43Z</time>
      </trkpt>
      <trkpt lat="48.09768" lon="7.65201">
        <ele>268.35</ele>
        <time>2015-05-07T11:50:45Z</time>
      </trkpt>
      <trkpt lat="48.09763" lon="7.65209">
        <ele>271.71</ele>
        <time>2015-05-07T11:50:51Z</time>
      </trkpt>
      <trkpt lat="48.09756" lon="7.65219">
        <ele>267.86</ele>
        <time>2015-05-07T11:50:59Z</time>
      </trkpt>
      <trkpt lat="48.09755" lon="7.6522">
        <ele>268.83</ele>
        <time>2015-05-07T11:51:00Z</time>
      </trkpt>
      <trkpt lat="48.09753" lon="7.65223">
        <ele>270.27</ele>
        <time>2015-05-07T11:51:02Z</time>
      </trkpt>
      <trkpt lat="48.09751" lon="7.65227">
        <ele>273.15</ele>
        <time>2015-05-07T11:51:05Z</time>
      </trkpt>
      <trkpt lat="48.0975" lon="7.65229">
        <ele>269.79</ele>
        <time>2015-05-07T11:51:07Z</time>
      </trkpt>
      <trkpt lat="48.09747" lon="7.65233">
        <ele>273.15</ele>
        <time>2015-05-07T11:51:10Z</time>
      </trkpt>
      <trkpt lat="48.09746" lon="7.65234">
        <ele>272.67</ele>
        <time>2015-05-07T11:51:11Z</time>
      </trkpt>
      <trkpt lat="48.09744" lon="7.65238">
        <ele>275.07</ele>
        <time>2015-05-07T11:51:14Z</time>
      </trkpt>
      <trkpt lat="48.09742" lon="7.65241">
        <ele>273.15</ele>
        <time>2015-05-07T11:51:16Z</time>
      </trkpt>
      <trkpt lat="48.09738" lon="7.65248">
        <ele>270.75</ele>
        <time>2015-05-07T11:51:21Z</time>
      </trkpt>
      <trkpt lat="48.09737" lon="7.6525">
        <ele>274.11</ele>
        <time>2015-05-07T11:51:23Z</time>
      </trkpt>
      <trkpt lat="48.09736" lon="7.65251">
        <ele>274.11</ele>
        <time>2015-05-07T11:51:24Z</time>
      </trkpt>
      <trkpt lat="48.09731" lon="7.65257">
        <ele>271.71</ele>
        <time>2015-05-07T11:51:29Z</time>
      </trkpt>
      <trkpt lat="48.0973" lon="7.6526">
        <ele>275.07</ele>
        <time>2015-05-07T11:51:31Z</time>
      </trkpt>
      <trkpt lat="48.09729" lon="7.65261">
        <ele>275.07</ele>
        <time>2015-05-07T11:51:32Z</time>
      </trkpt>
      <trkpt lat="48.09727" lon="7.65263">
        <ele>276.52</ele>
        <time>2015-05-07T11:51:34Z</time>
      </trkpt>
      <trkpt lat="48.09718" lon="7.65276">
        <ele>276.52</ele>
        <time>2015-05-07T11:51:44Z</time>
      </trkpt>
      <trkpt lat="48.0972" lon="7.65295">
        <ele>277.96</ele>
        <time>2015-05-07T11:51:55Z</time>
      </trkpt>
      <trkpt lat="48.09721" lon="7.653">
        <ele>277.48</ele>
        <time>2015-05-07T11:51:59Z</time>
      </trkpt>
      <trkpt lat="48.09726" lon="7.65311">
        <ele>281.32</ele>
        <time>2015-05-07T11:52:19Z</time>
      </trkpt>
      <trkpt lat="48.09728" lon="7.65321">
        <ele>277.48</ele>
        <time>2015-05-07T11:52:26Z</time>
      </trkpt>
      <trkpt lat="48.09729" lon="7.65323">
        <ele>278.92</ele>
        <time>2015-05-07T11:52:27Z</time>
      </trkpt>
      <trkpt lat="48.09732" lon="7.65332">
        <ele>283.25</ele>
        <time>2015-05-07T11:52:34Z</time>
      </trkpt>
      <trkpt lat="48.09733" lon="7.65333">
        <ele>281.32</ele>
        <time>2015-05-07T11:52:39Z</time>
      </trkpt>
      <trkpt lat="48.09736" lon="7.65341">
        <ele>282.77</ele>
        <time>2015-05-07T11:52:46Z</time>
      </trkpt>
      <trkpt lat="48.09741" lon="7.65353">
        <ele>280.84</ele>
        <time>2015-05-07T11:52:54Z</time>
      </trkpt>
      <trkpt lat="48.09742" lon="7.65355">
        <ele>282.28</ele>
        <time>2015-05-07T11:52:55Z</time>
      </trkpt>
      <trkpt lat="48.09745" lon="7.65365">
        <ele>281.8</ele>
        <time>2015-05-07T11:53:01Z</time>
      </trkpt>
      <trkpt lat="48.09746" lon="7.6537">
        <ele>285.17</ele>
        <time>2015-05-07T11:53:04Z</time>
      </trkpt>
      <trkpt lat="48.09749" lon="7.65377">
        <ele>281.8</ele>
        <time>2015-05-07T11:53:08Z</time>
      </trkpt>
      <trkpt lat="48.0975" lon="7.6538">
        <ele>285.17</ele>
        <time>2015-05-07T11:53:10Z</time>
      </trkpt>
      <trkpt lat="48.09754" lon="7.65385">
        <ele>285.17</ele>
        <time>2015-05-07T11:53:14Z</time>
      </trkpt>
      <trkpt lat="48.09773" lon="7.65391">
        <ele>284.69</ele>
        <time>2015-05-07T11:53:30Z</time>
      </trkpt>
      <trkpt lat="48.0979" lon="7.65398">
        <ele>284.21</ele>
        <time>2015-05-07T11:53:44Z</time>
      </trkpt>
      <trkpt lat="48.09801" lon="7.65401">
        <ele>282.77</ele>
        <time>2015-05-07T11:53:52Z</time>
      </trkpt>
      <trkpt lat="48.09806" lon="7.65401">
        <ele>284.21</ele>
        <time>2015-05-07T11:53:56Z</time>
      </trkpt>
      <trkpt lat="48.09811" lon="7.65403">
        <ele>280.36</ele>
        <time>2015-05-07T11:54:00Z</time>
      </trkpt>
      <trkpt lat="48.09812" lon="7.65403">
        <ele>280.36</ele>
        <time>2015-05-07T11:54:01Z</time>
      </trkpt>
      <trkpt lat="48.09819" lon="7.65402">
        <ele>283.25</ele>
        <time>2015-05-07T11:54:06Z</time>
      </trkpt>
      <trkpt lat="48.09833" lon="7.65405">
        <ele>279.88</ele>
        <time>2015-05-07T11:54:17Z</time>
      </trkpt>
      <trkpt lat="48.09837" lon="7.65404">
        <ele>277.96</ele>
        <time>2015-05-07T11:54:20Z</time>
      </trkpt>
      <trkpt lat="48.09842" lon="7.65406">
        <ele>280.84</ele>
        <time>2015-05-07T11:54:23Z</time>
      </trkpt>
      <trkpt lat="48.09856" lon="7.65414">
        <ele>281.8</ele>
        <time>2015-05-07T11:54:34Z</time>
      </trkpt>
      <trkpt lat="48.09875" lon="7.65426">
        <ele>278.92</ele>
        <time>2015-05-07T11:54:49Z</time>
      </trkpt>
      <trkpt lat="48.09879" lon="7.65426">
        <ele>281.8</ele>
        <time>2015-05-07T11:54:51Z</time>
      </trkpt>
      <trkpt lat="48.09883" lon="7.6543">
        <ele>276.52</ele>
        <time>2015-05-07T11:54:55Z</time>
      </trkpt>
      <trkpt lat="48.09884" lon="7.65431">
        <ele>277</ele>
        <time>2015-05-07T11:54:56Z</time>
      </trkpt>
      <trkpt lat="48.09889" lon="7.65435">
        <ele>280.36</ele>
        <time>2015-05-07T11:55:00Z</time>
      </trkpt>
      <trkpt lat="48.0989" lon="7.65437">
        <ele>280.84</ele>
        <time>2015-05-07T11:55:01Z</time>
      </trkpt>
      <trkpt lat="48.09899" lon="7.65444">
        <ele>281.32</ele>
        <time>2015-05-07T11:55:08Z</time>
      </trkpt>
      <trkpt lat="48.09903" lon="7.65447">
        <ele>276.04</ele>
        <time>2015-05-07T11:55:12Z</time>
      </trkpt>
      <trkpt lat="48.09908" lon="7.65452">
        <ele>278.44</ele>
        <time>2015-05-07T11:55:17Z</time>
      </trkpt>
      <trkpt lat="48.09918" lon="7.65456">
        <ele>278.92</ele>
        <time>2015-05-07T11:55:23Z</time>
      </trkpt>
      <trkpt lat="48.09925" lon="7.65461">
        <ele>278.44</ele>
        <time>2015-05-07T11:55:29Z</time>
      </trkpt>
      <trkpt lat="48.09932" lon="7.65465">
        <ele>279.4</ele>
        <time>2015-05-07T11:55:34Z</time>
      </trkpt>
      <trkpt lat="48.09938" lon="7.65467">
        <ele>275.07</ele>
        <time>2015-05-07T11:55:39Z</time>
      </trkpt>
      <trkpt lat="48.09939" lon="7.65468">
        <ele>275.07</ele>
        <time>2015-05-07T11:55:40Z</time>
      </trkpt>
      <trkpt lat="48.09946" lon="7.65472">
        <ele>278.44</ele>
        <time>2015-05-07T11:55:45Z</time>
      </trkpt>
      <trkpt lat="48.09948" lon="7.65474">
        <ele>279.4</ele>
        <time>2015-05-07T11:55:47Z</time>
      </trkpt>
      <trkpt lat="48.09962" lon="7.65481">
        <ele>275.56</ele>
        <time>2015-05-07T11:55:58Z</time>
      </trkpt>
      <trkpt lat="48.09966" lon="7.65484">
        <ele>278.92</ele>
        <time>2015-05-07T11:56:01Z</time>
      </trkpt>
      <trkpt lat="48.09973" lon="7.65487">
        <ele>274.59</ele>
        <time>2015-05-07T11:56:07Z</time>
      </trkpt>
      <trkpt lat="48.09978" lon="7.65489">
        <ele>272.67</ele>
        <time>2015-05-07T11:56:11Z</time>
      </trkpt>
      <trkpt lat="48.0998" lon="7.65491">
        <ele>275.56</ele>
        <time>2015-05-07T11:56:13Z</time>
      </trkpt>
      <trkpt lat="48.10001" lon="7.65501">
        <ele>277.48</ele>
        <time>2015-05-07T11:56:28Z</time>
      </trkpt>
      <trkpt lat="48.10018" lon="7.65517">
        <ele>274.11</ele>
        <time>2015-05-07T11:56:45Z</time>
      </trkpt>
      <trkpt lat="48.10024" lon="7.6553">
        <ele>276.04</ele>
        <time>2015-05-07T11:56:52Z</time>
      </trkpt>
      <trkpt lat="48.10032" lon="7.65548">
        <ele>277.96</ele>
        <time>2015-05-07T11:57:03Z</time>
      </trkpt>
      <trkpt lat="48.1004" lon="7.65566">
        <ele>273.15</ele>
        <time>2015-05-07T11:57:13Z</time>
      </trkpt>
      <trkpt lat="48.10045" lon="7.65577">
        <ele>276.52</ele>
        <time>2015-05-07T11:57:19Z</time>
      </trkpt>
      <trkpt lat="48.10057" lon="7.65594">
        <ele>277</ele>
        <time>2015-05-07T11:57:32Z</time>
      </trkpt>
      <trkpt lat="48.10071" lon="7.65608">
        <ele>275.56</ele>
        <time>2015-05-07T11:57:44Z</time>
      </trkpt>
      <trkpt lat="48.10083" lon="7.65617">
        <ele>272.67</ele>
        <time>2015-05-07T11:57:54Z</time>
      </trkpt>
      <trkpt lat="48.10085" lon="7.65619">
        <ele>276.52</ele>
        <time>2015-05-07T11:57:56Z</time>
      </trkpt>
      <trkpt lat="48.10087" lon="7.65619">
        <ele>275.56</ele>
        <time>2015-05-07T11:57:57Z</time>
      </trkpt>
      <trkpt lat="48.10092" lon="7.65624">
        <ele>272.19</ele>
        <time>2015-05-07T11:58:02Z</time>
      </trkpt>
      <trkpt lat="48.10093" lon="7.65624">
        <ele>273.15</ele>
        <time>2015-05-07T11:58:03Z</time>
      </trkpt>
      <trkpt lat="48.10104" lon="7.6563">
        <ele>277</ele>
        <time>2015-05-07T11:58:11Z</time>
      </trkpt>
      <trkpt lat="48.1011" lon="7.65634">
        <ele>276.52</ele>
        <time>2015-05-07T11:58:16Z</time>
      </trkpt>
      <trkpt lat="48.10113" lon="7.65635">
        <ele>275.56</ele>
        <time>2015-05-07T11:58:18Z</time>
      </trkpt>
      <trkpt lat="48.1012" lon="7.65646">
        <ele>275.07</ele>
        <time>2015-05-07T11:58:33Z</time>
      </trkpt>
      <trkpt lat="48.10117" lon="7.65647">
        <ele>271.71</ele>
        <time>2015-05-07T11:58:36Z</time>
      </trkpt>
      <trkpt lat="48.10116" lon="7.65647">
        <ele>272.19</ele>
        <time>2015-05-07T11:58:37Z</time>
      </trkpt>
      <trkpt lat="48.10115" lon="7.65647">
        <ele>272.19</ele>
        <time>2015-05-07T11:58:38Z</time>
      </trkpt>
      <trkpt lat="48.10112" lon="7.65646">
        <ele>274.59</ele>
        <time>2015-05-07T11:58:40Z</time>
      </trkpt>
      <trkpt lat="48.10102" lon="7.65644">
        <ele>272.19</ele>
        <time>2015-05-07T11:58:57Z</time>
      </trkpt>
      <trkpt lat="48.10098" lon="7.65644">
        <ele>268.83</ele>
        <time>2015-05-07T11:59:00Z</time>
      </trkpt>
      <trkpt lat="48.10092" lon="7.65644">
        <ele>271.71</ele>
        <time>2015-05-07T11:59:04Z</time>
      </trkpt>
      <trkpt lat="48.1008" lon="7.65645">
        <ele>273.15</ele>
        <time>2015-05-07T11:59:11Z</time>
      </trkpt>
      <trkpt lat="48.10077" lon="7.65645">
        <ele>269.31</ele>
        <time>2015-05-07T11:59:14Z</time>
      </trkpt>
      <trkpt lat="48.10071" lon="7.65642">
        <ele>266.9</ele>
        <time>2015-05-07T11:59:18Z</time>
      </trkpt>
      <trkpt lat="48.10066" lon="7.65642">
        <ele>269.31</ele>
        <time>2015-05-07T11:59:21Z</time>
      </trkpt>
      <trkpt lat="48.10055" lon="7.65641">
        <ele>266.42</ele>
        <time>2015-05-07T11:59:30Z</time>
      </trkpt>
      <trkpt lat="48.10046" lon="7.65638">
        <ele>267.86</ele>
        <time>2015-05-07T11:59:37Z</time>
      </trkpt>
      <trkpt lat="48.1004" lon="7.65636">
        <ele>264.02</ele>
        <time>2015-05-07T11:59:42Z</time>
      </trkpt>
      <trkpt lat="48.10039" lon="7.65636">
        <ele>265.46</ele>
        <time>2015-05-07T11:59:43Z</time>
      </trkpt>
      <trkpt lat="48.10035" lon="7.65634">
        <ele>266.9</ele>
        <time>2015-05-07T11:59:48Z</time>
      </trkpt>
      <trkpt lat="48.10019" lon="7.65622">
        <ele>263.54</ele>
        <time>2015-05-07T12:00:03Z</time>
      </trkpt>
      <trkpt lat="48.10019" lon="7.65616">
        <ele>261.62</ele>
        <time>2015-05-07T12:00:21Z</time>
      </trkpt>
      <trkpt lat="48.10018" lon="7.65616">
        <ele>264.98</ele>
        <time>2015-05-07T12:00:40Z</time>
      </trkpt>
      <trkpt lat="48.10017" lon="7.65617">
        <ele>263.06</ele>
        <time>2015-05-07T12:00:41Z</time>
      </trkpt>
      <trkpt lat="48.10013" lon="7.65622">
        <ele>265.46</ele>
        <time>2015-05-07T12:00:45Z</time>
      </trkpt>
      <trkpt lat="48.1001" lon="7.65627">
        <ele>262.1</ele>
        <time>2015-05-07T12:00:48Z</time>
      </trkpt>
      <trkpt lat="48.10006" lon="7.65639">
        <ele>265.46</ele>
        <time>2015-05-07T12:00:55Z</time>
      </trkpt>
      <trkpt lat="48.10003" lon="7.65651">
        <ele>263.06</ele>
        <time>2015-05-07T12:01:01Z</time>
      </trkpt>
      <trkpt lat="48.09999" lon="7.6567">
        <ele>264.5</ele>
        <time>2015-05-07T12:01:21Z</time>
      </trkpt>
      <trkpt lat="48.09999" lon="7.6567">
        <ele>264.5</ele>
        <time>2015-05-07T12:01:54Z</time>
      </trkpt>
      <trkpt lat="48.09999" lon="7.6567">
        <ele>260.65</ele>
        <time>2015-05-07T12:02:26Z</time>
      </trkpt>
      <trkpt lat="48.09998" lon="7.6567">
        <ele>263.54</ele>
        <time>2015-05-07T12:02:28Z</time>
      </trkpt>
      <trkpt lat="48.09997" lon="7.6567">
        <ele>264.5</ele>
        <time>2015-05-07T12:02:29Z</time>
      </trkpt>
      <trkpt lat="48.09995" lon="7.6567">
        <ele>265.46</ele>
        <time>2015-05-07T12:02:31Z</time>
      </trkpt>
      <trkpt lat="48.09993" lon="7.6567">
        <ele>265.46</ele>
        <time>2015-05-07T12:02:35Z</time>
      </trkpt>
      <trkpt lat="48.09984" lon="7.65665">
        <ele>264.5</ele>
        <time>2015-05-07T12:02:43Z</time>
      </trkpt>
      <trkpt lat="48.09983" lon="7.65664">
        <ele>266.9</ele>
        <time>2015-05-07T12:02:45Z</time>
      </trkpt>
      <trkpt lat="48.09982" lon="7.65663">
        <ele>266.9</ele>
        <time>2015-05-07T12:02:46Z</time>
      </trkpt>
      <trkpt lat="48.09978" lon="7.65662">
        <ele>266.42</ele>
        <time>2015-05-07T12:02:49Z</time>
      </trkpt>
      <trkpt lat="48.09975" lon="7.65661">
        <ele>262.58</ele>
        <time>2015-05-07T12:02:51Z</time>
      </trkpt>
      <trkpt lat="48.09974" lon="7.6566">
        <ele>265.94</ele>
        <time>2015-05-07T12:02:52Z</time>
      </trkpt>
      <trkpt lat="48.0997" lon="7.65658">
        <ele>266.42</ele>
        <time>2015-05-07T12:02:57Z</time>
      </trkpt>
      <trkpt lat="48.09969" lon="7.65658">
        <ele>269.31</ele>
        <time>2015-05-07T12:02:58Z</time>
      </trkpt>
      <trkpt lat="48.09964" lon="7.65658">
        <ele>268.83</ele>
        <time>2015-05-07T12:03:02Z</time>
      </trkpt>
      <trkpt lat="48.09961" lon="7.65661">
        <ele>270.27</ele>
        <time>2015-05-07T12:03:05Z</time>
      </trkpt>
      <trkpt lat="48.0996" lon="7.65662">
        <ele>268.83</ele>
        <time>2015-05-07T12:03:06Z</time>
      </trkpt>
      <trkpt lat="48.09959" lon="7.65663">
        <ele>266.42</ele>
        <time>2015-05-07T12:03:07Z</time>
      </trkpt>
      <trkpt lat="48.09954" lon="7.65669">
        <ele>266.9</ele>
        <time>2015-05-07T12:03:12Z</time>
      </trkpt>
      <trkpt lat="48.09952" lon="7.6567">
        <ele>269.79</ele>
        <time>2015-05-07T12:03:14Z</time>
      </trkpt>
      <trkpt lat="48.09951" lon="7.65671">
        <ele>268.83</ele>
        <time>2015-05-07T12:03:15Z</time>
      </trkpt>
      <trkpt lat="48.09949" lon="7.65673">
        <ele>267.38</ele>
        <time>2015-05-07T12:03:17Z</time>
      </trkpt>
      <trkpt lat="48.09947" lon="7.65674">
        <ele>269.31</ele>
        <time>2015-05-07T12:03:19Z</time>
      </trkpt>
      <trkpt lat="48.0993" lon="7.65664">
        <ele>270.75</ele>
        <time>2015-05-07T12:03:35Z</time>
      </trkpt>
      <trkpt lat="48.09915" lon="7.65646">
        <ele>272.67</ele>
        <time>2015-05-07T12:03:50Z</time>
      </trkpt>
      <trkpt lat="48.09911" lon="7.65643">
        <ele>269.31</ele>
        <time>2015-05-07T12:03:53Z</time>
      </trkpt>
      <trkpt lat="48.09909" lon="7.65643">
        <ele>271.23</ele>
        <time>2015-05-07T12:03:55Z</time>
      </trkpt>
      <trkpt lat="48.09907" lon="7.65643">
        <ele>271.71</ele>
        <time>2015-05-07T12:04:16Z</time>
      </trkpt>
      <trkpt lat="48.09907" lon="7.65644">
        <ele>271.71</ele>
        <time>2015-05-07T12:05:09Z</time>
      </trkpt>
      <trkpt lat="48.09905" lon="7.65645">
        <ele>271.71</ele>
        <time>2015-05-07T12:05:36Z</time>
      </trkpt>
      <trkpt lat="48.09901" lon="7.65647">
        <ele>271.71</ele>
        <time>2015-05-07T12:05:40Z</time>
      </trkpt>
      <trkpt lat="48.09899" lon="7.65649">
        <ele>271.71</ele>
        <time>2015-05-07T12:05:43Z</time>
      </trkpt>
      <trkpt lat="48.09896" lon="7.6565">
        <ele>271.71</ele>
        <time>2015-05-07T12:05:48Z</time>
      </trkpt>
      <trkpt lat="48.09877" lon="7.6564">
        <ele>273.63</ele>
        <time>2015-05-07T12:06:05Z</time>
      </trkpt>
      <trkpt lat="48.09859" lon="7.65642">
        <ele>274.59</ele>
        <time>2015-05-07T12:06:22Z</time>
      </trkpt>
      <trkpt lat="48.09856" lon="7.65645">
        <ele>275.07</ele>
        <time>2015-05-07T12:06:26Z</time>
      </trkpt>
      <trkpt lat="48.0985" lon="7.65649">
        <ele>274.11</ele>
        <time>2015-05-07T12:06:32Z</time>
      </trkpt>
      <trkpt lat="48.09849" lon="7.65651">
        <ele>277.48</ele>
        <time>2015-05-07T12:06:34Z</time>
      </trkpt>
      <trkpt lat="48.09848" lon="7.65652">
        <ele>273.15</ele>
        <time>2015-05-07T12:06:35Z</time>
      </trkpt>
      <trkpt lat="48.09848" lon="7.65653">
        <ele>274.11</ele>
        <time>2015-05-07T12:06:36Z</time>
      </trkpt>
      <trkpt lat="48.09847" lon="7.65655">
        <ele>276.04</ele>
        <time>2015-05-07T12:06:38Z</time>
      </trkpt>
      <trkpt lat="48.09843" lon="7.65661">
        <ele>277</ele>
        <time>2015-05-07T12:06:42Z</time>
      </trkpt>
      <trkpt lat="48.09842" lon="7.65663">
        <ele>275.56</ele>
        <time>2015-05-07T12:06:43Z</time>
      </trkpt>
      <trkpt lat="48.09842" lon="7.65664">
        <ele>277</ele>
        <time>2015-05-07T12:06:44Z</time>
      </trkpt>
      <trkpt lat="48.09839" lon="7.65667">
        <ele>277.96</ele>
        <time>2015-05-07T12:06:48Z</time>
      </trkpt>
      <trkpt lat="48.09835" lon="7.65668">
        <ele>275.56</ele>
        <time>2015-05-07T12:06:51Z</time>
      </trkpt>
      <trkpt lat="48.09834" lon="7.65668">
        <ele>276.52</ele>
        <time>2015-05-07T12:06:52Z</time>
      </trkpt>
      <trkpt lat="48.09833" lon="7.65669">
        <ele>276.04</ele>
        <time>2015-05-07T12:06:53Z</time>
      </trkpt>
      <trkpt lat="48.09819" lon="7.65672">
        <ele>278.44</ele>
        <time>2015-05-07T12:07:03Z</time>
      </trkpt>
      <trkpt lat="48.09814" lon="7.65673">
        <ele>276.04</ele>
        <time>2015-05-07T12:07:07Z</time>
      </trkpt>
      <trkpt lat="48.09807" lon="7.65674">
        <ele>274.59</ele>
        <time>2015-05-07T12:07:13Z</time>
      </trkpt>
      <trkpt lat="48.09805" lon="7.65676">
        <ele>276.04</ele>
        <time>2015-05-07T12:07:15Z</time>
      </trkpt>
      <trkpt lat="48.09803" lon="7.65678">
        <ele>281.32</ele>
        <time>2015-05-07T12:07:17Z</time>
      </trkpt>
      <trkpt lat="48.09802" lon="7.65679">
        <ele>280.36</ele>
        <time>2015-05-07T12:07:18Z</time>
      </trkpt>
      <trkpt lat="48.09799" lon="7.6568">
        <ele>276.52</ele>
        <time>2015-05-07T12:07:20Z</time>
      </trkpt>
      <trkpt lat="48.09797" lon="7.65682">
        <ele>275.07</ele>
        <time>2015-05-07T12:07:22Z</time>
      </trkpt>
      <trkpt lat="48.09795" lon="7.65684">
        <ele>280.84</ele>
        <time>2015-05-07T12:07:24Z</time>
      </trkpt>
      <trkpt lat="48.09792" lon="7.65689">
        <ele>277.96</ele>
        <time>2015-05-07T12:07:27Z</time>
      </trkpt>
      <trkpt lat="48.0979" lon="7.65691">
        <ele>277.48</ele>
        <time>2015-05-07T12:07:29Z</time>
      </trkpt>
      <trkpt lat="48.09786" lon="7.65696">
        <ele>281.8</ele>
        <time>2015-05-07T12:07:33Z</time>
      </trkpt>
      <trkpt lat="48.09785" lon="7.65697">
        <ele>277.48</ele>
        <time>2015-05-07T12:07:34Z</time>
      </trkpt>
      <trkpt lat="48.09784" lon="7.65699">
        <ele>277</ele>
        <time>2015-05-07T12:07:35Z</time>
      </trkpt>
      <trkpt lat="48.09774" lon="7.65722">
        <ele>279.88</ele>
        <time>2015-05-07T12:07:50Z</time>
      </trkpt>
      <trkpt lat="48.09773" lon="7.65725">
        <ele>277.48</ele>
        <time>2015-05-07T12:07:52Z</time>
      </trkpt>
      <trkpt lat="48.09772" lon="7.65734">
        <ele>280.84</ele>
        <time>2015-05-07T12:07:58Z</time>
      </trkpt>
      <trkpt lat="48.09772" lon="7.65736">
        <ele>280.36</ele>
        <time>2015-05-07T12:07:59Z</time>
      </trkpt>
      <trkpt lat="48.09772" lon="7.65744">
        <ele>283.73</ele>
        <time>2015-05-07T12:08:04Z</time>
      </trkpt>
      <trkpt lat="48.09772" lon="7.65746">
        <ele>278.44</ele>
        <time>2015-05-07T12:08:05Z</time>
      </trkpt>
      <trkpt lat="48.09771" lon="7.65749">
        <ele>282.28</ele>
        <time>2015-05-07T12:08:07Z</time>
      </trkpt>
      <trkpt lat="48.09771" lon="7.65751">
        <ele>281.8</ele>
        <time>2015-05-07T12:08:08Z</time>
      </trkpt>
      <trkpt lat="48.09771" lon="7.65753">
        <ele>279.88</ele>
        <time>2015-05-07T12:08:10Z</time>
      </trkpt>
      <trkpt lat="48.0977" lon="7.65755">
        <ele>280.36</ele>
        <time>2015-05-07T12:08:32Z</time>
      </trkpt>
      <trkpt lat="48.09773" lon="7.65763">
        <ele>278.92</ele>
        <time>2015-05-07T12:08:37Z</time>
      </trkpt>
      <trkpt lat="48.09774" lon="7.6577">
        <ele>278.92</ele>
        <time>2015-05-07T12:08:41Z</time>
      </trkpt>
      <trkpt lat="48.09775" lon="7.65779">
        <ele>282.28</ele>
        <time>2015-05-07T12:08:46Z</time>
      </trkpt>
      <trkpt lat="48.09776" lon="7.65785">
        <ele>277.48</ele>
        <time>2015-05-07T12:08:49Z</time>
      </trkpt>
      <trkpt lat="48.09777" lon="7.65787">
        <ele>278.44</ele>
        <time>2015-05-07T12:08:50Z</time>
      </trkpt>
      <trkpt lat="48.09777" lon="7.65789">
        <ele>281.32</ele>
        <time>2015-05-07T12:08:51Z</time>
      </trkpt>
      <trkpt lat="48.09777" lon="7.65794">
        <ele>282.28</ele>
        <time>2015-05-07T12:08:53Z</time>
      </trkpt>
      <trkpt lat="48.09777" lon="7.65798">
        <ele>283.73</ele>
        <time>2015-05-07T12:08:55Z</time>
      </trkpt>
      <trkpt lat="48.09781" lon="7.6582">
        <ele>284.69</ele>
        <time>2015-05-07T12:09:07Z</time>
      </trkpt>
      <trkpt lat="48.09781" lon="7.65822">
        <ele>280.84</ele>
        <time>2015-05-07T12:09:08Z</time>
      </trkpt>
      <trkpt lat="48.09781" lon="7.65824">
        <ele>280.84</ele>
        <time>2015-05-07T12:09:09Z</time>
      </trkpt>
      <trkpt lat="48.09783" lon="7.65835">
        <ele>281.32</ele>
        <time>2015-05-07T12:09:15Z</time>
      </trkpt>
      <trkpt lat="48.09786" lon="7.65848">
        <ele>281.8</ele>
        <time>2015-05-07T12:09:22Z</time>
      </trkpt>
      <trkpt lat="48.09787" lon="7.65853">
        <ele>278.92</ele>
        <time>2015-05-07T12:09:25Z</time>
      </trkpt>
      <trkpt lat="48.09788" lon="7.65857">
        <ele>281.8</ele>
        <time>2015-05-07T12:09:27Z</time>
      </trkpt>
      <trkpt lat="48.0979" lon="7.65867">
        <ele>280.36</ele>
        <time>2015-05-07T12:09:32Z</time>
      </trkpt>
      <trkpt lat="48.0979" lon="7.65869">
        <ele>283.25</ele>
        <time>2015-05-07T12:09:34Z</time>
      </trkpt>
      <trkpt lat="48.09792" lon="7.65874">
        <ele>281.32</ele>
        <time>2015-05-07T12:09:37Z</time>
      </trkpt>
      <trkpt lat="48.09793" lon="7.65878">
        <ele>284.21</ele>
        <time>2015-05-07T12:09:40Z</time>
      </trkpt>
      <trkpt lat="48.09795" lon="7.65883">
        <ele>281.32</ele>
        <time>2015-05-07T12:09:43Z</time>
      </trkpt>
      <trkpt lat="48.09796" lon="7.65888">
        <ele>285.17</ele>
        <time>2015-05-07T12:09:46Z</time>
      </trkpt>
      <trkpt lat="48.09797" lon="7.65892">
        <ele>282.28</ele>
        <time>2015-05-07T12:09:48Z</time>
      </trkpt>
      <trkpt lat="48.09801" lon="7.6591">
        <ele>286.61</ele>
        <time>2015-05-07T12:09:58Z</time>
      </trkpt>
      <trkpt lat="48.09803" lon="7.65922">
        <ele>283.73</ele>
        <time>2015-05-07T12:10:04Z</time>
      </trkpt>
      <trkpt lat="48.09804" lon="7.65927">
        <ele>287.09</ele>
        <time>2015-05-07T12:10:07Z</time>
      </trkpt>
      <trkpt lat="48.09804" lon="7.65931">
        <ele>283.73</ele>
        <time>2015-05-07T12:10:09Z</time>
      </trkpt>
      <trkpt lat="48.09804" lon="7.65933">
        <ele>284.21</ele>
        <time>2015-05-07T12:10:10Z</time>
      </trkpt>
      <trkpt lat="48.09806" lon="7.6595">
        <ele>288.05</ele>
        <time>2015-05-07T12:10:19Z</time>
      </trkpt>
      <trkpt lat="48.09806" lon="7.65958">
        <ele>284.21</ele>
        <time>2015-05-07T12:10:23Z</time>
      </trkpt>
      <trkpt lat="48.09808" lon="7.65973">
        <ele>283.73</ele>
        <time>2015-05-07T12:10:31Z</time>
      </trkpt>
      <trkpt lat="48.0981" lon="7.65984">
        <ele>286.13</ele>
        <time>2015-05-07T12:10:37Z</time>
      </trkpt>
      <trkpt lat="48.09811" lon="7.65988">
        <ele>282.77</ele>
        <time>2015-05-07T12:10:39Z</time>
      </trkpt>
      <trkpt lat="48.09813" lon="7.65992">
        <ele>281.8</ele>
        <time>2015-05-07T12:10:41Z</time>
      </trkpt>
      <trkpt lat="48.09813" lon="7.65994">
        <ele>284.69</ele>
        <time>2015-05-07T12:10:42Z</time>
      </trkpt>
      <trkpt lat="48.09814" lon="7.65999">
        <ele>286.61</ele>
        <time>2015-05-07T12:10:45Z</time>
      </trkpt>
      <trkpt lat="48.09816" lon="7.66002">
        <ele>282.77</ele>
        <time>2015-05-07T12:10:47Z</time>
      </trkpt>
      <trkpt lat="48.09817" lon="7.66004">
        <ele>284.21</ele>
        <time>2015-05-07T12:10:48Z</time>
      </trkpt>
      <trkpt lat="48.0982" lon="7.66008">
        <ele>288.05</ele>
        <time>2015-05-07T12:10:51Z</time>
      </trkpt>
      <trkpt lat="48.09821" lon="7.6601">
        <ele>287.09</ele>
        <time>2015-05-07T12:10:52Z</time>
      </trkpt>
      <trkpt lat="48.09823" lon="7.66011">
        <ele>284.21</ele>
        <time>2015-05-07T12:10:54Z</time>
      </trkpt>
      <trkpt lat="48.09828" lon="7.66016">
        <ele>284.69</ele>
        <time>2015-05-07T12:10:59Z</time>
      </trkpt>
      <trkpt lat="48.09838" lon="7.66029">
        <ele>281.32</ele>
        <time>2015-05-07T12:11:09Z</time>
      </trkpt>
      <trkpt lat="48.09839" lon="7.66031">
        <ele>281.8</ele>
        <time>2015-05-07T12:11:10Z</time>
      </trkpt>
      <trkpt lat="48.0984" lon="7.66034">
        <ele>282.28</ele>
        <time>2015-05-07T12:11:12Z</time>
      </trkpt>
      <trkpt lat="48.09839" lon="7.66044">
        <ele>281.8</ele>
        <time>2015-05-07T12:11:17Z</time>
      </trkpt>
      <trkpt lat="48.09837" lon="7.6605">
        <ele>286.61</ele>
        <time>2015-05-07T12:11:20Z</time>
      </trkpt>
      <trkpt lat="48.09836" lon="7.66051">
        <ele>285.17</ele>
        <time>2015-05-07T12:11:21Z</time>
      </trkpt>
      <trkpt lat="48.09835" lon="7.66053">
        <ele>282.28</ele>
        <time>2015-05-07T12:11:22Z</time>
      </trkpt>
      <trkpt lat="48.09835" lon="7.66055">
        <ele>282.28</ele>
        <time>2015-05-07T12:11:23Z</time>
      </trkpt>
      <trkpt lat="48.0983" lon="7.66059">
        <ele>285.17</ele>
        <time>2015-05-07T12:11:27Z</time>
      </trkpt>
      <trkpt lat="48.09822" lon="7.6607">
        <ele>282.77</ele>
        <time>2015-05-07T12:11:36Z</time>
      </trkpt>
      <trkpt lat="48.0982" lon="7.66073">
        <ele>280.84</ele>
        <time>2015-05-07T12:11:38Z</time>
      </trkpt>
      <trkpt lat="48.09818" lon="7.66078">
        <ele>284.21</ele>
        <time>2015-05-07T12:11:41Z</time>
      </trkpt>
      <trkpt lat="48.09817" lon="7.66079">
        <ele>288.05</ele>
        <time>2015-05-07T12:11:42Z</time>
      </trkpt>
      <trkpt lat="48.09817" lon="7.66081">
        <ele>285.17</ele>
        <time>2015-05-07T12:11:43Z</time>
      </trkpt>
      <trkpt lat="48.09817" lon="7.66084">
        <ele>283.25</ele>
        <time>2015-05-07T12:11:45Z</time>
      </trkpt>
      <trkpt lat="48.09818" lon="7.66093">
        <ele>286.61</ele>
        <time>2015-05-07T12:11:51Z</time>
      </trkpt>
      <trkpt lat="48.09818" lon="7.66094">
        <ele>285.65</ele>
        <time>2015-05-07T12:11:52Z</time>
      </trkpt>
      <trkpt lat="48.09818" lon="7.66097">
        <ele>282.28</ele>
        <time>2015-05-07T12:11:59Z</time>
      </trkpt>
      <trkpt lat="48.09819" lon="7.66102">
        <ele>285.17</ele>
        <time>2015-05-07T12:12:02Z</time>
      </trkpt>
      <trkpt lat="48.09821" lon="7.66107">
        <ele>282.77</ele>
        <time>2015-05-07T12:12:05Z</time>
      </trkpt>
      <trkpt lat="48.09822" lon="7.6611">
        <ele>286.13</ele>
        <time>2015-05-07T12:12:08Z</time>
      </trkpt>
      <trkpt lat="48.09824" lon="7.6612">
        <ele>289.97</ele>
        <time>2015-05-07T12:12:14Z</time>
      </trkpt>
      <trkpt lat="48.09825" lon="7.66122">
        <ele>289.01</ele>
        <time>2015-05-07T12:12:15Z</time>
      </trkpt>
      <trkpt lat="48.09825" lon="7.66123">
        <ele>283.25</ele>
        <time>2015-05-07T12:12:16Z</time>
      </trkpt>
      <trkpt lat="48.09826" lon="7.66124">
        <ele>285.65</ele>
        <time>2015-05-07T12:12:17Z</time>
      </trkpt>
      <trkpt lat="48.09829" lon="7.66134">
        <ele>290.46</ele>
        <time>2015-05-07T12:12:23Z</time>
      </trkpt>
      <trkpt lat="48.0983" lon="7.66135">
        <ele>287.09</ele>
        <time>2015-05-07T12:12:24Z</time>
      </trkpt>
      <trkpt lat="48.09831" lon="7.66138">
        <ele>290.46</ele>
        <time>2015-05-07T12:12:26Z</time>
      </trkpt>
      <trkpt lat="48.09832" lon="7.66139">
        <ele>287.09</ele>
        <time>2015-05-07T12:12:27Z</time>
      </trkpt>
      <trkpt lat="48.09834" lon="7.66144">
        <ele>292.38</ele>
        <time>2015-05-07T12:12:33Z</time>
      </trkpt>
      <trkpt lat="48.09835" lon="7.66145">
        <ele>287.57</ele>
        <time>2015-05-07T12:12:34Z</time>
      </trkpt>
      <trkpt lat="48.09837" lon="7.66153">
        <ele>291.9</ele>
        <time>2015-05-07T12:12:41Z</time>
      </trkpt>
      <trkpt lat="48.09838" lon="7.66155">
        <ele>291.42</ele>
        <time>2015-05-07T12:12:52Z</time>
      </trkpt>
      <trkpt lat="48.09838" lon="7.66155">
        <ele>289.97</ele>
        <time>2015-05-07T12:12:55Z</time>
      </trkpt>
      <trkpt lat="48.09839" lon="7.66154">
        <ele>289.97</ele>
        <time>2015-05-07T12:13:24Z</time>
      </trkpt>
      <trkpt lat="48.09839" lon="7.66155">
        <ele>289.97</ele>
        <time>2015-05-07T12:14:11Z</time>
      </trkpt>
      <trkpt lat="48.09839" lon="7.66154">
        <ele>290.46</ele>
        <time>2015-05-07T12:14:46Z</time>
      </trkpt>
      <trkpt lat="48.09835" lon="7.6615">
        <ele>289.49</ele>
        <time>2015-05-07T12:15:28Z</time>
      </trkpt>
      <trkpt lat="48.09833" lon="7.66148">
        <ele>289.49</ele>
        <time>2015-05-07T12:15:31Z</time>
      </trkpt>
      <trkpt lat="48.09829" lon="7.66141">
        <ele>287.57</ele>
        <time>2015-05-07T12:15:37Z</time>
      </trkpt>
      <trkpt lat="48.09821" lon="7.66121">
        <ele>284.69</ele>
        <time>2015-05-07T12:15:51Z</time>
      </trkpt>
      <trkpt lat="48.09821" lon="7.66117">
        <ele>283.73</ele>
        <time>2015-05-07T12:15:53Z</time>
      </trkpt>
      <trkpt lat="48.0982" lon="7.66115">
        <ele>282.77</ele>
        <time>2015-05-07T12:15:54Z</time>
      </trkpt>
      <trkpt lat="48.09817" lon="7.66105">
        <ele>281.32</ele>
        <time>2015-05-07T12:16:00Z</time>
      </trkpt>
      <trkpt lat="48.09815" lon="7.66091">
        <ele>277.48</ele>
        <time>2015-05-07T12:16:08Z</time>
      </trkpt>
      <trkpt lat="48.09807" lon="7.66076">
        <ele>274.11</ele>
        <time>2015-05-07T12:16:19Z</time>
      </trkpt>
      <trkpt lat="48.09807" lon="7.66075">
        <ele>274.59</ele>
        <time>2015-05-07T12:16:20Z</time>
      </trkpt>
      <trkpt lat="48.09802" lon="7.66053">
        <ele>272.19</ele>
        <time>2015-05-07T12:16:36Z</time>
      </trkpt>
      <trkpt lat="48.098" lon="7.66035">
        <ele>269.31</ele>
        <time>2015-05-07T12:16:48Z</time>
      </trkpt>
      <trkpt lat="48.09795" lon="7.66029">
        <ele>267.86</ele>
        <time>2015-05-07T12:16:53Z</time>
      </trkpt>
      <trkpt lat="48.09788" lon="7.66023">
        <ele>264.02</ele>
        <time>2015-05-07T12:17:00Z</time>
      </trkpt>
      <trkpt lat="48.09784" lon="7.66017">
        <ele>263.06</ele>
        <time>2015-05-07T12:17:05Z</time>
      </trkpt>
      <trkpt lat="48.09772" lon="7.6599">
        <ele>259.21</ele>
        <time>2015-05-07T12:17:24Z</time>
      </trkpt>
      <trkpt lat="48.09761" lon="7.65962">
        <ele>255.85</ele>
        <time>2015-05-07T12:17:41Z</time>
      </trkpt>
      <trkpt lat="48.09759" lon="7.65958">
        <ele>253.93</ele>
        <time>2015-05-07T12:17:45Z</time>
      </trkpt>
      <trkpt lat="48.09755" lon="7.65951">
        <ele>253.44</ele>
        <time>2015-05-07T12:18:03Z</time>
      </trkpt>
      <trkpt lat="48.09752" lon="7.6595">
        <ele>252.96</ele>
        <time>2015-05-07T12:18:20Z</time>
      </trkpt>
      <trkpt lat="48.09754" lon="7.65951">
        <ele>252.96</ele>
        <time>2015-05-07T12:19:57Z</time>
      </trkpt>
      <trkpt lat="48.09753" lon="7.65953">
        <ele>253.44</ele>
        <time>2015-05-07T12:20:43Z</time>
      </trkpt>
      <trkpt lat="48.09752" lon="7.65936">
        <ele>252.48</ele>
        <time>2015-05-07T12:21:04Z</time>
      </trkpt>
      <trkpt lat="48.09751" lon="7.65927">
        <ele>252.96</ele>
        <time>2015-05-07T12:21:10Z</time>
      </trkpt>
      <trkpt lat="48.0975" lon="7.65922">
        <ele>252</ele>
        <time>2015-05-07T12:21:13Z</time>
      </trkpt>
      <trkpt lat="48.09749" lon="7.65907">
        <ele>252.96</ele>
        <time>2015-05-07T12:21:24Z</time>
      </trkpt>
      <trkpt lat="48.09744" lon="7.65907">
        <ele>248.16</ele>
        <time>2015-05-07T12:21:27Z</time>
      </trkpt>
      <trkpt lat="48.09739" lon="7.65905">
        <ele>250.08</ele>
        <time>2015-05-07T12:21:31Z</time>
      </trkpt>
      <trkpt lat="48.09715" lon="7.65901">
        <ele>250.08</ele>
        <time>2015-05-07T12:21:49Z</time>
      </trkpt>
      <trkpt lat="48.0971" lon="7.65894">
        <ele>250.08</ele>
        <time>2015-05-07T12:21:57Z</time>
      </trkpt>
      <trkpt lat="48.09696" lon="7.65892">
        <ele>250.56</ele>
        <time>2015-05-07T12:22:09Z</time>
      </trkpt>
      <trkpt lat="48.09697" lon="7.659">
        <ele>249.6</ele>
        <time>2015-05-07T12:22:31Z</time>
      </trkpt>
      <trkpt lat="48.09687" lon="7.65926">
        <ele>248.16</ele>
        <time>2015-05-07T12:22:49Z</time>
      </trkpt>
      <trkpt lat="48.09686" lon="7.65927">
        <ele>248.16</ele>
        <time>2015-05-07T12:22:50Z</time>
      </trkpt>
      <trkpt lat="48.09686" lon="7.65929">
        <ele>251.04</ele>
        <time>2015-05-07T12:22:51Z</time>
      </trkpt>
      <trkpt lat="48.09685" lon="7.65931">
        <ele>247.68</ele>
        <time>2015-05-07T12:22:53Z</time>
      </trkpt>
      <trkpt lat="48.09683" lon="7.65937">
        <ele>248.16</ele>
        <time>2015-05-07T12:23:18Z</time>
      </trkpt>
      <trkpt lat="48.09682" lon="7.65939">
        <ele>250.56</ele>
        <time>2015-05-07T12:23:38Z</time>
      </trkpt>
      <trkpt lat="48.09683" lon="7.65944">
        <ele>247.68</ele>
        <time>2015-05-07T12:23:41Z</time>
      </trkpt>
      <trkpt lat="48.09684" lon="7.65947">
        <ele>249.12</ele>
        <time>2015-05-07T12:23:43Z</time>
      </trkpt>
      <trkpt lat="48.09686" lon="7.65953">
        <ele>249.12</ele>
        <time>2015-05-07T12:23:47Z</time>
      </trkpt>
      <trkpt lat="48.09687" lon="7.65957">
        <ele>248.16</ele>
        <time>2015-05-07T12:23:49Z</time>
      </trkpt>
      <trkpt lat="48.09689" lon="7.65965">
        <ele>247.2</ele>
        <time>2015-05-07T12:23:53Z</time>
      </trkpt>
      <trkpt lat="48.0969" lon="7.65968">
        <ele>249.6</ele>
        <time>2015-05-07T12:23:55Z</time>
      </trkpt>
      <trkpt lat="48.09691" lon="7.65969">
        <ele>250.08</ele>
        <time>2015-05-07T12:23:56Z</time>
      </trkpt>
      <trkpt lat="48.09693" lon="7.65977">
        <ele>248.16</ele>
        <time>2015-05-07T12:24:00Z</time>
      </trkpt>
      <trkpt lat="48.09694" lon="7.65979">
        <ele>248.16</ele>
        <time>2015-05-07T12:24:01Z</time>
      </trkpt>
      <trkpt lat="48.09697" lon="7.65987">
        <ele>251.52</ele>
        <time>2015-05-07T12:24:05Z</time>
      </trkpt>
      <trkpt lat="48.09697" lon="7.65988">
        <ele>250.56</ele>
        <time>2015-05-07T12:24:06Z</time>
      </trkpt>
      <trkpt lat="48.09701" lon="7.66006">
        <ele>249.6</ele>
        <time>2015-05-07T12:24:16Z</time>
      </trkpt>
      <trkpt lat="48.09703" lon="7.66012">
        <ele>248.16</ele>
        <time>2015-05-07T12:24:19Z</time>
      </trkpt>
      <trkpt lat="48.09705" lon="7.66017">
        <ele>251.04</ele>
        <time>2015-05-07T12:24:22Z</time>
      </trkpt>
      <trkpt lat="48.09713" lon="7.66038">
        <ele>252.48</ele>
        <time>2015-05-07T12:24:36Z</time>
      </trkpt>
      <trkpt lat="48.09714" lon="7.66044">
        <ele>251.52</ele>
        <time>2015-05-07T12:24:40Z</time>
      </trkpt>
      <trkpt lat="48.09717" lon="7.66048">
        <ele>252</ele>
        <time>2015-05-07T12:24:43Z</time>
      </trkpt>
      <trkpt lat="48.09727" lon="7.66068">
        <ele>251.04</ele>
        <time>2015-05-07T12:24:54Z</time>
      </trkpt>
      <trkpt lat="48.09733" lon="7.66087">
        <ele>251.52</ele>
        <time>2015-05-07T12:25:03Z</time>
      </trkpt>
      <trkpt lat="48.09736" lon="7.66102">
        <ele>252.48</ele>
        <time>2015-05-07T12:25:11Z</time>
      </trkpt>
      <trkpt lat="48.09737" lon="7.66114">
        <ele>250.08</ele>
        <time>2015-05-07T12:25:17Z</time>
      </trkpt>
      <trkpt lat="48.09737" lon="7.66125">
        <ele>253.93</ele>
        <time>2015-05-07T12:25:22Z</time>
      </trkpt>
      <trkpt lat="48.09738" lon="7.66128">
        <ele>252.96</ele>
        <time>2015-05-07T12:25:23Z</time>
      </trkpt>
      <trkpt lat="48.09738" lon="7.66133">
        <ele>253.93</ele>
        <time>2015-05-07T12:25:26Z</time>
      </trkpt>
      <trkpt lat="48.09739" lon="7.66139">
        <ele>252.96</ele>
        <time>2015-05-07T12:25:32Z</time>
      </trkpt>
      <trkpt lat="48.09739" lon="7.66143">
        <ele>249.6</ele>
        <time>2015-05-07T12:25:34Z</time>
      </trkpt>
      <trkpt lat="48.09738" lon="7.66145">
        <ele>251.04</ele>
        <time>2015-05-07T12:25:35Z</time>
      </trkpt>
      <trkpt lat="48.09737" lon="7.66148">
        <ele>254.41</ele>
        <time>2015-05-07T12:25:37Z</time>
      </trkpt>
      <trkpt lat="48.09736" lon="7.66149">
        <ele>253.93</ele>
        <time>2015-05-07T12:25:38Z</time>
      </trkpt>
      <trkpt lat="48.09736" lon="7.66151">
        <ele>254.89</ele>
        <time>2015-05-07T12:25:40Z</time>
      </trkpt>
      <trkpt lat="48.09729" lon="7.66153">
        <ele>252.96</ele>
        <time>2015-05-07T12:25:57Z</time>
      </trkpt>
      <trkpt lat="48.09728" lon="7.66153">
        <ele>255.37</ele>
        <time>2015-05-07T12:26:31Z</time>
      </trkpt>
      <trkpt lat="48.09729" lon="7.66156">
        <ele>253.44</ele>
        <time>2015-05-07T12:26:33Z</time>
      </trkpt>
      <trkpt lat="48.0973" lon="7.6617">
        <ele>254.89</ele>
        <time>2015-05-07T12:26:39Z</time>
      </trkpt>
      <trkpt lat="48.09734" lon="7.66183">
        <ele>253.44</ele>
        <time>2015-05-07T12:26:46Z</time>
      </trkpt>
      <trkpt lat="48.09741" lon="7.66208">
        <ele>250.08</ele>
        <time>2015-05-07T12:26:59Z</time>
      </trkpt>
      <trkpt lat="48.09741" lon="7.66212">
        <ele>253.93</ele>
        <time>2015-05-07T12:27:01Z</time>
      </trkpt>
      <trkpt lat="48.0974" lon="7.66222">
        <ele>252.96</ele>
        <time>2015-05-07T12:27:16Z</time>
      </trkpt>
      <trkpt lat="48.0974" lon="7.66223">
        <ele>253.93</ele>
        <time>2015-05-07T12:27:17Z</time>
      </trkpt>
      <trkpt lat="48.09736" lon="7.66224">
        <ele>256.33</ele>
        <time>2015-05-07T12:27:20Z</time>
      </trkpt>
      <trkpt lat="48.09733" lon="7.66224">
        <ele>254.89</ele>
        <time>2015-05-07T12:27:22Z</time>
      </trkpt>
      <trkpt lat="48.09728" lon="7.66224">
        <ele>252</ele>
        <time>2015-05-07T12:27:25Z</time>
      </trkpt>
      <trkpt lat="48.09725" lon="7.66224">
        <ele>253.44</ele>
        <time>2015-05-07T12:27:27Z</time>
      </trkpt>
      <trkpt lat="48.09706" lon="7.66237">
        <ele>251.52</ele>
        <time>2015-05-07T12:27:41Z</time>
      </trkpt>
      <trkpt lat="48.097" lon="7.66243">
        <ele>253.93</ele>
        <time>2015-05-07T12:27:46Z</time>
      </trkpt>
      <trkpt lat="48.09698" lon="7.66247">
        <ele>255.37</ele>
        <time>2015-05-07T12:27:48Z</time>
      </trkpt>
      <trkpt lat="48.09677" lon="7.66262">
        <ele>256.81</ele>
        <time>2015-05-07T12:28:06Z</time>
      </trkpt>
      <trkpt lat="48.09674" lon="7.66264">
        <ele>255.85</ele>
        <time>2015-05-07T12:28:10Z</time>
      </trkpt>
      <trkpt lat="48.09669" lon="7.6627">
        <ele>255.85</ele>
        <time>2015-05-07T12:28:15Z</time>
      </trkpt>
      <trkpt lat="48.09663" lon="7.66279">
        <ele>257.29</ele>
        <time>2015-05-07T12:28:21Z</time>
      </trkpt>
      <trkpt lat="48.09662" lon="7.66283">
        <ele>253.44</ele>
        <time>2015-05-07T12:28:23Z</time>
      </trkpt>
      <trkpt lat="48.09662" lon="7.66285">
        <ele>254.41</ele>
        <time>2015-05-07T12:28:24Z</time>
      </trkpt>
      <trkpt lat="48.0966" lon="7.6629">
        <ele>253.93</ele>
        <time>2015-05-07T12:28:27Z</time>
      </trkpt>
      <trkpt lat="48.09658" lon="7.66292">
        <ele>256.81</ele>
        <time>2015-05-07T12:28:29Z</time>
      </trkpt>
      <trkpt lat="48.09657" lon="7.66294">
        <ele>256.81</ele>
        <time>2015-05-07T12:28:30Z</time>
      </trkpt>
      <trkpt lat="48.09653" lon="7.66297">
        <ele>255.85</ele>
        <time>2015-05-07T12:28:33Z</time>
      </trkpt>
      <trkpt lat="48.09647" lon="7.66305">
        <ele>256.81</ele>
        <time>2015-05-07T12:28:40Z</time>
      </trkpt>
      <trkpt lat="48.09641" lon="7.66315">
        <ele>252.96</ele>
        <time>2015-05-07T12:28:47Z</time>
      </trkpt>
      <trkpt lat="48.0964" lon="7.66318">
        <ele>254.41</ele>
        <time>2015-05-07T12:28:48Z</time>
      </trkpt>
      <trkpt lat="48.09638" lon="7.66323">
        <ele>259.69</ele>
        <time>2015-05-07T12:28:51Z</time>
      </trkpt>
      <trkpt lat="48.09638" lon="7.66325">
        <ele>259.21</ele>
        <time>2015-05-07T12:28:52Z</time>
      </trkpt>
      <trkpt lat="48.09638" lon="7.66327">
        <ele>256.33</ele>
        <time>2015-05-07T12:28:53Z</time>
      </trkpt>
      <trkpt lat="48.09637" lon="7.66335">
        <ele>259.21</ele>
        <time>2015-05-07T12:28:57Z</time>
      </trkpt>
      <trkpt lat="48.09637" lon="7.66336">
        <ele>257.77</ele>
        <time>2015-05-07T12:28:58Z</time>
      </trkpt>
      <trkpt lat="48.09636" lon="7.66349">
        <ele>256.81</ele>
        <time>2015-05-07T12:29:17Z</time>
      </trkpt>
      <trkpt lat="48.09634" lon="7.66352">
        <ele>260.65</ele>
        <time>2015-05-07T12:29:19Z</time>
      </trkpt>
      <trkpt lat="48.09634" lon="7.66354">
        <ele>260.17</ele>
        <time>2015-05-07T12:29:20Z</time>
      </trkpt>
      <trkpt lat="48.09634" lon="7.66356">
        <ele>256.81</ele>
        <time>2015-05-07T12:29:22Z</time>
      </trkpt>
      <trkpt lat="48.09636" lon="7.66363">
        <ele>260.65</ele>
        <time>2015-05-07T12:29:26Z</time>
      </trkpt>
      <trkpt lat="48.09637" lon="7.66366">
        <ele>257.29</ele>
        <time>2015-05-07T12:29:29Z</time>
      </trkpt>
      <trkpt lat="48.09632" lon="7.66377">
        <ele>261.62</ele>
        <time>2015-05-07T12:29:35Z</time>
      </trkpt>
      <trkpt lat="48.0963" lon="7.66382">
        <ele>261.14</ele>
        <time>2015-05-07T12:29:37Z</time>
      </trkpt>
      <trkpt lat="48.09627" lon="7.66392">
        <ele>259.69</ele>
        <time>2015-05-07T12:29:41Z</time>
      </trkpt>
      <trkpt lat="48.09619" lon="7.66411">
        <ele>263.54</ele>
        <time>2015-05-07T12:29:51Z</time>
      </trkpt>
      <trkpt lat="48.09618" lon="7.66412">
        <ele>263.06</ele>
        <time>2015-05-07T12:29:52Z</time>
      </trkpt>
      <trkpt lat="48.09617" lon="7.66412">
        <ele>259.69</ele>
        <time>2015-05-07T12:29:53Z</time>
      </trkpt>
      <trkpt lat="48.09616" lon="7.66413">
        <ele>259.69</ele>
        <time>2015-05-07T12:29:54Z</time>
      </trkpt>
      <trkpt lat="48.09612" lon="7.66415">
        <ele>263.54</ele>
        <time>2015-05-07T12:29:57Z</time>
      </trkpt>
      <trkpt lat="48.09612" lon="7.66416">
        <ele>262.58</ele>
        <time>2015-05-07T12:29:58Z</time>
      </trkpt>
      <trkpt lat="48.09611" lon="7.66419">
        <ele>258.73</ele>
        <time>2015-05-07T12:30:00Z</time>
      </trkpt>
      <trkpt lat="48.09606" lon="7.66437">
        <ele>261.62</ele>
        <time>2015-05-07T12:30:08Z</time>
      </trkpt>
      <trkpt lat="48.09603" lon="7.66439">
        <ele>261.14</ele>
        <time>2015-05-07T12:30:11Z</time>
      </trkpt>
      <trkpt lat="48.09598" lon="7.66441">
        <ele>259.69</ele>
        <time>2015-05-07T12:30:24Z</time>
      </trkpt>
      <trkpt lat="48.09597" lon="7.66441">
        <ele>263.54</ele>
        <time>2015-05-07T12:30:25Z</time>
      </trkpt>
      <trkpt lat="48.09595" lon="7.66445">
        <ele>259.69</ele>
        <time>2015-05-07T12:30:27Z</time>
      </trkpt>
      <trkpt lat="48.09595" lon="7.66446">
        <ele>261.62</ele>
        <time>2015-05-07T12:30:28Z</time>
      </trkpt>
      <trkpt lat="48.09595" lon="7.66448">
        <ele>259.21</ele>
        <time>2015-05-07T12:30:49Z</time>
      </trkpt>
      <trkpt lat="48.09594" lon="7.66451">
        <ele>263.54</ele>
        <time>2015-05-07T12:30:51Z</time>
      </trkpt>
      <trkpt lat="48.09596" lon="7.66458">
        <ele>264.5</ele>
        <time>2015-05-07T12:30:55Z</time>
      </trkpt>
      <trkpt lat="48.09597" lon="7.6646">
        <ele>264.5</ele>
        <time>2015-05-07T12:30:56Z</time>
      </trkpt>
      <trkpt lat="48.09598" lon="7.66462">
        <ele>261.14</ele>
        <time>2015-05-07T12:30:57Z</time>
      </trkpt>
      <trkpt lat="48.09599" lon="7.66464">
        <ele>262.58</ele>
        <time>2015-05-07T12:30:58Z</time>
      </trkpt>
      <trkpt lat="48.096" lon="7.66467">
        <ele>264.02</ele>
        <time>2015-05-07T12:31:00Z</time>
      </trkpt>
      <trkpt lat="48.09601" lon="7.66472">
        <ele>265.94</ele>
        <time>2015-05-07T12:31:03Z</time>
      </trkpt>
      <trkpt lat="48.09602" lon="7.66476">
        <ele>263.06</ele>
        <time>2015-05-07T12:31:06Z</time>
      </trkpt>
      <trkpt lat="48.09603" lon="7.66479">
        <ele>266.42</ele>
        <time>2015-05-07T12:31:08Z</time>
      </trkpt>
      <trkpt lat="48.09603" lon="7.6648">
        <ele>262.1</ele>
        <time>2015-05-07T12:31:09Z</time>
      </trkpt>
      <trkpt lat="48.09603" lon="7.66483">
        <ele>267.86</ele>
        <time>2015-05-07T12:31:12Z</time>
      </trkpt>
      <trkpt lat="48.09601" lon="7.66485">
        <ele>264.5</ele>
        <time>2015-05-07T12:31:15Z</time>
      </trkpt>
      <trkpt lat="48.09599" lon="7.66486">
        <ele>268.35</ele>
        <time>2015-05-07T12:31:17Z</time>
      </trkpt>
      <trkpt lat="48.09592" lon="7.66488">
        <ele>266.42</ele>
        <time>2015-05-07T12:31:25Z</time>
      </trkpt>
      <trkpt lat="48.09586" lon="7.66489">
        <ele>267.86</ele>
        <time>2015-05-07T12:31:30Z</time>
      </trkpt>
      <trkpt lat="48.09584" lon="7.6649">
        <ele>270.75</ele>
        <time>2015-05-07T12:31:32Z</time>
      </trkpt>
      <trkpt lat="48.09584" lon="7.6649">
        <ele>266.42</ele>
        <time>2015-05-07T12:31:33Z</time>
      </trkpt>
      <trkpt lat="48.09582" lon="7.6649">
        <ele>267.38</ele>
        <time>2015-05-07T12:31:34Z</time>
      </trkpt>
      <trkpt lat="48.09581" lon="7.6649">
        <ele>271.71</ele>
        <time>2015-05-07T12:31:35Z</time>
      </trkpt>
      <trkpt lat="48.0958" lon="7.66491">
        <ele>265.46</ele>
        <time>2015-05-07T12:31:36Z</time>
      </trkpt>
      <trkpt lat="48.09579" lon="7.66491">
        <ele>268.83</ele>
        <time>2015-05-07T12:31:37Z</time>
      </trkpt>
      <trkpt lat="48.09576" lon="7.66492">
        <ele>271.23</ele>
        <time>2015-05-07T12:31:40Z</time>
      </trkpt>
      <trkpt lat="48.09572" lon="7.66494">
        <ele>271.71</ele>
        <time>2015-05-07T12:32:04Z</time>
      </trkpt>
      <trkpt lat="48.09571" lon="7.66496">
        <ele>266.9</ele>
        <time>2015-05-07T12:32:16Z</time>
      </trkpt>
      <trkpt lat="48.09568" lon="7.66501">
        <ele>268.35</ele>
        <time>2015-05-07T12:32:20Z</time>
      </trkpt>
      <trkpt lat="48.09566" lon="7.66503">
        <ele>273.15</ele>
        <time>2015-05-07T12:32:22Z</time>
      </trkpt>
      <trkpt lat="48.09565" lon="7.66504">
        <ele>273.15</ele>
        <time>2015-05-07T12:32:23Z</time>
      </trkpt>
      <trkpt lat="48.09564" lon="7.66505">
        <ele>271.23</ele>
        <time>2015-05-07T12:32:24Z</time>
      </trkpt>
      <trkpt lat="48.09562" lon="7.66507">
        <ele>272.67</ele>
        <time>2015-05-07T12:32:26Z</time>
      </trkpt>
      <trkpt lat="48.0956" lon="7.66512">
        <ele>269.31</ele>
        <time>2015-05-07T12:32:30Z</time>
      </trkpt>
      <trkpt lat="48.0956" lon="7.66514">
        <ele>276.52</ele>
        <time>2015-05-07T12:32:32Z</time>
      </trkpt>
      <trkpt lat="48.09559" lon="7.66515">
        <ele>271.23</ele>
        <time>2015-05-07T12:32:33Z</time>
      </trkpt>
      <trkpt lat="48.09558" lon="7.66517">
        <ele>276.52</ele>
        <time>2015-05-07T12:32:35Z</time>
      </trkpt>
      <trkpt lat="48.09557" lon="7.66518">
        <ele>273.15</ele>
        <time>2015-05-07T12:32:36Z</time>
      </trkpt>
      <trkpt lat="48.09556" lon="7.66521">
        <ele>277</ele>
        <time>2015-05-07T12:32:38Z</time>
      </trkpt>
      <trkpt lat="48.09555" lon="7.66531">
        <ele>277.96</ele>
        <time>2015-05-07T12:32:47Z</time>
      </trkpt>
      <trkpt lat="48.09556" lon="7.66531">
        <ele>278.44</ele>
        <time>2015-05-07T12:32:48Z</time>
      </trkpt>
      <trkpt lat="48.09559" lon="7.66531">
        <ele>274.11</ele>
        <time>2015-05-07T12:32:50Z</time>
      </trkpt>
      <trkpt lat="48.0956" lon="7.6653">
        <ele>275.56</ele>
        <time>2015-05-07T12:32:51Z</time>
      </trkpt>
      <trkpt lat="48.09563" lon="7.66528">
        <ele>279.4</ele>
        <time>2015-05-07T12:32:55Z</time>
      </trkpt>
      <trkpt lat="48.09564" lon="7.66527">
        <ele>277.48</ele>
        <time>2015-05-07T12:32:56Z</time>
      </trkpt>
      <trkpt lat="48.09565" lon="7.66526">
        <ele>280.84</ele>
        <time>2015-05-07T12:32:57Z</time>
      </trkpt>
      <trkpt lat="48.09568" lon="7.66525">
        <ele>276.52</ele>
        <time>2015-05-07T12:33:01Z</time>
      </trkpt>
      <trkpt lat="48.0957" lon="7.66525">
        <ele>280.84</ele>
        <time>2015-05-07T12:33:03Z</time>
      </trkpt>
      <trkpt lat="48.0958" lon="7.66522">
        <ele>285.17</ele>
        <time>2015-05-07T12:33:14Z</time>
      </trkpt>
      <trkpt lat="48.09581" lon="7.66522">
        <ele>283.25</ele>
        <time>2015-05-07T12:33:15Z</time>
      </trkpt>
      <trkpt lat="48.09583" lon="7.66522">
        <ele>282.77</ele>
        <time>2015-05-07T12:33:17Z</time>
      </trkpt>
      <trkpt lat="48.09584" lon="7.66522">
        <ele>279.4</ele>
        <time>2015-05-07T12:33:18Z</time>
      </trkpt>
      <trkpt lat="48.09586" lon="7.66522">
        <ele>283.73</ele>
        <time>2015-05-07T12:33:20Z</time>
      </trkpt>
      <trkpt lat="48.09587" lon="7.66522">
        <ele>279.4</ele>
        <time>2015-05-07T12:33:21Z</time>
      </trkpt>
      <trkpt lat="48.09589" lon="7.66523">
        <ele>284.69</ele>
        <time>2015-05-07T12:33:23Z</time>
      </trkpt>
      <trkpt lat="48.09589" lon="7.66523">
        <ele>284.21</ele>
        <time>2015-05-07T12:33:24Z</time>
      </trkpt>
      <trkpt lat="48.0959" lon="7.66523">
        <ele>279.88</ele>
        <time>2015-05-07T12:33:25Z</time>
      </trkpt>
      <trkpt lat="48.0959" lon="7.66524">
        <ele>281.8</ele>
        <time>2015-05-07T12:33:26Z</time>
      </trkpt>
      <trkpt lat="48.09591" lon="7.66525">
        <ele>286.13</ele>
        <time>2015-05-07T12:33:27Z</time>
      </trkpt>
      <trkpt lat="48.09592" lon="7.66525">
        <ele>281.32</ele>
        <time>2015-05-07T12:33:28Z</time>
      </trkpt>
      <trkpt lat="48.09594" lon="7.66526">
        <ele>284.69</ele>
        <time>2015-05-07T12:33:30Z</time>
      </trkpt>
      <trkpt lat="48.09601" lon="7.6653">
        <ele>286.13</ele>
        <time>2015-05-07T12:33:38Z</time>
      </trkpt>
      <trkpt lat="48.09602" lon="7.66533">
        <ele>284.21</ele>
        <time>2015-05-07T12:33:42Z</time>
      </trkpt>
      <trkpt lat="48.096" lon="7.66534">
        <ele>288.05</ele>
        <time>2015-05-07T12:33:46Z</time>
      </trkpt>
      <trkpt lat="48.09597" lon="7.66536">
        <ele>290.46</ele>
        <time>2015-05-07T12:33:49Z</time>
      </trkpt>
      <trkpt lat="48.09596" lon="7.66536">
        <ele>289.01</ele>
        <time>2015-05-07T12:33:50Z</time>
      </trkpt>
      <trkpt lat="48.09594" lon="7.66536">
        <ele>287.09</ele>
        <time>2015-05-07T12:33:52Z</time>
      </trkpt>
      <trkpt lat="48.0959" lon="7.66537">
        <ele>290.46</ele>
        <time>2015-05-07T12:33:56Z</time>
      </trkpt>
      <trkpt lat="48.09589" lon="7.66538">
        <ele>285.65</ele>
        <time>2015-05-07T12:33:58Z</time>
      </trkpt>
      <trkpt lat="48.09588" lon="7.66538">
        <ele>288.05</ele>
        <time>2015-05-07T12:33:59Z</time>
      </trkpt>
      <trkpt lat="48.09587" lon="7.6654">
        <ele>289.01</ele>
        <time>2015-05-07T12:34:01Z</time>
      </trkpt>
      <trkpt lat="48.09585" lon="7.66541">
        <ele>293.82</ele>
        <time>2015-05-07T12:34:04Z</time>
      </trkpt>
      <trkpt lat="48.09585" lon="7.66542">
        <ele>292.86</ele>
        <time>2015-05-07T12:34:05Z</time>
      </trkpt>
      <trkpt lat="48.09584" lon="7.66544">
        <ele>290.94</ele>
        <time>2015-05-07T12:34:07Z</time>
      </trkpt>
      <trkpt lat="48.09583" lon="7.66546">
        <ele>293.82</ele>
        <time>2015-05-07T12:34:09Z</time>
      </trkpt>
      <trkpt lat="48.09583" lon="7.66547">
        <ele>288.53</ele>
        <time>2015-05-07T12:34:10Z</time>
      </trkpt>
      <trkpt lat="48.09582" lon="7.66549">
        <ele>292.38</ele>
        <time>2015-05-07T12:34:12Z</time>
      </trkpt>
      <trkpt lat="48.09582" lon="7.66551">
        <ele>295.26</ele>
        <time>2015-05-07T12:34:13Z</time>
      </trkpt>
      <trkpt lat="48.09581" lon="7.66554">
        <ele>294.78</ele>
        <time>2015-05-07T12:34:15Z</time>
      </trkpt>
      <trkpt lat="48.09581" lon="7.66555">
        <ele>289.97</ele>
        <time>2015-05-07T12:34:16Z</time>
      </trkpt>
      <trkpt lat="48.0958" lon="7.66558">
        <ele>293.34</ele>
        <time>2015-05-07T12:34:18Z</time>
      </trkpt>
      <trkpt lat="48.0958" lon="7.66561">
        <ele>296.7</ele>
        <time>2015-05-07T12:34:21Z</time>
      </trkpt>
      <trkpt lat="48.0958" lon="7.66563">
        <ele>289.01</ele>
        <time>2015-05-07T12:34:22Z</time>
      </trkpt>
      <trkpt lat="48.09579" lon="7.66564">
        <ele>293.34</ele>
        <time>2015-05-07T12:34:23Z</time>
      </trkpt>
      <trkpt lat="48.09579" lon="7.66567">
        <ele>298.15</ele>
        <time>2015-05-07T12:34:25Z</time>
      </trkpt>
      <trkpt lat="48.09579" lon="7.66568">
        <ele>290.94</ele>
        <time>2015-05-07T12:34:26Z</time>
      </trkpt>
      <trkpt lat="48.09578" lon="7.66569">
        <ele>294.78</ele>
        <time>2015-05-07T12:34:27Z</time>
      </trkpt>
      <trkpt lat="48.09578" lon="7.66573">
        <ele>298.15</ele>
        <time>2015-05-07T12:34:30Z</time>
      </trkpt>
      <trkpt lat="48.09578" lon="7.66574">
        <ele>296.7</ele>
        <time>2015-05-07T12:34:31Z</time>
      </trkpt>
      <trkpt lat="48.09578" lon="7.66578">
        <ele>293.34</ele>
        <time>2015-05-07T12:34:34Z</time>
      </trkpt>
      <trkpt lat="48.09577" lon="7.6658">
        <ele>297.18</ele>
        <time>2015-05-07T12:34:36Z</time>
      </trkpt>
      <trkpt lat="48.09577" lon="7.66586">
        <ele>300.55</ele>
        <time>2015-05-07T12:34:41Z</time>
      </trkpt>
      <trkpt lat="48.09577" lon="7.6659">
        <ele>297.18</ele>
        <time>2015-05-07T12:34:45Z</time>
      </trkpt>
      <trkpt lat="48.09576" lon="7.66591">
        <ele>297.18</ele>
        <time>2015-05-07T12:34:46Z</time>
      </trkpt>
      <trkpt lat="48.09576" lon="7.66594">
        <ele>301.51</ele>
        <time>2015-05-07T12:34:48Z</time>
      </trkpt>
      <trkpt lat="48.09576" lon="7.66594">
        <ele>301.03</ele>
        <time>2015-05-07T12:34:49Z</time>
      </trkpt>
      <trkpt lat="48.09575" lon="7.66603">
        <ele>303.43</ele>
        <time>2015-05-07T12:34:58Z</time>
      </trkpt>
      <trkpt lat="48.09575" lon="7.66606">
        <ele>299.59</ele>
        <time>2015-05-07T12:35:01Z</time>
      </trkpt>
      <trkpt lat="48.09574" lon="7.66607">
        <ele>304.88</ele>
        <time>2015-05-07T12:35:02Z</time>
      </trkpt>
      <trkpt lat="48.09574" lon="7.66608">
        <ele>301.03</ele>
        <time>2015-05-07T12:35:03Z</time>
      </trkpt>
      <trkpt lat="48.09574" lon="7.66613">
        <ele>304.88</ele>
        <time>2015-05-07T12:35:07Z</time>
      </trkpt>
      <trkpt lat="48.09574" lon="7.66614">
        <ele>302.95</ele>
        <time>2015-05-07T12:35:08Z</time>
      </trkpt>
      <trkpt lat="48.09574" lon="7.66616">
        <ele>301.99</ele>
        <time>2015-05-07T12:35:10Z</time>
      </trkpt>
      <trkpt lat="48.09574" lon="7.66619">
        <ele>305.36</ele>
        <time>2015-05-07T12:35:13Z</time>
      </trkpt>
      <trkpt lat="48.09574" lon="7.6662">
        <ele>305.36</ele>
        <time>2015-05-07T12:35:14Z</time>
      </trkpt>
      <trkpt lat="48.09575" lon="7.6663">
        <ele>310.16</ele>
        <time>2015-05-07T12:35:24Z</time>
      </trkpt>
      <trkpt lat="48.09575" lon="7.6663">
        <ele>305.84</ele>
        <time>2015-05-07T12:35:25Z</time>
      </trkpt>
      <trkpt lat="48.09575" lon="7.66632">
        <ele>309.2</ele>
        <time>2015-05-07T12:35:26Z</time>
      </trkpt>
      <trkpt lat="48.09575" lon="7.66632">
        <ele>304.88</ele>
        <time>2015-05-07T12:35:27Z</time>
      </trkpt>
      <trkpt lat="48.09575" lon="7.66633">
        <ele>310.16</ele>
        <time>2015-05-07T12:35:28Z</time>
      </trkpt>
      <trkpt lat="48.09575" lon="7.66635">
        <ele>304.39</ele>
        <time>2015-05-07T12:35:30Z</time>
      </trkpt>
      <trkpt lat="48.09575" lon="7.66636">
        <ele>310.16</ele>
        <time>2015-05-07T12:35:31Z</time>
      </trkpt>
      <trkpt lat="48.09576" lon="7.66637">
        <ele>305.36</ele>
        <time>2015-05-07T12:35:32Z</time>
      </trkpt>
      <trkpt lat="48.09576" lon="7.66638">
        <ele>308.24</ele>
        <time>2015-05-07T12:35:33Z</time>
      </trkpt>
      <trkpt lat="48.09578" lon="7.66641">
        <ele>313.05</ele>
        <time>2015-05-07T12:35:37Z</time>
      </trkpt>
      <trkpt lat="48.09578" lon="7.66641">
        <ele>308.72</ele>
        <time>2015-05-07T12:35:38Z</time>
      </trkpt>
      <trkpt lat="48.09579" lon="7.66642">
        <ele>312.09</ele>
        <time>2015-05-07T12:35:39Z</time>
      </trkpt>
      <trkpt lat="48.09581" lon="7.66648">
        <ele>308.24</ele>
        <time>2015-05-07T12:35:46Z</time>
      </trkpt>
      <trkpt lat="48.09581" lon="7.66649">
        <ele>311.6</ele>
        <time>2015-05-07T12:35:47Z</time>
      </trkpt>
      <trkpt lat="48.09581" lon="7.66664">
        <ele>315.45</ele>
        <time>2015-05-07T12:36:01Z</time>
      </trkpt>
      <trkpt lat="48.09581" lon="7.66666">
        <ele>311.12</ele>
        <time>2015-05-07T12:36:03Z</time>
      </trkpt>
      <trkpt lat="48.09581" lon="7.66668">
        <ele>315.45</ele>
        <time>2015-05-07T12:36:04Z</time>
      </trkpt>
      <trkpt lat="48.09581" lon="7.66672">
        <ele>312.09</ele>
        <time>2015-05-07T12:36:09Z</time>
      </trkpt>
      <trkpt lat="48.09581" lon="7.66674">
        <ele>316.41</ele>
        <time>2015-05-07T12:36:10Z</time>
      </trkpt>
      <trkpt lat="48.09581" lon="7.66675">
        <ele>313.05</ele>
        <time>2015-05-07T12:36:11Z</time>
      </trkpt>
      <trkpt lat="48.09581" lon="7.66676">
        <ele>317.85</ele>
        <time>2015-05-07T12:36:12Z</time>
      </trkpt>
      <trkpt lat="48.09581" lon="7.66679">
        <ele>314.49</ele>
        <time>2015-05-07T12:36:14Z</time>
      </trkpt>
      <trkpt lat="48.0958" lon="7.66686">
        <ele>317.85</ele>
        <time>2015-05-07T12:36:22Z</time>
      </trkpt>
      <trkpt lat="48.0958" lon="7.66686">
        <ele>316.41</ele>
        <time>2015-05-07T12:36:25Z</time>
      </trkpt>
      <trkpt lat="48.09583" lon="7.66695">
        <ele>318.81</ele>
        <time>2015-05-07T12:36:38Z</time>
      </trkpt>
      <trkpt lat="48.09584" lon="7.667">
        <ele>317.85</ele>
        <time>2015-05-07T12:36:42Z</time>
      </trkpt>
      <trkpt lat="48.09584" lon="7.66705">
        <ele>316.41</ele>
        <time>2015-05-07T12:36:45Z</time>
      </trkpt>
      <trkpt lat="48.09585" lon="7.66706">
        <ele>320.74</ele>
        <time>2015-05-07T12:36:46Z</time>
      </trkpt>
      <trkpt lat="48.09585" lon="7.66708">
        <ele>320.74</ele>
        <time>2015-05-07T12:36:47Z</time>
      </trkpt>
      <trkpt lat="48.09585" lon="7.66711">
        <ele>318.33</ele>
        <time>2015-05-07T12:36:49Z</time>
      </trkpt>
      <trkpt lat="48.09585" lon="7.66719">
        <ele>322.18</ele>
        <time>2015-05-07T12:36:54Z</time>
      </trkpt>
      <trkpt lat="48.09585" lon="7.66722">
        <ele>320.74</ele>
        <time>2015-05-07T12:36:57Z</time>
      </trkpt>
      <trkpt lat="48.09584" lon="7.66741">
        <ele>324.1</ele>
        <time>2015-05-07T12:37:10Z</time>
      </trkpt>
      <trkpt lat="48.09584" lon="7.66744">
        <ele>319.78</ele>
        <time>2015-05-07T12:37:13Z</time>
      </trkpt>
      <trkpt lat="48.09584" lon="7.66747">
        <ele>325.06</ele>
        <time>2015-05-07T12:37:15Z</time>
      </trkpt>
      <trkpt lat="48.0958" lon="7.66762">
        <ele>328.43</ele>
        <time>2015-05-07T12:37:28Z</time>
      </trkpt>
      <trkpt lat="48.09579" lon="7.66765">
        <ele>321.7</ele>
        <time>2015-05-07T12:37:31Z</time>
      </trkpt>
      <trkpt lat="48.09579" lon="7.66766">
        <ele>325.06</ele>
        <time>2015-05-07T12:37:32Z</time>
      </trkpt>
      <trkpt lat="48.09577" lon="7.66773">
        <ele>329.39</ele>
        <time>2015-05-07T12:37:37Z</time>
      </trkpt>
      <trkpt lat="48.09577" lon="7.66774">
        <ele>325.06</ele>
        <time>2015-05-07T12:37:38Z</time>
      </trkpt>
      <trkpt lat="48.09577" lon="7.66775">
        <ele>329.87</ele>
        <time>2015-05-07T12:37:39Z</time>
      </trkpt>
      <trkpt lat="48.09577" lon="7.66777">
        <ele>326.02</ele>
        <time>2015-05-07T12:37:40Z</time>
      </trkpt>
      <trkpt lat="48.09577" lon="7.66779">
        <ele>329.87</ele>
        <time>2015-05-07T12:37:42Z</time>
      </trkpt>
      <trkpt lat="48.09577" lon="7.66782">
        <ele>325.54</ele>
        <time>2015-05-07T12:37:44Z</time>
      </trkpt>
      <trkpt lat="48.09578" lon="7.66783">
        <ele>328.43</ele>
        <time>2015-05-07T12:37:45Z</time>
      </trkpt>
      <trkpt lat="48.09578" lon="7.66786">
        <ele>325.54</ele>
        <time>2015-05-07T12:37:47Z</time>
      </trkpt>
      <trkpt lat="48.09579" lon="7.66787">
        <ele>328.91</ele>
        <time>2015-05-07T12:37:48Z</time>
      </trkpt>
      <trkpt lat="48.0958" lon="7.66788">
        <ele>330.35</ele>
        <time>2015-05-07T12:37:49Z</time>
      </trkpt>
      <trkpt lat="48.09583" lon="7.66792">
        <ele>325.54</ele>
        <time>2015-05-07T12:37:53Z</time>
      </trkpt>
      <trkpt lat="48.09584" lon="7.66793">
        <ele>329.39</ele>
        <time>2015-05-07T12:37:54Z</time>
      </trkpt>
      <trkpt lat="48.09588" lon="7.66797">
        <ele>333.23</ele>
        <time>2015-05-07T12:37:59Z</time>
      </trkpt>
      <trkpt lat="48.09589" lon="7.66798">
        <ele>327.47</ele>
        <time>2015-05-07T12:38:00Z</time>
      </trkpt>
      <trkpt lat="48.0959" lon="7.66801">
        <ele>330.83</ele>
        <time>2015-05-07T12:38:02Z</time>
      </trkpt>
      <trkpt lat="48.09591" lon="7.66802">
        <ele>328.43</ele>
        <time>2015-05-07T12:38:03Z</time>
      </trkpt>
      <trkpt lat="48.09591" lon="7.66805">
        <ele>334.68</ele>
        <time>2015-05-07T12:38:05Z</time>
      </trkpt>
      <trkpt lat="48.0959" lon="7.66806">
        <ele>330.83</ele>
        <time>2015-05-07T12:38:06Z</time>
      </trkpt>
      <trkpt lat="48.09591" lon="7.66814">
        <ele>330.35</ele>
        <time>2015-05-07T12:38:10Z</time>
      </trkpt>
      <trkpt lat="48.0959" lon="7.66825">
        <ele>331.31</ele>
        <time>2015-05-07T12:38:18Z</time>
      </trkpt>
      <trkpt lat="48.09588" lon="7.66831">
        <ele>329.87</ele>
        <time>2015-05-07T12:38:22Z</time>
      </trkpt>
      <trkpt lat="48.09584" lon="7.66841">
        <ele>334.2</ele>
        <time>2015-05-07T12:38:29Z</time>
      </trkpt>
      <trkpt lat="48.09583" lon="7.66842">
        <ele>333.23</ele>
        <time>2015-05-07T12:38:30Z</time>
      </trkpt>
      <trkpt lat="48.09583" lon="7.66844">
        <ele>329.87</ele>
        <time>2015-05-07T12:38:31Z</time>
      </trkpt>
      <trkpt lat="48.09582" lon="7.66846">
        <ele>329.87</ele>
        <time>2015-05-07T12:38:32Z</time>
      </trkpt>
      <trkpt lat="48.09578" lon="7.66855">
        <ele>333.71</ele>
        <time>2015-05-07T12:38:38Z</time>
      </trkpt>
      <trkpt lat="48.09577" lon="7.66858">
        <ele>328.91</ele>
        <time>2015-05-07T12:38:40Z</time>
      </trkpt>
      <trkpt lat="48.09574" lon="7.66866">
        <ele>333.23</ele>
        <time>2015-05-07T12:38:44Z</time>
      </trkpt>
      <trkpt lat="48.09574" lon="7.66868">
        <ele>328.91</ele>
        <time>2015-05-07T12:38:45Z</time>
      </trkpt>
      <trkpt lat="48.09571" lon="7.66874">
        <ele>331.79</ele>
        <time>2015-05-07T12:38:49Z</time>
      </trkpt>
      <trkpt lat="48.09569" lon="7.66881">
        <ele>328.91</ele>
        <time>2015-05-07T12:38:53Z</time>
      </trkpt>
      <trkpt lat="48.09568" lon="7.66883">
        <ele>329.87</ele>
        <time>2015-05-07T12:38:54Z</time>
      </trkpt>
      <trkpt lat="48.09566" lon="7.66888">
        <ele>335.64</ele>
        <time>2015-05-07T12:38:57Z</time>
      </trkpt>
      <trkpt lat="48.09566" lon="7.6689">
        <ele>335.16</ele>
        <time>2015-05-07T12:38:58Z</time>
      </trkpt>
      <trkpt lat="48.09565" lon="7.66894">
        <ele>330.83</ele>
        <time>2015-05-07T12:39:00Z</time>
      </trkpt>
      <trkpt lat="48.09563" lon="7.66899">
        <ele>336.12</ele>
        <time>2015-05-07T12:39:03Z</time>
      </trkpt>
      <trkpt lat="48.09562" lon="7.66903">
        <ele>332.27</ele>
        <time>2015-05-07T12:39:05Z</time>
      </trkpt>
      <trkpt lat="48.09561" lon="7.66908">
        <ele>337.08</ele>
        <time>2015-05-07T12:39:08Z</time>
      </trkpt>
      <trkpt lat="48.09561" lon="7.6691">
        <ele>333.71</ele>
        <time>2015-05-07T12:39:09Z</time>
      </trkpt>
      <trkpt lat="48.09561" lon="7.66911">
        <ele>330.35</ele>
        <time>2015-05-07T12:39:10Z</time>
      </trkpt>
      <trkpt lat="48.0956" lon="7.66913">
        <ele>331.79</ele>
        <time>2015-05-07T12:39:11Z</time>
      </trkpt>
      <trkpt lat="48.0956" lon="7.66914">
        <ele>334.68</ele>
        <time>2015-05-07T12:39:12Z</time>
      </trkpt>
      <trkpt lat="48.0956" lon="7.66915">
        <ele>332.75</ele>
        <time>2015-05-07T12:39:13Z</time>
      </trkpt>
      <trkpt lat="48.09557" lon="7.66918">
        <ele>336.12</ele>
        <time>2015-05-07T12:39:16Z</time>
      </trkpt>
      <trkpt lat="48.09557" lon="7.66919">
        <ele>334.68</ele>
        <time>2015-05-07T12:39:17Z</time>
      </trkpt>
      <trkpt lat="48.09554" lon="7.66921">
        <ele>337.08</ele>
        <time>2015-05-07T12:39:20Z</time>
      </trkpt>
      <trkpt lat="48.09553" lon="7.66923">
        <ele>334.2</ele>
        <time>2015-05-07T12:39:22Z</time>
      </trkpt>
      <trkpt lat="48.09553" lon="7.66923">
        <ele>337.56</ele>
        <time>2015-05-07T12:39:24Z</time>
      </trkpt>
      <trkpt lat="48.09553" lon="7.66923">
        <ele>334.2</ele>
        <time>2015-05-07T12:39:25Z</time>
      </trkpt>
      <trkpt lat="48.09553" lon="7.66923">
        <ele>337.08</ele>
        <time>2015-05-07T12:39:30Z</time>
      </trkpt>
      <trkpt lat="48.09545" lon="7.66936">
        <ele>338.52</ele>
        <time>2015-05-07T12:39:57Z</time>
      </trkpt>
      <trkpt lat="48.0954" lon="7.66939">
        <ele>341.89</ele>
        <time>2015-05-07T12:40:03Z</time>
      </trkpt>
      <trkpt lat="48.09539" lon="7.6694">
        <ele>338.04</ele>
        <time>2015-05-07T12:40:04Z</time>
      </trkpt>
      <trkpt lat="48.09537" lon="7.66942">
        <ele>340.92</ele>
        <time>2015-05-07T12:40:07Z</time>
      </trkpt>
      <trkpt lat="48.09534" lon="7.66947">
        <ele>343.33</ele>
        <time>2015-05-07T12:40:12Z</time>
      </trkpt>
      <trkpt lat="48.09533" lon="7.6695">
        <ele>340.44</ele>
        <time>2015-05-07T12:40:15Z</time>
      </trkpt>
      <trkpt lat="48.09532" lon="7.66952">
        <ele>343.81</ele>
        <time>2015-05-07T12:40:17Z</time>
      </trkpt>
      <trkpt lat="48.0953" lon="7.66954">
        <ele>339.48</ele>
        <time>2015-05-07T12:40:19Z</time>
      </trkpt>
      <trkpt lat="48.09529" lon="7.66957">
        <ele>345.25</ele>
        <time>2015-05-07T12:40:22Z</time>
      </trkpt>
      <trkpt lat="48.09529" lon="7.66958">
        <ele>341.89</ele>
        <time>2015-05-07T12:40:23Z</time>
      </trkpt>
      <trkpt lat="48.09526" lon="7.66961">
        <ele>344.77</ele>
        <time>2015-05-07T12:40:28Z</time>
      </trkpt>
      <trkpt lat="48.09525" lon="7.66963">
        <ele>345.73</ele>
        <time>2015-05-07T12:40:30Z</time>
      </trkpt>
      <trkpt lat="48.09524" lon="7.66963">
        <ele>342.37</ele>
        <time>2015-05-07T12:40:31Z</time>
      </trkpt>
      <trkpt lat="48.09523" lon="7.66964">
        <ele>347.65</ele>
        <time>2015-05-07T12:40:32Z</time>
      </trkpt>
      <trkpt lat="48.09522" lon="7.66964">
        <ele>342.85</ele>
        <time>2015-05-07T12:40:33Z</time>
      </trkpt>
      <trkpt lat="48.0952" lon="7.66964">
        <ele>347.17</ele>
        <time>2015-05-07T12:40:35Z</time>
      </trkpt>
      <trkpt lat="48.09519" lon="7.66964">
        <ele>342.85</ele>
        <time>2015-05-07T12:40:36Z</time>
      </trkpt>
      <trkpt lat="48.09518" lon="7.66964">
        <ele>347.65</ele>
        <time>2015-05-07T12:40:37Z</time>
      </trkpt>
      <trkpt lat="48.09518" lon="7.66965">
        <ele>344.29</ele>
        <time>2015-05-07T12:40:38Z</time>
      </trkpt>
      <trkpt lat="48.09517" lon="7.66965">
        <ele>350.06</ele>
        <time>2015-05-07T12:40:39Z</time>
      </trkpt>
      <trkpt lat="48.09516" lon="7.66966">
        <ele>343.33</ele>
        <time>2015-05-07T12:40:40Z</time>
      </trkpt>
      <trkpt lat="48.09515" lon="7.66968">
        <ele>348.13</ele>
        <time>2015-05-07T12:40:42Z</time>
      </trkpt>
      <trkpt lat="48.09514" lon="7.66969">
        <ele>344.77</ele>
        <time>2015-05-07T12:40:43Z</time>
      </trkpt>
      <trkpt lat="48.09513" lon="7.66969">
        <ele>349.58</ele>
        <time>2015-05-07T12:40:45Z</time>
      </trkpt>
      <trkpt lat="48.09512" lon="7.6697">
        <ele>344.29</ele>
        <time>2015-05-07T12:40:46Z</time>
      </trkpt>
      <trkpt lat="48.09511" lon="7.6697">
        <ele>348.62</ele>
        <time>2015-05-07T12:40:47Z</time>
      </trkpt>
      <trkpt lat="48.09509" lon="7.66971">
        <ele>345.73</ele>
        <time>2015-05-07T12:40:50Z</time>
      </trkpt>
      <trkpt lat="48.09508" lon="7.66972">
        <ele>350.06</ele>
        <time>2015-05-07T12:40:52Z</time>
      </trkpt>
      <trkpt lat="48.09507" lon="7.66973">
        <ele>347.65</ele>
        <time>2015-05-07T12:40:53Z</time>
      </trkpt>
      <trkpt lat="48.09506" lon="7.66973">
        <ele>351.02</ele>
        <time>2015-05-07T12:40:54Z</time>
      </trkpt>
      <trkpt lat="48.09505" lon="7.66974">
        <ele>347.17</ele>
        <time>2015-05-07T12:40:55Z</time>
      </trkpt>
      <trkpt lat="48.09505" lon="7.66974">
        <ele>351.5</ele>
        <time>2015-05-07T12:40:56Z</time>
      </trkpt>
      <trkpt lat="48.09502" lon="7.66975">
        <ele>348.13</ele>
        <time>2015-05-07T12:40:59Z</time>
      </trkpt>
      <trkpt lat="48.09501" lon="7.66976">
        <ele>352.94</ele>
        <time>2015-05-07T12:41:01Z</time>
      </trkpt>
      <trkpt lat="48.09501" lon="7.66976">
        <ele>352.46</ele>
        <time>2015-05-07T12:41:02Z</time>
      </trkpt>
      <trkpt lat="48.09497" lon="7.66978">
        <ele>349.1</ele>
        <time>2015-05-07T12:41:06Z</time>
      </trkpt>
      <trkpt lat="48.09496" lon="7.66978">
        <ele>351.98</ele>
        <time>2015-05-07T12:41:07Z</time>
      </trkpt>
      <trkpt lat="48.09495" lon="7.66979">
        <ele>348.62</ele>
        <time>2015-05-07T12:41:09Z</time>
      </trkpt>
      <trkpt lat="48.09494" lon="7.66979">
        <ele>352.94</ele>
        <time>2015-05-07T12:41:10Z</time>
      </trkpt>
      <trkpt lat="48.09491" lon="7.6698">
        <ele>349.1</ele>
        <time>2015-05-07T12:41:13Z</time>
      </trkpt>
      <trkpt lat="48.0949" lon="7.66981">
        <ele>355.34</ele>
        <time>2015-05-07T12:41:14Z</time>
      </trkpt>
      <trkpt lat="48.09489" lon="7.66981">
        <ele>351.02</ele>
        <time>2015-05-07T12:41:15Z</time>
      </trkpt>
      <trkpt lat="48.09482" lon="7.66984">
        <ele>355.34</ele>
        <time>2015-05-07T12:41:22Z</time>
      </trkpt>
      <trkpt lat="48.09478" lon="7.66984">
        <ele>351.02</ele>
        <time>2015-05-07T12:41:26Z</time>
      </trkpt>
      <trkpt lat="48.09477" lon="7.66984">
        <ele>354.38</ele>
        <time>2015-05-07T12:41:28Z</time>
      </trkpt>
      <trkpt lat="48.09476" lon="7.66986">
        <ele>355.34</ele>
        <time>2015-05-07T12:41:30Z</time>
      </trkpt>
      <trkpt lat="48.09474" lon="7.66987">
        <ele>359.19</ele>
        <time>2015-05-07T12:41:32Z</time>
      </trkpt>
      <trkpt lat="48.09473" lon="7.66988">
        <ele>353.42</ele>
        <time>2015-05-07T12:41:33Z</time>
      </trkpt>
      <trkpt lat="48.09469" lon="7.6699">
        <ele>356.31</ele>
        <time>2015-05-07T12:41:37Z</time>
      </trkpt>
      <trkpt lat="48.09467" lon="7.66992">
        <ele>353.42</ele>
        <time>2015-05-07T12:41:40Z</time>
      </trkpt>
      <trkpt lat="48.09466" lon="7.66993">
        <ele>356.31</ele>
        <time>2015-05-07T12:41:41Z</time>
      </trkpt>
      <trkpt lat="48.09464" lon="7.66995">
        <ele>353.42</ele>
        <time>2015-05-07T12:41:43Z</time>
      </trkpt>
      <trkpt lat="48.09463" lon="7.66995">
        <ele>357.27</ele>
        <time>2015-05-07T12:41:44Z</time>
      </trkpt>
      <trkpt lat="48.09457" lon="7.67002">
        <ele>357.27</ele>
        <time>2015-05-07T12:41:55Z</time>
      </trkpt>
      <trkpt lat="48.09457" lon="7.67004">
        <ele>357.27</ele>
        <time>2015-05-07T12:42:16Z</time>
      </trkpt>
      <trkpt lat="48.09457" lon="7.67004">
        <ele>360.63</ele>
        <time>2015-05-07T12:42:25Z</time>
      </trkpt>
      <trkpt lat="48.09458" lon="7.67005">
        <ele>355.34</ele>
        <time>2015-05-07T12:42:27Z</time>
      </trkpt>
      <trkpt lat="48.0946" lon="7.67005">
        <ele>358.23</ele>
        <time>2015-05-07T12:42:28Z</time>
      </trkpt>
      <trkpt lat="48.09466" lon="7.67009">
        <ele>362.07</ele>
        <time>2015-05-07T12:42:50Z</time>
      </trkpt>
      <trkpt lat="48.09467" lon="7.67009">
        <ele>355.83</ele>
        <time>2015-05-07T12:42:51Z</time>
      </trkpt>
      <trkpt lat="48.09468" lon="7.67011">
        <ele>362.55</ele>
        <time>2015-05-07T12:42:53Z</time>
      </trkpt>
      <trkpt lat="48.09469" lon="7.67011">
        <ele>359.19</ele>
        <time>2015-05-07T12:42:54Z</time>
      </trkpt>
      <trkpt lat="48.09471" lon="7.67012">
        <ele>360.63</ele>
        <time>2015-05-07T12:42:57Z</time>
      </trkpt>
      <trkpt lat="48.09473" lon="7.67014">
        <ele>364.48</ele>
        <time>2015-05-07T12:43:00Z</time>
      </trkpt>
      <trkpt lat="48.09475" lon="7.67015">
        <ele>358.23</ele>
        <time>2015-05-07T12:43:02Z</time>
      </trkpt>
      <trkpt lat="48.09475" lon="7.67015">
        <ele>360.63</ele>
        <time>2015-05-07T12:43:03Z</time>
      </trkpt>
      <trkpt lat="48.09477" lon="7.67016">
        <ele>364.96</ele>
        <time>2015-05-07T12:43:05Z</time>
      </trkpt>
      <trkpt lat="48.09477" lon="7.67017">
        <ele>363.04</ele>
        <time>2015-05-07T12:43:06Z</time>
      </trkpt>
      <trkpt lat="48.09479" lon="7.67019">
        <ele>359.67</ele>
        <time>2015-05-07T12:43:08Z</time>
      </trkpt>
      <trkpt lat="48.09479" lon="7.6702">
        <ele>364.48</ele>
        <time>2015-05-07T12:43:09Z</time>
      </trkpt>
      <trkpt lat="48.09479" lon="7.6702">
        <ele>361.11</ele>
        <time>2015-05-07T12:43:10Z</time>
      </trkpt>
      <trkpt lat="48.09479" lon="7.67021">
        <ele>364.48</ele>
        <time>2015-05-07T12:43:11Z</time>
      </trkpt>
      <trkpt lat="48.09481" lon="7.67022">
        <ele>362.55</ele>
        <time>2015-05-07T12:43:14Z</time>
      </trkpt>
      <trkpt lat="48.09482" lon="7.67024">
        <ele>365.44</ele>
        <time>2015-05-07T12:43:17Z</time>
      </trkpt>
      <trkpt lat="48.09483" lon="7.67027">
        <ele>369.76</ele>
        <time>2015-05-07T12:43:21Z</time>
      </trkpt>
      <trkpt lat="48.09484" lon="7.67028">
        <ele>364.48</ele>
        <time>2015-05-07T12:43:22Z</time>
      </trkpt>
      <trkpt lat="48.09484" lon="7.67029">
        <ele>367.36</ele>
        <time>2015-05-07T12:43:23Z</time>
      </trkpt>
      <trkpt lat="48.09485" lon="7.67031">
        <ele>363.52</ele>
        <time>2015-05-07T12:43:25Z</time>
      </trkpt>
      <trkpt lat="48.09485" lon="7.67032">
        <ele>364.96</ele>
        <time>2015-05-07T12:43:26Z</time>
      </trkpt>
      <trkpt lat="48.09489" lon="7.67039">
        <ele>369.76</ele>
        <time>2015-05-07T12:43:33Z</time>
      </trkpt>
      <trkpt lat="48.0949" lon="7.67039">
        <ele>364.48</ele>
        <time>2015-05-07T12:43:34Z</time>
      </trkpt>
      <trkpt lat="48.09491" lon="7.67041">
        <ele>370.24</ele>
        <time>2015-05-07T12:43:36Z</time>
      </trkpt>
      <trkpt lat="48.09491" lon="7.67041">
        <ele>367.84</ele>
        <time>2015-05-07T12:43:37Z</time>
      </trkpt>
      <trkpt lat="48.09494" lon="7.67045">
        <ele>367.36</ele>
        <time>2015-05-07T12:43:42Z</time>
      </trkpt>
      <trkpt lat="48.09502" lon="7.67056">
        <ele>373.61</ele>
        <time>2015-05-07T12:43:56Z</time>
      </trkpt>
      <trkpt lat="48.09502" lon="7.67057">
        <ele>369.76</ele>
        <time>2015-05-07T12:43:57Z</time>
      </trkpt>
      <trkpt lat="48.09503" lon="7.67058">
        <ele>370.73</ele>
        <time>2015-05-07T12:43:58Z</time>
      </trkpt>
      <trkpt lat="48.09505" lon="7.6706">
        <ele>373.61</ele>
        <time>2015-05-07T12:44:01Z</time>
      </trkpt>
      <trkpt lat="48.09505" lon="7.67061">
        <ele>373.61</ele>
        <time>2015-05-07T12:44:02Z</time>
      </trkpt>
      <trkpt lat="48.09507" lon="7.67064">
        <ele>369.76</ele>
        <time>2015-05-07T12:44:06Z</time>
      </trkpt>
      <trkpt lat="48.09508" lon="7.67065">
        <ele>374.09</ele>
        <time>2015-05-07T12:44:07Z</time>
      </trkpt>
      <trkpt lat="48.0951" lon="7.67067">
        <ele>370.24</ele>
        <time>2015-05-07T12:44:11Z</time>
      </trkpt>
      <trkpt lat="48.09511" lon="7.67069">
        <ele>374.09</ele>
        <time>2015-05-07T12:44:13Z</time>
      </trkpt>
      <trkpt lat="48.09514" lon="7.67073">
        <ele>376.97</ele>
        <time>2015-05-07T12:44:20Z</time>
      </trkpt>
      <trkpt lat="48.09519" lon="7.67083">
        <ele>380.82</ele>
        <time>2015-05-07T12:44:34Z</time>
      </trkpt>
      <trkpt lat="48.0952" lon="7.67083">
        <ele>376.97</ele>
        <time>2015-05-07T12:44:35Z</time>
      </trkpt>
      <trkpt lat="48.09521" lon="7.67086">
        <ele>380.34</ele>
        <time>2015-05-07T12:44:38Z</time>
      </trkpt>
      <trkpt lat="48.09526" lon="7.67095">
        <ele>384.66</ele>
        <time>2015-05-07T12:44:51Z</time>
      </trkpt>
      <trkpt lat="48.09526" lon="7.67096">
        <ele>380.82</ele>
        <time>2015-05-07T12:44:52Z</time>
      </trkpt>
      <trkpt lat="48.09528" lon="7.67099">
        <ele>385.15</ele>
        <time>2015-05-07T12:44:56Z</time>
      </trkpt>
      <trkpt lat="48.09529" lon="7.671">
        <ele>379.86</ele>
        <time>2015-05-07T12:44:57Z</time>
      </trkpt>
      <trkpt lat="48.09531" lon="7.67102">
        <ele>385.63</ele>
        <time>2015-05-07T12:45:02Z</time>
      </trkpt>
      <trkpt lat="48.09532" lon="7.67103">
        <ele>382.26</ele>
        <time>2015-05-07T12:45:03Z</time>
      </trkpt>
      <trkpt lat="48.09532" lon="7.67104">
        <ele>386.11</ele>
        <time>2015-05-07T12:45:04Z</time>
      </trkpt>
      <trkpt lat="48.09533" lon="7.67104">
        <ele>381.3</ele>
        <time>2015-05-07T12:45:05Z</time>
      </trkpt>
      <trkpt lat="48.09533" lon="7.67105">
        <ele>384.66</ele>
        <time>2015-05-07T12:45:06Z</time>
      </trkpt>
      <trkpt lat="48.09533" lon="7.67105">
        <ele>381.3</ele>
        <time>2015-05-07T12:45:07Z</time>
      </trkpt>
      <trkpt lat="48.09534" lon="7.67106">
        <ele>385.15</ele>
        <time>2015-05-07T12:45:08Z</time>
      </trkpt>
      <trkpt lat="48.09537" lon="7.6711">
        <ele>387.55</ele>
        <time>2015-05-07T12:45:17Z</time>
      </trkpt>
      <trkpt lat="48.09542" lon="7.67124">
        <ele>386.11</ele>
        <time>2015-05-07T12:45:43Z</time>
      </trkpt>
      <trkpt lat="48.09542" lon="7.67126">
        <ele>390.91</ele>
        <time>2015-05-07T12:45:45Z</time>
      </trkpt>
      <trkpt lat="48.09542" lon="7.67127">
        <ele>387.07</ele>
        <time>2015-05-07T12:45:46Z</time>
      </trkpt>
      <trkpt lat="48.09545" lon="7.67134">
        <ele>390.43</ele>
        <time>2015-05-07T12:45:55Z</time>
      </trkpt>
      <trkpt lat="48.09549" lon="7.67151">
        <ele>393.32</ele>
        <time>2015-05-07T12:46:10Z</time>
      </trkpt>
      <trkpt lat="48.09551" lon="7.67165">
        <ele>396.2</ele>
        <time>2015-05-07T12:46:22Z</time>
      </trkpt>
      <trkpt lat="48.0955" lon="7.67166">
        <ele>390.91</ele>
        <time>2015-05-07T12:46:23Z</time>
      </trkpt>
      <trkpt lat="48.09551" lon="7.67167">
        <ele>393.8</ele>
        <time>2015-05-07T12:46:24Z</time>
      </trkpt>
      <trkpt lat="48.09551" lon="7.6717">
        <ele>397.64</ele>
        <time>2015-05-07T12:46:26Z</time>
      </trkpt>
      <trkpt lat="48.09551" lon="7.67171">
        <ele>395.24</ele>
        <time>2015-05-07T12:46:27Z</time>
      </trkpt>
      <trkpt lat="48.09552" lon="7.67175">
        <ele>392.36</ele>
        <time>2015-05-07T12:46:30Z</time>
      </trkpt>
      <trkpt lat="48.09553" lon="7.67178">
        <ele>397.64</ele>
        <time>2015-05-07T12:46:32Z</time>
      </trkpt>
      <trkpt lat="48.09553" lon="7.67181">
        <ele>392.84</ele>
        <time>2015-05-07T12:46:35Z</time>
      </trkpt>
      <trkpt lat="48.09553" lon="7.67184">
        <ele>395.72</ele>
        <time>2015-05-07T12:46:37Z</time>
      </trkpt>
      <trkpt lat="48.09553" lon="7.67185">
        <ele>398.6</ele>
        <time>2015-05-07T12:46:38Z</time>
      </trkpt>
      <trkpt lat="48.09553" lon="7.67187">
        <ele>397.16</ele>
        <time>2015-05-07T12:46:39Z</time>
      </trkpt>
      <trkpt lat="48.09553" lon="7.67202">
        <ele>400.05</ele>
        <time>2015-05-07T12:46:51Z</time>
      </trkpt>
      <trkpt lat="48.09553" lon="7.67204">
        <ele>394.76</ele>
        <time>2015-05-07T12:46:52Z</time>
      </trkpt>
      <trkpt lat="48.09553" lon="7.67205">
        <ele>398.12</ele>
        <time>2015-05-07T12:46:53Z</time>
      </trkpt>
      <trkpt lat="48.09554" lon="7.67213">
        <ele>396.68</ele>
        <time>2015-05-07T12:46:59Z</time>
      </trkpt>
      <trkpt lat="48.09554" lon="7.67215">
        <ele>401.01</ele>
        <time>2015-05-07T12:47:00Z</time>
      </trkpt>
      <trkpt lat="48.09553" lon="7.67216">
        <ele>397.16</ele>
        <time>2015-05-07T12:47:01Z</time>
      </trkpt>
      <trkpt lat="48.09553" lon="7.67219">
        <ele>398.6</ele>
        <time>2015-05-07T12:47:03Z</time>
      </trkpt>
      <trkpt lat="48.09553" lon="7.67222">
        <ele>397.16</ele>
        <time>2015-05-07T12:47:05Z</time>
      </trkpt>
      <trkpt lat="48.09552" lon="7.67225">
        <ele>400.53</ele>
        <time>2015-05-07T12:47:07Z</time>
      </trkpt>
      <trkpt lat="48.09552" lon="7.67227">
        <ele>396.68</ele>
        <time>2015-05-07T12:47:08Z</time>
      </trkpt>
      <trkpt lat="48.09552" lon="7.6723">
        <ele>399.57</ele>
        <time>2015-05-07T12:47:10Z</time>
      </trkpt>
      <trkpt lat="48.09551" lon="7.67239">
        <ele>396.68</ele>
        <time>2015-05-07T12:47:16Z</time>
      </trkpt>
      <trkpt lat="48.09551" lon="7.67241">
        <ele>401.49</ele>
        <time>2015-05-07T12:47:17Z</time>
      </trkpt>
      <trkpt lat="48.09551" lon="7.67242">
        <ele>397.16</ele>
        <time>2015-05-07T12:47:18Z</time>
      </trkpt>
      <trkpt lat="48.09551" lon="7.67245">
        <ele>401.01</ele>
        <time>2015-05-07T12:47:20Z</time>
      </trkpt>
      <trkpt lat="48.09551" lon="7.67246">
        <ele>400.05</ele>
        <time>2015-05-07T12:47:21Z</time>
      </trkpt>
      <trkpt lat="48.0955" lon="7.67262">
        <ele>402.93</ele>
        <time>2015-05-07T12:47:31Z</time>
      </trkpt>
      <trkpt lat="48.0955" lon="7.67265">
        <ele>400.05</ele>
        <time>2015-05-07T12:47:33Z</time>
      </trkpt>
      <trkpt lat="48.0955" lon="7.67267">
        <ele>403.89</ele>
        <time>2015-05-07T12:47:34Z</time>
      </trkpt>
      <trkpt lat="48.09549" lon="7.67268">
        <ele>398.6</ele>
        <time>2015-05-07T12:47:35Z</time>
      </trkpt>
      <trkpt lat="48.09549" lon="7.67269">
        <ele>402.93</ele>
        <time>2015-05-07T12:47:36Z</time>
      </trkpt>
      <trkpt lat="48.09545" lon="7.67292">
        <ele>406.29</ele>
        <time>2015-05-07T12:47:53Z</time>
      </trkpt>
      <trkpt lat="48.09545" lon="7.67293">
        <ele>402.45</ele>
        <time>2015-05-07T12:47:54Z</time>
      </trkpt>
      <trkpt lat="48.09544" lon="7.67295">
        <ele>405.81</ele>
        <time>2015-05-07T12:47:55Z</time>
      </trkpt>
      <trkpt lat="48.09544" lon="7.67306">
        <ele>409.18</ele>
        <time>2015-05-07T12:48:05Z</time>
      </trkpt>
      <trkpt lat="48.09544" lon="7.67307">
        <ele>404.85</ele>
        <time>2015-05-07T12:48:06Z</time>
      </trkpt>
      <trkpt lat="48.09544" lon="7.67308">
        <ele>409.18</ele>
        <time>2015-05-07T12:48:07Z</time>
      </trkpt>
      <trkpt lat="48.09542" lon="7.6732">
        <ele>409.66</ele>
        <time>2015-05-07T12:48:28Z</time>
      </trkpt>
      <trkpt lat="48.09541" lon="7.67322">
        <ele>406.29</ele>
        <time>2015-05-07T12:48:41Z</time>
      </trkpt>
      <trkpt lat="48.09541" lon="7.67322">
        <ele>410.62</ele>
        <time>2015-05-07T12:48:42Z</time>
      </trkpt>
      <trkpt lat="48.0954" lon="7.67328">
        <ele>413.5</ele>
        <time>2015-05-07T12:48:49Z</time>
      </trkpt>
      <trkpt lat="48.0954" lon="7.67329">
        <ele>409.18</ele>
        <time>2015-05-07T12:48:50Z</time>
      </trkpt>
      <trkpt lat="48.09539" lon="7.6733">
        <ele>413.02</ele>
        <time>2015-05-07T12:48:51Z</time>
      </trkpt>
      <trkpt lat="48.09535" lon="7.67345">
        <ele>415.91</ele>
        <time>2015-05-07T12:49:08Z</time>
      </trkpt>
      <trkpt lat="48.09531" lon="7.67353">
        <ele>421.19</ele>
        <time>2015-05-07T12:49:20Z</time>
      </trkpt>
      <trkpt lat="48.09531" lon="7.67354">
        <ele>415.91</ele>
        <time>2015-05-07T12:49:21Z</time>
      </trkpt>
      <trkpt lat="48.0953" lon="7.67355">
        <ele>419.27</ele>
        <time>2015-05-07T12:49:24Z</time>
      </trkpt>
      <trkpt lat="48.0953" lon="7.67356">
        <ele>415.43</ele>
        <time>2015-05-07T12:49:25Z</time>
      </trkpt>
      <trkpt lat="48.0953" lon="7.67357">
        <ele>419.27</ele>
        <time>2015-05-07T12:49:26Z</time>
      </trkpt>
      <trkpt lat="48.09531" lon="7.67363">
        <ele>420.23</ele>
        <time>2015-05-07T12:49:34Z</time>
      </trkpt>
      <trkpt lat="48.09531" lon="7.67363">
        <ele>416.87</ele>
        <time>2015-05-07T12:49:36Z</time>
      </trkpt>
      <trkpt lat="48.09531" lon="7.67363">
        <ele>420.23</ele>
        <time>2015-05-07T12:49:39Z</time>
      </trkpt>
      <trkpt lat="48.0953" lon="7.67364">
        <ele>417.35</ele>
        <time>2015-05-07T12:49:50Z</time>
      </trkpt>
      <trkpt lat="48.09527" lon="7.67364">
        <ele>418.31</ele>
        <time>2015-05-07T12:50:20Z</time>
      </trkpt>
      <trkpt lat="48.09522" lon="7.67368">
        <ele>417.83</ele>
        <time>2015-05-07T12:50:40Z</time>
      </trkpt>
      <trkpt lat="48.09524" lon="7.67371">
        <ele>417.83</ele>
        <time>2015-05-07T12:50:43Z</time>
      </trkpt>
      <trkpt lat="48.09527" lon="7.67385">
        <ele>414.47</ele>
        <time>2015-05-07T12:50:54Z</time>
      </trkpt>
      <trkpt lat="48.09527" lon="7.67387">
        <ele>417.83</ele>
        <time>2015-05-07T12:50:55Z</time>
      </trkpt>
      <trkpt lat="48.09526" lon="7.67393">
        <ele>414.47</ele>
        <time>2015-05-07T12:50:59Z</time>
      </trkpt>
      <trkpt lat="48.09526" lon="7.67394">
        <ele>415.43</ele>
        <time>2015-05-07T12:51:00Z</time>
      </trkpt>
      <trkpt lat="48.09526" lon="7.67396">
        <ele>413.02</ele>
        <time>2015-05-07T12:51:02Z</time>
      </trkpt>
      <trkpt lat="48.09528" lon="7.67406">
        <ele>412.54</ele>
        <time>2015-05-07T12:51:09Z</time>
      </trkpt>
      <trkpt lat="48.09527" lon="7.67407">
        <ele>413.02</ele>
        <time>2015-05-07T12:51:10Z</time>
      </trkpt>
      <trkpt lat="48.09528" lon="7.67411">
        <ele>415.91</ele>
        <time>2015-05-07T12:51:13Z</time>
      </trkpt>
      <trkpt lat="48.09528" lon="7.67415">
        <ele>411.58</ele>
        <time>2015-05-07T12:51:16Z</time>
      </trkpt>
      <trkpt lat="48.09528" lon="7.67417">
        <ele>412.06</ele>
        <time>2015-05-07T12:51:17Z</time>
      </trkpt>
      <trkpt lat="48.09528" lon="7.67417">
        <ele>413.02</ele>
        <time>2015-05-07T12:51:19Z</time>
      </trkpt>
      <trkpt lat="48.09531" lon="7.67432">
        <ele>412.06</ele>
        <time>2015-05-07T12:51:49Z</time>
      </trkpt>
      <trkpt lat="48.09532" lon="7.67436">
        <ele>408.7</ele>
        <time>2015-05-07T12:51:51Z</time>
      </trkpt>
      <trkpt lat="48.09532" lon="7.67438">
        <ele>410.14</ele>
        <time>2015-05-07T12:51:52Z</time>
      </trkpt>
      <trkpt lat="48.09535" lon="7.67449">
        <ele>410.14</ele>
        <time>2015-05-07T12:51:59Z</time>
      </trkpt>
      <trkpt lat="48.09535" lon="7.6745">
        <ele>408.7</ele>
        <time>2015-05-07T12:52:00Z</time>
      </trkpt>
      <trkpt lat="48.09534" lon="7.67455">
        <ele>411.58</ele>
        <time>2015-05-07T12:52:03Z</time>
      </trkpt>
      <trkpt lat="48.09534" lon="7.67457">
        <ele>410.62</ele>
        <time>2015-05-07T12:52:04Z</time>
      </trkpt>
      <trkpt lat="48.09533" lon="7.67464">
        <ele>407.74</ele>
        <time>2015-05-07T12:52:08Z</time>
      </trkpt>
      <trkpt lat="48.09532" lon="7.67476">
        <ele>403.89</ele>
        <time>2015-05-07T12:52:14Z</time>
      </trkpt>
      <trkpt lat="48.09534" lon="7.67505">
        <ele>402.93</ele>
        <time>2015-05-07T12:52:30Z</time>
      </trkpt>
      <trkpt lat="48.09534" lon="7.67516">
        <ele>404.85</ele>
        <time>2015-05-07T12:52:37Z</time>
      </trkpt>
      <trkpt lat="48.09536" lon="7.67523">
        <ele>399.08</ele>
        <time>2015-05-07T12:52:42Z</time>
      </trkpt>
      <trkpt lat="48.09539" lon="7.67541">
        <ele>395.72</ele>
        <time>2015-05-07T12:52:52Z</time>
      </trkpt>
      <trkpt lat="48.09539" lon="7.67543">
        <ele>401.01</ele>
        <time>2015-05-07T12:52:53Z</time>
      </trkpt>
      <trkpt lat="48.0954" lon="7.67553">
        <ele>401.01</ele>
        <time>2015-05-07T12:52:59Z</time>
      </trkpt>
      <trkpt lat="48.09542" lon="7.67562">
        <ele>403.89</ele>
        <time>2015-05-07T12:53:03Z</time>
      </trkpt>
      <trkpt lat="48.09543" lon="7.67573">
        <ele>400.53</ele>
        <time>2015-05-07T12:53:09Z</time>
      </trkpt>
      <trkpt lat="48.09543" lon="7.67576">
        <ele>400.53</ele>
        <time>2015-05-07T12:53:10Z</time>
      </trkpt>
      <trkpt lat="48.09543" lon="7.67579">
        <ele>401.97</ele>
        <time>2015-05-07T12:53:12Z</time>
      </trkpt>
      <trkpt lat="48.09544" lon="7.67583">
        <ele>401.01</ele>
        <time>2015-05-07T12:53:14Z</time>
      </trkpt>
      <trkpt lat="48.09547" lon="7.67594">
        <ele>404.37</ele>
        <time>2015-05-07T12:53:21Z</time>
      </trkpt>
      <trkpt lat="48.0955" lon="7.67602">
        <ele>403.89</ele>
        <time>2015-05-07T12:53:26Z</time>
      </trkpt>
      <trkpt lat="48.09552" lon="7.67609">
        <ele>407.74</ele>
        <time>2015-05-07T12:53:31Z</time>
      </trkpt>
      <trkpt lat="48.09552" lon="7.67612">
        <ele>402.93</ele>
        <time>2015-05-07T12:53:33Z</time>
      </trkpt>
      <trkpt lat="48.09553" lon="7.67614">
        <ele>406.77</ele>
        <time>2015-05-07T12:53:35Z</time>
      </trkpt>
      <trkpt lat="48.09554" lon="7.67616">
        <ele>403.41</ele>
        <time>2015-05-07T12:53:37Z</time>
      </trkpt>
      <trkpt lat="48.09554" lon="7.67619">
        <ele>406.77</ele>
        <time>2015-05-07T12:53:39Z</time>
      </trkpt>
      <trkpt lat="48.09554" lon="7.67621">
        <ele>406.29</ele>
        <time>2015-05-07T12:53:40Z</time>
      </trkpt>
      <trkpt lat="48.09554" lon="7.67622">
        <ele>409.66</ele>
        <time>2015-05-07T12:53:41Z</time>
      </trkpt>
      <trkpt lat="48.09555" lon="7.67623">
        <ele>405.33</ele>
        <time>2015-05-07T12:53:42Z</time>
      </trkpt>
      <trkpt lat="48.09555" lon="7.67626">
        <ele>410.14</ele>
        <time>2015-05-07T12:53:45Z</time>
      </trkpt>
      <trkpt lat="48.09556" lon="7.67628">
        <ele>410.14</ele>
        <time>2015-05-07T12:53:46Z</time>
      </trkpt>
      <trkpt lat="48.09556" lon="7.67629">
        <ele>405.81</ele>
        <time>2015-05-07T12:53:47Z</time>
      </trkpt>
      <trkpt lat="48.09556" lon="7.6763">
        <ele>406.29</ele>
        <time>2015-05-07T12:53:48Z</time>
      </trkpt>
      <trkpt lat="48.09557" lon="7.67631">
        <ele>411.58</ele>
        <time>2015-05-07T12:53:49Z</time>
      </trkpt>
      <trkpt lat="48.09557" lon="7.67633">
        <ele>410.14</ele>
        <time>2015-05-07T12:53:50Z</time>
      </trkpt>
      <trkpt lat="48.09557" lon="7.67634">
        <ele>404.37</ele>
        <time>2015-05-07T12:53:51Z</time>
      </trkpt>
      <trkpt lat="48.09558" lon="7.67634">
        <ele>408.7</ele>
        <time>2015-05-07T12:53:52Z</time>
      </trkpt>
      <trkpt lat="48.09558" lon="7.67635">
        <ele>412.06</ele>
        <time>2015-05-07T12:53:53Z</time>
      </trkpt>
      <trkpt lat="48.09558" lon="7.67636">
        <ele>406.77</ele>
        <time>2015-05-07T12:53:54Z</time>
      </trkpt>
      <trkpt lat="48.09559" lon="7.67637">
        <ele>410.62</ele>
        <time>2015-05-07T12:53:56Z</time>
      </trkpt>
      <trkpt lat="48.09559" lon="7.67638">
        <ele>409.66</ele>
        <time>2015-05-07T12:53:57Z</time>
      </trkpt>
      <trkpt lat="48.0956" lon="7.67638">
        <ele>413.5</ele>
        <time>2015-05-07T12:53:58Z</time>
      </trkpt>
      <trkpt lat="48.0956" lon="7.67641">
        <ele>408.7</ele>
        <time>2015-05-07T12:54:00Z</time>
      </trkpt>
      <trkpt lat="48.0956" lon="7.67642">
        <ele>413.98</ele>
        <time>2015-05-07T12:54:01Z</time>
      </trkpt>
      <trkpt lat="48.09561" lon="7.67644">
        <ele>409.18</ele>
        <time>2015-05-07T12:54:03Z</time>
      </trkpt>
      <trkpt lat="48.09561" lon="7.67645">
        <ele>409.66</ele>
        <time>2015-05-07T12:54:04Z</time>
      </trkpt>
      <trkpt lat="48.09562" lon="7.67646">
        <ele>415.91</ele>
        <time>2015-05-07T12:54:05Z</time>
      </trkpt>
      <trkpt lat="48.09562" lon="7.67647">
        <ele>413.98</ele>
        <time>2015-05-07T12:54:06Z</time>
      </trkpt>
      <trkpt lat="48.09563" lon="7.67648">
        <ele>409.66</ele>
        <time>2015-05-07T12:54:07Z</time>
      </trkpt>
      <trkpt lat="48.09563" lon="7.67649">
        <ele>412.06</ele>
        <time>2015-05-07T12:54:08Z</time>
      </trkpt>
      <trkpt lat="48.09563" lon="7.67654">
        <ele>417.35</ele>
        <time>2015-05-07T12:54:13Z</time>
      </trkpt>
      <trkpt lat="48.09563" lon="7.67655">
        <ele>412.06</ele>
        <time>2015-05-07T12:54:14Z</time>
      </trkpt>
      <trkpt lat="48.09564" lon="7.67656">
        <ele>416.39</ele>
        <time>2015-05-07T12:54:16Z</time>
      </trkpt>
      <trkpt lat="48.09564" lon="7.67657">
        <ele>411.1</ele>
        <time>2015-05-07T12:54:17Z</time>
      </trkpt>
      <trkpt lat="48.09564" lon="7.67658">
        <ele>414.47</ele>
        <time>2015-05-07T12:54:18Z</time>
      </trkpt>
      <trkpt lat="48.09566" lon="7.67661">
        <ele>418.31</ele>
        <time>2015-05-07T12:54:24Z</time>
      </trkpt>
      <trkpt lat="48.09566" lon="7.67662">
        <ele>413.5</ele>
        <time>2015-05-07T12:54:25Z</time>
      </trkpt>
      <trkpt lat="48.09567" lon="7.67663">
        <ele>416.87</ele>
        <time>2015-05-07T12:54:26Z</time>
      </trkpt>
      <trkpt lat="48.09567" lon="7.67664">
        <ele>413.5</ele>
        <time>2015-05-07T12:54:28Z</time>
      </trkpt>
      <trkpt lat="48.09567" lon="7.67665">
        <ele>417.35</ele>
        <time>2015-05-07T12:54:29Z</time>
      </trkpt>
      <trkpt lat="48.09567" lon="7.67667">
        <ele>418.31</ele>
        <time>2015-05-07T12:54:31Z</time>
      </trkpt>
      <trkpt lat="48.09567" lon="7.67668">
        <ele>414.95</ele>
        <time>2015-05-07T12:54:32Z</time>
      </trkpt>
      <trkpt lat="48.09568" lon="7.67669">
        <ele>420.71</ele>
        <time>2015-05-07T12:54:33Z</time>
      </trkpt>
      <trkpt lat="48.09568" lon="7.6767">
        <ele>416.39</ele>
        <time>2015-05-07T12:54:34Z</time>
      </trkpt>
      <trkpt lat="48.09568" lon="7.67671">
        <ele>413.02</ele>
        <time>2015-05-07T12:54:35Z</time>
      </trkpt>
      <trkpt lat="48.09568" lon="7.67671">
        <ele>418.31</ele>
        <time>2015-05-07T12:54:36Z</time>
      </trkpt>
      <trkpt lat="48.09571" lon="7.67676">
        <ele>423.6</ele>
        <time>2015-05-07T12:54:45Z</time>
      </trkpt>
      <trkpt lat="48.09572" lon="7.67677">
        <ele>417.35</ele>
        <time>2015-05-07T12:54:46Z</time>
      </trkpt>
      <trkpt lat="48.09573" lon="7.67678">
        <ele>420.71</ele>
        <time>2015-05-07T12:54:49Z</time>
      </trkpt>
      <trkpt lat="48.09574" lon="7.67679">
        <ele>420.23</ele>
        <time>2015-05-07T12:54:50Z</time>
      </trkpt>
      <trkpt lat="48.09575" lon="7.67681">
        <ele>424.56</ele>
        <time>2015-05-07T12:54:53Z</time>
      </trkpt>
      <trkpt lat="48.09575" lon="7.67682">
        <ele>421.19</ele>
        <time>2015-05-07T12:54:54Z</time>
      </trkpt>
      <trkpt lat="48.09576" lon="7.67684">
        <ele>426</ele>
        <time>2015-05-07T12:54:57Z</time>
      </trkpt>
      <trkpt lat="48.09577" lon="7.67684">
        <ele>419.75</ele>
        <time>2015-05-07T12:54:58Z</time>
      </trkpt>
      <trkpt lat="48.09578" lon="7.67686">
        <ele>423.6</ele>
        <time>2015-05-07T12:55:00Z</time>
      </trkpt>
      <trkpt lat="48.09578" lon="7.67686">
        <ele>420.23</ele>
        <time>2015-05-07T12:55:01Z</time>
      </trkpt>
      <trkpt lat="48.09579" lon="7.67688">
        <ele>427.44</ele>
        <time>2015-05-07T12:55:03Z</time>
      </trkpt>
      <trkpt lat="48.09579" lon="7.67688">
        <ele>424.08</ele>
        <time>2015-05-07T12:55:04Z</time>
      </trkpt>
      <trkpt lat="48.09579" lon="7.67689">
        <ele>427.44</ele>
        <time>2015-05-07T12:55:05Z</time>
      </trkpt>
      <trkpt lat="48.0958" lon="7.6769">
        <ele>423.12</ele>
        <time>2015-05-07T12:55:06Z</time>
      </trkpt>
      <trkpt lat="48.0958" lon="7.67692">
        <ele>428.4</ele>
        <time>2015-05-07T12:55:08Z</time>
      </trkpt>
      <trkpt lat="48.09581" lon="7.67693">
        <ele>422.64</ele>
        <time>2015-05-07T12:55:09Z</time>
      </trkpt>
      <trkpt lat="48.09581" lon="7.67694">
        <ele>426</ele>
        <time>2015-05-07T12:55:11Z</time>
      </trkpt>
      <trkpt lat="48.09582" lon="7.67694">
        <ele>422.64</ele>
        <time>2015-05-07T12:55:12Z</time>
      </trkpt>
      <trkpt lat="48.09582" lon="7.67695">
        <ele>426</ele>
        <time>2015-05-07T12:55:13Z</time>
      </trkpt>
      <trkpt lat="48.09582" lon="7.67695">
        <ele>429.37</ele>
        <time>2015-05-07T12:55:14Z</time>
      </trkpt>
      <trkpt lat="48.09582" lon="7.67696">
        <ele>425.52</ele>
        <time>2015-05-07T12:55:15Z</time>
      </trkpt>
      <trkpt lat="48.09583" lon="7.67696">
        <ele>429.85</ele>
        <time>2015-05-07T12:55:16Z</time>
      </trkpt>
      <trkpt lat="48.09583" lon="7.67697">
        <ele>424.56</ele>
        <time>2015-05-07T12:55:17Z</time>
      </trkpt>
      <trkpt lat="48.09584" lon="7.67699">
        <ele>428.4</ele>
        <time>2015-05-07T12:55:19Z</time>
      </trkpt>
      <trkpt lat="48.09584" lon="7.67699">
        <ele>427.92</ele>
        <time>2015-05-07T12:55:20Z</time>
      </trkpt>
      <trkpt lat="48.09585" lon="7.67701">
        <ele>424.08</ele>
        <time>2015-05-07T12:55:22Z</time>
      </trkpt>
      <trkpt lat="48.09585" lon="7.67701">
        <ele>427.44</ele>
        <time>2015-05-07T12:55:23Z</time>
      </trkpt>
      <trkpt lat="48.09587" lon="7.67706">
        <ele>432.25</ele>
        <time>2015-05-07T12:55:28Z</time>
      </trkpt>
      <trkpt lat="48.09587" lon="7.67706">
        <ele>426.96</ele>
        <time>2015-05-07T12:55:29Z</time>
      </trkpt>
      <trkpt lat="48.09587" lon="7.67709">
        <ele>432.73</ele>
        <time>2015-05-07T12:55:31Z</time>
      </trkpt>
      <trkpt lat="48.09587" lon="7.6771">
        <ele>428.89</ele>
        <time>2015-05-07T12:55:32Z</time>
      </trkpt>
      <trkpt lat="48.09587" lon="7.6771">
        <ele>433.21</ele>
        <time>2015-05-07T12:55:33Z</time>
      </trkpt>
      <trkpt lat="48.09587" lon="7.67711">
        <ele>429.85</ele>
        <time>2015-05-07T12:55:34Z</time>
      </trkpt>
      <trkpt lat="48.09587" lon="7.67712">
        <ele>433.69</ele>
        <time>2015-05-07T12:55:36Z</time>
      </trkpt>
      <trkpt lat="48.09588" lon="7.67713">
        <ele>428.89</ele>
        <time>2015-05-07T12:55:37Z</time>
      </trkpt>
      <trkpt lat="48.09589" lon="7.67718">
        <ele>432.25</ele>
        <time>2015-05-07T12:55:43Z</time>
      </trkpt>
      <trkpt lat="48.09592" lon="7.67722">
        <ele>432.73</ele>
        <time>2015-05-07T12:56:03Z</time>
      </trkpt>
      <trkpt lat="48.09594" lon="7.67722">
        <ele>436.1</ele>
        <time>2015-05-07T12:56:29Z</time>
      </trkpt>
      <trkpt lat="48.09594" lon="7.67721">
        <ele>433.21</ele>
        <time>2015-05-07T12:56:30Z</time>
      </trkpt>
      <trkpt lat="48.09594" lon="7.6772">
        <ele>429.85</ele>
        <time>2015-05-07T12:56:39Z</time>
      </trkpt>
      <trkpt lat="48.09593" lon="7.67721">
        <ele>433.21</ele>
        <time>2015-05-07T12:56:41Z</time>
      </trkpt>
      <trkpt lat="48.09593" lon="7.67721">
        <ele>433.21</ele>
        <time>2015-05-07T12:56:42Z</time>
      </trkpt>
      <trkpt lat="48.09592" lon="7.67724">
        <ele>429.85</ele>
        <time>2015-05-07T12:56:46Z</time>
      </trkpt>
      <trkpt lat="48.09592" lon="7.67725">
        <ele>433.21</ele>
        <time>2015-05-07T12:56:47Z</time>
      </trkpt>
      <trkpt lat="48.0959" lon="7.67726">
        <ele>432.73</ele>
        <time>2015-05-07T12:57:01Z</time>
      </trkpt>
      <trkpt lat="48.0959" lon="7.67726">
        <ele>431.77</ele>
        <time>2015-05-07T12:57:03Z</time>
      </trkpt>
      <trkpt lat="48.0959" lon="7.67726">
        <ele>435.13</ele>
        <time>2015-05-07T12:57:28Z</time>
      </trkpt>
      <trkpt lat="48.0959" lon="7.67726">
        <ele>432.25</ele>
        <time>2015-05-07T12:57:44Z</time>
      </trkpt>
      <trkpt lat="48.0959" lon="7.67726">
        <ele>430.81</ele>
        <time>2015-05-07T12:57:54Z</time>
      </trkpt>
      <trkpt lat="48.0959" lon="7.67726">
        <ele>432.73</ele>
        <time>2015-05-07T12:57:56Z</time>
      </trkpt>
      <trkpt lat="48.09583" lon="7.67731">
        <ele>432.25</ele>
        <time>2015-05-07T12:58:18Z</time>
      </trkpt>
      <trkpt lat="48.09579" lon="7.67743">
        <ele>430.81</ele>
        <time>2015-05-07T12:58:25Z</time>
      </trkpt>
      <trkpt lat="48.09571" lon="7.6776">
        <ele>431.77</ele>
        <time>2015-05-07T12:58:35Z</time>
      </trkpt>
      <trkpt lat="48.0957" lon="7.67765">
        <ele>428.4</ele>
        <time>2015-05-07T12:58:38Z</time>
      </trkpt>
      <trkpt lat="48.09569" lon="7.67768">
        <ele>425.52</ele>
        <time>2015-05-07T12:58:40Z</time>
      </trkpt>
      <trkpt lat="48.09565" lon="7.6778">
        <ele>425.04</ele>
        <time>2015-05-07T12:58:47Z</time>
      </trkpt>
      <trkpt lat="48.09562" lon="7.67792">
        <ele>425.04</ele>
        <time>2015-05-07T12:58:55Z</time>
      </trkpt>
      <trkpt lat="48.09561" lon="7.67801">
        <ele>421.19</ele>
        <time>2015-05-07T12:59:01Z</time>
      </trkpt>
      <trkpt lat="48.0956" lon="7.67803">
        <ele>423.12</ele>
        <time>2015-05-07T12:59:02Z</time>
      </trkpt>
      <trkpt lat="48.09558" lon="7.67808">
        <ele>425.52</ele>
        <time>2015-05-07T12:59:05Z</time>
      </trkpt>
      <trkpt lat="48.0955" lon="7.67835">
        <ele>425.04</ele>
        <time>2015-05-07T12:59:20Z</time>
      </trkpt>
      <trkpt lat="48.09548" lon="7.6784">
        <ele>421.19</ele>
        <time>2015-05-07T12:59:23Z</time>
      </trkpt>
      <trkpt lat="48.09547" lon="7.67842">
        <ele>420.71</ele>
        <time>2015-05-07T12:59:24Z</time>
      </trkpt>
      <trkpt lat="48.09545" lon="7.67848">
        <ele>423.6</ele>
        <time>2015-05-07T12:59:27Z</time>
      </trkpt>
      <trkpt lat="48.09545" lon="7.6785">
        <ele>419.75</ele>
        <time>2015-05-07T12:59:28Z</time>
      </trkpt>
      <trkpt lat="48.09545" lon="7.67852">
        <ele>420.23</ele>
        <time>2015-05-07T12:59:29Z</time>
      </trkpt>
      <trkpt lat="48.09544" lon="7.67855">
        <ele>422.16</ele>
        <time>2015-05-07T12:59:31Z</time>
      </trkpt>
      <trkpt lat="48.09541" lon="7.67868">
        <ele>425.52</ele>
        <time>2015-05-07T12:59:38Z</time>
      </trkpt>
      <trkpt lat="48.0954" lon="7.6787">
        <ele>421.19</ele>
        <time>2015-05-07T12:59:39Z</time>
      </trkpt>
      <trkpt lat="48.09539" lon="7.67875">
        <ele>425.52</ele>
        <time>2015-05-07T12:59:42Z</time>
      </trkpt>
      <trkpt lat="48.09539" lon="7.67876">
        <ele>425.04</ele>
        <time>2015-05-07T12:59:43Z</time>
      </trkpt>
      <trkpt lat="48.09539" lon="7.67886">
        <ele>428.4</ele>
        <time>2015-05-07T12:59:49Z</time>
      </trkpt>
      <trkpt lat="48.09539" lon="7.67897">
        <ele>431.77</ele>
        <time>2015-05-07T12:59:57Z</time>
      </trkpt>
      <trkpt lat="48.09539" lon="7.67898">
        <ele>425.04</ele>
        <time>2015-05-07T12:59:58Z</time>
      </trkpt>
      <trkpt lat="48.09539" lon="7.679">
        <ele>429.37</ele>
        <time>2015-05-07T12:59:59Z</time>
      </trkpt>
      <trkpt lat="48.09538" lon="7.67905">
        <ele>426</ele>
        <time>2015-05-07T13:00:03Z</time>
      </trkpt>
      <trkpt lat="48.09539" lon="7.67906">
        <ele>429.85</ele>
        <time>2015-05-07T13:00:04Z</time>
      </trkpt>
      <trkpt lat="48.09539" lon="7.67906">
        <ele>426</ele>
        <time>2015-05-07T13:00:07Z</time>
      </trkpt>
      <trkpt lat="48.09539" lon="7.67906">
        <ele>429.37</ele>
        <time>2015-05-07T13:00:08Z</time>
      </trkpt>
      <trkpt lat="48.09539" lon="7.67906">
        <ele>429.85</ele>
        <time>2015-05-07T13:00:09Z</time>
      </trkpt>
      <trkpt lat="48.09539" lon="7.67906">
        <ele>426.48</ele>
        <time>2015-05-07T13:00:17Z</time>
      </trkpt>
      <trkpt lat="48.09539" lon="7.67906">
        <ele>429.37</ele>
        <time>2015-05-07T13:00:20Z</time>
      </trkpt>
      <trkpt lat="48.09539" lon="7.67906">
        <ele>427.44</ele>
        <time>2015-05-07T13:00:23Z</time>
      </trkpt>
      <trkpt lat="48.09539" lon="7.67906">
        <ele>428.89</ele>
        <time>2015-05-07T13:00:25Z</time>
      </trkpt>
      <trkpt lat="48.09538" lon="7.67906">
        <ele>430.81</ele>
        <time>2015-05-07T13:00:34Z</time>
      </trkpt>
      <trkpt lat="48.09538" lon="7.67905">
        <ele>426.96</ele>
        <time>2015-05-07T13:00:37Z</time>
      </trkpt>
      <trkpt lat="48.09537" lon="7.67904">
        <ele>428.4</ele>
        <time>2015-05-07T13:00:38Z</time>
      </trkpt>
      <trkpt lat="48.09535" lon="7.67903">
        <ele>430.81</ele>
        <time>2015-05-07T13:00:52Z</time>
      </trkpt>
      <trkpt lat="48.09535" lon="7.679">
        <ele>431.77</ele>
        <time>2015-05-07T13:00:54Z</time>
      </trkpt>
      <trkpt lat="48.09532" lon="7.67895">
        <ele>427.44</ele>
        <time>2015-05-07T13:00:57Z</time>
      </trkpt>
      <trkpt lat="48.09532" lon="7.67893">
        <ele>425.52</ele>
        <time>2015-05-07T13:00:58Z</time>
      </trkpt>
      <trkpt lat="48.09529" lon="7.67882">
        <ele>424.08</ele>
        <time>2015-05-07T13:01:05Z</time>
      </trkpt>
      <trkpt lat="48.09529" lon="7.67876">
        <ele>427.44</ele>
        <time>2015-05-07T13:01:08Z</time>
      </trkpt>
      <trkpt lat="48.09527" lon="7.67868">
        <ele>420.71</ele>
        <time>2015-05-07T13:01:13Z</time>
      </trkpt>
      <trkpt lat="48.09527" lon="7.67866">
        <ele>420.71</ele>
        <time>2015-05-07T13:01:14Z</time>
      </trkpt>
      <trkpt lat="48.09523" lon="7.67858">
        <ele>424.56</ele>
        <time>2015-05-07T13:01:19Z</time>
      </trkpt>
      <trkpt lat="48.09521" lon="7.67852">
        <ele>419.75</ele>
        <time>2015-05-07T13:01:23Z</time>
      </trkpt>
      <trkpt lat="48.0952" lon="7.67851">
        <ele>419.75</ele>
        <time>2015-05-07T13:01:24Z</time>
      </trkpt>
      <trkpt lat="48.09515" lon="7.67843">
        <ele>420.23</ele>
        <time>2015-05-07T13:01:29Z</time>
      </trkpt>
      <trkpt lat="48.09508" lon="7.67838">
        <ele>415.91</ele>
        <time>2015-05-07T13:01:35Z</time>
      </trkpt>
      <trkpt lat="48.09505" lon="7.67837">
        <ele>415.43</ele>
        <time>2015-05-07T13:01:37Z</time>
      </trkpt>
      <trkpt lat="48.09486" lon="7.67824">
        <ele>413.98</ele>
        <time>2015-05-07T13:01:53Z</time>
      </trkpt>
      <trkpt lat="48.09483" lon="7.67822">
        <ele>412.06</ele>
        <time>2015-05-07T13:01:56Z</time>
      </trkpt>
      <trkpt lat="48.09481" lon="7.6782">
        <ele>413.02</ele>
        <time>2015-05-07T13:01:58Z</time>
      </trkpt>
      <trkpt lat="48.0948" lon="7.6782">
        <ele>413.5</ele>
        <time>2015-05-07T13:02:07Z</time>
      </trkpt>
      <trkpt lat="48.09479" lon="7.6782">
        <ele>416.39</ele>
        <time>2015-05-07T13:02:08Z</time>
      </trkpt>
      <trkpt lat="48.09477" lon="7.67819">
        <ele>412.54</ele>
        <time>2015-05-07T13:02:10Z</time>
      </trkpt>
      <trkpt lat="48.09476" lon="7.67818">
        <ele>412.54</ele>
        <time>2015-05-07T13:02:11Z</time>
      </trkpt>
      <trkpt lat="48.0947" lon="7.67814">
        <ele>414.95</ele>
        <time>2015-05-07T13:02:16Z</time>
      </trkpt>
      <trkpt lat="48.09467" lon="7.6781">
        <ele>409.66</ele>
        <time>2015-05-07T13:02:19Z</time>
      </trkpt>
      <trkpt lat="48.09465" lon="7.67809">
        <ele>410.14</ele>
        <time>2015-05-07T13:02:20Z</time>
      </trkpt>
      <trkpt lat="48.0946" lon="7.67805">
        <ele>414.95</ele>
        <time>2015-05-07T13:02:24Z</time>
      </trkpt>
      <trkpt lat="48.09459" lon="7.67804">
        <ele>411.1</ele>
        <time>2015-05-07T13:02:25Z</time>
      </trkpt>
      <trkpt lat="48.09454" lon="7.67797">
        <ele>414.95</ele>
        <time>2015-05-07T13:02:30Z</time>
      </trkpt>
      <trkpt lat="48.09453" lon="7.67796">
        <ele>415.43</ele>
        <time>2015-05-07T13:02:31Z</time>
      </trkpt>
      <trkpt lat="48.09449" lon="7.67793">
        <ele>413.02</ele>
        <time>2015-05-07T13:02:34Z</time>
      </trkpt>
      <trkpt lat="48.09448" lon="7.67792">
        <ele>410.14</ele>
        <time>2015-05-07T13:02:35Z</time>
      </trkpt>
      <trkpt lat="48.09447" lon="7.67791">
        <ele>413.5</ele>
        <time>2015-05-07T13:02:36Z</time>
      </trkpt>
      <trkpt lat="48.09445" lon="7.67788">
        <ele>416.87</ele>
        <time>2015-05-07T13:02:38Z</time>
      </trkpt>
      <trkpt lat="48.09445" lon="7.67787">
        <ele>416.39</ele>
        <time>2015-05-07T13:02:39Z</time>
      </trkpt>
      <trkpt lat="48.09443" lon="7.67784">
        <ele>413.02</ele>
        <time>2015-05-07T13:02:41Z</time>
      </trkpt>
      <trkpt lat="48.09442" lon="7.67783">
        <ele>413.5</ele>
        <time>2015-05-07T13:02:42Z</time>
      </trkpt>
      <trkpt lat="48.09437" lon="7.67772">
        <ele>414.95</ele>
        <time>2015-05-07T13:02:49Z</time>
      </trkpt>
      <trkpt lat="48.09433" lon="7.67761">
        <ele>411.58</ele>
        <time>2015-05-07T13:02:55Z</time>
      </trkpt>
      <trkpt lat="48.09432" lon="7.67759">
        <ele>411.1</ele>
        <time>2015-05-07T13:02:56Z</time>
      </trkpt>
      <trkpt lat="48.09425" lon="7.67731">
        <ele>410.62</ele>
        <time>2015-05-07T13:03:12Z</time>
      </trkpt>
      <trkpt lat="48.09424" lon="7.67726">
        <ele>408.7</ele>
        <time>2015-05-07T13:03:15Z</time>
      </trkpt>
      <trkpt lat="48.09423" lon="7.67719">
        <ele>413.98</ele>
        <time>2015-05-07T13:03:19Z</time>
      </trkpt>
      <trkpt lat="48.09422" lon="7.67714">
        <ele>409.66</ele>
        <time>2015-05-07T13:03:22Z</time>
      </trkpt>
      <trkpt lat="48.09421" lon="7.67706">
        <ele>411.1</ele>
        <time>2015-05-07T13:03:27Z</time>
      </trkpt>
      <trkpt lat="48.09421" lon="7.67704">
        <ele>406.29</ele>
        <time>2015-05-07T13:03:28Z</time>
      </trkpt>
      <trkpt lat="48.09421" lon="7.67701">
        <ele>404.85</ele>
        <time>2015-05-07T13:03:30Z</time>
      </trkpt>
      <trkpt lat="48.0942" lon="7.67698">
        <ele>410.14</ele>
        <time>2015-05-07T13:03:32Z</time>
      </trkpt>
      <trkpt lat="48.0942" lon="7.67696">
        <ele>409.66</ele>
        <time>2015-05-07T13:03:33Z</time>
      </trkpt>
      <trkpt lat="48.09419" lon="7.6769">
        <ele>403.41</ele>
        <time>2015-05-07T13:03:37Z</time>
      </trkpt>
      <trkpt lat="48.09418" lon="7.67688">
        <ele>404.85</ele>
        <time>2015-05-07T13:03:38Z</time>
      </trkpt>
      <trkpt lat="48.09417" lon="7.67686">
        <ele>406.77</ele>
        <time>2015-05-07T13:03:40Z</time>
      </trkpt>
      <trkpt lat="48.09416" lon="7.6768">
        <ele>404.85</ele>
        <time>2015-05-07T13:03:44Z</time>
      </trkpt>
      <trkpt lat="48.09416" lon="7.67679">
        <ele>401.49</ele>
        <time>2015-05-07T13:03:45Z</time>
      </trkpt>
      <trkpt lat="48.09416" lon="7.67677">
        <ele>396.68</ele>
        <time>2015-05-07T13:03:46Z</time>
      </trkpt>
      <trkpt lat="48.09416" lon="7.67676">
        <ele>397.16</ele>
        <time>2015-05-07T13:03:47Z</time>
      </trkpt>
      <trkpt lat="48.09415" lon="7.67672">
        <ele>401.97</ele>
        <time>2015-05-07T13:03:49Z</time>
      </trkpt>
      <trkpt lat="48.09412" lon="7.67667">
        <ele>396.68</ele>
        <time>2015-05-07T13:03:53Z</time>
      </trkpt>
      <trkpt lat="48.09411" lon="7.67665">
        <ele>393.8</ele>
        <time>2015-05-07T13:03:55Z</time>
      </trkpt>
      <trkpt lat="48.09408" lon="7.67662">
        <ele>396.68</ele>
        <time>2015-05-07T13:03:58Z</time>
      </trkpt>
      <trkpt lat="48.09408" lon="7.67662">
        <ele>400.53</ele>
        <time>2015-05-07T13:03:59Z</time>
      </trkpt>
      <trkpt lat="48.09407" lon="7.67661">
        <ele>397.64</ele>
        <time>2015-05-07T13:04:00Z</time>
      </trkpt>
      <trkpt lat="48.09407" lon="7.6766">
        <ele>397.16</ele>
        <time>2015-05-07T13:04:01Z</time>
      </trkpt>
      <trkpt lat="48.09405" lon="7.6766">
        <ele>394.76</ele>
        <time>2015-05-07T13:04:03Z</time>
      </trkpt>
      <trkpt lat="48.09404" lon="7.67659">
        <ele>392.84</ele>
        <time>2015-05-07T13:04:04Z</time>
      </trkpt>
      <trkpt lat="48.09404" lon="7.67656">
        <ele>396.2</ele>
        <time>2015-05-07T13:04:06Z</time>
      </trkpt>
      <trkpt lat="48.09403" lon="7.67655">
        <ele>394.28</ele>
        <time>2015-05-07T13:04:07Z</time>
      </trkpt>
      <trkpt lat="48.094" lon="7.67647">
        <ele>392.36</ele>
        <time>2015-05-07T13:04:13Z</time>
      </trkpt>
      <trkpt lat="48.09397" lon="7.6764">
        <ele>390.43</ele>
        <time>2015-05-07T13:04:20Z</time>
      </trkpt>
      <trkpt lat="48.09396" lon="7.67636">
        <ele>383.7</ele>
        <time>2015-05-07T13:04:22Z</time>
      </trkpt>
      <trkpt lat="48.09396" lon="7.67635">
        <ele>387.07</ele>
        <time>2015-05-07T13:04:23Z</time>
      </trkpt>
      <trkpt lat="48.09395" lon="7.67634">
        <ele>388.99</ele>
        <time>2015-05-07T13:04:25Z</time>
      </trkpt>
      <trkpt lat="48.09393" lon="7.67634">
        <ele>384.66</ele>
        <time>2015-05-07T13:04:29Z</time>
      </trkpt>
      <trkpt lat="48.09393" lon="7.67634">
        <ele>388.03</ele>
        <time>2015-05-07T13:04:30Z</time>
      </trkpt>
      <trkpt lat="48.09393" lon="7.67633">
        <ele>391.87</ele>
        <time>2015-05-07T13:04:31Z</time>
      </trkpt>
      <trkpt lat="48.09393" lon="7.67631">
        <ele>384.18</ele>
        <time>2015-05-07T13:04:32Z</time>
      </trkpt>
      <trkpt lat="48.09393" lon="7.6763">
        <ele>386.11</ele>
        <time>2015-05-07T13:04:33Z</time>
      </trkpt>
      <trkpt lat="48.09392" lon="7.67627">
        <ele>382.74</ele>
        <time>2015-05-07T13:04:36Z</time>
      </trkpt>
      <trkpt lat="48.09391" lon="7.67626">
        <ele>379.38</ele>
        <time>2015-05-07T13:04:37Z</time>
      </trkpt>
      <trkpt lat="48.09391" lon="7.67626">
        <ele>383.7</ele>
        <time>2015-05-07T13:04:38Z</time>
      </trkpt>
      <trkpt lat="48.0939" lon="7.67623">
        <ele>383.22</ele>
        <time>2015-05-07T13:04:43Z</time>
      </trkpt>
      <trkpt lat="48.09389" lon="7.67621">
        <ele>386.59</ele>
        <time>2015-05-07T13:04:47Z</time>
      </trkpt>
      <trkpt lat="48.09388" lon="7.67619">
        <ele>386.59</ele>
        <time>2015-05-07T13:04:48Z</time>
      </trkpt>
      <trkpt lat="48.09388" lon="7.67617">
        <ele>382.26</ele>
        <time>2015-05-07T13:04:49Z</time>
      </trkpt>
      <trkpt lat="48.09387" lon="7.67616">
        <ele>378.42</ele>
        <time>2015-05-07T13:04:50Z</time>
      </trkpt>
      <trkpt lat="48.09387" lon="7.67614">
        <ele>381.78</ele>
        <time>2015-05-07T13:04:51Z</time>
      </trkpt>
      <trkpt lat="48.09385" lon="7.6761">
        <ele>378.42</ele>
        <time>2015-05-07T13:04:54Z</time>
      </trkpt>
      <trkpt lat="48.09384" lon="7.67606">
        <ele>380.82</ele>
        <time>2015-05-07T13:04:57Z</time>
      </trkpt>
      <trkpt lat="48.09383" lon="7.67603">
        <ele>375.53</ele>
        <time>2015-05-07T13:04:59Z</time>
      </trkpt>
      <trkpt lat="48.09382" lon="7.67602">
        <ele>376.01</ele>
        <time>2015-05-07T13:05:00Z</time>
      </trkpt>
      <trkpt lat="48.0938" lon="7.67594">
        <ele>376.97</ele>
        <time>2015-05-07T13:05:05Z</time>
      </trkpt>
      <trkpt lat="48.0938" lon="7.67593">
        <ele>372.17</ele>
        <time>2015-05-07T13:05:06Z</time>
      </trkpt>
      <trkpt lat="48.09379" lon="7.67591">
        <ele>372.65</ele>
        <time>2015-05-07T13:05:07Z</time>
      </trkpt>
      <trkpt lat="48.09375" lon="7.67583">
        <ele>369.76</ele>
        <time>2015-05-07T13:05:15Z</time>
      </trkpt>
      <trkpt lat="48.09371" lon="7.67574">
        <ele>370.24</ele>
        <time>2015-05-07T13:05:21Z</time>
      </trkpt>
      <trkpt lat="48.0937" lon="7.67572">
        <ele>366.4</ele>
        <time>2015-05-07T13:05:23Z</time>
      </trkpt>
      <trkpt lat="48.09369" lon="7.67569">
        <ele>364.48</ele>
        <time>2015-05-07T13:05:25Z</time>
      </trkpt>
      <trkpt lat="48.09367" lon="7.67565">
        <ele>369.28</ele>
        <time>2015-05-07T13:05:28Z</time>
      </trkpt>
      <trkpt lat="48.09367" lon="7.67565">
        <ele>365.92</ele>
        <time>2015-05-07T13:05:30Z</time>
      </trkpt>
      <trkpt lat="48.09367" lon="7.67565">
        <ele>365.44</ele>
        <time>2015-05-07T13:05:31Z</time>
      </trkpt>
      <trkpt lat="48.09367" lon="7.67564">
        <ele>362.07</ele>
        <time>2015-05-07T13:05:36Z</time>
      </trkpt>
      <trkpt lat="48.09366" lon="7.6756">
        <ele>366.4</ele>
        <time>2015-05-07T13:05:39Z</time>
      </trkpt>
      <trkpt lat="48.09365" lon="7.67558">
        <ele>366.4</ele>
        <time>2015-05-07T13:05:40Z</time>
      </trkpt>
      <trkpt lat="48.09364" lon="7.67556">
        <ele>363.04</ele>
        <time>2015-05-07T13:05:42Z</time>
      </trkpt>
      <trkpt lat="48.09363" lon="7.67552">
        <ele>366.4</ele>
        <time>2015-05-07T13:05:45Z</time>
      </trkpt>
      <trkpt lat="48.09361" lon="7.67548">
        <ele>360.15</ele>
        <time>2015-05-07T13:05:48Z</time>
      </trkpt>
      <trkpt lat="48.09359" lon="7.6754">
        <ele>356.79</ele>
        <time>2015-05-07T13:05:54Z</time>
      </trkpt>
      <trkpt lat="48.09357" lon="7.67538">
        <ele>359.67</ele>
        <time>2015-05-07T13:05:56Z</time>
      </trkpt>
      <trkpt lat="48.09357" lon="7.67537">
        <ele>359.19</ele>
        <time>2015-05-07T13:05:57Z</time>
      </trkpt>
      <trkpt lat="48.09355" lon="7.67533">
        <ele>354.86</ele>
        <time>2015-05-07T13:06:00Z</time>
      </trkpt>
      <trkpt lat="48.09355" lon="7.67531">
        <ele>355.34</ele>
        <time>2015-05-07T13:06:01Z</time>
      </trkpt>
      <trkpt lat="48.09354" lon="7.67527">
        <ele>351.5</ele>
        <time>2015-05-07T13:06:04Z</time>
      </trkpt>
      <trkpt lat="48.09352" lon="7.67523">
        <ele>354.86</ele>
        <time>2015-05-07T13:06:07Z</time>
      </trkpt>
      <trkpt lat="48.09351" lon="7.67519">
        <ele>350.54</ele>
        <time>2015-05-07T13:06:10Z</time>
      </trkpt>
      <trkpt lat="48.0935" lon="7.67519">
        <ele>353.42</ele>
        <time>2015-05-07T13:06:11Z</time>
      </trkpt>
      <trkpt lat="48.09349" lon="7.67517">
        <ele>350.06</ele>
        <time>2015-05-07T13:06:13Z</time>
      </trkpt>
      <trkpt lat="48.09348" lon="7.67515">
        <ele>353.42</ele>
        <time>2015-05-07T13:06:15Z</time>
      </trkpt>
      <trkpt lat="48.09348" lon="7.67514">
        <ele>350.06</ele>
        <time>2015-05-07T13:06:17Z</time>
      </trkpt>
      <trkpt lat="48.09347" lon="7.67512">
        <ele>348.13</ele>
        <time>2015-05-07T13:06:19Z</time>
      </trkpt>
      <trkpt lat="48.09346" lon="7.67512">
        <ele>346.69</ele>
        <time>2015-05-07T13:06:20Z</time>
      </trkpt>
      <trkpt lat="48.09344" lon="7.67509">
        <ele>348.62</ele>
        <time>2015-05-07T13:06:23Z</time>
      </trkpt>
      <trkpt lat="48.09343" lon="7.67504">
        <ele>346.21</ele>
        <time>2015-05-07T13:06:26Z</time>
      </trkpt>
      <trkpt lat="48.09339" lon="7.67496">
        <ele>343.33</ele>
        <time>2015-05-07T13:06:32Z</time>
      </trkpt>
      <trkpt lat="48.09339" lon="7.67494">
        <ele>343.81</ele>
        <time>2015-05-07T13:06:33Z</time>
      </trkpt>
      <trkpt lat="48.09335" lon="7.6749">
        <ele>347.65</ele>
        <time>2015-05-07T13:06:37Z</time>
      </trkpt>
      <trkpt lat="48.09331" lon="7.67486">
        <ele>341.41</ele>
        <time>2015-05-07T13:06:42Z</time>
      </trkpt>
      <trkpt lat="48.0933" lon="7.67483">
        <ele>339.96</ele>
        <time>2015-05-07T13:06:44Z</time>
      </trkpt>
      <trkpt lat="48.09329" lon="7.67482">
        <ele>344.29</ele>
        <time>2015-05-07T13:06:45Z</time>
      </trkpt>
      <trkpt lat="48.09328" lon="7.67479">
        <ele>345.25</ele>
        <time>2015-05-07T13:06:47Z</time>
      </trkpt>
      <trkpt lat="48.09326" lon="7.67474">
        <ele>341.41</ele>
        <time>2015-05-07T13:06:50Z</time>
      </trkpt>
      <trkpt lat="48.09325" lon="7.67469">
        <ele>339</ele>
        <time>2015-05-07T13:06:53Z</time>
      </trkpt>
      <trkpt lat="48.09325" lon="7.67468">
        <ele>336.12</ele>
        <time>2015-05-07T13:06:54Z</time>
      </trkpt>
      <trkpt lat="48.09324" lon="7.67464">
        <ele>339.96</ele>
        <time>2015-05-07T13:06:57Z</time>
      </trkpt>
      <trkpt lat="48.09325" lon="7.67458">
        <ele>336.12</ele>
        <time>2015-05-07T13:07:00Z</time>
      </trkpt>
      <trkpt lat="48.09325" lon="7.67456">
        <ele>336.12</ele>
        <time>2015-05-07T13:07:01Z</time>
      </trkpt>
      <trkpt lat="48.09326" lon="7.67453">
        <ele>334.2</ele>
        <time>2015-05-07T13:07:03Z</time>
      </trkpt>
      <trkpt lat="48.09326" lon="7.6745">
        <ele>339.48</ele>
        <time>2015-05-07T13:07:05Z</time>
      </trkpt>
      <trkpt lat="48.09326" lon="7.67448">
        <ele>339.48</ele>
        <time>2015-05-07T13:07:06Z</time>
      </trkpt>
      <trkpt lat="48.09326" lon="7.67445">
        <ele>337.08</ele>
        <time>2015-05-07T13:07:09Z</time>
      </trkpt>
      <trkpt lat="48.09326" lon="7.67444">
        <ele>333.23</ele>
        <time>2015-05-07T13:07:10Z</time>
      </trkpt>
      <trkpt lat="48.09327" lon="7.67443">
        <ele>334.2</ele>
        <time>2015-05-07T13:07:11Z</time>
      </trkpt>
      <trkpt lat="48.0933" lon="7.67437">
        <ele>335.64</ele>
        <time>2015-05-07T13:07:15Z</time>
      </trkpt>
      <trkpt lat="48.09332" lon="7.67432">
        <ele>331.79</ele>
        <time>2015-05-07T13:07:18Z</time>
      </trkpt>
      <trkpt lat="48.0934" lon="7.6742">
        <ele>327.47</ele>
        <time>2015-05-07T13:07:27Z</time>
      </trkpt>
      <trkpt lat="48.09342" lon="7.67418">
        <ele>326.5</ele>
        <time>2015-05-07T13:07:29Z</time>
      </trkpt>
      <trkpt lat="48.09343" lon="7.67418">
        <ele>329.87</ele>
        <time>2015-05-07T13:07:30Z</time>
      </trkpt>
      <trkpt lat="48.09345" lon="7.67418">
        <ele>329.39</ele>
        <time>2015-05-07T13:07:31Z</time>
      </trkpt>
      <trkpt lat="48.09348" lon="7.67417">
        <ele>325.54</ele>
        <time>2015-05-07T13:07:34Z</time>
      </trkpt>
      <trkpt lat="48.09349" lon="7.67416">
        <ele>326.5</ele>
        <time>2015-05-07T13:07:35Z</time>
      </trkpt>
      <trkpt lat="48.09355" lon="7.67414">
        <ele>330.35</ele>
        <time>2015-05-07T13:07:41Z</time>
      </trkpt>
      <trkpt lat="48.09359" lon="7.67413">
        <ele>326.02</ele>
        <time>2015-05-07T13:07:45Z</time>
      </trkpt>
      <trkpt lat="48.09362" lon="7.67417">
        <ele>326.02</ele>
        <time>2015-05-07T13:08:10Z</time>
      </trkpt>
      <trkpt lat="48.09362" lon="7.67419">
        <ele>325.06</ele>
        <time>2015-05-07T13:08:15Z</time>
      </trkpt>
      <trkpt lat="48.09362" lon="7.67419">
        <ele>326.02</ele>
        <time>2015-05-07T13:08:17Z</time>
      </trkpt>
      <trkpt lat="48.09362" lon="7.67418">
        <ele>322.18</ele>
        <time>2015-05-07T13:08:19Z</time>
      </trkpt>
      <trkpt lat="48.09361" lon="7.67415">
        <ele>321.22</ele>
        <time>2015-05-07T13:08:21Z</time>
      </trkpt>
      <trkpt lat="48.09361" lon="7.67411">
        <ele>325.06</ele>
        <time>2015-05-07T13:08:24Z</time>
      </trkpt>
      <trkpt lat="48.09361" lon="7.67408">
        <ele>321.7</ele>
        <time>2015-05-07T13:08:27Z</time>
      </trkpt>
      <trkpt lat="48.09359" lon="7.67403">
        <ele>317.85</ele>
        <time>2015-05-07T13:08:31Z</time>
      </trkpt>
      <trkpt lat="48.09358" lon="7.67398">
        <ele>316.41</ele>
        <time>2015-05-07T13:08:34Z</time>
      </trkpt>
      <trkpt lat="48.09355" lon="7.67388">
        <ele>311.12</ele>
        <time>2015-05-07T13:08:43Z</time>
      </trkpt>
      <trkpt lat="48.09355" lon="7.67388">
        <ele>310.64</ele>
        <time>2015-05-07T13:08:44Z</time>
      </trkpt>
      <trkpt lat="48.09353" lon="7.67386">
        <ele>315.93</ele>
        <time>2015-05-07T13:08:46Z</time>
      </trkpt>
      <trkpt lat="48.09353" lon="7.67385">
        <ele>314.97</ele>
        <time>2015-05-07T13:08:47Z</time>
      </trkpt>
      <trkpt lat="48.09351" lon="7.67383">
        <ele>311.6</ele>
        <time>2015-05-07T13:08:49Z</time>
      </trkpt>
      <trkpt lat="48.09351" lon="7.67383">
        <ele>311.12</ele>
        <time>2015-05-07T13:08:50Z</time>
      </trkpt>
      <trkpt lat="48.09348" lon="7.67379">
        <ele>307.28</ele>
        <time>2015-05-07T13:08:54Z</time>
      </trkpt>
      <trkpt lat="48.09346" lon="7.67377">
        <ele>313.53</ele>
        <time>2015-05-07T13:08:57Z</time>
      </trkpt>
      <trkpt lat="48.09345" lon="7.67375">
        <ele>311.6</ele>
        <time>2015-05-07T13:08:58Z</time>
      </trkpt>
      <trkpt lat="48.09345" lon="7.67374">
        <ele>307.28</ele>
        <time>2015-05-07T13:08:59Z</time>
      </trkpt>
      <trkpt lat="48.09339" lon="7.67369">
        <ele>304.39</ele>
        <time>2015-05-07T13:09:07Z</time>
      </trkpt>
      <trkpt lat="48.09336" lon="7.67364">
        <ele>307.28</ele>
        <time>2015-05-07T13:09:17Z</time>
      </trkpt>
      <trkpt lat="48.09336" lon="7.67364">
        <ele>302.95</ele>
        <time>2015-05-07T13:09:19Z</time>
      </trkpt>
      <trkpt lat="48.09334" lon="7.67363">
        <ele>304.88</ele>
        <time>2015-05-07T13:09:25Z</time>
      </trkpt>
      <trkpt lat="48.09334" lon="7.67363">
        <ele>303.43</ele>
        <time>2015-05-07T13:09:26Z</time>
      </trkpt>
      <trkpt lat="48.0933" lon="7.67361">
        <ele>300.07</ele>
        <time>2015-05-07T13:09:29Z</time>
      </trkpt>
      <trkpt lat="48.09323" lon="7.6736">
        <ele>296.22</ele>
        <time>2015-05-07T13:09:35Z</time>
      </trkpt>
      <trkpt lat="48.09322" lon="7.6736">
        <ele>298.15</ele>
        <time>2015-05-07T13:09:36Z</time>
      </trkpt>
      <trkpt lat="48.09318" lon="7.67362">
        <ele>297.67</ele>
        <time>2015-05-07T13:09:42Z</time>
      </trkpt>
      <trkpt lat="48.09318" lon="7.67362">
        <ele>293.82</ele>
        <time>2015-05-07T13:09:45Z</time>
      </trkpt>
      <trkpt lat="48.09316" lon="7.67362">
        <ele>299.11</ele>
        <time>2015-05-07T13:09:47Z</time>
      </trkpt>
      <trkpt lat="48.09315" lon="7.67362">
        <ele>299.11</ele>
        <time>2015-05-07T13:09:48Z</time>
      </trkpt>
      <trkpt lat="48.09314" lon="7.67363">
        <ele>295.74</ele>
        <time>2015-05-07T13:09:50Z</time>
      </trkpt>
      <trkpt lat="48.0931" lon="7.67363">
        <ele>291.42</ele>
        <time>2015-05-07T13:09:53Z</time>
      </trkpt>
      <trkpt lat="48.0931" lon="7.67362">
        <ele>292.38</ele>
        <time>2015-05-07T13:09:54Z</time>
      </trkpt>
      <trkpt lat="48.09297" lon="7.67355">
        <ele>286.61</ele>
        <time>2015-05-07T13:10:09Z</time>
      </trkpt>
      <trkpt lat="48.09296" lon="7.67356">
        <ele>291.42</ele>
        <time>2015-05-07T13:10:10Z</time>
      </trkpt>
      <trkpt lat="48.09295" lon="7.67355">
        <ele>291.42</ele>
        <time>2015-05-07T13:10:11Z</time>
      </trkpt>
      <trkpt lat="48.09293" lon="7.67355">
        <ele>286.13</ele>
        <time>2015-05-07T13:10:14Z</time>
      </trkpt>
      <trkpt lat="48.09292" lon="7.67355">
        <ele>287.09</ele>
        <time>2015-05-07T13:10:15Z</time>
      </trkpt>
      <trkpt lat="48.09291" lon="7.67356">
        <ele>290.46</ele>
        <time>2015-05-07T13:10:17Z</time>
      </trkpt>
      <trkpt lat="48.09289" lon="7.67356">
        <ele>289.97</ele>
        <time>2015-05-07T13:10:18Z</time>
      </trkpt>
      <trkpt lat="48.09285" lon="7.67359">
        <ele>287.57</ele>
        <time>2015-05-07T13:10:23Z</time>
      </trkpt>
      <trkpt lat="48.09282" lon="7.67362">
        <ele>282.77</ele>
        <time>2015-05-07T13:10:27Z</time>
      </trkpt>
      <trkpt lat="48.0928" lon="7.67361">
        <ele>287.57</ele>
        <time>2015-05-07T13:10:29Z</time>
      </trkpt>
      <trkpt lat="48.09269" lon="7.6735">
        <ele>287.57</ele>
        <time>2015-05-07T13:10:33Z</time>
      </trkpt>
      <trkpt lat="48.09269" lon="7.6735">
        <ele>287.57</ele>
        <time>2015-05-07T13:10:41Z</time>
      </trkpt>
      <trkpt lat="48.09269" lon="7.6735">
        <ele>286.13</ele>
        <time>2015-05-07T13:11:01Z</time>
      </trkpt>
    </trkseg>
  </trk>
</gpx>